<?xml version="1.0" encoding="UTF-8" standalone="no" ?>
<gpx xmlns="http://www.topografix.com/GPX/1/1" xmlns:xsi="http://www.w3.org/2001/XMLSchema-instance" xsi:schemaLocation="http://www.topografix.com/GPX/1/1 http://www.topografix.com/GPX/1/1/gpx.xsd" version="1.1" creator="VisuGPX - https://www.visugpx.com">
  <metadata>
    <name>Pornichet Rando 10/10/2021</name>
    <desc><![CDATA[Rando Pornichet du dimanche 10 octobre 2021]]></desc>
  </metadata>
  <trk>
    <name><![CDATA[Pornichet Cyclisme]]></name>
    <trkseg>
      <trkpt lat="47.27165" lon="-2.29215">
        <ele>26</ele>
        <time>2021-10-10T06:44:13.000Z</time>
      </trkpt>
      <trkpt lat="47.27169" lon="-2.29222">
        <ele>26</ele>
        <time>2021-10-10T06:44:16.000Z</time>
      </trkpt>
      <trkpt lat="47.2717" lon="-2.29224">
        <ele>25.60000038147</ele>
        <time>2021-10-10T06:44:17.000Z</time>
      </trkpt>
      <trkpt lat="47.27172" lon="-2.29232">
        <ele>25.60000038147</ele>
        <time>2021-10-10T06:44:20.000Z</time>
      </trkpt>
      <trkpt lat="47.27172" lon="-2.29251">
        <ele>25.60000038147</ele>
        <time>2021-10-10T06:44:24.000Z</time>
      </trkpt>
      <trkpt lat="47.27164" lon="-2.29275">
        <ele>25.60000038147</ele>
        <time>2021-10-10T06:44:30.000Z</time>
      </trkpt>
      <trkpt lat="47.27154" lon="-2.29304">
        <ele>25.60000038147</ele>
        <time>2021-10-10T06:44:36.000Z</time>
      </trkpt>
      <trkpt lat="47.27155" lon="-2.29316">
        <ele>25.60000038147</ele>
        <time>2021-10-10T06:44:39.000Z</time>
      </trkpt>
      <trkpt lat="47.27157" lon="-2.29319">
        <ele>25.60000038147</ele>
        <time>2021-10-10T06:44:40.000Z</time>
      </trkpt>
      <trkpt lat="47.27174" lon="-2.29346">
        <ele>25.60000038147</ele>
        <time>2021-10-10T06:44:46.000Z</time>
      </trkpt>
      <trkpt lat="47.27181" lon="-2.29355">
        <ele>25.60000038147</ele>
        <time>2021-10-10T06:44:48.000Z</time>
      </trkpt>
      <trkpt lat="47.27191" lon="-2.29374">
        <ele>25.60000038147</ele>
        <time>2021-10-10T06:44:51.000Z</time>
      </trkpt>
      <trkpt lat="47.27199" lon="-2.29392">
        <ele>25.60000038147</ele>
        <time>2021-10-10T06:44:54.000Z</time>
      </trkpt>
      <trkpt lat="47.27204" lon="-2.29409">
        <ele>25.60000038147</ele>
        <time>2021-10-10T06:44:57.000Z</time>
      </trkpt>
      <trkpt lat="47.27216" lon="-2.29443">
        <ele>25.60000038147</ele>
        <time>2021-10-10T06:45:03.000Z</time>
      </trkpt>
      <trkpt lat="47.27228" lon="-2.29487">
        <ele>25.60000038147</ele>
        <time>2021-10-10T06:45:10.000Z</time>
      </trkpt>
      <trkpt lat="47.27241" lon="-2.29523">
        <ele>25.60000038147</ele>
        <time>2021-10-10T06:45:17.000Z</time>
      </trkpt>
      <trkpt lat="47.27247" lon="-2.29551">
        <ele>25.60000038147</ele>
        <time>2021-10-10T06:45:22.000Z</time>
      </trkpt>
      <trkpt lat="47.27245" lon="-2.29572">
        <ele>25.60000038147</ele>
        <time>2021-10-10T06:45:26.000Z</time>
      </trkpt>
      <trkpt lat="47.27243" lon="-2.29576">
        <ele>25.60000038147</ele>
        <time>2021-10-10T06:45:27.000Z</time>
      </trkpt>
      <trkpt lat="47.27229" lon="-2.29586">
        <ele>25.60000038147</ele>
        <time>2021-10-10T06:45:31.000Z</time>
      </trkpt>
      <trkpt lat="47.27215" lon="-2.29595">
        <ele>25.60000038147</ele>
        <time>2021-10-10T06:45:34.000Z</time>
      </trkpt>
      <trkpt lat="47.27208" lon="-2.29602">
        <ele>25.60000038147</ele>
        <time>2021-10-10T06:45:36.000Z</time>
      </trkpt>
      <trkpt lat="47.272" lon="-2.29609">
        <ele>25.60000038147</ele>
        <time>2021-10-10T06:45:38.000Z</time>
      </trkpt>
      <trkpt lat="47.27192" lon="-2.29615">
        <ele>25.60000038147</ele>
        <time>2021-10-10T06:45:40.000Z</time>
      </trkpt>
      <trkpt lat="47.27184" lon="-2.29622">
        <ele>25.60000038147</ele>
        <time>2021-10-10T06:45:42.000Z</time>
      </trkpt>
      <trkpt lat="47.27155" lon="-2.29641">
        <ele>25.60000038147</ele>
        <time>2021-10-10T06:45:49.000Z</time>
      </trkpt>
      <trkpt lat="47.27151" lon="-2.29642">
        <ele>26.39999961853</ele>
        <time>2021-10-10T06:45:50.000Z</time>
      </trkpt>
      <trkpt lat="47.27147" lon="-2.29642">
        <ele>27</ele>
        <time>2021-10-10T06:45:51.000Z</time>
      </trkpt>
      <trkpt lat="47.27143" lon="-2.29642">
        <ele>27.39999961853</ele>
        <time>2021-10-10T06:45:52.000Z</time>
      </trkpt>
      <trkpt lat="47.27138" lon="-2.29643">
        <ele>27.799999237061</ele>
        <time>2021-10-10T06:45:53.000Z</time>
      </trkpt>
      <trkpt lat="47.27134" lon="-2.29644">
        <ele>27.799999237061</ele>
        <time>2021-10-10T06:45:54.000Z</time>
      </trkpt>
      <trkpt lat="47.27124" lon="-2.29649">
        <ele>27.799999237061</ele>
        <time>2021-10-10T06:45:57.000Z</time>
      </trkpt>
      <trkpt lat="47.27121" lon="-2.29658">
        <ele>27.799999237061</ele>
        <time>2021-10-10T06:45:59.000Z</time>
      </trkpt>
      <trkpt lat="47.27117" lon="-2.29686">
        <ele>27.799999237061</ele>
        <time>2021-10-10T06:46:04.000Z</time>
      </trkpt>
      <trkpt lat="47.27115" lon="-2.29735">
        <ele>27.799999237061</ele>
        <time>2021-10-10T06:46:11.000Z</time>
      </trkpt>
      <trkpt lat="47.27112" lon="-2.29786">
        <ele>27.799999237061</ele>
        <time>2021-10-10T06:46:18.000Z</time>
      </trkpt>
      <trkpt lat="47.27111" lon="-2.29827">
        <ele>27.799999237061</ele>
        <time>2021-10-10T06:46:24.000Z</time>
      </trkpt>
      <trkpt lat="47.27098" lon="-2.29879">
        <ele>27.799999237061</ele>
        <time>2021-10-10T06:46:31.000Z</time>
      </trkpt>
      <trkpt lat="47.27092" lon="-2.29894">
        <ele>27.799999237061</ele>
        <time>2021-10-10T06:46:33.000Z</time>
      </trkpt>
      <trkpt lat="47.2708" lon="-2.2991">
        <ele>27.799999237061</ele>
        <time>2021-10-10T06:46:36.000Z</time>
      </trkpt>
      <trkpt lat="47.27077" lon="-2.29915">
        <ele>27.799999237061</ele>
        <time>2021-10-10T06:46:37.000Z</time>
      </trkpt>
      <trkpt lat="47.27062" lon="-2.29934">
        <ele>27.799999237061</ele>
        <time>2021-10-10T06:46:41.000Z</time>
      </trkpt>
      <trkpt lat="47.27056" lon="-2.29945">
        <ele>27.799999237061</ele>
        <time>2021-10-10T06:46:43.000Z</time>
      </trkpt>
      <trkpt lat="47.27038" lon="-2.29987">
        <ele>27.799999237061</ele>
        <time>2021-10-10T06:46:50.000Z</time>
      </trkpt>
      <trkpt lat="47.2702" lon="-2.30031">
        <ele>27.799999237061</ele>
        <time>2021-10-10T06:46:56.000Z</time>
      </trkpt>
      <trkpt lat="47.27019" lon="-2.30056">
        <ele>27.799999237061</ele>
        <time>2021-10-10T06:47:01.000Z</time>
      </trkpt>
      <trkpt lat="47.27028" lon="-2.30056">
        <ele>27.799999237061</ele>
        <time>2021-10-10T06:47:04.000Z</time>
      </trkpt>
      <trkpt lat="47.27041" lon="-2.30054">
        <ele>27.799999237061</ele>
        <time>2021-10-10T06:47:07.000Z</time>
      </trkpt>
      <trkpt lat="47.27046" lon="-2.30055">
        <ele>27.799999237061</ele>
        <time>2021-10-10T06:47:08.000Z</time>
      </trkpt>
      <trkpt lat="47.27065" lon="-2.30061">
        <ele>27.799999237061</ele>
        <time>2021-10-10T06:47:12.000Z</time>
      </trkpt>
      <trkpt lat="47.27076" lon="-2.30067">
        <ele>27.799999237061</ele>
        <time>2021-10-10T06:47:14.000Z</time>
      </trkpt>
      <trkpt lat="47.27092" lon="-2.30085">
        <ele>27.799999237061</ele>
        <time>2021-10-10T06:47:18.000Z</time>
      </trkpt>
      <trkpt lat="47.27101" lon="-2.30093">
        <ele>27.799999237061</ele>
        <time>2021-10-10T06:47:20.000Z</time>
      </trkpt>
      <trkpt lat="47.27106" lon="-2.30097">
        <ele>27.200000762939</ele>
        <time>2021-10-10T06:47:21.000Z</time>
      </trkpt>
      <trkpt lat="47.27112" lon="-2.30101">
        <ele>26.799999237061</ele>
        <time>2021-10-10T06:47:22.000Z</time>
      </trkpt>
      <trkpt lat="47.27118" lon="-2.30102">
        <ele>26.39999961853</ele>
        <time>2021-10-10T06:47:23.000Z</time>
      </trkpt>
      <trkpt lat="47.27123" lon="-2.30104">
        <ele>26</ele>
        <time>2021-10-10T06:47:24.000Z</time>
      </trkpt>
      <trkpt lat="47.27129" lon="-2.30106">
        <ele>25.60000038147</ele>
        <time>2021-10-10T06:47:25.000Z</time>
      </trkpt>
      <trkpt lat="47.27134" lon="-2.30107">
        <ele>25.60000038147</ele>
        <time>2021-10-10T06:47:26.000Z</time>
      </trkpt>
      <trkpt lat="47.27149" lon="-2.30109">
        <ele>25.60000038147</ele>
        <time>2021-10-10T06:47:29.000Z</time>
      </trkpt>
      <trkpt lat="47.27154" lon="-2.30112">
        <ele>25.60000038147</ele>
        <time>2021-10-10T06:47:30.000Z</time>
      </trkpt>
      <trkpt lat="47.27159" lon="-2.30119">
        <ele>25.200000762939</ele>
        <time>2021-10-10T06:47:32.000Z</time>
      </trkpt>
      <trkpt lat="47.27162" lon="-2.30124">
        <ele>24.799999237061</ele>
        <time>2021-10-10T06:47:33.000Z</time>
      </trkpt>
      <trkpt lat="47.27165" lon="-2.30129">
        <ele>24.39999961853</ele>
        <time>2021-10-10T06:47:34.000Z</time>
      </trkpt>
      <trkpt lat="47.27166" lon="-2.30135">
        <ele>23.799999237061</ele>
        <time>2021-10-10T06:47:35.000Z</time>
      </trkpt>
      <trkpt lat="47.27168" lon="-2.30141">
        <ele>23.39999961853</ele>
        <time>2021-10-10T06:47:36.000Z</time>
      </trkpt>
      <trkpt lat="47.2717" lon="-2.30147">
        <ele>23.39999961853</ele>
        <time>2021-10-10T06:47:37.000Z</time>
      </trkpt>
      <trkpt lat="47.27177" lon="-2.30177">
        <ele>23</ele>
        <time>2021-10-10T06:47:41.000Z</time>
      </trkpt>
      <trkpt lat="47.27177" lon="-2.30186">
        <ele>22.60000038147</ele>
        <time>2021-10-10T06:47:42.000Z</time>
      </trkpt>
      <trkpt lat="47.27177" lon="-2.30195">
        <ele>22.200000762939</ele>
        <time>2021-10-10T06:47:43.000Z</time>
      </trkpt>
      <trkpt lat="47.27174" lon="-2.30204">
        <ele>21.799999237061</ele>
        <time>2021-10-10T06:47:44.000Z</time>
      </trkpt>
      <trkpt lat="47.27171" lon="-2.30213">
        <ele>21.39999961853</ele>
        <time>2021-10-10T06:47:45.000Z</time>
      </trkpt>
      <trkpt lat="47.2717" lon="-2.30219">
        <ele>21.39999961853</ele>
        <time>2021-10-10T06:47:46.000Z</time>
      </trkpt>
      <trkpt lat="47.27172" lon="-2.30229">
        <ele>21.39999961853</ele>
        <time>2021-10-10T06:47:49.000Z</time>
      </trkpt>
      <trkpt lat="47.27173" lon="-2.30232">
        <ele>21.39999961853</ele>
        <time>2021-10-10T06:47:50.000Z</time>
      </trkpt>
      <trkpt lat="47.27181" lon="-2.30248">
        <ele>21.39999961853</ele>
        <time>2021-10-10T06:47:54.000Z</time>
      </trkpt>
      <trkpt lat="47.27192" lon="-2.30245">
        <ele>21.39999961853</ele>
        <time>2021-10-10T06:47:57.000Z</time>
      </trkpt>
      <trkpt lat="47.27195" lon="-2.30244">
        <ele>21.39999961853</ele>
        <time>2021-10-10T06:47:58.000Z</time>
      </trkpt>
      <trkpt lat="47.27207" lon="-2.30245">
        <ele>21</ele>
        <time>2021-10-10T06:48:01.000Z</time>
      </trkpt>
      <trkpt lat="47.27211" lon="-2.30246">
        <ele>20.60000038147</ele>
        <time>2021-10-10T06:48:02.000Z</time>
      </trkpt>
      <trkpt lat="47.27215" lon="-2.30248">
        <ele>20.200000762939</ele>
        <time>2021-10-10T06:48:03.000Z</time>
      </trkpt>
      <trkpt lat="47.27218" lon="-2.30249">
        <ele>19.799999237061</ele>
        <time>2021-10-10T06:48:04.000Z</time>
      </trkpt>
      <trkpt lat="47.27221" lon="-2.3025">
        <ele>19.39999961853</ele>
        <time>2021-10-10T06:48:05.000Z</time>
      </trkpt>
      <trkpt lat="47.27226" lon="-2.30254">
        <ele>19.39999961853</ele>
        <time>2021-10-10T06:48:07.000Z</time>
      </trkpt>
      <trkpt lat="47.27232" lon="-2.30257">
        <ele>19.39999961853</ele>
        <time>2021-10-10T06:48:09.000Z</time>
      </trkpt>
      <trkpt lat="47.2724" lon="-2.30256">
        <ele>19.39999961853</ele>
        <time>2021-10-10T06:48:11.000Z</time>
      </trkpt>
      <trkpt lat="47.27255" lon="-2.30254">
        <ele>19.39999961853</ele>
        <time>2021-10-10T06:48:14.000Z</time>
      </trkpt>
      <trkpt lat="47.27261" lon="-2.30254">
        <ele>19.39999961853</ele>
        <time>2021-10-10T06:48:15.000Z</time>
      </trkpt>
      <trkpt lat="47.27288" lon="-2.30255">
        <ele>19.39999961853</ele>
        <time>2021-10-10T06:48:21.000Z</time>
      </trkpt>
      <trkpt lat="47.27325" lon="-2.30251">
        <ele>19.39999961853</ele>
        <time>2021-10-10T06:48:28.000Z</time>
      </trkpt>
      <trkpt lat="47.2733" lon="-2.3025">
        <ele>19.799999237061</ele>
        <time>2021-10-10T06:48:29.000Z</time>
      </trkpt>
      <trkpt lat="47.27335" lon="-2.3025">
        <ele>20.200000762939</ele>
        <time>2021-10-10T06:48:30.000Z</time>
      </trkpt>
      <trkpt lat="47.27341" lon="-2.3025">
        <ele>20.60000038147</ele>
        <time>2021-10-10T06:48:31.000Z</time>
      </trkpt>
      <trkpt lat="47.27346" lon="-2.3025">
        <ele>21</ele>
        <time>2021-10-10T06:48:32.000Z</time>
      </trkpt>
      <trkpt lat="47.27351" lon="-2.30249">
        <ele>21.39999961853</ele>
        <time>2021-10-10T06:48:33.000Z</time>
      </trkpt>
      <trkpt lat="47.27362" lon="-2.30248">
        <ele>21.39999961853</ele>
        <time>2021-10-10T06:48:35.000Z</time>
      </trkpt>
      <trkpt lat="47.27389" lon="-2.30241">
        <ele>21.39999961853</ele>
        <time>2021-10-10T06:48:40.000Z</time>
      </trkpt>
      <trkpt lat="47.27395" lon="-2.30238">
        <ele>21.39999961853</ele>
        <time>2021-10-10T06:48:41.000Z</time>
      </trkpt>
      <trkpt lat="47.27431" lon="-2.30221">
        <ele>21.39999961853</ele>
        <time>2021-10-10T06:48:48.000Z</time>
      </trkpt>
      <trkpt lat="47.27451" lon="-2.30213">
        <ele>21.39999961853</ele>
        <time>2021-10-10T06:48:53.000Z</time>
      </trkpt>
      <trkpt lat="47.27454" lon="-2.30215">
        <ele>21.39999961853</ele>
        <time>2021-10-10T06:48:54.000Z</time>
      </trkpt>
      <trkpt lat="47.27461" lon="-2.30223">
        <ele>21.39999961853</ele>
        <time>2021-10-10T06:48:56.000Z</time>
      </trkpt>
      <trkpt lat="47.27463" lon="-2.30229">
        <ele>21.39999961853</ele>
        <time>2021-10-10T06:48:57.000Z</time>
      </trkpt>
      <trkpt lat="47.27467" lon="-2.30243">
        <ele>21.39999961853</ele>
        <time>2021-10-10T06:48:59.000Z</time>
      </trkpt>
      <trkpt lat="47.27472" lon="-2.30265">
        <ele>21.39999961853</ele>
        <time>2021-10-10T06:49:02.000Z</time>
      </trkpt>
      <trkpt lat="47.27478" lon="-2.30292">
        <ele>21.39999961853</ele>
        <time>2021-10-10T06:49:05.000Z</time>
      </trkpt>
      <trkpt lat="47.27483" lon="-2.3032">
        <ele>21</ele>
        <time>2021-10-10T06:49:08.000Z</time>
      </trkpt>
      <trkpt lat="47.27484" lon="-2.30329">
        <ele>20.60000038147</ele>
        <time>2021-10-10T06:49:09.000Z</time>
      </trkpt>
      <trkpt lat="47.27486" lon="-2.30339">
        <ele>20.200000762939</ele>
        <time>2021-10-10T06:49:10.000Z</time>
      </trkpt>
      <trkpt lat="47.27488" lon="-2.30348">
        <ele>19.799999237061</ele>
        <time>2021-10-10T06:49:11.000Z</time>
      </trkpt>
      <trkpt lat="47.27491" lon="-2.30358">
        <ele>19.200000762939</ele>
        <time>2021-10-10T06:49:12.000Z</time>
      </trkpt>
      <trkpt lat="47.27502" lon="-2.3041">
        <ele>18.799999237061</ele>
        <time>2021-10-10T06:49:17.000Z</time>
      </trkpt>
      <trkpt lat="47.27503" lon="-2.30421">
        <ele>18.39999961853</ele>
        <time>2021-10-10T06:49:18.000Z</time>
      </trkpt>
      <trkpt lat="47.27505" lon="-2.30432">
        <ele>18</ele>
        <time>2021-10-10T06:49:19.000Z</time>
      </trkpt>
      <trkpt lat="47.27507" lon="-2.30443">
        <ele>17.39999961853</ele>
        <time>2021-10-10T06:49:20.000Z</time>
      </trkpt>
      <trkpt lat="47.27509" lon="-2.30453">
        <ele>17</ele>
        <time>2021-10-10T06:49:21.000Z</time>
      </trkpt>
      <trkpt lat="47.27519" lon="-2.30495">
        <ele>17</ele>
        <time>2021-10-10T06:49:25.000Z</time>
      </trkpt>
      <trkpt lat="47.27529" lon="-2.30534">
        <ele>16.60000038147</ele>
        <time>2021-10-10T06:49:29.000Z</time>
      </trkpt>
      <trkpt lat="47.27531" lon="-2.30544">
        <ele>16.200000762939</ele>
        <time>2021-10-10T06:49:30.000Z</time>
      </trkpt>
      <trkpt lat="47.27534" lon="-2.30552">
        <ele>15.800000190735</ele>
        <time>2021-10-10T06:49:31.000Z</time>
      </trkpt>
      <trkpt lat="47.27536" lon="-2.30561">
        <ele>15</ele>
        <time>2021-10-10T06:49:32.000Z</time>
      </trkpt>
      <trkpt lat="47.27541" lon="-2.30574">
        <ele>15</ele>
        <time>2021-10-10T06:49:34.000Z</time>
      </trkpt>
      <trkpt lat="47.27545" lon="-2.30585">
        <ele>15</ele>
        <time>2021-10-10T06:49:36.000Z</time>
      </trkpt>
      <trkpt lat="47.27548" lon="-2.30603">
        <ele>15</ele>
        <time>2021-10-10T06:49:40.000Z</time>
      </trkpt>
      <trkpt lat="47.27552" lon="-2.30627">
        <ele>15</ele>
        <time>2021-10-10T06:49:44.000Z</time>
      </trkpt>
      <trkpt lat="47.27555" lon="-2.30632">
        <ele>15</ele>
        <time>2021-10-10T06:49:45.000Z</time>
      </trkpt>
      <trkpt lat="47.27559" lon="-2.30644">
        <ele>15</ele>
        <time>2021-10-10T06:49:47.000Z</time>
      </trkpt>
      <trkpt lat="47.27563" lon="-2.30665">
        <ele>15</ele>
        <time>2021-10-10T06:49:50.000Z</time>
      </trkpt>
      <trkpt lat="47.27571" lon="-2.30707">
        <ele>15</ele>
        <time>2021-10-10T06:49:56.000Z</time>
      </trkpt>
      <trkpt lat="47.27573" lon="-2.30721">
        <ele>15</ele>
        <time>2021-10-10T06:49:58.000Z</time>
      </trkpt>
      <trkpt lat="47.27575" lon="-2.30728">
        <ele>15</ele>
        <time>2021-10-10T06:49:59.000Z</time>
      </trkpt>
      <trkpt lat="47.27587" lon="-2.30763">
        <ele>15</ele>
        <time>2021-10-10T06:50:04.000Z</time>
      </trkpt>
      <trkpt lat="47.27607" lon="-2.30816">
        <ele>15</ele>
        <time>2021-10-10T06:50:11.000Z</time>
      </trkpt>
      <trkpt lat="47.27628" lon="-2.30868">
        <ele>15</ele>
        <time>2021-10-10T06:50:18.000Z</time>
      </trkpt>
      <trkpt lat="47.27647" lon="-2.30911">
        <ele>15</ele>
        <time>2021-10-10T06:50:24.000Z</time>
      </trkpt>
      <trkpt lat="47.27664" lon="-2.30945">
        <ele>15</ele>
        <time>2021-10-10T06:50:29.000Z</time>
      </trkpt>
      <trkpt lat="47.27667" lon="-2.30952">
        <ele>15</ele>
        <time>2021-10-10T06:50:30.000Z</time>
      </trkpt>
      <trkpt lat="47.27688" lon="-2.31006">
        <ele>15</ele>
        <time>2021-10-10T06:50:37.000Z</time>
      </trkpt>
      <trkpt lat="47.27709" lon="-2.31058">
        <ele>15</ele>
        <time>2021-10-10T06:50:44.000Z</time>
      </trkpt>
      <trkpt lat="47.27714" lon="-2.3107">
        <ele>15</ele>
        <time>2021-10-10T06:50:46.000Z</time>
      </trkpt>
      <trkpt lat="47.27717" lon="-2.31083">
        <ele>15</ele>
        <time>2021-10-10T06:50:48.000Z</time>
      </trkpt>
      <trkpt lat="47.27717" lon="-2.31089">
        <ele>15</ele>
        <time>2021-10-10T06:50:49.000Z</time>
      </trkpt>
      <trkpt lat="47.27716" lon="-2.31096">
        <ele>15</ele>
        <time>2021-10-10T06:50:50.000Z</time>
      </trkpt>
      <trkpt lat="47.2771" lon="-2.31115">
        <ele>15</ele>
        <time>2021-10-10T06:50:53.000Z</time>
      </trkpt>
      <trkpt lat="47.27708" lon="-2.31123">
        <ele>15</ele>
        <time>2021-10-10T06:50:54.000Z</time>
      </trkpt>
      <trkpt lat="47.27701" lon="-2.31145">
        <ele>15</ele>
        <time>2021-10-10T06:50:57.000Z</time>
      </trkpt>
      <trkpt lat="47.2769" lon="-2.31192">
        <ele>15</ele>
        <time>2021-10-10T06:51:03.000Z</time>
      </trkpt>
      <trkpt lat="47.27683" lon="-2.31227">
        <ele>15</ele>
        <time>2021-10-10T06:51:07.000Z</time>
      </trkpt>
      <trkpt lat="47.27678" lon="-2.31245">
        <ele>15</ele>
        <time>2021-10-10T06:51:09.000Z</time>
      </trkpt>
      <trkpt lat="47.27672" lon="-2.31265">
        <ele>14.60000038147</ele>
        <time>2021-10-10T06:51:11.000Z</time>
      </trkpt>
      <trkpt lat="47.2767" lon="-2.31274">
        <ele>14</ele>
        <time>2021-10-10T06:51:12.000Z</time>
      </trkpt>
      <trkpt lat="47.27667" lon="-2.31284">
        <ele>13.60000038147</ele>
        <time>2021-10-10T06:51:13.000Z</time>
      </trkpt>
      <trkpt lat="47.27665" lon="-2.31293">
        <ele>13.199999809265</ele>
        <time>2021-10-10T06:51:14.000Z</time>
      </trkpt>
      <trkpt lat="47.27662" lon="-2.31304">
        <ele>12.800000190735</ele>
        <time>2021-10-10T06:51:15.000Z</time>
      </trkpt>
      <trkpt lat="47.27659" lon="-2.31313">
        <ele>12.800000190735</ele>
        <time>2021-10-10T06:51:16.000Z</time>
      </trkpt>
      <trkpt lat="47.2764" lon="-2.31373">
        <ele>12.39999961853</ele>
        <time>2021-10-10T06:51:22.000Z</time>
      </trkpt>
      <trkpt lat="47.27637" lon="-2.31384">
        <ele>12</ele>
        <time>2021-10-10T06:51:23.000Z</time>
      </trkpt>
      <trkpt lat="47.27634" lon="-2.31395">
        <ele>11.60000038147</ele>
        <time>2021-10-10T06:51:24.000Z</time>
      </trkpt>
      <trkpt lat="47.27631" lon="-2.31406">
        <ele>11.199999809265</ele>
        <time>2021-10-10T06:51:25.000Z</time>
      </trkpt>
      <trkpt lat="47.27628" lon="-2.31417">
        <ele>10.60000038147</ele>
        <time>2021-10-10T06:51:26.000Z</time>
      </trkpt>
      <trkpt lat="47.27617" lon="-2.31461">
        <ele>10.199999809265</ele>
        <time>2021-10-10T06:51:30.000Z</time>
      </trkpt>
      <trkpt lat="47.27614" lon="-2.31473">
        <ele>9.8000001907349</ele>
        <time>2021-10-10T06:51:31.000Z</time>
      </trkpt>
      <trkpt lat="47.27612" lon="-2.31483">
        <ele>9.3999996185303</ele>
        <time>2021-10-10T06:51:32.000Z</time>
      </trkpt>
      <trkpt lat="47.27609" lon="-2.31494">
        <ele>9</ele>
        <time>2021-10-10T06:51:33.000Z</time>
      </trkpt>
      <trkpt lat="47.27606" lon="-2.31505">
        <ele>8.6000003814697</ele>
        <time>2021-10-10T06:51:34.000Z</time>
      </trkpt>
      <trkpt lat="47.27603" lon="-2.31515">
        <ele>8.6000003814697</ele>
        <time>2021-10-10T06:51:35.000Z</time>
      </trkpt>
      <trkpt lat="47.27582" lon="-2.31576">
        <ele>8.6000003814697</ele>
        <time>2021-10-10T06:51:41.000Z</time>
      </trkpt>
      <trkpt lat="47.27578" lon="-2.31585">
        <ele>8.6000003814697</ele>
        <time>2021-10-10T06:51:42.000Z</time>
      </trkpt>
      <trkpt lat="47.27561" lon="-2.31642">
        <ele>8.6000003814697</ele>
        <time>2021-10-10T06:51:48.000Z</time>
      </trkpt>
      <trkpt lat="47.27545" lon="-2.31704">
        <ele>8.6000003814697</ele>
        <time>2021-10-10T06:51:54.000Z</time>
      </trkpt>
      <trkpt lat="47.27536" lon="-2.31742">
        <ele>8.1999998092651</ele>
        <time>2021-10-10T06:51:57.000Z</time>
      </trkpt>
      <trkpt lat="47.27534" lon="-2.31754">
        <ele>7.8000001907349</ele>
        <time>2021-10-10T06:51:58.000Z</time>
      </trkpt>
      <trkpt lat="47.27531" lon="-2.31766">
        <ele>7</ele>
        <time>2021-10-10T06:51:59.000Z</time>
      </trkpt>
      <trkpt lat="47.27528" lon="-2.31779">
        <ele>6.5999999046326</ele>
        <time>2021-10-10T06:52:00.000Z</time>
      </trkpt>
      <trkpt lat="47.27516" lon="-2.31824">
        <ele>6.1999998092651</ele>
        <time>2021-10-10T06:52:04.000Z</time>
      </trkpt>
      <trkpt lat="47.27512" lon="-2.31835">
        <ele>5.8000001907349</ele>
        <time>2021-10-10T06:52:05.000Z</time>
      </trkpt>
      <trkpt lat="47.27509" lon="-2.31846">
        <ele>5.4000000953674</ele>
        <time>2021-10-10T06:52:06.000Z</time>
      </trkpt>
      <trkpt lat="47.27505" lon="-2.31856">
        <ele>5</ele>
        <time>2021-10-10T06:52:07.000Z</time>
      </trkpt>
      <trkpt lat="47.27502" lon="-2.31867">
        <ele>4.5999999046326</ele>
        <time>2021-10-10T06:52:08.000Z</time>
      </trkpt>
      <trkpt lat="47.27482" lon="-2.31917">
        <ele>4.5999999046326</ele>
        <time>2021-10-10T06:52:13.000Z</time>
      </trkpt>
      <trkpt lat="47.2747" lon="-2.31946">
        <ele>4.1999998092651</ele>
        <time>2021-10-10T06:52:16.000Z</time>
      </trkpt>
      <trkpt lat="47.27466" lon="-2.31956">
        <ele>3.7999999523163</ele>
        <time>2021-10-10T06:52:17.000Z</time>
      </trkpt>
      <trkpt lat="47.27462" lon="-2.31965">
        <ele>3.4000000953674</ele>
        <time>2021-10-10T06:52:18.000Z</time>
      </trkpt>
      <trkpt lat="47.27457" lon="-2.31975">
        <ele>2.7999999523163</ele>
        <time>2021-10-10T06:52:19.000Z</time>
      </trkpt>
      <trkpt lat="47.27453" lon="-2.31984">
        <ele>2.4000000953674</ele>
        <time>2021-10-10T06:52:20.000Z</time>
      </trkpt>
      <trkpt lat="47.27434" lon="-2.32029">
        <ele>2.4000000953674</ele>
        <time>2021-10-10T06:52:25.000Z</time>
      </trkpt>
      <trkpt lat="47.27424" lon="-2.3204">
        <ele>2.4000000953674</ele>
        <time>2021-10-10T06:52:27.000Z</time>
      </trkpt>
      <trkpt lat="47.27391" lon="-2.32033">
        <ele>2.4000000953674</ele>
        <time>2021-10-10T06:52:30.000Z</time>
      </trkpt>
      <trkpt lat="47.27391" lon="-2.32033">
        <ele>2.4000000953674</ele>
        <time>2021-10-10T06:52:33.000Z</time>
      </trkpt>
      <trkpt lat="47.27386" lon="-2.32029">
        <ele>2.4000000953674</ele>
        <time>2021-10-10T06:52:34.000Z</time>
      </trkpt>
      <trkpt lat="47.27368" lon="-2.32008">
        <ele>2.4000000953674</ele>
        <time>2021-10-10T06:52:38.000Z</time>
      </trkpt>
      <trkpt lat="47.27355" lon="-2.31993">
        <ele>2.4000000953674</ele>
        <time>2021-10-10T06:52:42.000Z</time>
      </trkpt>
      <trkpt lat="47.27347" lon="-2.31991">
        <ele>2.4000000953674</ele>
        <time>2021-10-10T06:52:45.000Z</time>
      </trkpt>
      <trkpt lat="47.27346" lon="-2.31994">
        <ele>2.4000000953674</ele>
        <time>2021-10-10T06:52:46.000Z</time>
      </trkpt>
      <trkpt lat="47.2735" lon="-2.32007">
        <ele>2.4000000953674</ele>
        <time>2021-10-10T06:52:49.000Z</time>
      </trkpt>
      <trkpt lat="47.27358" lon="-2.32022">
        <ele>2.4000000953674</ele>
        <time>2021-10-10T06:52:52.000Z</time>
      </trkpt>
      <trkpt lat="47.27366" lon="-2.32031">
        <ele>2.4000000953674</ele>
        <time>2021-10-10T06:52:54.000Z</time>
      </trkpt>
      <trkpt lat="47.27386" lon="-2.32055">
        <ele>2.4000000953674</ele>
        <time>2021-10-10T06:52:59.000Z</time>
      </trkpt>
      <trkpt lat="47.27394" lon="-2.32064">
        <ele>2.4000000953674</ele>
        <time>2021-10-10T06:53:01.000Z</time>
      </trkpt>
      <trkpt lat="47.27406" lon="-2.3208">
        <ele>2.4000000953674</ele>
        <time>2021-10-10T06:53:04.000Z</time>
      </trkpt>
      <trkpt lat="47.2741" lon="-2.32087">
        <ele>2.4000000953674</ele>
        <time>2021-10-10T06:53:05.000Z</time>
      </trkpt>
      <trkpt lat="47.27415" lon="-2.32107">
        <ele>2.4000000953674</ele>
        <time>2021-10-10T06:53:08.000Z</time>
      </trkpt>
      <trkpt lat="47.27412" lon="-2.32128">
        <ele>2.4000000953674</ele>
        <time>2021-10-10T06:53:11.000Z</time>
      </trkpt>
      <trkpt lat="47.27411" lon="-2.32135">
        <ele>2.4000000953674</ele>
        <time>2021-10-10T06:53:12.000Z</time>
      </trkpt>
      <trkpt lat="47.27404" lon="-2.32182">
        <ele>2.4000000953674</ele>
        <time>2021-10-10T06:53:18.000Z</time>
      </trkpt>
      <trkpt lat="47.27395" lon="-2.32243">
        <ele>2.4000000953674</ele>
        <time>2021-10-10T06:53:25.000Z</time>
      </trkpt>
      <trkpt lat="47.27382" lon="-2.32287">
        <ele>2.4000000953674</ele>
        <time>2021-10-10T06:53:31.000Z</time>
      </trkpt>
      <trkpt lat="47.27377" lon="-2.32315">
        <ele>2.7999999523163</ele>
        <time>2021-10-10T06:53:35.000Z</time>
      </trkpt>
      <trkpt lat="47.27375" lon="-2.32322">
        <ele>3.4000000953674</ele>
        <time>2021-10-10T06:53:36.000Z</time>
      </trkpt>
      <trkpt lat="47.27374" lon="-2.32329">
        <ele>3.7999999523163</ele>
        <time>2021-10-10T06:53:37.000Z</time>
      </trkpt>
      <trkpt lat="47.27372" lon="-2.32337">
        <ele>4.1999998092651</ele>
        <time>2021-10-10T06:53:38.000Z</time>
      </trkpt>
      <trkpt lat="47.2737" lon="-2.32345">
        <ele>4.5999999046326</ele>
        <time>2021-10-10T06:53:39.000Z</time>
      </trkpt>
      <trkpt lat="47.27362" lon="-2.32381">
        <ele>4.5999999046326</ele>
        <time>2021-10-10T06:53:43.000Z</time>
      </trkpt>
      <trkpt lat="47.27348" lon="-2.32431">
        <ele>4.1999998092651</ele>
        <time>2021-10-10T06:53:48.000Z</time>
      </trkpt>
      <trkpt lat="47.27344" lon="-2.3244">
        <ele>3.7999999523163</ele>
        <time>2021-10-10T06:53:49.000Z</time>
      </trkpt>
      <trkpt lat="47.27341" lon="-2.32448">
        <ele>3.4000000953674</ele>
        <time>2021-10-10T06:53:50.000Z</time>
      </trkpt>
      <trkpt lat="47.27337" lon="-2.32457">
        <ele>3</ele>
        <time>2021-10-10T06:53:51.000Z</time>
      </trkpt>
      <trkpt lat="47.27334" lon="-2.32465">
        <ele>2.4000000953674</ele>
        <time>2021-10-10T06:53:52.000Z</time>
      </trkpt>
      <trkpt lat="47.27329" lon="-2.32472">
        <ele>2.4000000953674</ele>
        <time>2021-10-10T06:53:53.000Z</time>
      </trkpt>
      <trkpt lat="47.27325" lon="-2.32478">
        <ele>2.4000000953674</ele>
        <time>2021-10-10T06:53:54.000Z</time>
      </trkpt>
      <trkpt lat="47.27306" lon="-2.3251">
        <ele>2.4000000953674</ele>
        <time>2021-10-10T06:53:59.000Z</time>
      </trkpt>
      <trkpt lat="47.27303" lon="-2.32515">
        <ele>2.4000000953674</ele>
        <time>2021-10-10T06:54:00.000Z</time>
      </trkpt>
      <trkpt lat="47.27299" lon="-2.32521">
        <ele>2.4000000953674</ele>
        <time>2021-10-10T06:54:01.000Z</time>
      </trkpt>
      <trkpt lat="47.27283" lon="-2.32544">
        <ele>2.4000000953674</ele>
        <time>2021-10-10T06:54:05.000Z</time>
      </trkpt>
      <trkpt lat="47.27266" lon="-2.32566">
        <ele>2.4000000953674</ele>
        <time>2021-10-10T06:54:09.000Z</time>
      </trkpt>
      <trkpt lat="47.27257" lon="-2.32577">
        <ele>2.4000000953674</ele>
        <time>2021-10-10T06:54:11.000Z</time>
      </trkpt>
      <trkpt lat="47.27248" lon="-2.32586">
        <ele>3</ele>
        <time>2021-10-10T06:54:13.000Z</time>
      </trkpt>
      <trkpt lat="47.27243" lon="-2.32591">
        <ele>3.4000000953674</ele>
        <time>2021-10-10T06:54:14.000Z</time>
      </trkpt>
      <trkpt lat="47.27238" lon="-2.32595">
        <ele>3.7999999523163</ele>
        <time>2021-10-10T06:54:15.000Z</time>
      </trkpt>
      <trkpt lat="47.27233" lon="-2.326">
        <ele>4.1999998092651</ele>
        <time>2021-10-10T06:54:16.000Z</time>
      </trkpt>
      <trkpt lat="47.27228" lon="-2.32605">
        <ele>4.5999999046326</ele>
        <time>2021-10-10T06:54:17.000Z</time>
      </trkpt>
      <trkpt lat="47.27214" lon="-2.32619">
        <ele>4.5999999046326</ele>
        <time>2021-10-10T06:54:20.000Z</time>
      </trkpt>
      <trkpt lat="47.27176" lon="-2.32656">
        <ele>4.5999999046326</ele>
        <time>2021-10-10T06:54:28.000Z</time>
      </trkpt>
      <trkpt lat="47.2714" lon="-2.32691">
        <ele>4.5999999046326</ele>
        <time>2021-10-10T06:54:36.000Z</time>
      </trkpt>
      <trkpt lat="47.27136" lon="-2.32695">
        <ele>4.5999999046326</ele>
        <time>2021-10-10T06:54:37.000Z</time>
      </trkpt>
      <trkpt lat="47.27132" lon="-2.32706">
        <ele>4.5999999046326</ele>
        <time>2021-10-10T06:54:39.000Z</time>
      </trkpt>
      <trkpt lat="47.27125" lon="-2.32712">
        <ele>4.5999999046326</ele>
        <time>2021-10-10T06:54:41.000Z</time>
      </trkpt>
      <trkpt lat="47.27118" lon="-2.32719">
        <ele>4.5999999046326</ele>
        <time>2021-10-10T06:54:43.000Z</time>
      </trkpt>
      <trkpt lat="47.27091" lon="-2.32745">
        <ele>4.5999999046326</ele>
        <time>2021-10-10T06:54:49.000Z</time>
      </trkpt>
      <trkpt lat="47.27056" lon="-2.32777">
        <ele>4.5999999046326</ele>
        <time>2021-10-10T06:54:56.000Z</time>
      </trkpt>
      <trkpt lat="47.27016" lon="-2.32813">
        <ele>4.5999999046326</ele>
        <time>2021-10-10T06:55:04.000Z</time>
      </trkpt>
      <trkpt lat="47.26994" lon="-2.32833">
        <ele>4.1999998092651</ele>
        <time>2021-10-10T06:55:09.000Z</time>
      </trkpt>
      <trkpt lat="47.2699" lon="-2.32837">
        <ele>3.7999999523163</ele>
        <time>2021-10-10T06:55:10.000Z</time>
      </trkpt>
      <trkpt lat="47.26986" lon="-2.32841">
        <ele>3.2000000476837</ele>
        <time>2021-10-10T06:55:11.000Z</time>
      </trkpt>
      <trkpt lat="47.26982" lon="-2.32845">
        <ele>2.7999999523163</ele>
        <time>2021-10-10T06:55:12.000Z</time>
      </trkpt>
      <trkpt lat="47.26978" lon="-2.32849">
        <ele>2.4000000953674</ele>
        <time>2021-10-10T06:55:13.000Z</time>
      </trkpt>
      <trkpt lat="47.26951" lon="-2.32874">
        <ele>2.4000000953674</ele>
        <time>2021-10-10T06:55:19.000Z</time>
      </trkpt>
      <trkpt lat="47.2692" lon="-2.32902">
        <ele>2.4000000953674</ele>
        <time>2021-10-10T06:55:26.000Z</time>
      </trkpt>
      <trkpt lat="47.26895" lon="-2.32926">
        <ele>2.4000000953674</ele>
        <time>2021-10-10T06:55:32.000Z</time>
      </trkpt>
      <trkpt lat="47.26865" lon="-2.32955">
        <ele>2.4000000953674</ele>
        <time>2021-10-10T06:55:39.000Z</time>
      </trkpt>
      <trkpt lat="47.26829" lon="-2.32989">
        <ele>2.4000000953674</ele>
        <time>2021-10-10T06:55:47.000Z</time>
      </trkpt>
      <trkpt lat="47.26798" lon="-2.33019">
        <ele>2.4000000953674</ele>
        <time>2021-10-10T06:55:54.000Z</time>
      </trkpt>
      <trkpt lat="47.26781" lon="-2.33036">
        <ele>2.4000000953674</ele>
        <time>2021-10-10T06:55:58.000Z</time>
      </trkpt>
      <trkpt lat="47.26773" lon="-2.33043">
        <ele>2.4000000953674</ele>
        <time>2021-10-10T06:56:00.000Z</time>
      </trkpt>
      <trkpt lat="47.26752" lon="-2.33063">
        <ele>2.4000000953674</ele>
        <time>2021-10-10T06:56:06.000Z</time>
      </trkpt>
      <trkpt lat="47.26749" lon="-2.33066">
        <ele>2</ele>
        <time>2021-10-10T06:56:08.000Z</time>
      </trkpt>
      <trkpt lat="47.26747" lon="-2.33066">
        <ele>1.6000000238419</ele>
        <time>2021-10-10T06:56:09.000Z</time>
      </trkpt>
      <trkpt lat="47.26745" lon="-2.33067">
        <ele>1.2000000476837</ele>
        <time>2021-10-10T06:56:10.000Z</time>
      </trkpt>
      <trkpt lat="47.26743" lon="-2.33066">
        <ele>0.80000001192093</ele>
        <time>2021-10-10T06:56:11.000Z</time>
      </trkpt>
      <trkpt lat="47.2674" lon="-2.33064">
        <ele>0.40000000596046</ele>
        <time>2021-10-10T06:56:12.000Z</time>
      </trkpt>
      <trkpt lat="47.26735" lon="-2.33057">
        <ele>0.40000000596046</ele>
        <time>2021-10-10T06:56:14.000Z</time>
      </trkpt>
      <trkpt lat="47.26734" lon="-2.33052">
        <ele>0.40000000596046</ele>
        <time>2021-10-10T06:56:15.000Z</time>
      </trkpt>
      <trkpt lat="47.26734" lon="-2.33041">
        <ele>0.40000000596046</ele>
        <time>2021-10-10T06:56:17.000Z</time>
      </trkpt>
      <trkpt lat="47.26735" lon="-2.3303">
        <ele>0.40000000596046</ele>
        <time>2021-10-10T06:56:19.000Z</time>
      </trkpt>
      <trkpt lat="47.26736" lon="-2.33007">
        <ele>0.40000000596046</ele>
        <time>2021-10-10T06:56:23.000Z</time>
      </trkpt>
      <trkpt lat="47.26736" lon="-2.33">
        <ele>0.40000000596046</ele>
        <time>2021-10-10T06:56:24.000Z</time>
      </trkpt>
      <trkpt lat="47.26741" lon="-2.32982">
        <ele>0.40000000596046</ele>
        <time>2021-10-10T06:56:27.000Z</time>
      </trkpt>
      <trkpt lat="47.26744" lon="-2.32976">
        <ele>0.40000000596046</ele>
        <time>2021-10-10T06:56:28.000Z</time>
      </trkpt>
      <trkpt lat="47.26757" lon="-2.32958">
        <ele>0.40000000596046</ele>
        <time>2021-10-10T06:56:32.000Z</time>
      </trkpt>
      <trkpt lat="47.26783" lon="-2.32928">
        <ele>0.40000000596046</ele>
        <time>2021-10-10T06:56:39.000Z</time>
      </trkpt>
      <trkpt lat="47.26799" lon="-2.32915">
        <ele>0.40000000596046</ele>
        <time>2021-10-10T06:56:43.000Z</time>
      </trkpt>
      <trkpt lat="47.26804" lon="-2.32912">
        <ele>0.40000000596046</ele>
        <time>2021-10-10T06:56:44.000Z</time>
      </trkpt>
      <trkpt lat="47.26813" lon="-2.32907">
        <ele>0.40000000596046</ele>
        <time>2021-10-10T06:56:46.000Z</time>
      </trkpt>
      <trkpt lat="47.26825" lon="-2.32894">
        <ele>0.40000000596046</ele>
        <time>2021-10-10T06:56:49.000Z</time>
      </trkpt>
      <trkpt lat="47.26839" lon="-2.32883">
        <ele>0.40000000596046</ele>
        <time>2021-10-10T06:56:52.000Z</time>
      </trkpt>
      <trkpt lat="47.26843" lon="-2.3288">
        <ele>0.40000000596046</ele>
        <time>2021-10-10T06:56:53.000Z</time>
      </trkpt>
      <trkpt lat="47.26862" lon="-2.32868">
        <ele>0.40000000596046</ele>
        <time>2021-10-10T06:56:58.000Z</time>
      </trkpt>
      <trkpt lat="47.26861" lon="-2.32851">
        <ele>0.40000000596046</ele>
        <time>2021-10-10T06:57:01.000Z</time>
      </trkpt>
      <trkpt lat="47.26857" lon="-2.32841">
        <ele>0.80000001192093</ele>
        <time>2021-10-10T06:57:03.000Z</time>
      </trkpt>
      <trkpt lat="47.26855" lon="-2.32835">
        <ele>1.2000000476837</ele>
        <time>2021-10-10T06:57:04.000Z</time>
      </trkpt>
      <trkpt lat="47.26853" lon="-2.3283">
        <ele>1.6000000238419</ele>
        <time>2021-10-10T06:57:05.000Z</time>
      </trkpt>
      <trkpt lat="47.26851" lon="-2.32825">
        <ele>2</ele>
        <time>2021-10-10T06:57:06.000Z</time>
      </trkpt>
      <trkpt lat="47.2685" lon="-2.3282">
        <ele>2.4000000953674</ele>
        <time>2021-10-10T06:57:07.000Z</time>
      </trkpt>
      <trkpt lat="47.26846" lon="-2.32812">
        <ele>3</ele>
        <time>2021-10-10T06:57:09.000Z</time>
      </trkpt>
      <trkpt lat="47.26845" lon="-2.32807">
        <ele>3.4000000953674</ele>
        <time>2021-10-10T06:57:10.000Z</time>
      </trkpt>
      <trkpt lat="47.26844" lon="-2.32803">
        <ele>4</ele>
        <time>2021-10-10T06:57:11.000Z</time>
      </trkpt>
      <trkpt lat="47.26843" lon="-2.32798">
        <ele>4.4000000953674</ele>
        <time>2021-10-10T06:57:12.000Z</time>
      </trkpt>
      <trkpt lat="47.26842" lon="-2.32794">
        <ele>5</ele>
        <time>2021-10-10T06:57:13.000Z</time>
      </trkpt>
      <trkpt lat="47.2684" lon="-2.3279">
        <ele>5.4000000953674</ele>
        <time>2021-10-10T06:57:14.000Z</time>
      </trkpt>
      <trkpt lat="47.26839" lon="-2.32785">
        <ele>5.8000001907349</ele>
        <time>2021-10-10T06:57:15.000Z</time>
      </trkpt>
      <trkpt lat="47.26838" lon="-2.32781">
        <ele>6.1999998092651</ele>
        <time>2021-10-10T06:57:16.000Z</time>
      </trkpt>
      <trkpt lat="47.26837" lon="-2.32776">
        <ele>6.5999999046326</ele>
        <time>2021-10-10T06:57:17.000Z</time>
      </trkpt>
      <trkpt lat="47.26836" lon="-2.32772">
        <ele>7</ele>
        <time>2021-10-10T06:57:18.000Z</time>
      </trkpt>
      <trkpt lat="47.26833" lon="-2.32762">
        <ele>7.5999999046326</ele>
        <time>2021-10-10T06:57:20.000Z</time>
      </trkpt>
      <trkpt lat="47.26832" lon="-2.32758">
        <ele>8</ele>
        <time>2021-10-10T06:57:21.000Z</time>
      </trkpt>
      <trkpt lat="47.2683" lon="-2.32754">
        <ele>9</ele>
        <time>2021-10-10T06:57:22.000Z</time>
      </trkpt>
      <trkpt lat="47.26828" lon="-2.32749">
        <ele>9.3999996185303</ele>
        <time>2021-10-10T06:57:23.000Z</time>
      </trkpt>
      <trkpt lat="47.26825" lon="-2.3274">
        <ele>9.8000001907349</ele>
        <time>2021-10-10T06:57:25.000Z</time>
      </trkpt>
      <trkpt lat="47.26823" lon="-2.32736">
        <ele>10.199999809265</ele>
        <time>2021-10-10T06:57:26.000Z</time>
      </trkpt>
      <trkpt lat="47.26821" lon="-2.32731">
        <ele>10.800000190735</ele>
        <time>2021-10-10T06:57:27.000Z</time>
      </trkpt>
      <trkpt lat="47.26819" lon="-2.32727">
        <ele>11.199999809265</ele>
        <time>2021-10-10T06:57:28.000Z</time>
      </trkpt>
      <trkpt lat="47.26817" lon="-2.32723">
        <ele>11.60000038147</ele>
        <time>2021-10-10T06:57:29.000Z</time>
      </trkpt>
      <trkpt lat="47.26813" lon="-2.32713">
        <ele>11.60000038147</ele>
        <time>2021-10-10T06:57:31.000Z</time>
      </trkpt>
      <trkpt lat="47.26805" lon="-2.32695">
        <ele>12</ele>
        <time>2021-10-10T06:57:35.000Z</time>
      </trkpt>
      <trkpt lat="47.26803" lon="-2.3269">
        <ele>12.60000038147</ele>
        <time>2021-10-10T06:57:36.000Z</time>
      </trkpt>
      <trkpt lat="47.26802" lon="-2.32685">
        <ele>13</ele>
        <time>2021-10-10T06:57:37.000Z</time>
      </trkpt>
      <trkpt lat="47.26801" lon="-2.3268">
        <ele>13.39999961853</ele>
        <time>2021-10-10T06:57:38.000Z</time>
      </trkpt>
      <trkpt lat="47.26802" lon="-2.32674">
        <ele>13.800000190735</ele>
        <time>2021-10-10T06:57:39.000Z</time>
      </trkpt>
      <trkpt lat="47.26807" lon="-2.32664">
        <ele>13.800000190735</ele>
        <time>2021-10-10T06:57:41.000Z</time>
      </trkpt>
      <trkpt lat="47.2681" lon="-2.32644">
        <ele>13.800000190735</ele>
        <time>2021-10-10T06:57:44.000Z</time>
      </trkpt>
      <trkpt lat="47.26808" lon="-2.32622">
        <ele>13.800000190735</ele>
        <time>2021-10-10T06:57:47.000Z</time>
      </trkpt>
      <trkpt lat="47.26806" lon="-2.32607">
        <ele>13.800000190735</ele>
        <time>2021-10-10T06:57:49.000Z</time>
      </trkpt>
      <trkpt lat="47.26798" lon="-2.32552">
        <ele>13.800000190735</ele>
        <time>2021-10-10T06:57:56.000Z</time>
      </trkpt>
      <trkpt lat="47.26795" lon="-2.32502">
        <ele>13.800000190735</ele>
        <time>2021-10-10T06:58:03.000Z</time>
      </trkpt>
      <trkpt lat="47.2679" lon="-2.32461">
        <ele>13.800000190735</ele>
        <time>2021-10-10T06:58:09.000Z</time>
      </trkpt>
      <trkpt lat="47.26781" lon="-2.32408">
        <ele>13.800000190735</ele>
        <time>2021-10-10T06:58:17.000Z</time>
      </trkpt>
      <trkpt lat="47.26772" lon="-2.32373">
        <ele>13.800000190735</ele>
        <time>2021-10-10T06:58:24.000Z</time>
      </trkpt>
      <trkpt lat="47.26761" lon="-2.32373">
        <ele>13.800000190735</ele>
        <time>2021-10-10T06:58:27.000Z</time>
      </trkpt>
      <trkpt lat="47.26757" lon="-2.32374">
        <ele>13.800000190735</ele>
        <time>2021-10-10T06:58:28.000Z</time>
      </trkpt>
      <trkpt lat="47.26744" lon="-2.3238">
        <ele>14.199999809265</ele>
        <time>2021-10-10T06:58:31.000Z</time>
      </trkpt>
      <trkpt lat="47.2674" lon="-2.32381">
        <ele>14.60000038147</ele>
        <time>2021-10-10T06:58:32.000Z</time>
      </trkpt>
      <trkpt lat="47.26735" lon="-2.32383">
        <ele>15</ele>
        <time>2021-10-10T06:58:33.000Z</time>
      </trkpt>
      <trkpt lat="47.26731" lon="-2.32383">
        <ele>15.39999961853</ele>
        <time>2021-10-10T06:58:34.000Z</time>
      </trkpt>
      <trkpt lat="47.26727" lon="-2.32382">
        <ele>15.800000190735</ele>
        <time>2021-10-10T06:58:35.000Z</time>
      </trkpt>
      <trkpt lat="47.26719" lon="-2.32374">
        <ele>15.800000190735</ele>
        <time>2021-10-10T06:58:37.000Z</time>
      </trkpt>
      <trkpt lat="47.26711" lon="-2.32356">
        <ele>15.800000190735</ele>
        <time>2021-10-10T06:58:40.000Z</time>
      </trkpt>
      <trkpt lat="47.2671" lon="-2.32349">
        <ele>15.800000190735</ele>
        <time>2021-10-10T06:58:41.000Z</time>
      </trkpt>
      <trkpt lat="47.26695" lon="-2.32302">
        <ele>15.800000190735</ele>
        <time>2021-10-10T06:58:49.000Z</time>
      </trkpt>
      <trkpt lat="47.26689" lon="-2.32278">
        <ele>16.200000762939</ele>
        <time>2021-10-10T06:58:53.000Z</time>
      </trkpt>
      <trkpt lat="47.26688" lon="-2.32273">
        <ele>16.60000038147</ele>
        <time>2021-10-10T06:58:54.000Z</time>
      </trkpt>
      <trkpt lat="47.26687" lon="-2.32267">
        <ele>17</ele>
        <time>2021-10-10T06:58:55.000Z</time>
      </trkpt>
      <trkpt lat="47.26686" lon="-2.32261">
        <ele>17.39999961853</ele>
        <time>2021-10-10T06:58:56.000Z</time>
      </trkpt>
      <trkpt lat="47.26686" lon="-2.32255">
        <ele>17.799999237061</ele>
        <time>2021-10-10T06:58:57.000Z</time>
      </trkpt>
      <trkpt lat="47.26689" lon="-2.32238">
        <ele>17.799999237061</ele>
        <time>2021-10-10T06:59:00.000Z</time>
      </trkpt>
      <trkpt lat="47.2669" lon="-2.32231">
        <ele>17.799999237061</ele>
        <time>2021-10-10T06:59:01.000Z</time>
      </trkpt>
      <trkpt lat="47.26692" lon="-2.32216">
        <ele>17.799999237061</ele>
        <time>2021-10-10T06:59:03.000Z</time>
      </trkpt>
      <trkpt lat="47.2669" lon="-2.32193">
        <ele>17.799999237061</ele>
        <time>2021-10-10T06:59:06.000Z</time>
      </trkpt>
      <trkpt lat="47.26689" lon="-2.32186">
        <ele>17.799999237061</ele>
        <time>2021-10-10T06:59:07.000Z</time>
      </trkpt>
      <trkpt lat="47.26676" lon="-2.32136">
        <ele>17.799999237061</ele>
        <time>2021-10-10T06:59:14.000Z</time>
      </trkpt>
      <trkpt lat="47.2666" lon="-2.3207">
        <ele>17.799999237061</ele>
        <time>2021-10-10T06:59:23.000Z</time>
      </trkpt>
      <trkpt lat="47.26651" lon="-2.32033">
        <ele>17.799999237061</ele>
        <time>2021-10-10T06:59:30.000Z</time>
      </trkpt>
      <trkpt lat="47.26645" lon="-2.32008">
        <ele>17.799999237061</ele>
        <time>2021-10-10T06:59:37.000Z</time>
      </trkpt>
      <trkpt lat="47.26642" lon="-2.32001">
        <ele>17.799999237061</ele>
        <time>2021-10-10T06:59:40.000Z</time>
      </trkpt>
      <trkpt lat="47.26642" lon="-2.32">
        <ele>17.799999237061</ele>
        <time>2021-10-10T06:59:42.000Z</time>
      </trkpt>
      <trkpt lat="47.26643" lon="-2.32001">
        <ele>17.799999237061</ele>
        <time>2021-10-10T06:59:48.000Z</time>
      </trkpt>
      <trkpt lat="47.26646" lon="-2.32008">
        <ele>17.799999237061</ele>
        <time>2021-10-10T06:59:53.000Z</time>
      </trkpt>
      <trkpt lat="47.2665" lon="-2.32022">
        <ele>17.799999237061</ele>
        <time>2021-10-10T07:00:01.000Z</time>
      </trkpt>
      <trkpt lat="47.2665" lon="-2.32025">
        <ele>17.799999237061</ele>
        <time>2021-10-10T07:00:03.000Z</time>
      </trkpt>
      <trkpt lat="47.2665" lon="-2.32029">
        <ele>17.799999237061</ele>
        <time>2021-10-10T07:00:06.000Z</time>
      </trkpt>
      <trkpt lat="47.2665" lon="-2.32031">
        <ele>17.799999237061</ele>
        <time>2021-10-10T07:00:12.000Z</time>
      </trkpt>
      <trkpt lat="47.26649" lon="-2.32033">
        <ele>17.799999237061</ele>
        <time>2021-10-10T07:00:22.000Z</time>
      </trkpt>
      <trkpt lat="47.26649" lon="-2.32033">
        <ele>17.799999237061</ele>
        <time>2021-10-10T07:00:38.000Z</time>
      </trkpt>
      <trkpt lat="47.26649" lon="-2.32033">
        <ele>17.799999237061</ele>
        <time>2021-10-10T07:00:53.000Z</time>
      </trkpt>
      <trkpt lat="47.26649" lon="-2.32033">
        <ele>17.799999237061</ele>
        <time>2021-10-10T07:01:13.000Z</time>
      </trkpt>
      <trkpt lat="47.26649" lon="-2.32033">
        <ele>17.799999237061</ele>
        <time>2021-10-10T07:01:29.000Z</time>
      </trkpt>
      <trkpt lat="47.26649" lon="-2.32033">
        <ele>17.799999237061</ele>
        <time>2021-10-10T07:01:46.000Z</time>
      </trkpt>
      <trkpt lat="47.26649" lon="-2.32033">
        <ele>17.799999237061</ele>
        <time>2021-10-10T07:02:01.000Z</time>
      </trkpt>
      <trkpt lat="47.26649" lon="-2.32033">
        <ele>17.799999237061</ele>
        <time>2021-10-10T07:02:20.000Z</time>
      </trkpt>
      <trkpt lat="47.26649" lon="-2.32033">
        <ele>17.799999237061</ele>
        <time>2021-10-10T07:02:39.000Z</time>
      </trkpt>
      <trkpt lat="47.26649" lon="-2.32033">
        <ele>17.799999237061</ele>
        <time>2021-10-10T07:02:57.000Z</time>
      </trkpt>
      <trkpt lat="47.26648" lon="-2.32033">
        <ele>17.799999237061</ele>
        <time>2021-10-10T07:03:11.000Z</time>
      </trkpt>
      <trkpt lat="47.26648" lon="-2.32033">
        <ele>17.799999237061</ele>
        <time>2021-10-10T07:03:26.000Z</time>
      </trkpt>
      <trkpt lat="47.26648" lon="-2.32033">
        <ele>17.799999237061</ele>
        <time>2021-10-10T07:03:39.000Z</time>
      </trkpt>
      <trkpt lat="47.26648" lon="-2.32033">
        <ele>17.799999237061</ele>
        <time>2021-10-10T07:03:54.000Z</time>
      </trkpt>
      <trkpt lat="47.26648" lon="-2.32033">
        <ele>17.799999237061</ele>
        <time>2021-10-10T07:04:08.000Z</time>
      </trkpt>
      <trkpt lat="47.26648" lon="-2.32033">
        <ele>17.799999237061</ele>
        <time>2021-10-10T07:04:25.000Z</time>
      </trkpt>
      <trkpt lat="47.26648" lon="-2.32033">
        <ele>17.799999237061</ele>
        <time>2021-10-10T07:04:39.000Z</time>
      </trkpt>
      <trkpt lat="47.26648" lon="-2.32033">
        <ele>17.799999237061</ele>
        <time>2021-10-10T07:04:55.000Z</time>
      </trkpt>
      <trkpt lat="47.26648" lon="-2.32034">
        <ele>17.799999237061</ele>
        <time>2021-10-10T07:05:12.000Z</time>
      </trkpt>
      <trkpt lat="47.26648" lon="-2.32034">
        <ele>17.799999237061</ele>
        <time>2021-10-10T07:05:29.000Z</time>
      </trkpt>
      <trkpt lat="47.26648" lon="-2.32034">
        <ele>17.799999237061</ele>
        <time>2021-10-10T07:05:44.000Z</time>
      </trkpt>
      <trkpt lat="47.26648" lon="-2.32034">
        <ele>17.799999237061</ele>
        <time>2021-10-10T07:06:00.000Z</time>
      </trkpt>
      <trkpt lat="47.26648" lon="-2.32034">
        <ele>17.799999237061</ele>
        <time>2021-10-10T07:06:17.000Z</time>
      </trkpt>
      <trkpt lat="47.26648" lon="-2.32034">
        <ele>17.799999237061</ele>
        <time>2021-10-10T07:06:32.000Z</time>
      </trkpt>
      <trkpt lat="47.26648" lon="-2.32034">
        <ele>17.799999237061</ele>
        <time>2021-10-10T07:06:46.000Z</time>
      </trkpt>
      <trkpt lat="47.26648" lon="-2.32034">
        <ele>17.799999237061</ele>
        <time>2021-10-10T07:07:05.000Z</time>
      </trkpt>
      <trkpt lat="47.26648" lon="-2.32034">
        <ele>17.799999237061</ele>
        <time>2021-10-10T07:07:17.000Z</time>
      </trkpt>
      <trkpt lat="47.26648" lon="-2.32034">
        <ele>17.799999237061</ele>
        <time>2021-10-10T07:07:34.000Z</time>
      </trkpt>
      <trkpt lat="47.26648" lon="-2.32035">
        <ele>17.799999237061</ele>
        <time>2021-10-10T07:07:48.000Z</time>
      </trkpt>
      <trkpt lat="47.26648" lon="-2.32035">
        <ele>17.799999237061</ele>
        <time>2021-10-10T07:08:04.000Z</time>
      </trkpt>
      <trkpt lat="47.26648" lon="-2.32035">
        <ele>17.799999237061</ele>
        <time>2021-10-10T07:08:18.000Z</time>
      </trkpt>
      <trkpt lat="47.26648" lon="-2.32035">
        <ele>17.799999237061</ele>
        <time>2021-10-10T07:08:38.000Z</time>
      </trkpt>
      <trkpt lat="47.26648" lon="-2.32035">
        <ele>17.799999237061</ele>
        <time>2021-10-10T07:08:51.000Z</time>
      </trkpt>
      <trkpt lat="47.26648" lon="-2.32035">
        <ele>17.799999237061</ele>
        <time>2021-10-10T07:09:05.000Z</time>
      </trkpt>
      <trkpt lat="47.26648" lon="-2.32035">
        <ele>17.799999237061</ele>
        <time>2021-10-10T07:09:19.000Z</time>
      </trkpt>
      <trkpt lat="47.26648" lon="-2.32035">
        <ele>17.799999237061</ele>
        <time>2021-10-10T07:09:31.000Z</time>
      </trkpt>
      <trkpt lat="47.26648" lon="-2.32036">
        <ele>17.799999237061</ele>
        <time>2021-10-10T07:09:44.000Z</time>
      </trkpt>
      <trkpt lat="47.26648" lon="-2.32036">
        <ele>17.799999237061</ele>
        <time>2021-10-10T07:09:56.000Z</time>
      </trkpt>
      <trkpt lat="47.26648" lon="-2.32036">
        <ele>17.799999237061</ele>
        <time>2021-10-10T07:10:13.000Z</time>
      </trkpt>
      <trkpt lat="47.26648" lon="-2.32035">
        <ele>17.799999237061</ele>
        <time>2021-10-10T07:10:29.000Z</time>
      </trkpt>
      <trkpt lat="47.26648" lon="-2.32035">
        <ele>17.799999237061</ele>
        <time>2021-10-10T07:10:45.000Z</time>
      </trkpt>
      <trkpt lat="47.26648" lon="-2.32035">
        <ele>17.799999237061</ele>
        <time>2021-10-10T07:11:05.000Z</time>
      </trkpt>
      <trkpt lat="47.26648" lon="-2.32035">
        <ele>17.799999237061</ele>
        <time>2021-10-10T07:11:21.000Z</time>
      </trkpt>
      <trkpt lat="47.26648" lon="-2.32035">
        <ele>17.799999237061</ele>
        <time>2021-10-10T07:11:39.000Z</time>
      </trkpt>
      <trkpt lat="47.26647" lon="-2.32035">
        <ele>17.799999237061</ele>
        <time>2021-10-10T07:11:54.000Z</time>
      </trkpt>
      <trkpt lat="47.26647" lon="-2.32035">
        <ele>17.799999237061</ele>
        <time>2021-10-10T07:12:09.000Z</time>
      </trkpt>
      <trkpt lat="47.26647" lon="-2.32035">
        <ele>17.799999237061</ele>
        <time>2021-10-10T07:12:20.000Z</time>
      </trkpt>
      <trkpt lat="47.26648" lon="-2.32035">
        <ele>17.799999237061</ele>
        <time>2021-10-10T07:12:37.000Z</time>
      </trkpt>
      <trkpt lat="47.26648" lon="-2.32035">
        <ele>17.799999237061</ele>
        <time>2021-10-10T07:12:54.000Z</time>
      </trkpt>
      <trkpt lat="47.26648" lon="-2.32035">
        <ele>17.799999237061</ele>
        <time>2021-10-10T07:13:11.000Z</time>
      </trkpt>
      <trkpt lat="47.26648" lon="-2.32035">
        <ele>17.799999237061</ele>
        <time>2021-10-10T07:13:29.000Z</time>
      </trkpt>
      <trkpt lat="47.26648" lon="-2.32034">
        <ele>17.799999237061</ele>
        <time>2021-10-10T07:13:44.000Z</time>
      </trkpt>
      <trkpt lat="47.26648" lon="-2.32034">
        <ele>17.799999237061</ele>
        <time>2021-10-10T07:14:01.000Z</time>
      </trkpt>
      <trkpt lat="47.26648" lon="-2.32034">
        <ele>17.799999237061</ele>
        <time>2021-10-10T07:14:15.000Z</time>
      </trkpt>
      <trkpt lat="47.26648" lon="-2.32033">
        <ele>17.799999237061</ele>
        <time>2021-10-10T07:14:33.000Z</time>
      </trkpt>
      <trkpt lat="47.26648" lon="-2.32033">
        <ele>17.799999237061</ele>
        <time>2021-10-10T07:14:50.000Z</time>
      </trkpt>
      <trkpt lat="47.26648" lon="-2.32033">
        <ele>17.799999237061</ele>
        <time>2021-10-10T07:15:07.000Z</time>
      </trkpt>
      <trkpt lat="47.26648" lon="-2.32033">
        <ele>17.799999237061</ele>
        <time>2021-10-10T07:15:14.000Z</time>
      </trkpt>
      <trkpt lat="47.26649" lon="-2.3203">
        <ele>17.799999237061</ele>
        <time>2021-10-10T07:15:20.000Z</time>
      </trkpt>
      <trkpt lat="47.26649" lon="-2.32031">
        <ele>17.799999237061</ele>
        <time>2021-10-10T07:15:21.000Z</time>
      </trkpt>
      <trkpt lat="47.2665" lon="-2.32028">
        <ele>17.799999237061</ele>
        <time>2021-10-10T07:15:27.000Z</time>
      </trkpt>
      <trkpt lat="47.2665" lon="-2.32028">
        <ele>17.799999237061</ele>
        <time>2021-10-10T07:15:36.000Z</time>
      </trkpt>
      <trkpt lat="47.2665" lon="-2.32028">
        <ele>17.799999237061</ele>
        <time>2021-10-10T07:15:49.000Z</time>
      </trkpt>
      <trkpt lat="47.2665" lon="-2.32028">
        <ele>17.799999237061</ele>
        <time>2021-10-10T07:16:00.000Z</time>
      </trkpt>
      <trkpt lat="47.2665" lon="-2.32028">
        <ele>17.799999237061</ele>
        <time>2021-10-10T07:16:10.000Z</time>
      </trkpt>
      <trkpt lat="47.2665" lon="-2.32028">
        <ele>17.799999237061</ele>
        <time>2021-10-10T07:16:21.000Z</time>
      </trkpt>
      <trkpt lat="47.2665" lon="-2.32028">
        <ele>17.799999237061</ele>
        <time>2021-10-10T07:16:27.000Z</time>
      </trkpt>
      <trkpt lat="47.26649" lon="-2.32022">
        <ele>17.799999237061</ele>
        <time>2021-10-10T07:16:34.000Z</time>
      </trkpt>
      <trkpt lat="47.26644" lon="-2.32008">
        <ele>17.799999237061</ele>
        <time>2021-10-10T07:16:39.000Z</time>
      </trkpt>
      <trkpt lat="47.26635" lon="-2.32009">
        <ele>17.799999237061</ele>
        <time>2021-10-10T07:16:42.000Z</time>
      </trkpt>
      <trkpt lat="47.26622" lon="-2.32015">
        <ele>17.799999237061</ele>
        <time>2021-10-10T07:16:45.000Z</time>
      </trkpt>
      <trkpt lat="47.26617" lon="-2.32015">
        <ele>17.799999237061</ele>
        <time>2021-10-10T07:16:46.000Z</time>
      </trkpt>
      <trkpt lat="47.26612" lon="-2.32016">
        <ele>17.799999237061</ele>
        <time>2021-10-10T07:16:47.000Z</time>
      </trkpt>
      <trkpt lat="47.26586" lon="-2.32025">
        <ele>17.799999237061</ele>
        <time>2021-10-10T07:16:52.000Z</time>
      </trkpt>
      <trkpt lat="47.2657" lon="-2.32033">
        <ele>17.39999961853</ele>
        <time>2021-10-10T07:16:55.000Z</time>
      </trkpt>
      <trkpt lat="47.26565" lon="-2.32035">
        <ele>17</ele>
        <time>2021-10-10T07:16:56.000Z</time>
      </trkpt>
      <trkpt lat="47.26559" lon="-2.32037">
        <ele>16.60000038147</ele>
        <time>2021-10-10T07:16:57.000Z</time>
      </trkpt>
      <trkpt lat="47.26553" lon="-2.32038">
        <ele>16.200000762939</ele>
        <time>2021-10-10T07:16:58.000Z</time>
      </trkpt>
      <trkpt lat="47.26549" lon="-2.32039">
        <ele>15.800000190735</ele>
        <time>2021-10-10T07:16:59.000Z</time>
      </trkpt>
      <trkpt lat="47.26544" lon="-2.32037">
        <ele>15.800000190735</ele>
        <time>2021-10-10T07:17:01.000Z</time>
      </trkpt>
      <trkpt lat="47.26542" lon="-2.32035">
        <ele>15.39999961853</ele>
        <time>2021-10-10T07:17:02.000Z</time>
      </trkpt>
      <trkpt lat="47.2654" lon="-2.32032">
        <ele>14.800000190735</ele>
        <time>2021-10-10T07:17:03.000Z</time>
      </trkpt>
      <trkpt lat="47.26539" lon="-2.32028">
        <ele>14.39999961853</ele>
        <time>2021-10-10T07:17:04.000Z</time>
      </trkpt>
      <trkpt lat="47.26537" lon="-2.32023">
        <ele>14</ele>
        <time>2021-10-10T07:17:05.000Z</time>
      </trkpt>
      <trkpt lat="47.26536" lon="-2.3202">
        <ele>13.60000038147</ele>
        <time>2021-10-10T07:17:06.000Z</time>
      </trkpt>
      <trkpt lat="47.26525" lon="-2.32006">
        <ele>13.60000038147</ele>
        <time>2021-10-10T07:17:10.000Z</time>
      </trkpt>
      <trkpt lat="47.26511" lon="-2.32003">
        <ele>13.199999809265</ele>
        <time>2021-10-10T07:17:13.000Z</time>
      </trkpt>
      <trkpt lat="47.26506" lon="-2.32003">
        <ele>12.800000190735</ele>
        <time>2021-10-10T07:17:14.000Z</time>
      </trkpt>
      <trkpt lat="47.26501" lon="-2.32004">
        <ele>12.39999961853</ele>
        <time>2021-10-10T07:17:15.000Z</time>
      </trkpt>
      <trkpt lat="47.26494" lon="-2.32003">
        <ele>12</ele>
        <time>2021-10-10T07:17:16.000Z</time>
      </trkpt>
      <trkpt lat="47.26488" lon="-2.32003">
        <ele>11.39999961853</ele>
        <time>2021-10-10T07:17:17.000Z</time>
      </trkpt>
      <trkpt lat="47.26481" lon="-2.32003">
        <ele>11</ele>
        <time>2021-10-10T07:17:18.000Z</time>
      </trkpt>
      <trkpt lat="47.26475" lon="-2.32003">
        <ele>10.39999961853</ele>
        <time>2021-10-10T07:17:19.000Z</time>
      </trkpt>
      <trkpt lat="47.26468" lon="-2.32004">
        <ele>10</ele>
        <time>2021-10-10T07:17:20.000Z</time>
      </trkpt>
      <trkpt lat="47.26461" lon="-2.32004">
        <ele>9.3999996185303</ele>
        <time>2021-10-10T07:17:21.000Z</time>
      </trkpt>
      <trkpt lat="47.26455" lon="-2.32004">
        <ele>9</ele>
        <time>2021-10-10T07:17:22.000Z</time>
      </trkpt>
      <trkpt lat="47.26448" lon="-2.32004">
        <ele>8.6000003814697</ele>
        <time>2021-10-10T07:17:23.000Z</time>
      </trkpt>
      <trkpt lat="47.26442" lon="-2.32003">
        <ele>8.1999998092651</ele>
        <time>2021-10-10T07:17:24.000Z</time>
      </trkpt>
      <trkpt lat="47.26435" lon="-2.32002">
        <ele>7.5999999046326</ele>
        <time>2021-10-10T07:17:25.000Z</time>
      </trkpt>
      <trkpt lat="47.26428" lon="-2.32002">
        <ele>7.1999998092651</ele>
        <time>2021-10-10T07:17:26.000Z</time>
      </trkpt>
      <trkpt lat="47.26415" lon="-2.32001">
        <ele>6.8000001907349</ele>
        <time>2021-10-10T07:17:28.000Z</time>
      </trkpt>
      <trkpt lat="47.2641" lon="-2.32">
        <ele>6.1999998092651</ele>
        <time>2021-10-10T07:17:29.000Z</time>
      </trkpt>
      <trkpt lat="47.26405" lon="-2.31999">
        <ele>5.8000001907349</ele>
        <time>2021-10-10T07:17:30.000Z</time>
      </trkpt>
      <trkpt lat="47.264" lon="-2.31998">
        <ele>5.4000000953674</ele>
        <time>2021-10-10T07:17:31.000Z</time>
      </trkpt>
      <trkpt lat="47.26396" lon="-2.31997">
        <ele>4.4000000953674</ele>
        <time>2021-10-10T07:17:32.000Z</time>
      </trkpt>
      <trkpt lat="47.26391" lon="-2.31996">
        <ele>3.7999999523163</ele>
        <time>2021-10-10T07:17:33.000Z</time>
      </trkpt>
      <trkpt lat="47.26387" lon="-2.31995">
        <ele>3.2000000476837</ele>
        <time>2021-10-10T07:17:34.000Z</time>
      </trkpt>
      <trkpt lat="47.26382" lon="-2.31995">
        <ele>2.7999999523163</ele>
        <time>2021-10-10T07:17:35.000Z</time>
      </trkpt>
      <trkpt lat="47.26378" lon="-2.31995">
        <ele>2.7999999523163</ele>
        <time>2021-10-10T07:17:36.000Z</time>
      </trkpt>
      <trkpt lat="47.2637" lon="-2.31988">
        <ele>2.4000000953674</ele>
        <time>2021-10-10T07:17:38.000Z</time>
      </trkpt>
      <trkpt lat="47.26366" lon="-2.31982">
        <ele>2</ele>
        <time>2021-10-10T07:17:39.000Z</time>
      </trkpt>
      <trkpt lat="47.26363" lon="-2.31974">
        <ele>1.3999999761581</ele>
        <time>2021-10-10T07:17:40.000Z</time>
      </trkpt>
      <trkpt lat="47.2636" lon="-2.31967">
        <ele>1</ele>
        <time>2021-10-10T07:17:41.000Z</time>
      </trkpt>
      <trkpt lat="47.26357" lon="-2.31959">
        <ele>0.60000002384186</ele>
        <time>2021-10-10T07:17:42.000Z</time>
      </trkpt>
      <trkpt lat="47.26355" lon="-2.31951">
        <ele>0.60000002384186</ele>
        <time>2021-10-10T07:17:43.000Z</time>
      </trkpt>
      <trkpt lat="47.26351" lon="-2.31945">
        <ele>0.60000002384186</ele>
        <time>2021-10-10T07:17:44.000Z</time>
      </trkpt>
      <trkpt lat="47.26342" lon="-2.31942">
        <ele>0.60000002384186</ele>
        <time>2021-10-10T07:17:46.000Z</time>
      </trkpt>
      <trkpt lat="47.26324" lon="-2.31944">
        <ele>0.20000000298023</ele>
        <time>2021-10-10T07:17:49.000Z</time>
      </trkpt>
      <trkpt lat="47.26318" lon="-2.31944">
        <ele>-0.20000000298023</ele>
        <time>2021-10-10T07:17:50.000Z</time>
      </trkpt>
      <trkpt lat="47.26314" lon="-2.31942">
        <ele>-0.60000002384186</ele>
        <time>2021-10-10T07:17:51.000Z</time>
      </trkpt>
      <trkpt lat="47.26309" lon="-2.31939">
        <ele>-1</ele>
        <time>2021-10-10T07:17:52.000Z</time>
      </trkpt>
      <trkpt lat="47.26306" lon="-2.31934">
        <ele>-1.3999999761581</ele>
        <time>2021-10-10T07:17:53.000Z</time>
      </trkpt>
      <trkpt lat="47.26304" lon="-2.31928">
        <ele>-1.3999999761581</ele>
        <time>2021-10-10T07:17:54.000Z</time>
      </trkpt>
      <trkpt lat="47.26299" lon="-2.31909">
        <ele>-1.3999999761581</ele>
        <time>2021-10-10T07:17:58.000Z</time>
      </trkpt>
      <trkpt lat="47.26288" lon="-2.31913">
        <ele>-1.3999999761581</ele>
        <time>2021-10-10T07:18:01.000Z</time>
      </trkpt>
      <trkpt lat="47.26283" lon="-2.31915">
        <ele>-1.3999999761581</ele>
        <time>2021-10-10T07:18:02.000Z</time>
      </trkpt>
      <trkpt lat="47.2628" lon="-2.31918">
        <ele>-1.3999999761581</ele>
        <time>2021-10-10T07:18:03.000Z</time>
      </trkpt>
      <trkpt lat="47.26272" lon="-2.31927">
        <ele>-1.3999999761581</ele>
        <time>2021-10-10T07:18:05.000Z</time>
      </trkpt>
      <trkpt lat="47.26258" lon="-2.31946">
        <ele>-1.3999999761581</ele>
        <time>2021-10-10T07:18:09.000Z</time>
      </trkpt>
      <trkpt lat="47.26252" lon="-2.31958">
        <ele>-1.3999999761581</ele>
        <time>2021-10-10T07:18:11.000Z</time>
      </trkpt>
      <trkpt lat="47.26237" lon="-2.31981">
        <ele>-1.3999999761581</ele>
        <time>2021-10-10T07:18:16.000Z</time>
      </trkpt>
      <trkpt lat="47.26223" lon="-2.31992">
        <ele>-1.3999999761581</ele>
        <time>2021-10-10T07:18:20.000Z</time>
      </trkpt>
      <trkpt lat="47.26204" lon="-2.32004">
        <ele>-1.3999999761581</ele>
        <time>2021-10-10T07:18:25.000Z</time>
      </trkpt>
      <trkpt lat="47.26202" lon="-2.32009">
        <ele>-1.3999999761581</ele>
        <time>2021-10-10T07:18:26.000Z</time>
      </trkpt>
      <trkpt lat="47.26202" lon="-2.32018">
        <ele>-1.3999999761581</ele>
        <time>2021-10-10T07:18:28.000Z</time>
      </trkpt>
      <trkpt lat="47.26196" lon="-2.32023">
        <ele>-1.3999999761581</ele>
        <time>2021-10-10T07:18:31.000Z</time>
      </trkpt>
      <trkpt lat="47.26184" lon="-2.32022">
        <ele>-1.3999999761581</ele>
        <time>2021-10-10T07:18:34.000Z</time>
      </trkpt>
      <trkpt lat="47.26174" lon="-2.32019">
        <ele>-1.3999999761581</ele>
        <time>2021-10-10T07:18:36.000Z</time>
      </trkpt>
      <trkpt lat="47.26165" lon="-2.32001">
        <ele>-1.3999999761581</ele>
        <time>2021-10-10T07:18:39.000Z</time>
      </trkpt>
      <trkpt lat="47.26161" lon="-2.31986">
        <ele>-1.3999999761581</ele>
        <time>2021-10-10T07:18:41.000Z</time>
      </trkpt>
      <trkpt lat="47.26156" lon="-2.31957">
        <ele>-1.3999999761581</ele>
        <time>2021-10-10T07:18:45.000Z</time>
      </trkpt>
      <trkpt lat="47.26154" lon="-2.31941">
        <ele>-1.3999999761581</ele>
        <time>2021-10-10T07:18:47.000Z</time>
      </trkpt>
      <trkpt lat="47.26149" lon="-2.31907">
        <ele>-1.3999999761581</ele>
        <time>2021-10-10T07:18:51.000Z</time>
      </trkpt>
      <trkpt lat="47.2614" lon="-2.31845">
        <ele>-1.3999999761581</ele>
        <time>2021-10-10T07:18:59.000Z</time>
      </trkpt>
      <trkpt lat="47.26134" lon="-2.31777">
        <ele>-1.3999999761581</ele>
        <time>2021-10-10T07:19:07.000Z</time>
      </trkpt>
      <trkpt lat="47.26129" lon="-2.31723">
        <ele>-1.3999999761581</ele>
        <time>2021-10-10T07:19:14.000Z</time>
      </trkpt>
      <trkpt lat="47.26127" lon="-2.31708">
        <ele>-1.3999999761581</ele>
        <time>2021-10-10T07:19:16.000Z</time>
      </trkpt>
      <trkpt lat="47.26123" lon="-2.31683">
        <ele>-1.3999999761581</ele>
        <time>2021-10-10T07:19:19.000Z</time>
      </trkpt>
      <trkpt lat="47.26115" lon="-2.31635">
        <ele>-1.3999999761581</ele>
        <time>2021-10-10T07:19:25.000Z</time>
      </trkpt>
      <trkpt lat="47.26123" lon="-2.31616">
        <ele>-1.3999999761581</ele>
        <time>2021-10-10T07:19:28.000Z</time>
      </trkpt>
      <trkpt lat="47.26139" lon="-2.31612">
        <ele>-1.3999999761581</ele>
        <time>2021-10-10T07:19:31.000Z</time>
      </trkpt>
      <trkpt lat="47.26166" lon="-2.31601">
        <ele>-1.3999999761581</ele>
        <time>2021-10-10T07:19:36.000Z</time>
      </trkpt>
      <trkpt lat="47.26211" lon="-2.31589">
        <ele>-1.3999999761581</ele>
        <time>2021-10-10T07:19:44.000Z</time>
      </trkpt>
      <trkpt lat="47.26217" lon="-2.3159">
        <ele>-1.3999999761581</ele>
        <time>2021-10-10T07:19:45.000Z</time>
      </trkpt>
      <trkpt lat="47.26233" lon="-2.31599">
        <ele>-1.3999999761581</ele>
        <time>2021-10-10T07:19:48.000Z</time>
      </trkpt>
      <trkpt lat="47.26238" lon="-2.31603">
        <ele>-1.3999999761581</ele>
        <time>2021-10-10T07:19:49.000Z</time>
      </trkpt>
      <trkpt lat="47.26251" lon="-2.31618">
        <ele>-1.3999999761581</ele>
        <time>2021-10-10T07:19:52.000Z</time>
      </trkpt>
      <trkpt lat="47.26255" lon="-2.31624">
        <ele>-1.3999999761581</ele>
        <time>2021-10-10T07:19:53.000Z</time>
      </trkpt>
      <trkpt lat="47.26267" lon="-2.31649">
        <ele>-1.3999999761581</ele>
        <time>2021-10-10T07:19:57.000Z</time>
      </trkpt>
      <trkpt lat="47.26274" lon="-2.31663">
        <ele>-1.3999999761581</ele>
        <time>2021-10-10T07:19:59.000Z</time>
      </trkpt>
      <trkpt lat="47.263" lon="-2.31707">
        <ele>-1.3999999761581</ele>
        <time>2021-10-10T07:20:06.000Z</time>
      </trkpt>
      <trkpt lat="47.26315" lon="-2.31709">
        <ele>-1.3999999761581</ele>
        <time>2021-10-10T07:20:09.000Z</time>
      </trkpt>
      <trkpt lat="47.26333" lon="-2.31698">
        <ele>-1.3999999761581</ele>
        <time>2021-10-10T07:20:13.000Z</time>
      </trkpt>
      <trkpt lat="47.26338" lon="-2.31696">
        <ele>-1.3999999761581</ele>
        <time>2021-10-10T07:20:14.000Z</time>
      </trkpt>
      <trkpt lat="47.26355" lon="-2.31686">
        <ele>-1.3999999761581</ele>
        <time>2021-10-10T07:20:18.000Z</time>
      </trkpt>
      <trkpt lat="47.26374" lon="-2.31676">
        <ele>-1</ele>
        <time>2021-10-10T07:20:22.000Z</time>
      </trkpt>
      <trkpt lat="47.2638" lon="-2.31673">
        <ele>-0.60000002384186</ele>
        <time>2021-10-10T07:20:23.000Z</time>
      </trkpt>
      <trkpt lat="47.26385" lon="-2.31669">
        <ele>-0.20000000298023</ele>
        <time>2021-10-10T07:20:24.000Z</time>
      </trkpt>
      <trkpt lat="47.2639" lon="-2.31666">
        <ele>0.80000001192093</ele>
        <time>2021-10-10T07:20:25.000Z</time>
      </trkpt>
      <trkpt lat="47.26399" lon="-2.31662">
        <ele>0.80000001192093</ele>
        <time>2021-10-10T07:20:27.000Z</time>
      </trkpt>
      <trkpt lat="47.26415" lon="-2.31656">
        <ele>0.80000001192093</ele>
        <time>2021-10-10T07:20:30.000Z</time>
      </trkpt>
      <trkpt lat="47.26432" lon="-2.31653">
        <ele>0.80000001192093</ele>
        <time>2021-10-10T07:20:33.000Z</time>
      </trkpt>
      <trkpt lat="47.26442" lon="-2.31649">
        <ele>1.2000000476837</ele>
        <time>2021-10-10T07:20:35.000Z</time>
      </trkpt>
      <trkpt lat="47.26447" lon="-2.31649">
        <ele>1.6000000238419</ele>
        <time>2021-10-10T07:20:36.000Z</time>
      </trkpt>
      <trkpt lat="47.26453" lon="-2.31648">
        <ele>2</ele>
        <time>2021-10-10T07:20:37.000Z</time>
      </trkpt>
      <trkpt lat="47.26458" lon="-2.31647">
        <ele>2.4000000953674</ele>
        <time>2021-10-10T07:20:38.000Z</time>
      </trkpt>
      <trkpt lat="47.26463" lon="-2.31646">
        <ele>2.7999999523163</ele>
        <time>2021-10-10T07:20:39.000Z</time>
      </trkpt>
      <trkpt lat="47.26483" lon="-2.31643">
        <ele>2.7999999523163</ele>
        <time>2021-10-10T07:20:43.000Z</time>
      </trkpt>
      <trkpt lat="47.26492" lon="-2.31642">
        <ele>3.2000000476837</ele>
        <time>2021-10-10T07:20:45.000Z</time>
      </trkpt>
      <trkpt lat="47.26497" lon="-2.3164">
        <ele>3.5999999046326</ele>
        <time>2021-10-10T07:20:46.000Z</time>
      </trkpt>
      <trkpt lat="47.26501" lon="-2.31639">
        <ele>4</ele>
        <time>2021-10-10T07:20:47.000Z</time>
      </trkpt>
      <trkpt lat="47.26506" lon="-2.31637">
        <ele>4.4000000953674</ele>
        <time>2021-10-10T07:20:48.000Z</time>
      </trkpt>
      <trkpt lat="47.2651" lon="-2.31635">
        <ele>4.8000001907349</ele>
        <time>2021-10-10T07:20:49.000Z</time>
      </trkpt>
      <trkpt lat="47.26519" lon="-2.31632">
        <ele>4.8000001907349</ele>
        <time>2021-10-10T07:20:51.000Z</time>
      </trkpt>
      <trkpt lat="47.26527" lon="-2.31628">
        <ele>5.1999998092651</ele>
        <time>2021-10-10T07:20:53.000Z</time>
      </trkpt>
      <trkpt lat="47.26531" lon="-2.31625">
        <ele>5.8000001907349</ele>
        <time>2021-10-10T07:20:54.000Z</time>
      </trkpt>
      <trkpt lat="47.26536" lon="-2.31623">
        <ele>6.1999998092651</ele>
        <time>2021-10-10T07:20:55.000Z</time>
      </trkpt>
      <trkpt lat="47.2654" lon="-2.31621">
        <ele>6.5999999046326</ele>
        <time>2021-10-10T07:20:56.000Z</time>
      </trkpt>
      <trkpt lat="47.26543" lon="-2.31619">
        <ele>7</ele>
        <time>2021-10-10T07:20:57.000Z</time>
      </trkpt>
      <trkpt lat="47.26559" lon="-2.31608">
        <ele>7.4000000953674</ele>
        <time>2021-10-10T07:21:01.000Z</time>
      </trkpt>
      <trkpt lat="47.26563" lon="-2.31606">
        <ele>7.8000001907349</ele>
        <time>2021-10-10T07:21:02.000Z</time>
      </trkpt>
      <trkpt lat="47.26566" lon="-2.31604">
        <ele>8.1999998092651</ele>
        <time>2021-10-10T07:21:03.000Z</time>
      </trkpt>
      <trkpt lat="47.2657" lon="-2.31601">
        <ele>8.6000003814697</ele>
        <time>2021-10-10T07:21:04.000Z</time>
      </trkpt>
      <trkpt lat="47.26573" lon="-2.31598">
        <ele>9</ele>
        <time>2021-10-10T07:21:05.000Z</time>
      </trkpt>
      <trkpt lat="47.26586" lon="-2.31588">
        <ele>9.6000003814697</ele>
        <time>2021-10-10T07:21:09.000Z</time>
      </trkpt>
      <trkpt lat="47.26589" lon="-2.31585">
        <ele>10</ele>
        <time>2021-10-10T07:21:10.000Z</time>
      </trkpt>
      <trkpt lat="47.26592" lon="-2.31583">
        <ele>10.39999961853</ele>
        <time>2021-10-10T07:21:11.000Z</time>
      </trkpt>
      <trkpt lat="47.26596" lon="-2.31581">
        <ele>10.800000190735</ele>
        <time>2021-10-10T07:21:12.000Z</time>
      </trkpt>
      <trkpt lat="47.26599" lon="-2.31579">
        <ele>11.39999961853</ele>
        <time>2021-10-10T07:21:13.000Z</time>
      </trkpt>
      <trkpt lat="47.26605" lon="-2.31575">
        <ele>11.800000190735</ele>
        <time>2021-10-10T07:21:15.000Z</time>
      </trkpt>
      <trkpt lat="47.26609" lon="-2.31572">
        <ele>12.199999809265</ele>
        <time>2021-10-10T07:21:16.000Z</time>
      </trkpt>
      <trkpt lat="47.26612" lon="-2.3157">
        <ele>12.60000038147</ele>
        <time>2021-10-10T07:21:17.000Z</time>
      </trkpt>
      <trkpt lat="47.26615" lon="-2.31568">
        <ele>13</ele>
        <time>2021-10-10T07:21:18.000Z</time>
      </trkpt>
      <trkpt lat="47.26617" lon="-2.31566">
        <ele>13.39999961853</ele>
        <time>2021-10-10T07:21:19.000Z</time>
      </trkpt>
      <trkpt lat="47.26628" lon="-2.31559">
        <ele>13.39999961853</ele>
        <time>2021-10-10T07:21:23.000Z</time>
      </trkpt>
      <trkpt lat="47.26631" lon="-2.31558">
        <ele>13.800000190735</ele>
        <time>2021-10-10T07:21:24.000Z</time>
      </trkpt>
      <trkpt lat="47.26634" lon="-2.31559">
        <ele>14.199999809265</ele>
        <time>2021-10-10T07:21:25.000Z</time>
      </trkpt>
      <trkpt lat="47.26637" lon="-2.31561">
        <ele>14.60000038147</ele>
        <time>2021-10-10T07:21:26.000Z</time>
      </trkpt>
      <trkpt lat="47.26639" lon="-2.31565">
        <ele>15</ele>
        <time>2021-10-10T07:21:27.000Z</time>
      </trkpt>
      <trkpt lat="47.26641" lon="-2.3157">
        <ele>15.60000038147</ele>
        <time>2021-10-10T07:21:28.000Z</time>
      </trkpt>
      <trkpt lat="47.26648" lon="-2.31586">
        <ele>15.60000038147</ele>
        <time>2021-10-10T07:21:31.000Z</time>
      </trkpt>
      <trkpt lat="47.2665" lon="-2.31592">
        <ele>15.60000038147</ele>
        <time>2021-10-10T07:21:32.000Z</time>
      </trkpt>
      <trkpt lat="47.26673" lon="-2.31647">
        <ele>15.60000038147</ele>
        <time>2021-10-10T07:21:41.000Z</time>
      </trkpt>
      <trkpt lat="47.26691" lon="-2.31695">
        <ele>15.60000038147</ele>
        <time>2021-10-10T07:21:48.000Z</time>
      </trkpt>
      <trkpt lat="47.26696" lon="-2.31716">
        <ele>16</ele>
        <time>2021-10-10T07:21:51.000Z</time>
      </trkpt>
      <trkpt lat="47.26698" lon="-2.31722">
        <ele>16.39999961853</ele>
        <time>2021-10-10T07:21:52.000Z</time>
      </trkpt>
      <trkpt lat="47.267" lon="-2.3173">
        <ele>16.799999237061</ele>
        <time>2021-10-10T07:21:53.000Z</time>
      </trkpt>
      <trkpt lat="47.26701" lon="-2.31737">
        <ele>17.200000762939</ele>
        <time>2021-10-10T07:21:54.000Z</time>
      </trkpt>
      <trkpt lat="47.26703" lon="-2.31745">
        <ele>17.60000038147</ele>
        <time>2021-10-10T07:21:55.000Z</time>
      </trkpt>
      <trkpt lat="47.2672" lon="-2.31805">
        <ele>17.60000038147</ele>
        <time>2021-10-10T07:22:03.000Z</time>
      </trkpt>
      <trkpt lat="47.26733" lon="-2.31847">
        <ele>17.60000038147</ele>
        <time>2021-10-10T07:22:10.000Z</time>
      </trkpt>
      <trkpt lat="47.26738" lon="-2.31871">
        <ele>17.60000038147</ele>
        <time>2021-10-10T07:22:15.000Z</time>
      </trkpt>
      <trkpt lat="47.26742" lon="-2.31885">
        <ele>17.60000038147</ele>
        <time>2021-10-10T07:22:17.000Z</time>
      </trkpt>
      <trkpt lat="47.26745" lon="-2.31892">
        <ele>17.200000762939</ele>
        <time>2021-10-10T07:22:18.000Z</time>
      </trkpt>
      <trkpt lat="47.26748" lon="-2.31899">
        <ele>16.799999237061</ele>
        <time>2021-10-10T07:22:19.000Z</time>
      </trkpt>
      <trkpt lat="47.26752" lon="-2.31907">
        <ele>16.39999961853</ele>
        <time>2021-10-10T07:22:20.000Z</time>
      </trkpt>
      <trkpt lat="47.26756" lon="-2.31916">
        <ele>16</ele>
        <time>2021-10-10T07:22:21.000Z</time>
      </trkpt>
      <trkpt lat="47.2676" lon="-2.31925">
        <ele>15.60000038147</ele>
        <time>2021-10-10T07:22:22.000Z</time>
      </trkpt>
      <trkpt lat="47.26769" lon="-2.31944">
        <ele>15.60000038147</ele>
        <time>2021-10-10T07:22:24.000Z</time>
      </trkpt>
      <trkpt lat="47.26779" lon="-2.31964">
        <ele>15.199999809265</ele>
        <time>2021-10-10T07:22:26.000Z</time>
      </trkpt>
      <trkpt lat="47.26784" lon="-2.31974">
        <ele>14.800000190735</ele>
        <time>2021-10-10T07:22:27.000Z</time>
      </trkpt>
      <trkpt lat="47.26789" lon="-2.31983">
        <ele>14.39999961853</ele>
        <time>2021-10-10T07:22:28.000Z</time>
      </trkpt>
      <trkpt lat="47.26794" lon="-2.31992">
        <ele>13.39999961853</ele>
        <time>2021-10-10T07:22:29.000Z</time>
      </trkpt>
      <trkpt lat="47.268" lon="-2.32002">
        <ele>13.39999961853</ele>
        <time>2021-10-10T07:22:30.000Z</time>
      </trkpt>
      <trkpt lat="47.26805" lon="-2.32012">
        <ele>13</ele>
        <time>2021-10-10T07:22:31.000Z</time>
      </trkpt>
      <trkpt lat="47.26809" lon="-2.32022">
        <ele>12.60000038147</ele>
        <time>2021-10-10T07:22:32.000Z</time>
      </trkpt>
      <trkpt lat="47.26813" lon="-2.32033">
        <ele>12.199999809265</ele>
        <time>2021-10-10T07:22:33.000Z</time>
      </trkpt>
      <trkpt lat="47.26816" lon="-2.32044">
        <ele>11.800000190735</ele>
        <time>2021-10-10T07:22:34.000Z</time>
      </trkpt>
      <trkpt lat="47.26819" lon="-2.32055">
        <ele>11.39999961853</ele>
        <time>2021-10-10T07:22:35.000Z</time>
      </trkpt>
      <trkpt lat="47.26821" lon="-2.32066">
        <ele>11</ele>
        <time>2021-10-10T07:22:36.000Z</time>
      </trkpt>
      <trkpt lat="47.26824" lon="-2.32077">
        <ele>10.60000038147</ele>
        <time>2021-10-10T07:22:37.000Z</time>
      </trkpt>
      <trkpt lat="47.26827" lon="-2.32087">
        <ele>10.199999809265</ele>
        <time>2021-10-10T07:22:38.000Z</time>
      </trkpt>
      <trkpt lat="47.2683" lon="-2.32097">
        <ele>9.6000003814697</ele>
        <time>2021-10-10T07:22:39.000Z</time>
      </trkpt>
      <trkpt lat="47.26833" lon="-2.32108">
        <ele>9.1999998092651</ele>
        <time>2021-10-10T07:22:40.000Z</time>
      </trkpt>
      <trkpt lat="47.26835" lon="-2.32118">
        <ele>9.1999998092651</ele>
        <time>2021-10-10T07:22:41.000Z</time>
      </trkpt>
      <trkpt lat="47.26848" lon="-2.32164">
        <ele>9.1999998092651</ele>
        <time>2021-10-10T07:22:46.000Z</time>
      </trkpt>
      <trkpt lat="47.26855" lon="-2.3218">
        <ele>9.1999998092651</ele>
        <time>2021-10-10T07:22:48.000Z</time>
      </trkpt>
      <trkpt lat="47.26858" lon="-2.32189">
        <ele>8.8000001907349</ele>
        <time>2021-10-10T07:22:49.000Z</time>
      </trkpt>
      <trkpt lat="47.26863" lon="-2.32196">
        <ele>8.3999996185303</ele>
        <time>2021-10-10T07:22:50.000Z</time>
      </trkpt>
      <trkpt lat="47.26867" lon="-2.32205">
        <ele>8</ele>
        <time>2021-10-10T07:22:51.000Z</time>
      </trkpt>
      <trkpt lat="47.26871" lon="-2.32214">
        <ele>7.4000000953674</ele>
        <time>2021-10-10T07:22:52.000Z</time>
      </trkpt>
      <trkpt lat="47.26875" lon="-2.32224">
        <ele>7</ele>
        <time>2021-10-10T07:22:53.000Z</time>
      </trkpt>
      <trkpt lat="47.26889" lon="-2.32248">
        <ele>6.5999999046326</ele>
        <time>2021-10-10T07:22:56.000Z</time>
      </trkpt>
      <trkpt lat="47.26893" lon="-2.32256">
        <ele>6.1999998092651</ele>
        <time>2021-10-10T07:22:57.000Z</time>
      </trkpt>
      <trkpt lat="47.26897" lon="-2.32264">
        <ele>5.8000001907349</ele>
        <time>2021-10-10T07:22:58.000Z</time>
      </trkpt>
      <trkpt lat="47.26902" lon="-2.32273">
        <ele>5.4000000953674</ele>
        <time>2021-10-10T07:22:59.000Z</time>
      </trkpt>
      <trkpt lat="47.26906" lon="-2.32281">
        <ele>5</ele>
        <time>2021-10-10T07:23:00.000Z</time>
      </trkpt>
      <trkpt lat="47.26918" lon="-2.3231">
        <ele>4.5999999046326</ele>
        <time>2021-10-10T07:23:03.000Z</time>
      </trkpt>
      <trkpt lat="47.2692" lon="-2.32318">
        <ele>4.1999998092651</ele>
        <time>2021-10-10T07:23:04.000Z</time>
      </trkpt>
      <trkpt lat="47.26921" lon="-2.32325">
        <ele>3.5999999046326</ele>
        <time>2021-10-10T07:23:05.000Z</time>
      </trkpt>
      <trkpt lat="47.26922" lon="-2.32332">
        <ele>3.2000000476837</ele>
        <time>2021-10-10T07:23:06.000Z</time>
      </trkpt>
      <trkpt lat="47.26924" lon="-2.32339">
        <ele>2.7999999523163</ele>
        <time>2021-10-10T07:23:07.000Z</time>
      </trkpt>
      <trkpt lat="47.26927" lon="-2.32346">
        <ele>2.7999999523163</ele>
        <time>2021-10-10T07:23:08.000Z</time>
      </trkpt>
      <trkpt lat="47.26938" lon="-2.32365">
        <ele>2.7999999523163</ele>
        <time>2021-10-10T07:23:11.000Z</time>
      </trkpt>
      <trkpt lat="47.2694" lon="-2.32373">
        <ele>2.7999999523163</ele>
        <time>2021-10-10T07:23:12.000Z</time>
      </trkpt>
      <trkpt lat="47.26953" lon="-2.32417">
        <ele>2.7999999523163</ele>
        <time>2021-10-10T07:23:17.000Z</time>
      </trkpt>
      <trkpt lat="47.26961" lon="-2.32433">
        <ele>2.7999999523163</ele>
        <time>2021-10-10T07:23:19.000Z</time>
      </trkpt>
      <trkpt lat="47.26966" lon="-2.3244">
        <ele>2.4000000953674</ele>
        <time>2021-10-10T07:23:20.000Z</time>
      </trkpt>
      <trkpt lat="47.26972" lon="-2.32446">
        <ele>2</ele>
        <time>2021-10-10T07:23:21.000Z</time>
      </trkpt>
      <trkpt lat="47.26977" lon="-2.32453">
        <ele>1.6000000238419</ele>
        <time>2021-10-10T07:23:22.000Z</time>
      </trkpt>
      <trkpt lat="47.26982" lon="-2.3246">
        <ele>1.2000000476837</ele>
        <time>2021-10-10T07:23:23.000Z</time>
      </trkpt>
      <trkpt lat="47.26986" lon="-2.32467">
        <ele>0.80000001192093</ele>
        <time>2021-10-10T07:23:24.000Z</time>
      </trkpt>
      <trkpt lat="47.2699" lon="-2.32475">
        <ele>0.80000001192093</ele>
        <time>2021-10-10T07:23:25.000Z</time>
      </trkpt>
      <trkpt lat="47.26996" lon="-2.3249">
        <ele>0.80000001192093</ele>
        <time>2021-10-10T07:23:27.000Z</time>
      </trkpt>
      <trkpt lat="47.27003" lon="-2.32503">
        <ele>0.80000001192093</ele>
        <time>2021-10-10T07:23:29.000Z</time>
      </trkpt>
      <trkpt lat="47.27014" lon="-2.32506">
        <ele>0.80000001192093</ele>
        <time>2021-10-10T07:23:31.000Z</time>
      </trkpt>
      <trkpt lat="47.27025" lon="-2.325">
        <ele>0.40000000596046</ele>
        <time>2021-10-10T07:23:33.000Z</time>
      </trkpt>
      <trkpt lat="47.2703" lon="-2.32494">
        <ele>3.9</ele>
        <time>2021-10-10T07:23:34.000Z</time>
      </trkpt>
      <trkpt lat="47.27034" lon="-2.32487">
        <ele>-0.40000000596046</ele>
        <time>2021-10-10T07:23:35.000Z</time>
      </trkpt>
      <trkpt lat="47.27037" lon="-2.32479">
        <ele>-0.80000001192093</ele>
        <time>2021-10-10T07:23:36.000Z</time>
      </trkpt>
      <trkpt lat="47.27036" lon="-2.32468">
        <ele>-1.2000000476837</ele>
        <time>2021-10-10T07:23:37.000Z</time>
      </trkpt>
      <trkpt lat="47.27035" lon="-2.32447">
        <ele>-1.2000000476837</ele>
        <time>2021-10-10T07:23:39.000Z</time>
      </trkpt>
      <trkpt lat="47.27033" lon="-2.32424">
        <ele>-1.2000000476837</ele>
        <time>2021-10-10T07:23:41.000Z</time>
      </trkpt>
      <trkpt lat="47.27031" lon="-2.32404">
        <ele>-1.2000000476837</ele>
        <time>2021-10-10T07:23:43.000Z</time>
      </trkpt>
      <trkpt lat="47.27029" lon="-2.32376">
        <ele>-1.2000000476837</ele>
        <time>2021-10-10T07:23:46.000Z</time>
      </trkpt>
      <trkpt lat="47.27023" lon="-2.32332">
        <ele>-1.2000000476837</ele>
        <time>2021-10-10T07:23:51.000Z</time>
      </trkpt>
      <trkpt lat="47.27021" lon="-2.3228">
        <ele>-1.2000000476837</ele>
        <time>2021-10-10T07:23:57.000Z</time>
      </trkpt>
      <trkpt lat="47.27021" lon="-2.32248">
        <ele>-1.2000000476837</ele>
        <time>2021-10-10T07:24:01.000Z</time>
      </trkpt>
      <trkpt lat="47.27018" lon="-2.32222">
        <ele>-1.2000000476837</ele>
        <time>2021-10-10T07:24:04.000Z</time>
      </trkpt>
      <trkpt lat="47.27011" lon="-2.32192">
        <ele>-1.2000000476837</ele>
        <time>2021-10-10T07:24:08.000Z</time>
      </trkpt>
      <trkpt lat="47.27008" lon="-2.32186">
        <ele>-1.2000000476837</ele>
        <time>2021-10-10T07:24:09.000Z</time>
      </trkpt>
      <trkpt lat="47.27005" lon="-2.32179">
        <ele>-1.2000000476837</ele>
        <time>2021-10-10T07:24:10.000Z</time>
      </trkpt>
      <trkpt lat="47.26993" lon="-2.32159">
        <ele>-1.2000000476837</ele>
        <time>2021-10-10T07:24:13.000Z</time>
      </trkpt>
      <trkpt lat="47.26991" lon="-2.32138">
        <ele>-1.2000000476837</ele>
        <time>2021-10-10T07:24:16.000Z</time>
      </trkpt>
      <trkpt lat="47.26998" lon="-2.32132">
        <ele>-1.2000000476837</ele>
        <time>2021-10-10T07:24:18.000Z</time>
      </trkpt>
      <trkpt lat="47.27005" lon="-2.32126">
        <ele>-1.2000000476837</ele>
        <time>2021-10-10T07:24:20.000Z</time>
      </trkpt>
      <trkpt lat="47.27007" lon="-2.32121">
        <ele>-1.2000000476837</ele>
        <time>2021-10-10T07:24:21.000Z</time>
      </trkpt>
      <trkpt lat="47.27012" lon="-2.32102">
        <ele>-1.2000000476837</ele>
        <time>2021-10-10T07:24:24.000Z</time>
      </trkpt>
      <trkpt lat="47.27013" lon="-2.32097">
        <ele>-1.2000000476837</ele>
        <time>2021-10-10T07:24:25.000Z</time>
      </trkpt>
      <trkpt lat="47.27014" lon="-2.3209">
        <ele>-1.2000000476837</ele>
        <time>2021-10-10T07:24:26.000Z</time>
      </trkpt>
      <trkpt lat="47.27015" lon="-2.32057">
        <ele>-1.2000000476837</ele>
        <time>2021-10-10T07:24:30.000Z</time>
      </trkpt>
      <trkpt lat="47.27013" lon="-2.3203">
        <ele>-0.80000001192093</ele>
        <time>2021-10-10T07:24:34.000Z</time>
      </trkpt>
      <trkpt lat="47.27012" lon="-2.32024">
        <ele>-0.40000000596046</ele>
        <time>2021-10-10T07:24:35.000Z</time>
      </trkpt>
      <trkpt lat="47.2701" lon="-2.32017">
        <ele>8.8</ele>
        <time>2021-10-10T07:24:36.000Z</time>
      </trkpt>
      <trkpt lat="47.27008" lon="-2.32012">
        <ele>0.60000002384186</ele>
        <time>2021-10-10T07:24:37.000Z</time>
      </trkpt>
      <trkpt lat="47.27007" lon="-2.32006">
        <ele>1</ele>
        <time>2021-10-10T07:24:38.000Z</time>
      </trkpt>
      <trkpt lat="47.27006" lon="-2.31989">
        <ele>1</ele>
        <time>2021-10-10T07:24:41.000Z</time>
      </trkpt>
      <trkpt lat="47.27016" lon="-2.31979">
        <ele>1</ele>
        <time>2021-10-10T07:24:44.000Z</time>
      </trkpt>
      <trkpt lat="47.2702" lon="-2.31975">
        <ele>1</ele>
        <time>2021-10-10T07:24:45.000Z</time>
      </trkpt>
      <trkpt lat="47.27034" lon="-2.31965">
        <ele>1.3999999761581</ele>
        <time>2021-10-10T07:24:49.000Z</time>
      </trkpt>
      <trkpt lat="47.27037" lon="-2.31963">
        <ele>1.7999999523163</ele>
        <time>2021-10-10T07:24:50.000Z</time>
      </trkpt>
      <trkpt lat="47.2704" lon="-2.31961">
        <ele>2.2000000476837</ele>
        <time>2021-10-10T07:24:51.000Z</time>
      </trkpt>
      <trkpt lat="47.27043" lon="-2.3196">
        <ele>2.5999999046326</ele>
        <time>2021-10-10T07:24:52.000Z</time>
      </trkpt>
      <trkpt lat="47.27045" lon="-2.31959">
        <ele>3</ele>
        <time>2021-10-10T07:24:53.000Z</time>
      </trkpt>
      <trkpt lat="47.27049" lon="-2.3196">
        <ele>3</ele>
        <time>2021-10-10T07:24:54.000Z</time>
      </trkpt>
      <trkpt lat="47.27056" lon="-2.3196">
        <ele>3</ele>
        <time>2021-10-10T07:24:56.000Z</time>
      </trkpt>
      <trkpt lat="47.27064" lon="-2.3196">
        <ele>3</ele>
        <time>2021-10-10T07:24:58.000Z</time>
      </trkpt>
      <trkpt lat="47.27071" lon="-2.31959">
        <ele>3</ele>
        <time>2021-10-10T07:25:01.000Z</time>
      </trkpt>
      <trkpt lat="47.27072" lon="-2.31956">
        <ele>3</ele>
        <time>2021-10-10T07:25:02.000Z</time>
      </trkpt>
      <trkpt lat="47.27072" lon="-2.31952">
        <ele>3</ele>
        <time>2021-10-10T07:25:04.000Z</time>
      </trkpt>
      <trkpt lat="47.27071" lon="-2.31926">
        <ele>3</ele>
        <time>2021-10-10T07:25:11.000Z</time>
      </trkpt>
      <trkpt lat="47.27071" lon="-2.3189">
        <ele>3</ele>
        <time>2021-10-10T07:25:18.000Z</time>
      </trkpt>
      <trkpt lat="47.27073" lon="-2.3187">
        <ele>3</ele>
        <time>2021-10-10T07:25:22.000Z</time>
      </trkpt>
      <trkpt lat="47.27071" lon="-2.31866">
        <ele>3</ele>
        <time>2021-10-10T07:25:23.000Z</time>
      </trkpt>
      <trkpt lat="47.27063" lon="-2.31858">
        <ele>3</ele>
        <time>2021-10-10T07:25:26.000Z</time>
      </trkpt>
      <trkpt lat="47.27061" lon="-2.31853">
        <ele>3</ele>
        <time>2021-10-10T07:25:27.000Z</time>
      </trkpt>
      <trkpt lat="47.27059" lon="-2.31836">
        <ele>3</ele>
        <time>2021-10-10T07:25:30.000Z</time>
      </trkpt>
      <trkpt lat="47.27058" lon="-2.31828">
        <ele>3</ele>
        <time>2021-10-10T07:25:31.000Z</time>
      </trkpt>
      <trkpt lat="47.27057" lon="-2.3181">
        <ele>3.4000000953674</ele>
        <time>2021-10-10T07:25:34.000Z</time>
      </trkpt>
      <trkpt lat="47.27056" lon="-2.31805">
        <ele>3.7999999523163</ele>
        <time>2021-10-10T07:25:35.000Z</time>
      </trkpt>
      <trkpt lat="47.27055" lon="-2.318">
        <ele>4.1999998092651</ele>
        <time>2021-10-10T07:25:36.000Z</time>
      </trkpt>
      <trkpt lat="47.27055" lon="-2.31794">
        <ele>4.5999999046326</ele>
        <time>2021-10-10T07:25:37.000Z</time>
      </trkpt>
      <trkpt lat="47.27055" lon="-2.31789">
        <ele>5</ele>
        <time>2021-10-10T07:25:38.000Z</time>
      </trkpt>
      <trkpt lat="47.27052" lon="-2.31769">
        <ele>5</ele>
        <time>2021-10-10T07:25:42.000Z</time>
      </trkpt>
      <trkpt lat="47.2705" lon="-2.31747">
        <ele>5</ele>
        <time>2021-10-10T07:25:47.000Z</time>
      </trkpt>
      <trkpt lat="47.27048" lon="-2.31731">
        <ele>5</ele>
        <time>2021-10-10T07:25:51.000Z</time>
      </trkpt>
      <trkpt lat="47.27046" lon="-2.31729">
        <ele>5.4000000953674</ele>
        <time>2021-10-10T07:25:52.000Z</time>
      </trkpt>
      <trkpt lat="47.27043" lon="-2.31727">
        <ele>5.8000001907349</ele>
        <time>2021-10-10T07:25:53.000Z</time>
      </trkpt>
      <trkpt lat="47.27039" lon="-2.31725">
        <ele>6.4000000953674</ele>
        <time>2021-10-10T07:25:54.000Z</time>
      </trkpt>
      <trkpt lat="47.27035" lon="-2.31723">
        <ele>6.8000001907349</ele>
        <time>2021-10-10T07:25:55.000Z</time>
      </trkpt>
      <trkpt lat="47.27032" lon="-2.31721">
        <ele>7.1999998092651</ele>
        <time>2021-10-10T07:25:56.000Z</time>
      </trkpt>
      <trkpt lat="47.27027" lon="-2.31714">
        <ele>7.1999998092651</ele>
        <time>2021-10-10T07:25:58.000Z</time>
      </trkpt>
      <trkpt lat="47.27026" lon="-2.31711">
        <ele>7.1999998092651</ele>
        <time>2021-10-10T07:25:59.000Z</time>
      </trkpt>
      <trkpt lat="47.27028" lon="-2.31688">
        <ele>7.1999998092651</ele>
        <time>2021-10-10T07:26:04.000Z</time>
      </trkpt>
      <trkpt lat="47.27031" lon="-2.31673">
        <ele>7.5999999046326</ele>
        <time>2021-10-10T07:26:07.000Z</time>
      </trkpt>
      <trkpt lat="47.27031" lon="-2.31669">
        <ele>8</ele>
        <time>2021-10-10T07:26:08.000Z</time>
      </trkpt>
      <trkpt lat="47.27031" lon="-2.31664">
        <ele>8.3999996185303</ele>
        <time>2021-10-10T07:26:09.000Z</time>
      </trkpt>
      <trkpt lat="47.2703" lon="-2.31658">
        <ele>8.8000001907349</ele>
        <time>2021-10-10T07:26:10.000Z</time>
      </trkpt>
      <trkpt lat="47.2703" lon="-2.31652">
        <ele>9.1999998092651</ele>
        <time>2021-10-10T07:26:11.000Z</time>
      </trkpt>
      <trkpt lat="47.27027" lon="-2.31622">
        <ele>9.6000003814697</ele>
        <time>2021-10-10T07:26:16.000Z</time>
      </trkpt>
      <trkpt lat="47.27026" lon="-2.31617">
        <ele>10</ele>
        <time>2021-10-10T07:26:17.000Z</time>
      </trkpt>
      <trkpt lat="47.27026" lon="-2.31613">
        <ele>10.39999961853</ele>
        <time>2021-10-10T07:26:18.000Z</time>
      </trkpt>
      <trkpt lat="47.27026" lon="-2.31609">
        <ele>10.800000190735</ele>
        <time>2021-10-10T07:26:19.000Z</time>
      </trkpt>
      <trkpt lat="47.27026" lon="-2.31606">
        <ele>11.199999809265</ele>
        <time>2021-10-10T07:26:20.000Z</time>
      </trkpt>
      <trkpt lat="47.27026" lon="-2.31602">
        <ele>11.199999809265</ele>
        <time>2021-10-10T07:26:21.000Z</time>
      </trkpt>
      <trkpt lat="47.27025" lon="-2.31587">
        <ele>11.60000038147</ele>
        <time>2021-10-10T07:26:24.000Z</time>
      </trkpt>
      <trkpt lat="47.27023" lon="-2.31583">
        <ele>12</ele>
        <time>2021-10-10T07:26:25.000Z</time>
      </trkpt>
      <trkpt lat="47.27022" lon="-2.31579">
        <ele>12.39999961853</ele>
        <time>2021-10-10T07:26:26.000Z</time>
      </trkpt>
      <trkpt lat="47.2702" lon="-2.31575">
        <ele>12.800000190735</ele>
        <time>2021-10-10T07:26:27.000Z</time>
      </trkpt>
      <trkpt lat="47.27018" lon="-2.31571">
        <ele>13.199999809265</ele>
        <time>2021-10-10T07:26:28.000Z</time>
      </trkpt>
      <trkpt lat="47.27011" lon="-2.3155">
        <ele>13.199999809265</ele>
        <time>2021-10-10T07:26:33.000Z</time>
      </trkpt>
      <trkpt lat="47.27008" lon="-2.31543">
        <ele>14.199999809265</ele>
        <time>2021-10-10T07:26:35.000Z</time>
      </trkpt>
      <trkpt lat="47.27007" lon="-2.31539">
        <ele>14.60000038147</ele>
        <time>2021-10-10T07:26:36.000Z</time>
      </trkpt>
      <trkpt lat="47.27006" lon="-2.31535">
        <ele>15</ele>
        <time>2021-10-10T07:26:37.000Z</time>
      </trkpt>
      <trkpt lat="47.27005" lon="-2.31531">
        <ele>15.39999961853</ele>
        <time>2021-10-10T07:26:38.000Z</time>
      </trkpt>
      <trkpt lat="47.27003" lon="-2.31526">
        <ele>15.39999961853</ele>
        <time>2021-10-10T07:26:39.000Z</time>
      </trkpt>
      <trkpt lat="47.26994" lon="-2.31491">
        <ele>15.800000190735</ele>
        <time>2021-10-10T07:26:46.000Z</time>
      </trkpt>
      <trkpt lat="47.26993" lon="-2.31486">
        <ele>16.200000762939</ele>
        <time>2021-10-10T07:26:47.000Z</time>
      </trkpt>
      <trkpt lat="47.26992" lon="-2.3148">
        <ele>16.60000038147</ele>
        <time>2021-10-10T07:26:48.000Z</time>
      </trkpt>
      <trkpt lat="47.26991" lon="-2.31474">
        <ele>17</ele>
        <time>2021-10-10T07:26:49.000Z</time>
      </trkpt>
      <trkpt lat="47.26989" lon="-2.31469">
        <ele>17.60000038147</ele>
        <time>2021-10-10T07:26:50.000Z</time>
      </trkpt>
      <trkpt lat="47.26987" lon="-2.31459">
        <ele>17.60000038147</ele>
        <time>2021-10-10T07:26:52.000Z</time>
      </trkpt>
      <trkpt lat="47.26986" lon="-2.31429">
        <ele>17.60000038147</ele>
        <time>2021-10-10T07:26:57.000Z</time>
      </trkpt>
      <trkpt lat="47.26985" lon="-2.31417">
        <ele>18</ele>
        <time>2021-10-10T07:26:59.000Z</time>
      </trkpt>
      <trkpt lat="47.26984" lon="-2.31411">
        <ele>18.799999237061</ele>
        <time>2021-10-10T07:27:00.000Z</time>
      </trkpt>
      <trkpt lat="47.26984" lon="-2.31406">
        <ele>19.200000762939</ele>
        <time>2021-10-10T07:27:01.000Z</time>
      </trkpt>
      <trkpt lat="47.26984" lon="-2.314">
        <ele>19.60000038147</ele>
        <time>2021-10-10T07:27:02.000Z</time>
      </trkpt>
      <trkpt lat="47.26984" lon="-2.31388">
        <ele>19.60000038147</ele>
        <time>2021-10-10T07:27:04.000Z</time>
      </trkpt>
      <trkpt lat="47.26982" lon="-2.31367">
        <ele>20</ele>
        <time>2021-10-10T07:27:08.000Z</time>
      </trkpt>
      <trkpt lat="47.26982" lon="-2.31363">
        <ele>20.39999961853</ele>
        <time>2021-10-10T07:27:09.000Z</time>
      </trkpt>
      <trkpt lat="47.26982" lon="-2.31358">
        <ele>20.799999237061</ele>
        <time>2021-10-10T07:27:10.000Z</time>
      </trkpt>
      <trkpt lat="47.26982" lon="-2.31352">
        <ele>21.200000762939</ele>
        <time>2021-10-10T07:27:11.000Z</time>
      </trkpt>
      <trkpt lat="47.26982" lon="-2.31346">
        <ele>21.60000038147</ele>
        <time>2021-10-10T07:27:12.000Z</time>
      </trkpt>
      <trkpt lat="47.26979" lon="-2.31318">
        <ele>21.60000038147</ele>
        <time>2021-10-10T07:27:17.000Z</time>
      </trkpt>
      <trkpt lat="47.26976" lon="-2.31288">
        <ele>21.60000038147</ele>
        <time>2021-10-10T07:27:22.000Z</time>
      </trkpt>
      <trkpt lat="47.26977" lon="-2.31269">
        <ele>21.60000038147</ele>
        <time>2021-10-10T07:27:25.000Z</time>
      </trkpt>
      <trkpt lat="47.26976" lon="-2.31253">
        <ele>21.60000038147</ele>
        <time>2021-10-10T07:27:27.000Z</time>
      </trkpt>
      <trkpt lat="47.26975" lon="-2.31238">
        <ele>21.60000038147</ele>
        <time>2021-10-10T07:27:29.000Z</time>
      </trkpt>
      <trkpt lat="47.26978" lon="-2.31216">
        <ele>21.60000038147</ele>
        <time>2021-10-10T07:27:32.000Z</time>
      </trkpt>
      <trkpt lat="47.26983" lon="-2.31168">
        <ele>21.60000038147</ele>
        <time>2021-10-10T07:27:37.000Z</time>
      </trkpt>
      <trkpt lat="47.26988" lon="-2.31126">
        <ele>21.60000038147</ele>
        <time>2021-10-10T07:27:41.000Z</time>
      </trkpt>
      <trkpt lat="47.26988" lon="-2.31116">
        <ele>21.60000038147</ele>
        <time>2021-10-10T07:27:42.000Z</time>
      </trkpt>
      <trkpt lat="47.26988" lon="-2.31106">
        <ele>21.200000762939</ele>
        <time>2021-10-10T07:27:43.000Z</time>
      </trkpt>
      <trkpt lat="47.26988" lon="-2.31097">
        <ele>20.799999237061</ele>
        <time>2021-10-10T07:27:44.000Z</time>
      </trkpt>
      <trkpt lat="47.26988" lon="-2.31089">
        <ele>20.39999961853</ele>
        <time>2021-10-10T07:27:45.000Z</time>
      </trkpt>
      <trkpt lat="47.26987" lon="-2.31082">
        <ele>20</ele>
        <time>2021-10-10T07:27:46.000Z</time>
      </trkpt>
      <trkpt lat="47.26988" lon="-2.31076">
        <ele>19.39999961853</ele>
        <time>2021-10-10T07:27:47.000Z</time>
      </trkpt>
      <trkpt lat="47.26997" lon="-2.31062">
        <ele>19.39999961853</ele>
        <time>2021-10-10T07:27:50.000Z</time>
      </trkpt>
      <trkpt lat="47.27008" lon="-2.31053">
        <ele>19</ele>
        <time>2021-10-10T07:27:52.000Z</time>
      </trkpt>
      <trkpt lat="47.27014" lon="-2.31049">
        <ele>18.60000038147</ele>
        <time>2021-10-10T07:27:53.000Z</time>
      </trkpt>
      <trkpt lat="47.27019" lon="-2.31046">
        <ele>18.200000762939</ele>
        <time>2021-10-10T07:27:54.000Z</time>
      </trkpt>
      <trkpt lat="47.27024" lon="-2.31042">
        <ele>17.799999237061</ele>
        <time>2021-10-10T07:27:55.000Z</time>
      </trkpt>
      <trkpt lat="47.2703" lon="-2.31037">
        <ele>17.39999961853</ele>
        <time>2021-10-10T07:27:56.000Z</time>
      </trkpt>
      <trkpt lat="47.27055" lon="-2.31013">
        <ele>17</ele>
        <time>2021-10-10T07:28:01.000Z</time>
      </trkpt>
      <trkpt lat="47.27059" lon="-2.31007">
        <ele>16.60000038147</ele>
        <time>2021-10-10T07:28:02.000Z</time>
      </trkpt>
      <trkpt lat="47.27061" lon="-2.31001">
        <ele>16.200000762939</ele>
        <time>2021-10-10T07:28:03.000Z</time>
      </trkpt>
      <trkpt lat="47.27063" lon="-2.30995">
        <ele>15.60000038147</ele>
        <time>2021-10-10T07:28:04.000Z</time>
      </trkpt>
      <trkpt lat="47.27064" lon="-2.30989">
        <ele>15.199999809265</ele>
        <time>2021-10-10T07:28:05.000Z</time>
      </trkpt>
      <trkpt lat="47.27062" lon="-2.30977">
        <ele>15.199999809265</ele>
        <time>2021-10-10T07:28:07.000Z</time>
      </trkpt>
      <trkpt lat="47.27059" lon="-2.30961">
        <ele>15.199999809265</ele>
        <time>2021-10-10T07:28:10.000Z</time>
      </trkpt>
      <trkpt lat="47.27052" lon="-2.30931">
        <ele>15.199999809265</ele>
        <time>2021-10-10T07:28:15.000Z</time>
      </trkpt>
      <trkpt lat="47.27043" lon="-2.30914">
        <ele>15.199999809265</ele>
        <time>2021-10-10T07:28:19.000Z</time>
      </trkpt>
      <trkpt lat="47.27039" lon="-2.30895">
        <ele>15.199999809265</ele>
        <time>2021-10-10T07:28:22.000Z</time>
      </trkpt>
      <trkpt lat="47.27037" lon="-2.30889">
        <ele>15.199999809265</ele>
        <time>2021-10-10T07:28:23.000Z</time>
      </trkpt>
      <trkpt lat="47.27017" lon="-2.30853">
        <ele>15.199999809265</ele>
        <time>2021-10-10T07:28:29.000Z</time>
      </trkpt>
      <trkpt lat="47.27" lon="-2.3082">
        <ele>15.199999809265</ele>
        <time>2021-10-10T07:28:35.000Z</time>
      </trkpt>
      <trkpt lat="47.26989" lon="-2.30805">
        <ele>15.60000038147</ele>
        <time>2021-10-10T07:28:39.000Z</time>
      </trkpt>
      <trkpt lat="47.26986" lon="-2.30801">
        <ele>16</ele>
        <time>2021-10-10T07:28:40.000Z</time>
      </trkpt>
      <trkpt lat="47.26984" lon="-2.30796">
        <ele>16.60000038147</ele>
        <time>2021-10-10T07:28:41.000Z</time>
      </trkpt>
      <trkpt lat="47.26981" lon="-2.30791">
        <ele>17</ele>
        <time>2021-10-10T07:28:42.000Z</time>
      </trkpt>
      <trkpt lat="47.26979" lon="-2.30787">
        <ele>17.39999961853</ele>
        <time>2021-10-10T07:28:43.000Z</time>
      </trkpt>
      <trkpt lat="47.26967" lon="-2.30769">
        <ele>17.39999961853</ele>
        <time>2021-10-10T07:28:47.000Z</time>
      </trkpt>
      <trkpt lat="47.26952" lon="-2.30749">
        <ele>17.799999237061</ele>
        <time>2021-10-10T07:28:52.000Z</time>
      </trkpt>
      <trkpt lat="47.26949" lon="-2.30745">
        <ele>18.200000762939</ele>
        <time>2021-10-10T07:28:53.000Z</time>
      </trkpt>
      <trkpt lat="47.26946" lon="-2.30741">
        <ele>18.60000038147</ele>
        <time>2021-10-10T07:28:54.000Z</time>
      </trkpt>
      <trkpt lat="47.26944" lon="-2.30737">
        <ele>19</ele>
        <time>2021-10-10T07:28:55.000Z</time>
      </trkpt>
      <trkpt lat="47.26941" lon="-2.30733">
        <ele>19.39999961853</ele>
        <time>2021-10-10T07:28:56.000Z</time>
      </trkpt>
      <trkpt lat="47.26927" lon="-2.3071">
        <ele>19.39999961853</ele>
        <time>2021-10-10T07:29:02.000Z</time>
      </trkpt>
      <trkpt lat="47.26918" lon="-2.30697">
        <ele>19.799999237061</ele>
        <time>2021-10-10T07:29:05.000Z</time>
      </trkpt>
      <trkpt lat="47.26915" lon="-2.30693">
        <ele>20.200000762939</ele>
        <time>2021-10-10T07:29:06.000Z</time>
      </trkpt>
      <trkpt lat="47.26913" lon="-2.3069">
        <ele>20.60000038147</ele>
        <time>2021-10-10T07:29:07.000Z</time>
      </trkpt>
      <trkpt lat="47.26911" lon="-2.30687">
        <ele>21</ele>
        <time>2021-10-10T07:29:08.000Z</time>
      </trkpt>
      <trkpt lat="47.26908" lon="-2.30684">
        <ele>21.39999961853</ele>
        <time>2021-10-10T07:29:09.000Z</time>
      </trkpt>
      <trkpt lat="47.26895" lon="-2.30667">
        <ele>21.39999961853</ele>
        <time>2021-10-10T07:29:15.000Z</time>
      </trkpt>
      <trkpt lat="47.26891" lon="-2.30668">
        <ele>21.39999961853</ele>
        <time>2021-10-10T07:29:16.000Z</time>
      </trkpt>
      <trkpt lat="47.26879" lon="-2.30681">
        <ele>21.39999961853</ele>
        <time>2021-10-10T07:29:20.000Z</time>
      </trkpt>
      <trkpt lat="47.26864" lon="-2.30705">
        <ele>21.39999961853</ele>
        <time>2021-10-10T07:29:25.000Z</time>
      </trkpt>
      <trkpt lat="47.26859" lon="-2.30717">
        <ele>21.39999961853</ele>
        <time>2021-10-10T07:29:27.000Z</time>
      </trkpt>
      <trkpt lat="47.26843" lon="-2.30757">
        <ele>21.39999961853</ele>
        <time>2021-10-10T07:29:34.000Z</time>
      </trkpt>
      <trkpt lat="47.26831" lon="-2.30784">
        <ele>21.39999961853</ele>
        <time>2021-10-10T07:29:39.000Z</time>
      </trkpt>
      <trkpt lat="47.26826" lon="-2.30789">
        <ele>21.39999961853</ele>
        <time>2021-10-10T07:29:40.000Z</time>
      </trkpt>
      <trkpt lat="47.26811" lon="-2.308">
        <ele>21.39999961853</ele>
        <time>2021-10-10T07:29:43.000Z</time>
      </trkpt>
      <trkpt lat="47.26807" lon="-2.30804">
        <ele>21.39999961853</ele>
        <time>2021-10-10T07:29:44.000Z</time>
      </trkpt>
      <trkpt lat="47.2678" lon="-2.30835">
        <ele>21.39999961853</ele>
        <time>2021-10-10T07:29:50.000Z</time>
      </trkpt>
      <trkpt lat="47.26775" lon="-2.3084">
        <ele>21.39999961853</ele>
        <time>2021-10-10T07:29:51.000Z</time>
      </trkpt>
      <trkpt lat="47.26766" lon="-2.30849">
        <ele>21.39999961853</ele>
        <time>2021-10-10T07:29:53.000Z</time>
      </trkpt>
      <trkpt lat="47.26762" lon="-2.30854">
        <ele>21.39999961853</ele>
        <time>2021-10-10T07:29:54.000Z</time>
      </trkpt>
      <trkpt lat="47.26743" lon="-2.30871">
        <ele>21.39999961853</ele>
        <time>2021-10-10T07:29:58.000Z</time>
      </trkpt>
      <trkpt lat="47.26738" lon="-2.30871">
        <ele>21.39999961853</ele>
        <time>2021-10-10T07:29:59.000Z</time>
      </trkpt>
      <trkpt lat="47.26726" lon="-2.30858">
        <ele>21.39999961853</ele>
        <time>2021-10-10T07:30:02.000Z</time>
      </trkpt>
      <trkpt lat="47.26715" lon="-2.30837">
        <ele>21.39999961853</ele>
        <time>2021-10-10T07:30:05.000Z</time>
      </trkpt>
      <trkpt lat="47.26708" lon="-2.30821">
        <ele>21.39999961853</ele>
        <time>2021-10-10T07:30:07.000Z</time>
      </trkpt>
      <trkpt lat="47.26687" lon="-2.30762">
        <ele>21.39999961853</ele>
        <time>2021-10-10T07:30:14.000Z</time>
      </trkpt>
      <trkpt lat="47.26672" lon="-2.30728">
        <ele>21</ele>
        <time>2021-10-10T07:30:18.000Z</time>
      </trkpt>
      <trkpt lat="47.26669" lon="-2.30719">
        <ele>20.60000038147</ele>
        <time>2021-10-10T07:30:19.000Z</time>
      </trkpt>
      <trkpt lat="47.26665" lon="-2.30711">
        <ele>20</ele>
        <time>2021-10-10T07:30:20.000Z</time>
      </trkpt>
      <trkpt lat="47.26663" lon="-2.30705">
        <ele>19.60000038147</ele>
        <time>2021-10-10T07:30:21.000Z</time>
      </trkpt>
      <trkpt lat="47.26661" lon="-2.30699">
        <ele>19.200000762939</ele>
        <time>2021-10-10T07:30:22.000Z</time>
      </trkpt>
      <trkpt lat="47.26655" lon="-2.30693">
        <ele>19.200000762939</ele>
        <time>2021-10-10T07:30:24.000Z</time>
      </trkpt>
      <trkpt lat="47.2665" lon="-2.30699">
        <ele>19.200000762939</ele>
        <time>2021-10-10T07:30:26.000Z</time>
      </trkpt>
      <trkpt lat="47.26648" lon="-2.30704">
        <ele>19.200000762939</ele>
        <time>2021-10-10T07:30:27.000Z</time>
      </trkpt>
      <trkpt lat="47.26643" lon="-2.30718">
        <ele>19.200000762939</ele>
        <time>2021-10-10T07:30:30.000Z</time>
      </trkpt>
      <trkpt lat="47.26639" lon="-2.30721">
        <ele>18.60000038147</ele>
        <time>2021-10-10T07:30:31.000Z</time>
      </trkpt>
      <trkpt lat="47.26635" lon="-2.30724">
        <ele>18.200000762939</ele>
        <time>2021-10-10T07:30:32.000Z</time>
      </trkpt>
      <trkpt lat="47.26631" lon="-2.30727">
        <ele>17.799999237061</ele>
        <time>2021-10-10T07:30:33.000Z</time>
      </trkpt>
      <trkpt lat="47.26627" lon="-2.3073">
        <ele>17.39999961853</ele>
        <time>2021-10-10T07:30:34.000Z</time>
      </trkpt>
      <trkpt lat="47.26623" lon="-2.30735">
        <ele>17</ele>
        <time>2021-10-10T07:30:35.000Z</time>
      </trkpt>
      <trkpt lat="47.26621" lon="-2.3074">
        <ele>17</ele>
        <time>2021-10-10T07:30:36.000Z</time>
      </trkpt>
      <trkpt lat="47.26615" lon="-2.30754">
        <ele>17</ele>
        <time>2021-10-10T07:30:40.000Z</time>
      </trkpt>
      <trkpt lat="47.26604" lon="-2.30765">
        <ele>16.60000038147</ele>
        <time>2021-10-10T07:30:43.000Z</time>
      </trkpt>
      <trkpt lat="47.266" lon="-2.30769">
        <ele>16.200000762939</ele>
        <time>2021-10-10T07:30:44.000Z</time>
      </trkpt>
      <trkpt lat="47.26596" lon="-2.30775">
        <ele>15.800000190735</ele>
        <time>2021-10-10T07:30:45.000Z</time>
      </trkpt>
      <trkpt lat="47.26592" lon="-2.30779">
        <ele>15.39999961853</ele>
        <time>2021-10-10T07:30:46.000Z</time>
      </trkpt>
      <trkpt lat="47.26588" lon="-2.30785">
        <ele>15</ele>
        <time>2021-10-10T07:30:47.000Z</time>
      </trkpt>
      <trkpt lat="47.26581" lon="-2.30795">
        <ele>15</ele>
        <time>2021-10-10T07:30:49.000Z</time>
      </trkpt>
      <trkpt lat="47.26574" lon="-2.30807">
        <ele>15</ele>
        <time>2021-10-10T07:30:51.000Z</time>
      </trkpt>
      <trkpt lat="47.26569" lon="-2.30818">
        <ele>14.39999961853</ele>
        <time>2021-10-10T07:30:53.000Z</time>
      </trkpt>
      <trkpt lat="47.26565" lon="-2.30824">
        <ele>14</ele>
        <time>2021-10-10T07:30:54.000Z</time>
      </trkpt>
      <trkpt lat="47.26563" lon="-2.30826">
        <ele>13.60000038147</ele>
        <time>2021-10-10T07:30:55.000Z</time>
      </trkpt>
      <trkpt lat="47.2656" lon="-2.3083">
        <ele>13.199999809265</ele>
        <time>2021-10-10T07:30:56.000Z</time>
      </trkpt>
      <trkpt lat="47.26556" lon="-2.30833">
        <ele>12.800000190735</ele>
        <time>2021-10-10T07:30:57.000Z</time>
      </trkpt>
      <trkpt lat="47.26549" lon="-2.30842">
        <ele>12.800000190735</ele>
        <time>2021-10-10T07:30:59.000Z</time>
      </trkpt>
      <trkpt lat="47.26542" lon="-2.30852">
        <ele>12.800000190735</ele>
        <time>2021-10-10T07:31:01.000Z</time>
      </trkpt>
      <trkpt lat="47.26524" lon="-2.30875">
        <ele>12.800000190735</ele>
        <time>2021-10-10T07:31:05.000Z</time>
      </trkpt>
      <trkpt lat="47.26517" lon="-2.30882">
        <ele>12</ele>
        <time>2021-10-10T07:31:07.000Z</time>
      </trkpt>
      <trkpt lat="47.26514" lon="-2.30883">
        <ele>11.60000038147</ele>
        <time>2021-10-10T07:31:08.000Z</time>
      </trkpt>
      <trkpt lat="47.26511" lon="-2.30883">
        <ele>11.199999809265</ele>
        <time>2021-10-10T07:31:09.000Z</time>
      </trkpt>
      <trkpt lat="47.26508" lon="-2.30882">
        <ele>10.800000190735</ele>
        <time>2021-10-10T07:31:10.000Z</time>
      </trkpt>
      <trkpt lat="47.26497" lon="-2.30867">
        <ele>10.800000190735</ele>
        <time>2021-10-10T07:31:15.000Z</time>
      </trkpt>
      <trkpt lat="47.26496" lon="-2.30864">
        <ele>11.199999809265</ele>
        <time>2021-10-10T07:31:16.000Z</time>
      </trkpt>
      <trkpt lat="47.26494" lon="-2.30861">
        <ele>11.800000190735</ele>
        <time>2021-10-10T07:31:17.000Z</time>
      </trkpt>
      <trkpt lat="47.26492" lon="-2.30857">
        <ele>12.199999809265</ele>
        <time>2021-10-10T07:31:18.000Z</time>
      </trkpt>
      <trkpt lat="47.2649" lon="-2.30854">
        <ele>12.60000038147</ele>
        <time>2021-10-10T07:31:19.000Z</time>
      </trkpt>
      <trkpt lat="47.26488" lon="-2.30851">
        <ele>13.199999809265</ele>
        <time>2021-10-10T07:31:20.000Z</time>
      </trkpt>
      <trkpt lat="47.26485" lon="-2.30843">
        <ele>13.199999809265</ele>
        <time>2021-10-10T07:31:22.000Z</time>
      </trkpt>
      <trkpt lat="47.26482" lon="-2.30836">
        <ele>13.60000038147</ele>
        <time>2021-10-10T07:31:23.000Z</time>
      </trkpt>
      <trkpt lat="47.26479" lon="-2.3083">
        <ele>14</ele>
        <time>2021-10-10T07:31:24.000Z</time>
      </trkpt>
      <trkpt lat="47.26477" lon="-2.30824">
        <ele>14.39999961853</ele>
        <time>2021-10-10T07:31:25.000Z</time>
      </trkpt>
      <trkpt lat="47.26475" lon="-2.30819">
        <ele>14.800000190735</ele>
        <time>2021-10-10T07:31:26.000Z</time>
      </trkpt>
      <trkpt lat="47.26473" lon="-2.30814">
        <ele>15.199999809265</ele>
        <time>2021-10-10T07:31:27.000Z</time>
      </trkpt>
      <trkpt lat="47.26464" lon="-2.3079">
        <ele>15.60000038147</ele>
        <time>2021-10-10T07:31:31.000Z</time>
      </trkpt>
      <trkpt lat="47.26462" lon="-2.30784">
        <ele>16</ele>
        <time>2021-10-10T07:31:32.000Z</time>
      </trkpt>
      <trkpt lat="47.26459" lon="-2.30779">
        <ele>16.39999961853</ele>
        <time>2021-10-10T07:31:33.000Z</time>
      </trkpt>
      <trkpt lat="47.26457" lon="-2.30774">
        <ele>16.799999237061</ele>
        <time>2021-10-10T07:31:34.000Z</time>
      </trkpt>
      <trkpt lat="47.26454" lon="-2.30769">
        <ele>17.200000762939</ele>
        <time>2021-10-10T07:31:35.000Z</time>
      </trkpt>
      <trkpt lat="47.26452" lon="-2.30764">
        <ele>17.200000762939</ele>
        <time>2021-10-10T07:31:36.000Z</time>
      </trkpt>
      <trkpt lat="47.26447" lon="-2.30753">
        <ele>17.200000762939</ele>
        <time>2021-10-10T07:31:38.000Z</time>
      </trkpt>
      <trkpt lat="47.26437" lon="-2.30723">
        <ele>17.200000762939</ele>
        <time>2021-10-10T07:31:44.000Z</time>
      </trkpt>
      <trkpt lat="47.26423" lon="-2.30692">
        <ele>17.60000038147</ele>
        <time>2021-10-10T07:31:51.000Z</time>
      </trkpt>
      <trkpt lat="47.26421" lon="-2.30689">
        <ele>18</ele>
        <time>2021-10-10T07:31:52.000Z</time>
      </trkpt>
      <trkpt lat="47.26419" lon="-2.30685">
        <ele>18.39999961853</ele>
        <time>2021-10-10T07:31:53.000Z</time>
      </trkpt>
      <trkpt lat="47.26416" lon="-2.30683">
        <ele>18.799999237061</ele>
        <time>2021-10-10T07:31:54.000Z</time>
      </trkpt>
      <trkpt lat="47.26411" lon="-2.3068">
        <ele>19.200000762939</ele>
        <time>2021-10-10T07:31:55.000Z</time>
      </trkpt>
      <trkpt lat="47.26407" lon="-2.30677">
        <ele>19.200000762939</ele>
        <time>2021-10-10T07:31:56.000Z</time>
      </trkpt>
      <trkpt lat="47.2638" lon="-2.30656">
        <ele>19.200000762939</ele>
        <time>2021-10-10T07:32:03.000Z</time>
      </trkpt>
      <trkpt lat="47.26366" lon="-2.30634">
        <ele>19.200000762939</ele>
        <time>2021-10-10T07:32:08.000Z</time>
      </trkpt>
      <trkpt lat="47.2635" lon="-2.30607">
        <ele>19.200000762939</ele>
        <time>2021-10-10T07:32:15.000Z</time>
      </trkpt>
      <trkpt lat="47.26348" lon="-2.30602">
        <ele>19.200000762939</ele>
        <time>2021-10-10T07:32:19.000Z</time>
      </trkpt>
      <trkpt lat="47.26347" lon="-2.30601">
        <ele>19.200000762939</ele>
        <time>2021-10-10T07:32:28.000Z</time>
      </trkpt>
      <trkpt lat="47.26347" lon="-2.30601">
        <ele>19.200000762939</ele>
        <time>2021-10-10T07:32:40.000Z</time>
      </trkpt>
      <trkpt lat="47.26347" lon="-2.30601">
        <ele>19.200000762939</ele>
        <time>2021-10-10T07:32:52.000Z</time>
      </trkpt>
      <trkpt lat="47.26347" lon="-2.30601">
        <ele>19.200000762939</ele>
        <time>2021-10-10T07:33:02.000Z</time>
      </trkpt>
      <trkpt lat="47.26347" lon="-2.30601">
        <ele>19.200000762939</ele>
        <time>2021-10-10T07:33:14.000Z</time>
      </trkpt>
      <trkpt lat="47.26347" lon="-2.30601">
        <ele>19.200000762939</ele>
        <time>2021-10-10T07:33:26.000Z</time>
      </trkpt>
      <trkpt lat="47.26346" lon="-2.30596">
        <ele>19.200000762939</ele>
        <time>2021-10-10T07:33:31.000Z</time>
      </trkpt>
      <trkpt lat="47.26346" lon="-2.30593">
        <ele>19.200000762939</ele>
        <time>2021-10-10T07:33:32.000Z</time>
      </trkpt>
      <trkpt lat="47.26344" lon="-2.3057">
        <ele>19.200000762939</ele>
        <time>2021-10-10T07:33:38.000Z</time>
      </trkpt>
      <trkpt lat="47.26341" lon="-2.30543">
        <ele>19.200000762939</ele>
        <time>2021-10-10T07:33:44.000Z</time>
      </trkpt>
      <trkpt lat="47.26335" lon="-2.30511">
        <ele>19.60000038147</ele>
        <time>2021-10-10T07:33:49.000Z</time>
      </trkpt>
      <trkpt lat="47.26333" lon="-2.30503">
        <ele>20</ele>
        <time>2021-10-10T07:33:50.000Z</time>
      </trkpt>
      <trkpt lat="47.26332" lon="-2.30496">
        <ele>20.39999961853</ele>
        <time>2021-10-10T07:33:51.000Z</time>
      </trkpt>
      <trkpt lat="47.2633" lon="-2.3049">
        <ele>20.799999237061</ele>
        <time>2021-10-10T07:33:52.000Z</time>
      </trkpt>
      <trkpt lat="47.26329" lon="-2.30484">
        <ele>21.200000762939</ele>
        <time>2021-10-10T07:33:53.000Z</time>
      </trkpt>
      <trkpt lat="47.26327" lon="-2.30471">
        <ele>21.200000762939</ele>
        <time>2021-10-10T07:33:55.000Z</time>
      </trkpt>
      <trkpt lat="47.26316" lon="-2.30418">
        <ele>21.200000762939</ele>
        <time>2021-10-10T07:34:03.000Z</time>
      </trkpt>
      <trkpt lat="47.26308" lon="-2.30377">
        <ele>21.200000762939</ele>
        <time>2021-10-10T07:34:09.000Z</time>
      </trkpt>
      <trkpt lat="47.26306" lon="-2.30369">
        <ele>21.200000762939</ele>
        <time>2021-10-10T07:34:10.000Z</time>
      </trkpt>
      <trkpt lat="47.26299" lon="-2.30326">
        <ele>21.200000762939</ele>
        <time>2021-10-10T07:34:16.000Z</time>
      </trkpt>
      <trkpt lat="47.26297" lon="-2.3032">
        <ele>21.200000762939</ele>
        <time>2021-10-10T07:34:17.000Z</time>
      </trkpt>
      <trkpt lat="47.26288" lon="-2.30293">
        <ele>21.200000762939</ele>
        <time>2021-10-10T07:34:21.000Z</time>
      </trkpt>
      <trkpt lat="47.26284" lon="-2.30278">
        <ele>21.200000762939</ele>
        <time>2021-10-10T07:34:23.000Z</time>
      </trkpt>
      <trkpt lat="47.26273" lon="-2.30218">
        <ele>21.200000762939</ele>
        <time>2021-10-10T07:34:31.000Z</time>
      </trkpt>
      <trkpt lat="47.26266" lon="-2.30179">
        <ele>21.200000762939</ele>
        <time>2021-10-10T07:34:37.000Z</time>
      </trkpt>
      <trkpt lat="47.26255" lon="-2.30149">
        <ele>21.60000038147</ele>
        <time>2021-10-10T07:34:42.000Z</time>
      </trkpt>
      <trkpt lat="47.26253" lon="-2.30143">
        <ele>22</ele>
        <time>2021-10-10T07:34:43.000Z</time>
      </trkpt>
      <trkpt lat="47.26252" lon="-2.30138">
        <ele>22.39999961853</ele>
        <time>2021-10-10T07:34:44.000Z</time>
      </trkpt>
      <trkpt lat="47.26249" lon="-2.30135">
        <ele>22.799999237061</ele>
        <time>2021-10-10T07:34:45.000Z</time>
      </trkpt>
      <trkpt lat="47.26246" lon="-2.30134">
        <ele>23.200000762939</ele>
        <time>2021-10-10T07:34:46.000Z</time>
      </trkpt>
      <trkpt lat="47.26228" lon="-2.30138">
        <ele>23.200000762939</ele>
        <time>2021-10-10T07:34:50.000Z</time>
      </trkpt>
      <trkpt lat="47.26191" lon="-2.30151">
        <ele>23.200000762939</ele>
        <time>2021-10-10T07:34:57.000Z</time>
      </trkpt>
      <trkpt lat="47.26177" lon="-2.30158">
        <ele>23.200000762939</ele>
        <time>2021-10-10T07:35:01.000Z</time>
      </trkpt>
      <trkpt lat="47.26175" lon="-2.30156">
        <ele>22.799999237061</ele>
        <time>2021-10-10T07:35:02.000Z</time>
      </trkpt>
      <trkpt lat="47.26174" lon="-2.30153">
        <ele>22.39999961853</ele>
        <time>2021-10-10T07:35:03.000Z</time>
      </trkpt>
      <trkpt lat="47.26173" lon="-2.30149">
        <ele>22</ele>
        <time>2021-10-10T07:35:04.000Z</time>
      </trkpt>
      <trkpt lat="47.26172" lon="-2.30146">
        <ele>21.39999961853</ele>
        <time>2021-10-10T07:35:05.000Z</time>
      </trkpt>
      <trkpt lat="47.2617" lon="-2.30146">
        <ele>21</ele>
        <time>2021-10-10T07:35:06.000Z</time>
      </trkpt>
      <trkpt lat="47.26168" lon="-2.30146">
        <ele>21</ele>
        <time>2021-10-10T07:35:07.000Z</time>
      </trkpt>
      <trkpt lat="47.26155" lon="-2.3015">
        <ele>21</ele>
        <time>2021-10-10T07:35:11.000Z</time>
      </trkpt>
      <trkpt lat="47.26146" lon="-2.30154">
        <ele>21</ele>
        <time>2021-10-10T07:35:13.000Z</time>
      </trkpt>
      <trkpt lat="47.26141" lon="-2.30156">
        <ele>20.60000038147</ele>
        <time>2021-10-10T07:35:14.000Z</time>
      </trkpt>
      <trkpt lat="47.26135" lon="-2.30158">
        <ele>20.200000762939</ele>
        <time>2021-10-10T07:35:15.000Z</time>
      </trkpt>
      <trkpt lat="47.26129" lon="-2.30159">
        <ele>19.799999237061</ele>
        <time>2021-10-10T07:35:16.000Z</time>
      </trkpt>
      <trkpt lat="47.26124" lon="-2.30161">
        <ele>19.39999961853</ele>
        <time>2021-10-10T07:35:17.000Z</time>
      </trkpt>
      <trkpt lat="47.2612" lon="-2.30162">
        <ele>19</ele>
        <time>2021-10-10T07:35:18.000Z</time>
      </trkpt>
      <trkpt lat="47.26113" lon="-2.30165">
        <ele>19</ele>
        <time>2021-10-10T07:35:20.000Z</time>
      </trkpt>
      <trkpt lat="47.2611" lon="-2.30166">
        <ele>18.60000038147</ele>
        <time>2021-10-10T07:35:21.000Z</time>
      </trkpt>
      <trkpt lat="47.26107" lon="-2.30165">
        <ele>18.200000762939</ele>
        <time>2021-10-10T07:35:22.000Z</time>
      </trkpt>
      <trkpt lat="47.26105" lon="-2.30162">
        <ele>17.799999237061</ele>
        <time>2021-10-10T07:35:23.000Z</time>
      </trkpt>
      <trkpt lat="47.26103" lon="-2.30157">
        <ele>17.39999961853</ele>
        <time>2021-10-10T07:35:24.000Z</time>
      </trkpt>
      <trkpt lat="47.26101" lon="-2.30153">
        <ele>17</ele>
        <time>2021-10-10T07:35:25.000Z</time>
      </trkpt>
      <trkpt lat="47.26097" lon="-2.30152">
        <ele>17</ele>
        <time>2021-10-10T07:35:26.000Z</time>
      </trkpt>
      <trkpt lat="47.26082" lon="-2.30152">
        <ele>17</ele>
        <time>2021-10-10T07:35:30.000Z</time>
      </trkpt>
      <trkpt lat="47.26078" lon="-2.30152">
        <ele>17</ele>
        <time>2021-10-10T07:35:31.000Z</time>
      </trkpt>
      <trkpt lat="47.2607" lon="-2.30149">
        <ele>16.39999961853</ele>
        <time>2021-10-10T07:35:33.000Z</time>
      </trkpt>
      <trkpt lat="47.26067" lon="-2.30146">
        <ele>16</ele>
        <time>2021-10-10T07:35:34.000Z</time>
      </trkpt>
      <trkpt lat="47.26063" lon="-2.30143">
        <ele>15.60000038147</ele>
        <time>2021-10-10T07:35:35.000Z</time>
      </trkpt>
      <trkpt lat="47.26058" lon="-2.30142">
        <ele>15.199999809265</ele>
        <time>2021-10-10T07:35:36.000Z</time>
      </trkpt>
      <trkpt lat="47.26053" lon="-2.30143">
        <ele>14.800000190735</ele>
        <time>2021-10-10T07:35:37.000Z</time>
      </trkpt>
      <trkpt lat="47.26047" lon="-2.30144">
        <ele>14.800000190735</ele>
        <time>2021-10-10T07:35:38.000Z</time>
      </trkpt>
      <trkpt lat="47.26041" lon="-2.30145">
        <ele>14.800000190735</ele>
        <time>2021-10-10T07:35:39.000Z</time>
      </trkpt>
      <trkpt lat="47.26025" lon="-2.30143">
        <ele>14.800000190735</ele>
        <time>2021-10-10T07:35:42.000Z</time>
      </trkpt>
      <trkpt lat="47.26015" lon="-2.30141">
        <ele>14.39999961853</ele>
        <time>2021-10-10T07:35:44.000Z</time>
      </trkpt>
      <trkpt lat="47.2601" lon="-2.30141">
        <ele>14</ele>
        <time>2021-10-10T07:35:45.000Z</time>
      </trkpt>
      <trkpt lat="47.26005" lon="-2.30141">
        <ele>13.60000038147</ele>
        <time>2021-10-10T07:35:46.000Z</time>
      </trkpt>
      <trkpt lat="47.25999" lon="-2.3014">
        <ele>13.199999809265</ele>
        <time>2021-10-10T07:35:47.000Z</time>
      </trkpt>
      <trkpt lat="47.25993" lon="-2.3014">
        <ele>12.800000190735</ele>
        <time>2021-10-10T07:35:48.000Z</time>
      </trkpt>
      <trkpt lat="47.25978" lon="-2.30142">
        <ele>12.800000190735</ele>
        <time>2021-10-10T07:35:51.000Z</time>
      </trkpt>
      <trkpt lat="47.2597" lon="-2.30149">
        <ele>12.199999809265</ele>
        <time>2021-10-10T07:35:53.000Z</time>
      </trkpt>
      <trkpt lat="47.25965" lon="-2.30154">
        <ele>11.800000190735</ele>
        <time>2021-10-10T07:35:54.000Z</time>
      </trkpt>
      <trkpt lat="47.25961" lon="-2.30159">
        <ele>11.39999961853</ele>
        <time>2021-10-10T07:35:55.000Z</time>
      </trkpt>
      <trkpt lat="47.25956" lon="-2.30164">
        <ele>11</ele>
        <time>2021-10-10T07:35:56.000Z</time>
      </trkpt>
      <trkpt lat="47.2595" lon="-2.30168">
        <ele>10.39999961853</ele>
        <time>2021-10-10T07:35:57.000Z</time>
      </trkpt>
      <trkpt lat="47.25938" lon="-2.30173">
        <ele>10.39999961853</ele>
        <time>2021-10-10T07:35:59.000Z</time>
      </trkpt>
      <trkpt lat="47.25932" lon="-2.30174">
        <ele>10.39999961853</ele>
        <time>2021-10-10T07:36:00.000Z</time>
      </trkpt>
      <trkpt lat="47.25899" lon="-2.30181">
        <ele>10.39999961853</ele>
        <time>2021-10-10T07:36:05.000Z</time>
      </trkpt>
      <trkpt lat="47.25893" lon="-2.30191">
        <ele>11</ele>
        <time>2021-10-10T07:36:07.000Z</time>
      </trkpt>
      <trkpt lat="47.25891" lon="-2.30199">
        <ele>11.39999961853</ele>
        <time>2021-10-10T07:36:08.000Z</time>
      </trkpt>
      <trkpt lat="47.25891" lon="-2.30207">
        <ele>11.800000190735</ele>
        <time>2021-10-10T07:36:09.000Z</time>
      </trkpt>
      <trkpt lat="47.25892" lon="-2.30215">
        <ele>12.199999809265</ele>
        <time>2021-10-10T07:36:10.000Z</time>
      </trkpt>
      <trkpt lat="47.25892" lon="-2.30224">
        <ele>12.60000038147</ele>
        <time>2021-10-10T07:36:11.000Z</time>
      </trkpt>
      <trkpt lat="47.25893" lon="-2.30232">
        <ele>12.60000038147</ele>
        <time>2021-10-10T07:36:12.000Z</time>
      </trkpt>
      <trkpt lat="47.25895" lon="-2.30289">
        <ele>12.60000038147</ele>
        <time>2021-10-10T07:36:19.000Z</time>
      </trkpt>
      <trkpt lat="47.25888" lon="-2.30306">
        <ele>12.60000038147</ele>
        <time>2021-10-10T07:36:22.000Z</time>
      </trkpt>
      <trkpt lat="47.25874" lon="-2.30304">
        <ele>12.60000038147</ele>
        <time>2021-10-10T07:36:25.000Z</time>
      </trkpt>
      <trkpt lat="47.25862" lon="-2.3029">
        <ele>12.60000038147</ele>
        <time>2021-10-10T07:36:28.000Z</time>
      </trkpt>
      <trkpt lat="47.25857" lon="-2.30286">
        <ele>12.60000038147</ele>
        <time>2021-10-10T07:36:29.000Z</time>
      </trkpt>
      <trkpt lat="47.25828" lon="-2.30269">
        <ele>12.60000038147</ele>
        <time>2021-10-10T07:36:34.000Z</time>
      </trkpt>
      <trkpt lat="47.25813" lon="-2.30263">
        <ele>12.60000038147</ele>
        <time>2021-10-10T07:36:36.000Z</time>
      </trkpt>
      <trkpt lat="47.2579" lon="-2.30255">
        <ele>12.60000038147</ele>
        <time>2021-10-10T07:36:39.000Z</time>
      </trkpt>
      <trkpt lat="47.25777" lon="-2.30249">
        <ele>12.60000038147</ele>
        <time>2021-10-10T07:36:41.000Z</time>
      </trkpt>
      <trkpt lat="47.25766" lon="-2.30241">
        <ele>12.60000038147</ele>
        <time>2021-10-10T07:36:43.000Z</time>
      </trkpt>
      <trkpt lat="47.25731" lon="-2.30221">
        <ele>12.60000038147</ele>
        <time>2021-10-10T07:36:50.000Z</time>
      </trkpt>
      <trkpt lat="47.2572" lon="-2.30218">
        <ele>12.60000038147</ele>
        <time>2021-10-10T07:36:52.000Z</time>
      </trkpt>
      <trkpt lat="47.25704" lon="-2.30222">
        <ele>12.60000038147</ele>
        <time>2021-10-10T07:36:55.000Z</time>
      </trkpt>
      <trkpt lat="47.25689" lon="-2.30244">
        <ele>12.60000038147</ele>
        <time>2021-10-10T07:36:59.000Z</time>
      </trkpt>
      <trkpt lat="47.25684" lon="-2.30264">
        <ele>13</ele>
        <time>2021-10-10T07:37:02.000Z</time>
      </trkpt>
      <trkpt lat="47.25685" lon="-2.3027">
        <ele>13.39999961853</ele>
        <time>2021-10-10T07:37:03.000Z</time>
      </trkpt>
      <trkpt lat="47.25686" lon="-2.30275">
        <ele>13.800000190735</ele>
        <time>2021-10-10T07:37:04.000Z</time>
      </trkpt>
      <trkpt lat="47.25688" lon="-2.30279">
        <ele>14.39999961853</ele>
        <time>2021-10-10T07:37:05.000Z</time>
      </trkpt>
      <trkpt lat="47.25692" lon="-2.30279">
        <ele>14.800000190735</ele>
        <time>2021-10-10T07:37:06.000Z</time>
      </trkpt>
      <trkpt lat="47.25703" lon="-2.30271">
        <ele>14.800000190735</ele>
        <time>2021-10-10T07:37:09.000Z</time>
      </trkpt>
      <trkpt lat="47.25706" lon="-2.30267">
        <ele>14.800000190735</ele>
        <time>2021-10-10T07:37:10.000Z</time>
      </trkpt>
      <trkpt lat="47.25714" lon="-2.30261">
        <ele>14.800000190735</ele>
        <time>2021-10-10T07:37:12.000Z</time>
      </trkpt>
      <trkpt lat="47.25723" lon="-2.30258">
        <ele>14.800000190735</ele>
        <time>2021-10-10T07:37:14.000Z</time>
      </trkpt>
      <trkpt lat="47.2574" lon="-2.30266">
        <ele>14.800000190735</ele>
        <time>2021-10-10T07:37:18.000Z</time>
      </trkpt>
      <trkpt lat="47.25761" lon="-2.3028">
        <ele>14.800000190735</ele>
        <time>2021-10-10T07:37:23.000Z</time>
      </trkpt>
      <trkpt lat="47.25766" lon="-2.30282">
        <ele>14.800000190735</ele>
        <time>2021-10-10T07:37:24.000Z</time>
      </trkpt>
      <trkpt lat="47.25782" lon="-2.30274">
        <ele>14.800000190735</ele>
        <time>2021-10-10T07:37:28.000Z</time>
      </trkpt>
      <trkpt lat="47.2579" lon="-2.30256">
        <ele>14.800000190735</ele>
        <time>2021-10-10T07:37:31.000Z</time>
      </trkpt>
      <trkpt lat="47.25792" lon="-2.30249">
        <ele>14.800000190735</ele>
        <time>2021-10-10T07:37:32.000Z</time>
      </trkpt>
      <trkpt lat="47.25803" lon="-2.30202">
        <ele>14.800000190735</ele>
        <time>2021-10-10T07:37:38.000Z</time>
      </trkpt>
      <trkpt lat="47.25815" lon="-2.30152">
        <ele>14.800000190735</ele>
        <time>2021-10-10T07:37:44.000Z</time>
      </trkpt>
      <trkpt lat="47.2583" lon="-2.30085">
        <ele>14.800000190735</ele>
        <time>2021-10-10T07:37:51.000Z</time>
      </trkpt>
      <trkpt lat="47.25845" lon="-2.30019">
        <ele>14.800000190735</ele>
        <time>2021-10-10T07:37:58.000Z</time>
      </trkpt>
      <trkpt lat="47.25865" lon="-2.29939">
        <ele>14.800000190735</ele>
        <time>2021-10-10T07:38:07.000Z</time>
      </trkpt>
      <trkpt lat="47.25874" lon="-2.29883">
        <ele>14.800000190735</ele>
        <time>2021-10-10T07:38:13.000Z</time>
      </trkpt>
      <trkpt lat="47.25884" lon="-2.29806">
        <ele>14.800000190735</ele>
        <time>2021-10-10T07:38:21.000Z</time>
      </trkpt>
      <trkpt lat="47.25891" lon="-2.29743">
        <ele>14.800000190735</ele>
        <time>2021-10-10T07:38:28.000Z</time>
      </trkpt>
      <trkpt lat="47.25897" lon="-2.29687">
        <ele>14.800000190735</ele>
        <time>2021-10-10T07:38:35.000Z</time>
      </trkpt>
      <trkpt lat="47.25906" lon="-2.2962">
        <ele>14.800000190735</ele>
        <time>2021-10-10T07:38:44.000Z</time>
      </trkpt>
      <trkpt lat="47.25905" lon="-2.29605">
        <ele>14.800000190735</ele>
        <time>2021-10-10T07:38:47.000Z</time>
      </trkpt>
      <trkpt lat="47.25901" lon="-2.29604">
        <ele>14.800000190735</ele>
        <time>2021-10-10T07:38:48.000Z</time>
      </trkpt>
      <trkpt lat="47.2589" lon="-2.2961">
        <ele>14.800000190735</ele>
        <time>2021-10-10T07:38:51.000Z</time>
      </trkpt>
      <trkpt lat="47.25885" lon="-2.29613">
        <ele>14.800000190735</ele>
        <time>2021-10-10T07:38:52.000Z</time>
      </trkpt>
      <trkpt lat="47.25858" lon="-2.29628">
        <ele>14.800000190735</ele>
        <time>2021-10-10T07:38:57.000Z</time>
      </trkpt>
      <trkpt lat="47.25813" lon="-2.2965">
        <ele>14.800000190735</ele>
        <time>2021-10-10T07:39:04.000Z</time>
      </trkpt>
      <trkpt lat="47.25776" lon="-2.29668">
        <ele>14.800000190735</ele>
        <time>2021-10-10T07:39:10.000Z</time>
      </trkpt>
      <trkpt lat="47.25743" lon="-2.29683">
        <ele>14.800000190735</ele>
        <time>2021-10-10T07:39:16.000Z</time>
      </trkpt>
      <trkpt lat="47.25713" lon="-2.29695">
        <ele>14.800000190735</ele>
        <time>2021-10-10T07:39:22.000Z</time>
      </trkpt>
      <trkpt lat="47.25708" lon="-2.29697">
        <ele>15.199999809265</ele>
        <time>2021-10-10T07:39:23.000Z</time>
      </trkpt>
      <trkpt lat="47.25703" lon="-2.29697">
        <ele>15.60000038147</ele>
        <time>2021-10-10T07:39:24.000Z</time>
      </trkpt>
      <trkpt lat="47.25698" lon="-2.29698">
        <ele>16</ele>
        <time>2021-10-10T07:39:25.000Z</time>
      </trkpt>
      <trkpt lat="47.25693" lon="-2.29698">
        <ele>16.39999961853</ele>
        <time>2021-10-10T07:39:26.000Z</time>
      </trkpt>
      <trkpt lat="47.25688" lon="-2.29698">
        <ele>16.799999237061</ele>
        <time>2021-10-10T07:39:27.000Z</time>
      </trkpt>
      <trkpt lat="47.25683" lon="-2.29699">
        <ele>16.799999237061</ele>
        <time>2021-10-10T07:39:28.000Z</time>
      </trkpt>
      <trkpt lat="47.25655" lon="-2.29699">
        <ele>16.799999237061</ele>
        <time>2021-10-10T07:39:34.000Z</time>
      </trkpt>
      <trkpt lat="47.25645" lon="-2.297">
        <ele>17.200000762939</ele>
        <time>2021-10-10T07:39:36.000Z</time>
      </trkpt>
      <trkpt lat="47.2564" lon="-2.297">
        <ele>17.60000038147</ele>
        <time>2021-10-10T07:39:37.000Z</time>
      </trkpt>
      <trkpt lat="47.25635" lon="-2.29701">
        <ele>18.200000762939</ele>
        <time>2021-10-10T07:39:38.000Z</time>
      </trkpt>
      <trkpt lat="47.25631" lon="-2.29702">
        <ele>18.60000038147</ele>
        <time>2021-10-10T07:39:39.000Z</time>
      </trkpt>
      <trkpt lat="47.25627" lon="-2.29703">
        <ele>19</ele>
        <time>2021-10-10T07:39:40.000Z</time>
      </trkpt>
      <trkpt lat="47.25614" lon="-2.29705">
        <ele>19</ele>
        <time>2021-10-10T07:39:43.000Z</time>
      </trkpt>
      <trkpt lat="47.25605" lon="-2.29706">
        <ele>19</ele>
        <time>2021-10-10T07:39:45.000Z</time>
      </trkpt>
      <trkpt lat="47.256" lon="-2.29708">
        <ele>19</ele>
        <time>2021-10-10T07:39:46.000Z</time>
      </trkpt>
      <trkpt lat="47.25585" lon="-2.2971">
        <ele>19.39999961853</ele>
        <time>2021-10-10T07:39:49.000Z</time>
      </trkpt>
      <trkpt lat="47.2558" lon="-2.29711">
        <ele>19.799999237061</ele>
        <time>2021-10-10T07:39:50.000Z</time>
      </trkpt>
      <trkpt lat="47.25575" lon="-2.29712">
        <ele>20.200000762939</ele>
        <time>2021-10-10T07:39:51.000Z</time>
      </trkpt>
      <trkpt lat="47.25572" lon="-2.29713">
        <ele>20.60000038147</ele>
        <time>2021-10-10T07:39:52.000Z</time>
      </trkpt>
      <trkpt lat="47.25568" lon="-2.29715">
        <ele>21</ele>
        <time>2021-10-10T07:39:53.000Z</time>
      </trkpt>
      <trkpt lat="47.25564" lon="-2.29716">
        <ele>21</ele>
        <time>2021-10-10T07:39:54.000Z</time>
      </trkpt>
      <trkpt lat="47.25556" lon="-2.29717">
        <ele>21</ele>
        <time>2021-10-10T07:39:56.000Z</time>
      </trkpt>
      <trkpt lat="47.25548" lon="-2.2972">
        <ele>21</ele>
        <time>2021-10-10T07:39:58.000Z</time>
      </trkpt>
      <trkpt lat="47.2554" lon="-2.29724">
        <ele>21</ele>
        <time>2021-10-10T07:40:00.000Z</time>
      </trkpt>
      <trkpt lat="47.25536" lon="-2.29725">
        <ele>21.39999961853</ele>
        <time>2021-10-10T07:40:01.000Z</time>
      </trkpt>
      <trkpt lat="47.25532" lon="-2.29726">
        <ele>21.799999237061</ele>
        <time>2021-10-10T07:40:02.000Z</time>
      </trkpt>
      <trkpt lat="47.25529" lon="-2.29727">
        <ele>22.200000762939</ele>
        <time>2021-10-10T07:40:03.000Z</time>
      </trkpt>
      <trkpt lat="47.25527" lon="-2.29728">
        <ele>22.799999237061</ele>
        <time>2021-10-10T07:40:04.000Z</time>
      </trkpt>
      <trkpt lat="47.25525" lon="-2.29729">
        <ele>23.200000762939</ele>
        <time>2021-10-10T07:40:05.000Z</time>
      </trkpt>
      <trkpt lat="47.25524" lon="-2.29732">
        <ele>23.200000762939</ele>
        <time>2021-10-10T07:40:06.000Z</time>
      </trkpt>
      <trkpt lat="47.25525" lon="-2.29739">
        <ele>23.200000762939</ele>
        <time>2021-10-10T07:40:08.000Z</time>
      </trkpt>
      <trkpt lat="47.25532" lon="-2.29748">
        <ele>23.200000762939</ele>
        <time>2021-10-10T07:40:11.000Z</time>
      </trkpt>
      <trkpt lat="47.25554" lon="-2.29772">
        <ele>23.200000762939</ele>
        <time>2021-10-10T07:40:16.000Z</time>
      </trkpt>
      <trkpt lat="47.25572" lon="-2.29795">
        <ele>23.200000762939</ele>
        <time>2021-10-10T07:40:20.000Z</time>
      </trkpt>
      <trkpt lat="47.25575" lon="-2.29801">
        <ele>22.799999237061</ele>
        <time>2021-10-10T07:40:21.000Z</time>
      </trkpt>
      <trkpt lat="47.25576" lon="-2.29806">
        <ele>22.39999961853</ele>
        <time>2021-10-10T07:40:22.000Z</time>
      </trkpt>
      <trkpt lat="47.25576" lon="-2.2981">
        <ele>22</ele>
        <time>2021-10-10T07:40:23.000Z</time>
      </trkpt>
      <trkpt lat="47.25574" lon="-2.29815">
        <ele>21.60000038147</ele>
        <time>2021-10-10T07:40:24.000Z</time>
      </trkpt>
      <trkpt lat="47.25571" lon="-2.29819">
        <ele>21</ele>
        <time>2021-10-10T07:40:25.000Z</time>
      </trkpt>
      <trkpt lat="47.25569" lon="-2.29823">
        <ele>21</ele>
        <time>2021-10-10T07:40:26.000Z</time>
      </trkpt>
      <trkpt lat="47.25559" lon="-2.29833">
        <ele>21</ele>
        <time>2021-10-10T07:40:29.000Z</time>
      </trkpt>
      <trkpt lat="47.25541" lon="-2.2986">
        <ele>22</ele>
        <time>2021-10-10T07:40:35.000Z</time>
      </trkpt>
      <trkpt lat="47.25538" lon="-2.29864">
        <ele>22.39999961853</ele>
        <time>2021-10-10T07:40:36.000Z</time>
      </trkpt>
      <trkpt lat="47.25536" lon="-2.29868">
        <ele>22.799999237061</ele>
        <time>2021-10-10T07:40:37.000Z</time>
      </trkpt>
      <trkpt lat="47.25534" lon="-2.29873">
        <ele>23.200000762939</ele>
        <time>2021-10-10T07:40:39.000Z</time>
      </trkpt>
      <trkpt lat="47.25534" lon="-2.29877">
        <ele>23.200000762939</ele>
        <time>2021-10-10T07:40:40.000Z</time>
      </trkpt>
      <trkpt lat="47.25536" lon="-2.29884">
        <ele>23.200000762939</ele>
        <time>2021-10-10T07:40:41.000Z</time>
      </trkpt>
      <trkpt lat="47.25548" lon="-2.29907">
        <ele>23.200000762939</ele>
        <time>2021-10-10T07:40:45.000Z</time>
      </trkpt>
      <trkpt lat="47.25559" lon="-2.29927">
        <ele>23.200000762939</ele>
        <time>2021-10-10T07:40:48.000Z</time>
      </trkpt>
      <trkpt lat="47.25567" lon="-2.29939">
        <ele>23.200000762939</ele>
        <time>2021-10-10T07:40:50.000Z</time>
      </trkpt>
      <trkpt lat="47.25601" lon="-2.29992">
        <ele>22.60000038147</ele>
        <time>2021-10-10T07:40:58.000Z</time>
      </trkpt>
      <trkpt lat="47.25605" lon="-2.29999">
        <ele>22.200000762939</ele>
        <time>2021-10-10T07:40:59.000Z</time>
      </trkpt>
      <trkpt lat="47.25609" lon="-2.30006">
        <ele>21.39999961853</ele>
        <time>2021-10-10T07:41:00.000Z</time>
      </trkpt>
      <trkpt lat="47.25612" lon="-2.30014">
        <ele>21</ele>
        <time>2021-10-10T07:41:01.000Z</time>
      </trkpt>
      <trkpt lat="47.25615" lon="-2.3003">
        <ele>21</ele>
        <time>2021-10-10T07:41:03.000Z</time>
      </trkpt>
      <trkpt lat="47.25607" lon="-2.30049">
        <ele>21</ele>
        <time>2021-10-10T07:41:06.000Z</time>
      </trkpt>
      <trkpt lat="47.25602" lon="-2.30054">
        <ele>21</ele>
        <time>2021-10-10T07:41:07.000Z</time>
      </trkpt>
      <trkpt lat="47.25593" lon="-2.30065">
        <ele>21</ele>
        <time>2021-10-10T07:41:09.000Z</time>
      </trkpt>
      <trkpt lat="47.25583" lon="-2.30077">
        <ele>21</ele>
        <time>2021-10-10T07:41:11.000Z</time>
      </trkpt>
      <trkpt lat="47.25579" lon="-2.30083">
        <ele>21</ele>
        <time>2021-10-10T07:41:12.000Z</time>
      </trkpt>
      <trkpt lat="47.25569" lon="-2.30107">
        <ele>20.60000038147</ele>
        <time>2021-10-10T07:41:15.000Z</time>
      </trkpt>
      <trkpt lat="47.25567" lon="-2.30118">
        <ele>20.200000762939</ele>
        <time>2021-10-10T07:41:16.000Z</time>
      </trkpt>
      <trkpt lat="47.25566" lon="-2.30129">
        <ele>19.799999237061</ele>
        <time>2021-10-10T07:41:17.000Z</time>
      </trkpt>
      <trkpt lat="47.25566" lon="-2.30138">
        <ele>19.39999961853</ele>
        <time>2021-10-10T07:41:18.000Z</time>
      </trkpt>
      <trkpt lat="47.25567" lon="-2.30146">
        <ele>19</ele>
        <time>2021-10-10T07:41:19.000Z</time>
      </trkpt>
      <trkpt lat="47.25568" lon="-2.30157">
        <ele>19</ele>
        <time>2021-10-10T07:41:21.000Z</time>
      </trkpt>
      <trkpt lat="47.25566" lon="-2.30166">
        <ele>18.60000038147</ele>
        <time>2021-10-10T07:41:23.000Z</time>
      </trkpt>
      <trkpt lat="47.25565" lon="-2.3017">
        <ele>18.200000762939</ele>
        <time>2021-10-10T07:41:24.000Z</time>
      </trkpt>
      <trkpt lat="47.25564" lon="-2.30174">
        <ele>17.39999961853</ele>
        <time>2021-10-10T07:41:25.000Z</time>
      </trkpt>
      <trkpt lat="47.25561" lon="-2.30177">
        <ele>17</ele>
        <time>2021-10-10T07:41:26.000Z</time>
      </trkpt>
      <trkpt lat="47.25553" lon="-2.30181">
        <ele>17</ele>
        <time>2021-10-10T07:41:28.000Z</time>
      </trkpt>
      <trkpt lat="47.25549" lon="-2.30184">
        <ele>17</ele>
        <time>2021-10-10T07:41:29.000Z</time>
      </trkpt>
      <trkpt lat="47.25534" lon="-2.30192">
        <ele>17</ele>
        <time>2021-10-10T07:41:34.000Z</time>
      </trkpt>
      <trkpt lat="47.25523" lon="-2.30194">
        <ele>17</ele>
        <time>2021-10-10T07:41:39.000Z</time>
      </trkpt>
      <trkpt lat="47.25508" lon="-2.30199">
        <ele>17</ele>
        <time>2021-10-10T07:41:44.000Z</time>
      </trkpt>
      <trkpt lat="47.25492" lon="-2.30214">
        <ele>17</ele>
        <time>2021-10-10T07:41:50.000Z</time>
      </trkpt>
      <trkpt lat="47.25486" lon="-2.30235">
        <ele>17</ele>
        <time>2021-10-10T07:41:55.000Z</time>
      </trkpt>
      <trkpt lat="47.25483" lon="-2.30238">
        <ele>17</ele>
        <time>2021-10-10T07:41:56.000Z</time>
      </trkpt>
      <trkpt lat="47.25475" lon="-2.30241">
        <ele>17</ele>
        <time>2021-10-10T07:41:59.000Z</time>
      </trkpt>
      <trkpt lat="47.25463" lon="-2.30241">
        <ele>17</ele>
        <time>2021-10-10T07:42:03.000Z</time>
      </trkpt>
      <trkpt lat="47.25455" lon="-2.3024">
        <ele>17</ele>
        <time>2021-10-10T07:42:05.000Z</time>
      </trkpt>
      <trkpt lat="47.2543" lon="-2.30233">
        <ele>17.39999961853</ele>
        <time>2021-10-10T07:42:11.000Z</time>
      </trkpt>
      <trkpt lat="47.25426" lon="-2.30233">
        <ele>17.799999237061</ele>
        <time>2021-10-10T07:42:12.000Z</time>
      </trkpt>
      <trkpt lat="47.25422" lon="-2.30233">
        <ele>18.200000762939</ele>
        <time>2021-10-10T07:42:13.000Z</time>
      </trkpt>
      <trkpt lat="47.25417" lon="-2.3023">
        <ele>19</ele>
        <time>2021-10-10T07:42:14.000Z</time>
      </trkpt>
      <trkpt lat="47.25401" lon="-2.30222">
        <ele>19</ele>
        <time>2021-10-10T07:42:17.000Z</time>
      </trkpt>
      <trkpt lat="47.25393" lon="-2.30218">
        <ele>19</ele>
        <time>2021-10-10T07:42:19.000Z</time>
      </trkpt>
      <trkpt lat="47.2538" lon="-2.30212">
        <ele>19</ele>
        <time>2021-10-10T07:42:22.000Z</time>
      </trkpt>
      <trkpt lat="47.25371" lon="-2.30212">
        <ele>19</ele>
        <time>2021-10-10T07:42:24.000Z</time>
      </trkpt>
      <trkpt lat="47.25357" lon="-2.30213">
        <ele>19</ele>
        <time>2021-10-10T07:42:27.000Z</time>
      </trkpt>
      <trkpt lat="47.25327" lon="-2.30211">
        <ele>19</ele>
        <time>2021-10-10T07:42:34.000Z</time>
      </trkpt>
      <trkpt lat="47.25323" lon="-2.3021">
        <ele>19</ele>
        <time>2021-10-10T07:42:35.000Z</time>
      </trkpt>
      <trkpt lat="47.25319" lon="-2.3021">
        <ele>19.39999961853</ele>
        <time>2021-10-10T07:42:36.000Z</time>
      </trkpt>
      <trkpt lat="47.25315" lon="-2.30208">
        <ele>19.799999237061</ele>
        <time>2021-10-10T07:42:37.000Z</time>
      </trkpt>
      <trkpt lat="47.25312" lon="-2.30207">
        <ele>20.200000762939</ele>
        <time>2021-10-10T07:42:38.000Z</time>
      </trkpt>
      <trkpt lat="47.25309" lon="-2.30208">
        <ele>21</ele>
        <time>2021-10-10T07:42:39.000Z</time>
      </trkpt>
      <trkpt lat="47.25301" lon="-2.30212">
        <ele>21</ele>
        <time>2021-10-10T07:42:43.000Z</time>
      </trkpt>
      <trkpt lat="47.2529" lon="-2.30207">
        <ele>21</ele>
        <time>2021-10-10T07:42:46.000Z</time>
      </trkpt>
      <trkpt lat="47.25282" lon="-2.30204">
        <ele>21</ele>
        <time>2021-10-10T07:42:48.000Z</time>
      </trkpt>
      <trkpt lat="47.25269" lon="-2.302">
        <ele>21</ele>
        <time>2021-10-10T07:42:51.000Z</time>
      </trkpt>
      <trkpt lat="47.25256" lon="-2.30193">
        <ele>21</ele>
        <time>2021-10-10T07:42:54.000Z</time>
      </trkpt>
      <trkpt lat="47.25232" lon="-2.30182">
        <ele>21.39999961853</ele>
        <time>2021-10-10T07:43:00.000Z</time>
      </trkpt>
      <trkpt lat="47.25227" lon="-2.30181">
        <ele>21.799999237061</ele>
        <time>2021-10-10T07:43:01.000Z</time>
      </trkpt>
      <trkpt lat="47.25222" lon="-2.30178">
        <ele>22.200000762939</ele>
        <time>2021-10-10T07:43:02.000Z</time>
      </trkpt>
      <trkpt lat="47.25219" lon="-2.30175">
        <ele>23</ele>
        <time>2021-10-10T07:43:03.000Z</time>
      </trkpt>
      <trkpt lat="47.25213" lon="-2.30166">
        <ele>23</ele>
        <time>2021-10-10T07:43:05.000Z</time>
      </trkpt>
      <trkpt lat="47.25194" lon="-2.30144">
        <ele>23.39999961853</ele>
        <time>2021-10-10T07:43:10.000Z</time>
      </trkpt>
      <trkpt lat="47.25192" lon="-2.3014">
        <ele>23.799999237061</ele>
        <time>2021-10-10T07:43:11.000Z</time>
      </trkpt>
      <trkpt lat="47.25189" lon="-2.30135">
        <ele>24.200000762939</ele>
        <time>2021-10-10T07:43:12.000Z</time>
      </trkpt>
      <trkpt lat="47.25186" lon="-2.3013">
        <ele>24.60000038147</ele>
        <time>2021-10-10T07:43:13.000Z</time>
      </trkpt>
      <trkpt lat="47.25184" lon="-2.30126">
        <ele>25</ele>
        <time>2021-10-10T07:43:14.000Z</time>
      </trkpt>
      <trkpt lat="47.25175" lon="-2.30118">
        <ele>25</ele>
        <time>2021-10-10T07:43:17.000Z</time>
      </trkpt>
      <trkpt lat="47.25156" lon="-2.30123">
        <ele>25</ele>
        <time>2021-10-10T07:43:21.000Z</time>
      </trkpt>
      <trkpt lat="47.2513" lon="-2.3013">
        <ele>25</ele>
        <time>2021-10-10T07:43:27.000Z</time>
      </trkpt>
      <trkpt lat="47.25118" lon="-2.30132">
        <ele>25.39999961853</ele>
        <time>2021-10-10T07:43:30.000Z</time>
      </trkpt>
      <trkpt lat="47.25114" lon="-2.30134">
        <ele>25.799999237061</ele>
        <time>2021-10-10T07:43:31.000Z</time>
      </trkpt>
      <trkpt lat="47.2511" lon="-2.30134">
        <ele>26.200000762939</ele>
        <time>2021-10-10T07:43:32.000Z</time>
      </trkpt>
      <trkpt lat="47.25107" lon="-2.30134">
        <ele>26.799999237061</ele>
        <time>2021-10-10T07:43:33.000Z</time>
      </trkpt>
      <trkpt lat="47.25103" lon="-2.30135">
        <ele>27.200000762939</ele>
        <time>2021-10-10T07:43:34.000Z</time>
      </trkpt>
      <trkpt lat="47.25086" lon="-2.30137">
        <ele>27.200000762939</ele>
        <time>2021-10-10T07:43:38.000Z</time>
      </trkpt>
      <trkpt lat="47.25068" lon="-2.30129">
        <ele>27.200000762939</ele>
        <time>2021-10-10T07:43:44.000Z</time>
      </trkpt>
      <trkpt lat="47.25068" lon="-2.30112">
        <ele>27.200000762939</ele>
        <time>2021-10-10T07:43:47.000Z</time>
      </trkpt>
      <trkpt lat="47.25071" lon="-2.30073">
        <ele>27.200000762939</ele>
        <time>2021-10-10T07:43:53.000Z</time>
      </trkpt>
      <trkpt lat="47.25071" lon="-2.30059">
        <ele>27.200000762939</ele>
        <time>2021-10-10T07:43:56.000Z</time>
      </trkpt>
      <trkpt lat="47.25069" lon="-2.30057">
        <ele>27.200000762939</ele>
        <time>2021-10-10T07:43:57.000Z</time>
      </trkpt>
      <trkpt lat="47.25055" lon="-2.30055">
        <ele>27.200000762939</ele>
        <time>2021-10-10T07:44:01.000Z</time>
      </trkpt>
      <trkpt lat="47.25051" lon="-2.30055">
        <ele>27.200000762939</ele>
        <time>2021-10-10T07:44:02.000Z</time>
      </trkpt>
      <trkpt lat="47.25039" lon="-2.30054">
        <ele>27.60000038147</ele>
        <time>2021-10-10T07:44:05.000Z</time>
      </trkpt>
      <trkpt lat="47.25036" lon="-2.30054">
        <ele>28</ele>
        <time>2021-10-10T07:44:06.000Z</time>
      </trkpt>
      <trkpt lat="47.25032" lon="-2.30054">
        <ele>28.39999961853</ele>
        <time>2021-10-10T07:44:07.000Z</time>
      </trkpt>
      <trkpt lat="47.25028" lon="-2.30054">
        <ele>28.799999237061</ele>
        <time>2021-10-10T07:44:08.000Z</time>
      </trkpt>
      <trkpt lat="47.25023" lon="-2.30054">
        <ele>29.200000762939</ele>
        <time>2021-10-10T07:44:09.000Z</time>
      </trkpt>
      <trkpt lat="47.25003" lon="-2.30054">
        <ele>29.200000762939</ele>
        <time>2021-10-10T07:44:14.000Z</time>
      </trkpt>
      <trkpt lat="47.24974" lon="-2.30057">
        <ele>29.200000762939</ele>
        <time>2021-10-10T07:44:21.000Z</time>
      </trkpt>
      <trkpt lat="47.24937" lon="-2.30057">
        <ele>29.200000762939</ele>
        <time>2021-10-10T07:44:30.000Z</time>
      </trkpt>
      <trkpt lat="47.24917" lon="-2.30057">
        <ele>29.200000762939</ele>
        <time>2021-10-10T07:44:36.000Z</time>
      </trkpt>
      <trkpt lat="47.24903" lon="-2.30051">
        <ele>29.200000762939</ele>
        <time>2021-10-10T07:44:40.000Z</time>
      </trkpt>
      <trkpt lat="47.24902" lon="-2.30045">
        <ele>29.200000762939</ele>
        <time>2021-10-10T07:44:41.000Z</time>
      </trkpt>
      <trkpt lat="47.24901" lon="-2.30015">
        <ele>29.200000762939</ele>
        <time>2021-10-10T07:44:45.000Z</time>
      </trkpt>
      <trkpt lat="47.24897" lon="-2.29998">
        <ele>29.200000762939</ele>
        <time>2021-10-10T07:44:47.000Z</time>
      </trkpt>
      <trkpt lat="47.24891" lon="-2.29971">
        <ele>29.799999237061</ele>
        <time>2021-10-10T07:44:50.000Z</time>
      </trkpt>
      <trkpt lat="47.24889" lon="-2.29962">
        <ele>30.200000762939</ele>
        <time>2021-10-10T07:44:51.000Z</time>
      </trkpt>
      <trkpt lat="47.24886" lon="-2.29953">
        <ele>30.60000038147</ele>
        <time>2021-10-10T07:44:52.000Z</time>
      </trkpt>
      <trkpt lat="47.24884" lon="-2.29945">
        <ele>31</ele>
        <time>2021-10-10T07:44:53.000Z</time>
      </trkpt>
      <trkpt lat="47.24882" lon="-2.29936">
        <ele>31.39999961853</ele>
        <time>2021-10-10T07:44:54.000Z</time>
      </trkpt>
      <trkpt lat="47.2488" lon="-2.29927">
        <ele>31.39999961853</ele>
        <time>2021-10-10T07:44:55.000Z</time>
      </trkpt>
      <trkpt lat="47.24879" lon="-2.29919">
        <ele>31.39999961853</ele>
        <time>2021-10-10T07:44:56.000Z</time>
      </trkpt>
      <trkpt lat="47.24878" lon="-2.2991">
        <ele>31.39999961853</ele>
        <time>2021-10-10T07:44:57.000Z</time>
      </trkpt>
      <trkpt lat="47.24875" lon="-2.29883">
        <ele>31.39999961853</ele>
        <time>2021-10-10T07:45:00.000Z</time>
      </trkpt>
      <trkpt lat="47.24868" lon="-2.29847">
        <ele>31.39999961853</ele>
        <time>2021-10-10T07:45:04.000Z</time>
      </trkpt>
      <trkpt lat="47.24867" lon="-2.2984">
        <ele>31.39999961853</ele>
        <time>2021-10-10T07:45:05.000Z</time>
      </trkpt>
      <trkpt lat="47.24859" lon="-2.29829">
        <ele>31.39999961853</ele>
        <time>2021-10-10T07:45:08.000Z</time>
      </trkpt>
      <trkpt lat="47.24848" lon="-2.29838">
        <ele>31.39999961853</ele>
        <time>2021-10-10T07:45:11.000Z</time>
      </trkpt>
      <trkpt lat="47.24827" lon="-2.29847">
        <ele>31.39999961853</ele>
        <time>2021-10-10T07:45:15.000Z</time>
      </trkpt>
      <trkpt lat="47.24803" lon="-2.29854">
        <ele>31.39999961853</ele>
        <time>2021-10-10T07:45:19.000Z</time>
      </trkpt>
      <trkpt lat="47.24786" lon="-2.29864">
        <ele>31.39999961853</ele>
        <time>2021-10-10T07:45:22.000Z</time>
      </trkpt>
      <trkpt lat="47.24744" lon="-2.29895">
        <ele>31.39999961853</ele>
        <time>2021-10-10T07:45:29.000Z</time>
      </trkpt>
      <trkpt lat="47.24731" lon="-2.29901">
        <ele>31.39999961853</ele>
        <time>2021-10-10T07:45:31.000Z</time>
      </trkpt>
      <trkpt lat="47.24716" lon="-2.29906">
        <ele>31.39999961853</ele>
        <time>2021-10-10T07:45:33.000Z</time>
      </trkpt>
      <trkpt lat="47.24663" lon="-2.29923">
        <ele>31.39999961853</ele>
        <time>2021-10-10T07:45:40.000Z</time>
      </trkpt>
      <trkpt lat="47.24641" lon="-2.29931">
        <ele>31</ele>
        <time>2021-10-10T07:45:43.000Z</time>
      </trkpt>
      <trkpt lat="47.24634" lon="-2.29934">
        <ele>30.60000038147</ele>
        <time>2021-10-10T07:45:44.000Z</time>
      </trkpt>
      <trkpt lat="47.24628" lon="-2.29936">
        <ele>30.200000762939</ele>
        <time>2021-10-10T07:45:45.000Z</time>
      </trkpt>
      <trkpt lat="47.24621" lon="-2.29939">
        <ele>29.799999237061</ele>
        <time>2021-10-10T07:45:46.000Z</time>
      </trkpt>
      <trkpt lat="47.24615" lon="-2.2994">
        <ele>29.200000762939</ele>
        <time>2021-10-10T07:45:47.000Z</time>
      </trkpt>
      <trkpt lat="47.24603" lon="-2.29945">
        <ele>29.200000762939</ele>
        <time>2021-10-10T07:45:51.000Z</time>
      </trkpt>
      <trkpt lat="47.24592" lon="-2.2994">
        <ele>29.200000762939</ele>
        <time>2021-10-10T07:45:56.000Z</time>
      </trkpt>
      <trkpt lat="47.24589" lon="-2.29936">
        <ele>29.200000762939</ele>
        <time>2021-10-10T07:45:57.000Z</time>
      </trkpt>
      <trkpt lat="47.24576" lon="-2.29913">
        <ele>29.200000762939</ele>
        <time>2021-10-10T07:46:01.000Z</time>
      </trkpt>
      <trkpt lat="47.24568" lon="-2.29892">
        <ele>29.200000762939</ele>
        <time>2021-10-10T07:46:04.000Z</time>
      </trkpt>
      <trkpt lat="47.24561" lon="-2.2988">
        <ele>29.200000762939</ele>
        <time>2021-10-10T07:46:06.000Z</time>
      </trkpt>
      <trkpt lat="47.2454" lon="-2.29864">
        <ele>29.200000762939</ele>
        <time>2021-10-10T07:46:10.000Z</time>
      </trkpt>
      <trkpt lat="47.24533" lon="-2.29862">
        <ele>29.200000762939</ele>
        <time>2021-10-10T07:46:11.000Z</time>
      </trkpt>
      <trkpt lat="47.24514" lon="-2.29854">
        <ele>29.200000762939</ele>
        <time>2021-10-10T07:46:14.000Z</time>
      </trkpt>
      <trkpt lat="47.24508" lon="-2.2985">
        <ele>29.200000762939</ele>
        <time>2021-10-10T07:46:15.000Z</time>
      </trkpt>
      <trkpt lat="47.2449" lon="-2.29837">
        <ele>29.200000762939</ele>
        <time>2021-10-10T07:46:18.000Z</time>
      </trkpt>
      <trkpt lat="47.2448" lon="-2.29824">
        <ele>29.200000762939</ele>
        <time>2021-10-10T07:46:20.000Z</time>
      </trkpt>
      <trkpt lat="47.24465" lon="-2.29791">
        <ele>29.200000762939</ele>
        <time>2021-10-10T07:46:24.000Z</time>
      </trkpt>
      <trkpt lat="47.24462" lon="-2.29782">
        <ele>29.200000762939</ele>
        <time>2021-10-10T07:46:25.000Z</time>
      </trkpt>
      <trkpt lat="47.24453" lon="-2.29742">
        <ele>28.799999237061</ele>
        <time>2021-10-10T07:46:29.000Z</time>
      </trkpt>
      <trkpt lat="47.2445" lon="-2.29733">
        <ele>28.39999961853</ele>
        <time>2021-10-10T07:46:30.000Z</time>
      </trkpt>
      <trkpt lat="47.24447" lon="-2.29724">
        <ele>28</ele>
        <time>2021-10-10T07:46:31.000Z</time>
      </trkpt>
      <trkpt lat="47.24445" lon="-2.29716">
        <ele>27.60000038147</ele>
        <time>2021-10-10T07:46:32.000Z</time>
      </trkpt>
      <trkpt lat="47.24443" lon="-2.29707">
        <ele>27.200000762939</ele>
        <time>2021-10-10T07:46:33.000Z</time>
      </trkpt>
      <trkpt lat="47.2444" lon="-2.29698">
        <ele>27.200000762939</ele>
        <time>2021-10-10T07:46:34.000Z</time>
      </trkpt>
      <trkpt lat="47.24426" lon="-2.29689">
        <ele>27.200000762939</ele>
        <time>2021-10-10T07:46:37.000Z</time>
      </trkpt>
      <trkpt lat="47.24408" lon="-2.29698">
        <ele>27.200000762939</ele>
        <time>2021-10-10T07:46:40.000Z</time>
      </trkpt>
      <trkpt lat="47.24402" lon="-2.29703">
        <ele>27.200000762939</ele>
        <time>2021-10-10T07:46:41.000Z</time>
      </trkpt>
      <trkpt lat="47.2439" lon="-2.29726">
        <ele>27.200000762939</ele>
        <time>2021-10-10T07:46:44.000Z</time>
      </trkpt>
      <trkpt lat="47.24387" lon="-2.29735">
        <ele>27.200000762939</ele>
        <time>2021-10-10T07:46:45.000Z</time>
      </trkpt>
      <trkpt lat="47.2437" lon="-2.29778">
        <ele>27.200000762939</ele>
        <time>2021-10-10T07:46:50.000Z</time>
      </trkpt>
      <trkpt lat="47.24357" lon="-2.29798">
        <ele>27.200000762939</ele>
        <time>2021-10-10T07:46:53.000Z</time>
      </trkpt>
      <trkpt lat="47.24344" lon="-2.29807">
        <ele>27.200000762939</ele>
        <time>2021-10-10T07:46:55.000Z</time>
      </trkpt>
      <trkpt lat="47.24321" lon="-2.29824">
        <ele>27.200000762939</ele>
        <time>2021-10-10T07:46:59.000Z</time>
      </trkpt>
      <trkpt lat="47.2432" lon="-2.29842">
        <ele>26.799999237061</ele>
        <time>2021-10-10T07:47:01.000Z</time>
      </trkpt>
      <trkpt lat="47.24321" lon="-2.29851">
        <ele>26.39999961853</ele>
        <time>2021-10-10T07:47:02.000Z</time>
      </trkpt>
      <trkpt lat="47.24322" lon="-2.29861">
        <ele>26</ele>
        <time>2021-10-10T07:47:03.000Z</time>
      </trkpt>
      <trkpt lat="47.24322" lon="-2.2987">
        <ele>25.60000038147</ele>
        <time>2021-10-10T07:47:04.000Z</time>
      </trkpt>
      <trkpt lat="47.2432" lon="-2.29879">
        <ele>25.200000762939</ele>
        <time>2021-10-10T07:47:05.000Z</time>
      </trkpt>
      <trkpt lat="47.24311" lon="-2.2989">
        <ele>25.200000762939</ele>
        <time>2021-10-10T07:47:07.000Z</time>
      </trkpt>
      <trkpt lat="47.24299" lon="-2.29897">
        <ele>25.200000762939</ele>
        <time>2021-10-10T07:47:09.000Z</time>
      </trkpt>
      <trkpt lat="47.24283" lon="-2.2991">
        <ele>25.200000762939</ele>
        <time>2021-10-10T07:47:12.000Z</time>
      </trkpt>
      <trkpt lat="47.24262" lon="-2.2993">
        <ele>24.799999237061</ele>
        <time>2021-10-10T07:47:16.000Z</time>
      </trkpt>
      <trkpt lat="47.24258" lon="-2.29936">
        <ele>24.39999961853</ele>
        <time>2021-10-10T07:47:17.000Z</time>
      </trkpt>
      <trkpt lat="47.24253" lon="-2.29942">
        <ele>24</ele>
        <time>2021-10-10T07:47:18.000Z</time>
      </trkpt>
      <trkpt lat="47.24248" lon="-2.29947">
        <ele>23.60000038147</ele>
        <time>2021-10-10T07:47:19.000Z</time>
      </trkpt>
      <trkpt lat="47.24244" lon="-2.29952">
        <ele>23.200000762939</ele>
        <time>2021-10-10T07:47:20.000Z</time>
      </trkpt>
      <trkpt lat="47.2424" lon="-2.29956">
        <ele>23.200000762939</ele>
        <time>2021-10-10T07:47:21.000Z</time>
      </trkpt>
      <trkpt lat="47.24231" lon="-2.29962">
        <ele>23.200000762939</ele>
        <time>2021-10-10T07:47:23.000Z</time>
      </trkpt>
      <trkpt lat="47.24222" lon="-2.29965">
        <ele>23.200000762939</ele>
        <time>2021-10-10T07:47:25.000Z</time>
      </trkpt>
      <trkpt lat="47.24207" lon="-2.29972">
        <ele>23.200000762939</ele>
        <time>2021-10-10T07:47:28.000Z</time>
      </trkpt>
      <trkpt lat="47.24194" lon="-2.29977">
        <ele>23.60000038147</ele>
        <time>2021-10-10T07:47:31.000Z</time>
      </trkpt>
      <trkpt lat="47.2419" lon="-2.29978">
        <ele>24</ele>
        <time>2021-10-10T07:47:32.000Z</time>
      </trkpt>
      <trkpt lat="47.24186" lon="-2.29979">
        <ele>24.39999961853</ele>
        <time>2021-10-10T07:47:33.000Z</time>
      </trkpt>
      <trkpt lat="47.24182" lon="-2.2998">
        <ele>24.799999237061</ele>
        <time>2021-10-10T07:47:34.000Z</time>
      </trkpt>
      <trkpt lat="47.24178" lon="-2.2998">
        <ele>25.200000762939</ele>
        <time>2021-10-10T07:47:35.000Z</time>
      </trkpt>
      <trkpt lat="47.24164" lon="-2.29985">
        <ele>25.200000762939</ele>
        <time>2021-10-10T07:47:39.000Z</time>
      </trkpt>
      <trkpt lat="47.24143" lon="-2.2999">
        <ele>25.200000762939</ele>
        <time>2021-10-10T07:47:45.000Z</time>
      </trkpt>
      <trkpt lat="47.24111" lon="-2.29991">
        <ele>25.200000762939</ele>
        <time>2021-10-10T07:47:52.000Z</time>
      </trkpt>
      <trkpt lat="47.2409" lon="-2.29984">
        <ele>25.200000762939</ele>
        <time>2021-10-10T07:47:58.000Z</time>
      </trkpt>
      <trkpt lat="47.24071" lon="-2.29968">
        <ele>25.200000762939</ele>
        <time>2021-10-10T07:48:03.000Z</time>
      </trkpt>
      <trkpt lat="47.24062" lon="-2.29966">
        <ele>25.200000762939</ele>
        <time>2021-10-10T07:48:06.000Z</time>
      </trkpt>
      <trkpt lat="47.24058" lon="-2.29967">
        <ele>25.200000762939</ele>
        <time>2021-10-10T07:48:07.000Z</time>
      </trkpt>
      <trkpt lat="47.24043" lon="-2.29966">
        <ele>25.200000762939</ele>
        <time>2021-10-10T07:48:12.000Z</time>
      </trkpt>
      <trkpt lat="47.24019" lon="-2.29963">
        <ele>25.200000762939</ele>
        <time>2021-10-10T07:48:18.000Z</time>
      </trkpt>
      <trkpt lat="47.24003" lon="-2.2996">
        <ele>25.200000762939</ele>
        <time>2021-10-10T07:48:22.000Z</time>
      </trkpt>
      <trkpt lat="47.23997" lon="-2.29965">
        <ele>25.200000762939</ele>
        <time>2021-10-10T07:48:24.000Z</time>
      </trkpt>
      <trkpt lat="47.23995" lon="-2.2997">
        <ele>25.200000762939</ele>
        <time>2021-10-10T07:48:25.000Z</time>
      </trkpt>
      <trkpt lat="47.23986" lon="-2.30002">
        <ele>25.200000762939</ele>
        <time>2021-10-10T07:48:30.000Z</time>
      </trkpt>
      <trkpt lat="47.23974" lon="-2.30037">
        <ele>25.200000762939</ele>
        <time>2021-10-10T07:48:36.000Z</time>
      </trkpt>
      <trkpt lat="47.23969" lon="-2.30053">
        <ele>25.200000762939</ele>
        <time>2021-10-10T07:48:39.000Z</time>
      </trkpt>
      <trkpt lat="47.23965" lon="-2.30072">
        <ele>25.200000762939</ele>
        <time>2021-10-10T07:48:42.000Z</time>
      </trkpt>
      <trkpt lat="47.23961" lon="-2.30081">
        <ele>24.799999237061</ele>
        <time>2021-10-10T07:48:44.000Z</time>
      </trkpt>
      <trkpt lat="47.23959" lon="-2.30085">
        <ele>24.39999961853</ele>
        <time>2021-10-10T07:48:45.000Z</time>
      </trkpt>
      <trkpt lat="47.23957" lon="-2.30089">
        <ele>24</ele>
        <time>2021-10-10T07:48:46.000Z</time>
      </trkpt>
      <trkpt lat="47.23954" lon="-2.30092">
        <ele>23.60000038147</ele>
        <time>2021-10-10T07:48:47.000Z</time>
      </trkpt>
      <trkpt lat="47.23951" lon="-2.30093">
        <ele>23</ele>
        <time>2021-10-10T07:48:48.000Z</time>
      </trkpt>
      <trkpt lat="47.23947" lon="-2.30094">
        <ele>23</ele>
        <time>2021-10-10T07:48:49.000Z</time>
      </trkpt>
      <trkpt lat="47.23935" lon="-2.30095">
        <ele>23</ele>
        <time>2021-10-10T07:48:52.000Z</time>
      </trkpt>
      <trkpt lat="47.23926" lon="-2.30095">
        <ele>22.60000038147</ele>
        <time>2021-10-10T07:48:54.000Z</time>
      </trkpt>
      <trkpt lat="47.23921" lon="-2.30095">
        <ele>22.200000762939</ele>
        <time>2021-10-10T07:48:55.000Z</time>
      </trkpt>
      <trkpt lat="47.23917" lon="-2.30095">
        <ele>21.799999237061</ele>
        <time>2021-10-10T07:48:56.000Z</time>
      </trkpt>
      <trkpt lat="47.23913" lon="-2.30094">
        <ele>21.39999961853</ele>
        <time>2021-10-10T07:48:57.000Z</time>
      </trkpt>
      <trkpt lat="47.23911" lon="-2.30093">
        <ele>21</ele>
        <time>2021-10-10T07:48:58.000Z</time>
      </trkpt>
      <trkpt lat="47.23904" lon="-2.3009">
        <ele>21</ele>
        <time>2021-10-10T07:49:00.000Z</time>
      </trkpt>
      <trkpt lat="47.23871" lon="-2.3007">
        <ele>21</ele>
        <time>2021-10-10T07:49:07.000Z</time>
      </trkpt>
      <trkpt lat="47.23855" lon="-2.30057">
        <ele>21</ele>
        <time>2021-10-10T07:49:10.000Z</time>
      </trkpt>
      <trkpt lat="47.23848" lon="-2.30038">
        <ele>21</ele>
        <time>2021-10-10T07:49:13.000Z</time>
      </trkpt>
      <trkpt lat="47.23845" lon="-2.30023">
        <ele>21</ele>
        <time>2021-10-10T07:49:15.000Z</time>
      </trkpt>
      <trkpt lat="47.23841" lon="-2.30001">
        <ele>21.39999961853</ele>
        <time>2021-10-10T07:49:18.000Z</time>
      </trkpt>
      <trkpt lat="47.23839" lon="-2.29994">
        <ele>22</ele>
        <time>2021-10-10T07:49:19.000Z</time>
      </trkpt>
      <trkpt lat="47.23838" lon="-2.29987">
        <ele>22.39999961853</ele>
        <time>2021-10-10T07:49:20.000Z</time>
      </trkpt>
      <trkpt lat="47.23836" lon="-2.29979">
        <ele>22.799999237061</ele>
        <time>2021-10-10T07:49:21.000Z</time>
      </trkpt>
      <trkpt lat="47.23835" lon="-2.29971">
        <ele>23.200000762939</ele>
        <time>2021-10-10T07:49:22.000Z</time>
      </trkpt>
      <trkpt lat="47.23832" lon="-2.29956">
        <ele>23.200000762939</ele>
        <time>2021-10-10T07:49:24.000Z</time>
      </trkpt>
      <trkpt lat="47.23824" lon="-2.29917">
        <ele>23.200000762939</ele>
        <time>2021-10-10T07:49:30.000Z</time>
      </trkpt>
      <trkpt lat="47.23822" lon="-2.29904">
        <ele>23.60000038147</ele>
        <time>2021-10-10T07:49:32.000Z</time>
      </trkpt>
      <trkpt lat="47.23821" lon="-2.29897">
        <ele>24</ele>
        <time>2021-10-10T07:49:33.000Z</time>
      </trkpt>
      <trkpt lat="47.2382" lon="-2.2989">
        <ele>24.39999961853</ele>
        <time>2021-10-10T07:49:34.000Z</time>
      </trkpt>
      <trkpt lat="47.23819" lon="-2.29884">
        <ele>25</ele>
        <time>2021-10-10T07:49:35.000Z</time>
      </trkpt>
      <trkpt lat="47.23817" lon="-2.29877">
        <ele>25.39999961853</ele>
        <time>2021-10-10T07:49:36.000Z</time>
      </trkpt>
      <trkpt lat="47.23817" lon="-2.2987">
        <ele>25.39999961853</ele>
        <time>2021-10-10T07:49:37.000Z</time>
      </trkpt>
      <trkpt lat="47.23811" lon="-2.29833">
        <ele>25.39999961853</ele>
        <time>2021-10-10T07:49:42.000Z</time>
      </trkpt>
      <trkpt lat="47.23811" lon="-2.29818">
        <ele>25.39999961853</ele>
        <time>2021-10-10T07:49:44.000Z</time>
      </trkpt>
      <trkpt lat="47.23812" lon="-2.29773">
        <ele>25.39999961853</ele>
        <time>2021-10-10T07:49:50.000Z</time>
      </trkpt>
      <trkpt lat="47.23813" lon="-2.29727">
        <ele>25.39999961853</ele>
        <time>2021-10-10T07:49:56.000Z</time>
      </trkpt>
      <trkpt lat="47.23816" lon="-2.2967">
        <ele>25.39999961853</ele>
        <time>2021-10-10T07:50:03.000Z</time>
      </trkpt>
      <trkpt lat="47.23816" lon="-2.29624">
        <ele>25.39999961853</ele>
        <time>2021-10-10T07:50:09.000Z</time>
      </trkpt>
      <trkpt lat="47.23817" lon="-2.29585">
        <ele>25.39999961853</ele>
        <time>2021-10-10T07:50:14.000Z</time>
      </trkpt>
      <trkpt lat="47.23818" lon="-2.29569">
        <ele>25.39999961853</ele>
        <time>2021-10-10T07:50:16.000Z</time>
      </trkpt>
      <trkpt lat="47.23819" lon="-2.29512">
        <ele>25.39999961853</ele>
        <time>2021-10-10T07:50:23.000Z</time>
      </trkpt>
      <trkpt lat="47.2382" lon="-2.29444">
        <ele>25.39999961853</ele>
        <time>2021-10-10T07:50:31.000Z</time>
      </trkpt>
      <trkpt lat="47.23822" lon="-2.29432">
        <ele>25.39999961853</ele>
        <time>2021-10-10T07:50:33.000Z</time>
      </trkpt>
      <trkpt lat="47.23828" lon="-2.29421">
        <ele>25.39999961853</ele>
        <time>2021-10-10T07:50:35.000Z</time>
      </trkpt>
      <trkpt lat="47.23834" lon="-2.29409">
        <ele>25.39999961853</ele>
        <time>2021-10-10T07:50:37.000Z</time>
      </trkpt>
      <trkpt lat="47.23847" lon="-2.29382">
        <ele>25.39999961853</ele>
        <time>2021-10-10T07:50:41.000Z</time>
      </trkpt>
      <trkpt lat="47.23869" lon="-2.29337">
        <ele>25.39999961853</ele>
        <time>2021-10-10T07:50:48.000Z</time>
      </trkpt>
      <trkpt lat="47.23874" lon="-2.29333">
        <ele>25.39999961853</ele>
        <time>2021-10-10T07:50:49.000Z</time>
      </trkpt>
      <trkpt lat="47.23891" lon="-2.2933">
        <ele>25.39999961853</ele>
        <time>2021-10-10T07:50:52.000Z</time>
      </trkpt>
      <trkpt lat="47.23897" lon="-2.29331">
        <ele>25.39999961853</ele>
        <time>2021-10-10T07:50:53.000Z</time>
      </trkpt>
      <trkpt lat="47.23912" lon="-2.29335">
        <ele>25.39999961853</ele>
        <time>2021-10-10T07:50:56.000Z</time>
      </trkpt>
      <trkpt lat="47.23915" lon="-2.29341">
        <ele>25.39999961853</ele>
        <time>2021-10-10T07:50:57.000Z</time>
      </trkpt>
      <trkpt lat="47.23934" lon="-2.29379">
        <ele>25.39999961853</ele>
        <time>2021-10-10T07:51:03.000Z</time>
      </trkpt>
      <trkpt lat="47.23961" lon="-2.29432">
        <ele>25.39999961853</ele>
        <time>2021-10-10T07:51:12.000Z</time>
      </trkpt>
      <trkpt lat="47.23982" lon="-2.29474">
        <ele>25.39999961853</ele>
        <time>2021-10-10T07:51:19.000Z</time>
      </trkpt>
      <trkpt lat="47.23993" lon="-2.29498">
        <ele>25.39999961853</ele>
        <time>2021-10-10T07:51:23.000Z</time>
      </trkpt>
      <trkpt lat="47.23994" lon="-2.29506">
        <ele>25.39999961853</ele>
        <time>2021-10-10T07:51:24.000Z</time>
      </trkpt>
      <trkpt lat="47.23996" lon="-2.29529">
        <ele>25.39999961853</ele>
        <time>2021-10-10T07:51:27.000Z</time>
      </trkpt>
      <trkpt lat="47.23997" lon="-2.29545">
        <ele>25.799999237061</ele>
        <time>2021-10-10T07:51:29.000Z</time>
      </trkpt>
      <trkpt lat="47.23998" lon="-2.29554">
        <ele>26.200000762939</ele>
        <time>2021-10-10T07:51:30.000Z</time>
      </trkpt>
      <trkpt lat="47.23998" lon="-2.29561">
        <ele>26.60000038147</ele>
        <time>2021-10-10T07:51:31.000Z</time>
      </trkpt>
      <trkpt lat="47.23999" lon="-2.29569">
        <ele>27</ele>
        <time>2021-10-10T07:51:32.000Z</time>
      </trkpt>
      <trkpt lat="47.23999" lon="-2.29577">
        <ele>27.39999961853</ele>
        <time>2021-10-10T07:51:33.000Z</time>
      </trkpt>
      <trkpt lat="47.24001" lon="-2.296">
        <ele>27.39999961853</ele>
        <time>2021-10-10T07:51:36.000Z</time>
      </trkpt>
      <trkpt lat="47.24006" lon="-2.29653">
        <ele>27.39999961853</ele>
        <time>2021-10-10T07:51:43.000Z</time>
      </trkpt>
      <trkpt lat="47.24009" lon="-2.29686">
        <ele>27.39999961853</ele>
        <time>2021-10-10T07:51:47.000Z</time>
      </trkpt>
      <trkpt lat="47.24009" lon="-2.29702">
        <ele>27.39999961853</ele>
        <time>2021-10-10T07:51:49.000Z</time>
      </trkpt>
      <trkpt lat="47.2401" lon="-2.29716">
        <ele>27.39999961853</ele>
        <time>2021-10-10T07:51:51.000Z</time>
      </trkpt>
      <trkpt lat="47.24012" lon="-2.29747">
        <ele>27.39999961853</ele>
        <time>2021-10-10T07:51:55.000Z</time>
      </trkpt>
      <trkpt lat="47.24013" lon="-2.29788">
        <ele>27.39999961853</ele>
        <time>2021-10-10T07:52:01.000Z</time>
      </trkpt>
      <trkpt lat="47.24018" lon="-2.29803">
        <ele>27.39999961853</ele>
        <time>2021-10-10T07:52:05.000Z</time>
      </trkpt>
      <trkpt lat="47.2402" lon="-2.29802">
        <ele>27.39999961853</ele>
        <time>2021-10-10T07:52:06.000Z</time>
      </trkpt>
      <trkpt lat="47.24025" lon="-2.298">
        <ele>27.39999961853</ele>
        <time>2021-10-10T07:52:08.000Z</time>
      </trkpt>
      <trkpt lat="47.24045" lon="-2.29796">
        <ele>27.39999961853</ele>
        <time>2021-10-10T07:52:14.000Z</time>
      </trkpt>
      <trkpt lat="47.2406" lon="-2.2979">
        <ele>27.39999961853</ele>
        <time>2021-10-10T07:52:20.000Z</time>
      </trkpt>
      <trkpt lat="47.24064" lon="-2.29787">
        <ele>27.39999961853</ele>
        <time>2021-10-10T07:52:25.000Z</time>
      </trkpt>
      <trkpt lat="47.2407" lon="-2.2978">
        <ele>27.39999961853</ele>
        <time>2021-10-10T07:52:33.000Z</time>
      </trkpt>
      <trkpt lat="47.24073" lon="-2.29771">
        <ele>27.39999961853</ele>
        <time>2021-10-10T07:52:40.000Z</time>
      </trkpt>
      <trkpt lat="47.24073" lon="-2.2977">
        <ele>27.39999961853</ele>
        <time>2021-10-10T07:52:49.000Z</time>
      </trkpt>
      <trkpt lat="47.24073" lon="-2.2977">
        <ele>27.39999961853</ele>
        <time>2021-10-10T07:53:04.000Z</time>
      </trkpt>
      <trkpt lat="47.24073" lon="-2.2977">
        <ele>27.39999961853</ele>
        <time>2021-10-10T07:53:20.000Z</time>
      </trkpt>
      <trkpt lat="47.24074" lon="-2.2977">
        <ele>27.39999961853</ele>
        <time>2021-10-10T07:53:38.000Z</time>
      </trkpt>
      <trkpt lat="47.24074" lon="-2.2977">
        <ele>27.39999961853</ele>
        <time>2021-10-10T07:53:54.000Z</time>
      </trkpt>
      <trkpt lat="47.24074" lon="-2.2977">
        <ele>27.39999961853</ele>
        <time>2021-10-10T07:54:17.000Z</time>
      </trkpt>
      <trkpt lat="47.24074" lon="-2.2977">
        <ele>27.39999961853</ele>
        <time>2021-10-10T07:54:34.000Z</time>
      </trkpt>
      <trkpt lat="47.24074" lon="-2.29769">
        <ele>27.39999961853</ele>
        <time>2021-10-10T07:54:51.000Z</time>
      </trkpt>
      <trkpt lat="47.24074" lon="-2.29769">
        <ele>27.39999961853</ele>
        <time>2021-10-10T07:55:08.000Z</time>
      </trkpt>
      <trkpt lat="47.24075" lon="-2.29769">
        <ele>27.39999961853</ele>
        <time>2021-10-10T07:55:22.000Z</time>
      </trkpt>
      <trkpt lat="47.24075" lon="-2.29769">
        <ele>27.39999961853</ele>
        <time>2021-10-10T07:55:40.000Z</time>
      </trkpt>
      <trkpt lat="47.24075" lon="-2.29769">
        <ele>27.39999961853</ele>
        <time>2021-10-10T07:55:57.000Z</time>
      </trkpt>
      <trkpt lat="47.24075" lon="-2.29768">
        <ele>27.39999961853</ele>
        <time>2021-10-10T07:56:15.000Z</time>
      </trkpt>
      <trkpt lat="47.24075" lon="-2.29768">
        <ele>27.39999961853</ele>
        <time>2021-10-10T07:56:30.000Z</time>
      </trkpt>
      <trkpt lat="47.24076" lon="-2.29768">
        <ele>27.39999961853</ele>
        <time>2021-10-10T07:56:50.000Z</time>
      </trkpt>
      <trkpt lat="47.24076" lon="-2.29768">
        <ele>27.39999961853</ele>
        <time>2021-10-10T07:57:05.000Z</time>
      </trkpt>
      <trkpt lat="47.24076" lon="-2.29768">
        <ele>27.39999961853</ele>
        <time>2021-10-10T07:57:21.000Z</time>
      </trkpt>
      <trkpt lat="47.24076" lon="-2.29768">
        <ele>27.39999961853</ele>
        <time>2021-10-10T07:57:38.000Z</time>
      </trkpt>
      <trkpt lat="47.24076" lon="-2.29768">
        <ele>27.39999961853</ele>
        <time>2021-10-10T07:57:56.000Z</time>
      </trkpt>
      <trkpt lat="47.24076" lon="-2.29768">
        <ele>27.39999961853</ele>
        <time>2021-10-10T07:58:15.000Z</time>
      </trkpt>
      <trkpt lat="47.24076" lon="-2.29768">
        <ele>27.39999961853</ele>
        <time>2021-10-10T07:58:32.000Z</time>
      </trkpt>
      <trkpt lat="47.24076" lon="-2.29768">
        <ele>27.39999961853</ele>
        <time>2021-10-10T07:58:50.000Z</time>
      </trkpt>
      <trkpt lat="47.24076" lon="-2.29768">
        <ele>27.39999961853</ele>
        <time>2021-10-10T07:59:09.000Z</time>
      </trkpt>
      <trkpt lat="47.24076" lon="-2.29766">
        <ele>27.799999237061</ele>
        <time>2021-10-10T07:59:26.000Z</time>
      </trkpt>
      <trkpt lat="47.24076" lon="-2.29766">
        <ele>28.200000762939</ele>
        <time>2021-10-10T07:59:27.000Z</time>
      </trkpt>
      <trkpt lat="47.24076" lon="-2.29766">
        <ele>28.60000038147</ele>
        <time>2021-10-10T07:59:28.000Z</time>
      </trkpt>
      <trkpt lat="47.24076" lon="-2.29766">
        <ele>29</ele>
        <time>2021-10-10T07:59:29.000Z</time>
      </trkpt>
      <trkpt lat="47.24076" lon="-2.29766">
        <ele>29.39999961853</ele>
        <time>2021-10-10T07:59:30.000Z</time>
      </trkpt>
      <trkpt lat="47.24076" lon="-2.29766">
        <ele>29.39999961853</ele>
        <time>2021-10-10T07:59:34.000Z</time>
      </trkpt>
      <trkpt lat="47.24076" lon="-2.29766">
        <ele>29.39999961853</ele>
        <time>2021-10-10T07:59:45.000Z</time>
      </trkpt>
      <trkpt lat="47.24076" lon="-2.29766">
        <ele>29.39999961853</ele>
        <time>2021-10-10T07:59:56.000Z</time>
      </trkpt>
      <trkpt lat="47.24076" lon="-2.29766">
        <ele>29.39999961853</ele>
        <time>2021-10-10T08:00:10.000Z</time>
      </trkpt>
      <trkpt lat="47.24076" lon="-2.29766">
        <ele>29.39999961853</ele>
        <time>2021-10-10T08:00:23.000Z</time>
      </trkpt>
      <trkpt lat="47.24076" lon="-2.29766">
        <ele>29.39999961853</ele>
        <time>2021-10-10T08:00:35.000Z</time>
      </trkpt>
      <trkpt lat="47.24076" lon="-2.29766">
        <ele>29.39999961853</ele>
        <time>2021-10-10T08:00:48.000Z</time>
      </trkpt>
      <trkpt lat="47.24073" lon="-2.2976">
        <ele>29.39999961853</ele>
        <time>2021-10-10T08:00:53.000Z</time>
      </trkpt>
      <trkpt lat="47.24073" lon="-2.29758">
        <ele>29.39999961853</ele>
        <time>2021-10-10T08:00:54.000Z</time>
      </trkpt>
      <trkpt lat="47.24071" lon="-2.2974">
        <ele>29.39999961853</ele>
        <time>2021-10-10T08:01:00.000Z</time>
      </trkpt>
      <trkpt lat="47.24065" lon="-2.29706">
        <ele>29.39999961853</ele>
        <time>2021-10-10T08:01:07.000Z</time>
      </trkpt>
      <trkpt lat="47.24056" lon="-2.2968">
        <ele>29.39999961853</ele>
        <time>2021-10-10T08:01:13.000Z</time>
      </trkpt>
      <trkpt lat="47.24049" lon="-2.2965">
        <ele>29.39999961853</ele>
        <time>2021-10-10T08:01:19.000Z</time>
      </trkpt>
      <trkpt lat="47.24055" lon="-2.29623">
        <ele>29.39999961853</ele>
        <time>2021-10-10T08:01:24.000Z</time>
      </trkpt>
      <trkpt lat="47.24068" lon="-2.29609">
        <ele>29.39999961853</ele>
        <time>2021-10-10T08:01:28.000Z</time>
      </trkpt>
      <trkpt lat="47.2408" lon="-2.29603">
        <ele>29.39999961853</ele>
        <time>2021-10-10T08:01:32.000Z</time>
      </trkpt>
      <trkpt lat="47.24096" lon="-2.29594">
        <ele>29.39999961853</ele>
        <time>2021-10-10T08:01:37.000Z</time>
      </trkpt>
      <trkpt lat="47.2411" lon="-2.29579">
        <ele>29.39999961853</ele>
        <time>2021-10-10T08:01:41.000Z</time>
      </trkpt>
      <trkpt lat="47.24113" lon="-2.29574">
        <ele>29.39999961853</ele>
        <time>2021-10-10T08:01:42.000Z</time>
      </trkpt>
      <trkpt lat="47.24114" lon="-2.29556">
        <ele>29.39999961853</ele>
        <time>2021-10-10T08:01:45.000Z</time>
      </trkpt>
      <trkpt lat="47.24113" lon="-2.2955">
        <ele>29.39999961853</ele>
        <time>2021-10-10T08:01:46.000Z</time>
      </trkpt>
      <trkpt lat="47.241" lon="-2.29502">
        <ele>29.39999961853</ele>
        <time>2021-10-10T08:01:53.000Z</time>
      </trkpt>
      <trkpt lat="47.24099" lon="-2.29495">
        <ele>29.39999961853</ele>
        <time>2021-10-10T08:01:54.000Z</time>
      </trkpt>
      <trkpt lat="47.24101" lon="-2.29482">
        <ele>29.39999961853</ele>
        <time>2021-10-10T08:01:56.000Z</time>
      </trkpt>
      <trkpt lat="47.24112" lon="-2.29467">
        <ele>29.39999961853</ele>
        <time>2021-10-10T08:02:00.000Z</time>
      </trkpt>
      <trkpt lat="47.2412" lon="-2.29463">
        <ele>29.39999961853</ele>
        <time>2021-10-10T08:02:02.000Z</time>
      </trkpt>
      <trkpt lat="47.24143" lon="-2.29451">
        <ele>29.39999961853</ele>
        <time>2021-10-10T08:02:07.000Z</time>
      </trkpt>
      <trkpt lat="47.24158" lon="-2.29445">
        <ele>29</ele>
        <time>2021-10-10T08:02:10.000Z</time>
      </trkpt>
      <trkpt lat="47.24163" lon="-2.29444">
        <ele>28.60000038147</ele>
        <time>2021-10-10T08:02:11.000Z</time>
      </trkpt>
      <trkpt lat="47.24168" lon="-2.29442">
        <ele>28.200000762939</ele>
        <time>2021-10-10T08:02:12.000Z</time>
      </trkpt>
      <trkpt lat="47.24173" lon="-2.29442">
        <ele>27.799999237061</ele>
        <time>2021-10-10T08:02:13.000Z</time>
      </trkpt>
      <trkpt lat="47.24179" lon="-2.29441">
        <ele>27.39999961853</ele>
        <time>2021-10-10T08:02:14.000Z</time>
      </trkpt>
      <trkpt lat="47.24196" lon="-2.29443">
        <ele>27.39999961853</ele>
        <time>2021-10-10T08:02:17.000Z</time>
      </trkpt>
      <trkpt lat="47.24202" lon="-2.29445">
        <ele>27.39999961853</ele>
        <time>2021-10-10T08:02:18.000Z</time>
      </trkpt>
      <trkpt lat="47.24229" lon="-2.2946">
        <ele>27.39999961853</ele>
        <time>2021-10-10T08:02:24.000Z</time>
      </trkpt>
      <trkpt lat="47.24233" lon="-2.29462">
        <ele>27.39999961853</ele>
        <time>2021-10-10T08:02:25.000Z</time>
      </trkpt>
      <trkpt lat="47.24249" lon="-2.29461">
        <ele>27.39999961853</ele>
        <time>2021-10-10T08:02:28.000Z</time>
      </trkpt>
      <trkpt lat="47.24259" lon="-2.29456">
        <ele>27.39999961853</ele>
        <time>2021-10-10T08:02:30.000Z</time>
      </trkpt>
      <trkpt lat="47.24264" lon="-2.29454">
        <ele>27.39999961853</ele>
        <time>2021-10-10T08:02:31.000Z</time>
      </trkpt>
      <trkpt lat="47.24272" lon="-2.29448">
        <ele>27.39999961853</ele>
        <time>2021-10-10T08:02:33.000Z</time>
      </trkpt>
      <trkpt lat="47.24277" lon="-2.29445">
        <ele>27</ele>
        <time>2021-10-10T08:02:34.000Z</time>
      </trkpt>
      <trkpt lat="47.24281" lon="-2.29443">
        <ele>26.60000038147</ele>
        <time>2021-10-10T08:02:35.000Z</time>
      </trkpt>
      <trkpt lat="47.24286" lon="-2.2944">
        <ele>26.200000762939</ele>
        <time>2021-10-10T08:02:36.000Z</time>
      </trkpt>
      <trkpt lat="47.2429" lon="-2.29438">
        <ele>25.799999237061</ele>
        <time>2021-10-10T08:02:37.000Z</time>
      </trkpt>
      <trkpt lat="47.24295" lon="-2.29437">
        <ele>25.200000762939</ele>
        <time>2021-10-10T08:02:38.000Z</time>
      </trkpt>
      <trkpt lat="47.243" lon="-2.29435">
        <ele>25.200000762939</ele>
        <time>2021-10-10T08:02:39.000Z</time>
      </trkpt>
      <trkpt lat="47.24306" lon="-2.29435">
        <ele>25.200000762939</ele>
        <time>2021-10-10T08:02:40.000Z</time>
      </trkpt>
      <trkpt lat="47.24321" lon="-2.29437">
        <ele>25.200000762939</ele>
        <time>2021-10-10T08:02:43.000Z</time>
      </trkpt>
      <trkpt lat="47.24336" lon="-2.29451">
        <ele>25.200000762939</ele>
        <time>2021-10-10T08:02:47.000Z</time>
      </trkpt>
      <trkpt lat="47.2434" lon="-2.29456">
        <ele>25.200000762939</ele>
        <time>2021-10-10T08:02:48.000Z</time>
      </trkpt>
      <trkpt lat="47.24359" lon="-2.29469">
        <ele>25.200000762939</ele>
        <time>2021-10-10T08:02:53.000Z</time>
      </trkpt>
      <trkpt lat="47.24377" lon="-2.29457">
        <ele>25.200000762939</ele>
        <time>2021-10-10T08:02:57.000Z</time>
      </trkpt>
      <trkpt lat="47.24394" lon="-2.2944">
        <ele>25.200000762939</ele>
        <time>2021-10-10T08:03:01.000Z</time>
      </trkpt>
      <trkpt lat="47.24403" lon="-2.29435">
        <ele>25.200000762939</ele>
        <time>2021-10-10T08:03:03.000Z</time>
      </trkpt>
      <trkpt lat="47.24439" lon="-2.29431">
        <ele>25.799999237061</ele>
        <time>2021-10-10T08:03:10.000Z</time>
      </trkpt>
      <trkpt lat="47.24444" lon="-2.2943">
        <ele>26.200000762939</ele>
        <time>2021-10-10T08:03:11.000Z</time>
      </trkpt>
      <trkpt lat="47.24448" lon="-2.29429">
        <ele>26.60000038147</ele>
        <time>2021-10-10T08:03:12.000Z</time>
      </trkpt>
      <trkpt lat="47.24453" lon="-2.29428">
        <ele>27.60000038147</ele>
        <time>2021-10-10T08:03:13.000Z</time>
      </trkpt>
      <trkpt lat="47.24473" lon="-2.29427">
        <ele>27.60000038147</ele>
        <time>2021-10-10T08:03:17.000Z</time>
      </trkpt>
      <trkpt lat="47.24497" lon="-2.29423">
        <ele>28</ele>
        <time>2021-10-10T08:03:22.000Z</time>
      </trkpt>
      <trkpt lat="47.24502" lon="-2.29422">
        <ele>28.39999961853</ele>
        <time>2021-10-10T08:03:23.000Z</time>
      </trkpt>
      <trkpt lat="47.24507" lon="-2.29421">
        <ele>28.799999237061</ele>
        <time>2021-10-10T08:03:24.000Z</time>
      </trkpt>
      <trkpt lat="47.24511" lon="-2.29419">
        <ele>29.200000762939</ele>
        <time>2021-10-10T08:03:25.000Z</time>
      </trkpt>
      <trkpt lat="47.24515" lon="-2.29416">
        <ele>29.60000038147</ele>
        <time>2021-10-10T08:03:26.000Z</time>
      </trkpt>
      <trkpt lat="47.24518" lon="-2.2941">
        <ele>29.60000038147</ele>
        <time>2021-10-10T08:03:27.000Z</time>
      </trkpt>
      <trkpt lat="47.24521" lon="-2.29385">
        <ele>29.60000038147</ele>
        <time>2021-10-10T08:03:31.000Z</time>
      </trkpt>
      <trkpt lat="47.2452" lon="-2.29379">
        <ele>29.60000038147</ele>
        <time>2021-10-10T08:03:32.000Z</time>
      </trkpt>
      <trkpt lat="47.24519" lon="-2.29366">
        <ele>29.60000038147</ele>
        <time>2021-10-10T08:03:34.000Z</time>
      </trkpt>
      <trkpt lat="47.24515" lon="-2.29344">
        <ele>29.60000038147</ele>
        <time>2021-10-10T08:03:37.000Z</time>
      </trkpt>
      <trkpt lat="47.24515" lon="-2.29308">
        <ele>29.60000038147</ele>
        <time>2021-10-10T08:03:41.000Z</time>
      </trkpt>
      <trkpt lat="47.24514" lon="-2.29251">
        <ele>29.60000038147</ele>
        <time>2021-10-10T08:03:47.000Z</time>
      </trkpt>
      <trkpt lat="47.2452" lon="-2.29186">
        <ele>29.60000038147</ele>
        <time>2021-10-10T08:03:54.000Z</time>
      </trkpt>
      <trkpt lat="47.24536" lon="-2.29124">
        <ele>29.60000038147</ele>
        <time>2021-10-10T08:04:01.000Z</time>
      </trkpt>
      <trkpt lat="47.2455" lon="-2.29063">
        <ele>29.60000038147</ele>
        <time>2021-10-10T08:04:08.000Z</time>
      </trkpt>
      <trkpt lat="47.24554" lon="-2.29036">
        <ele>29.60000038147</ele>
        <time>2021-10-10T08:04:11.000Z</time>
      </trkpt>
      <trkpt lat="47.24555" lon="-2.29007">
        <ele>29.60000038147</ele>
        <time>2021-10-10T08:04:14.000Z</time>
      </trkpt>
      <trkpt lat="47.24554" lon="-2.28998">
        <ele>29.200000762939</ele>
        <time>2021-10-10T08:04:15.000Z</time>
      </trkpt>
      <trkpt lat="47.24552" lon="-2.28988">
        <ele>28.799999237061</ele>
        <time>2021-10-10T08:04:16.000Z</time>
      </trkpt>
      <trkpt lat="47.2455" lon="-2.2898">
        <ele>28.39999961853</ele>
        <time>2021-10-10T08:04:17.000Z</time>
      </trkpt>
      <trkpt lat="47.24547" lon="-2.2897">
        <ele>28</ele>
        <time>2021-10-10T08:04:18.000Z</time>
      </trkpt>
      <trkpt lat="47.24545" lon="-2.28961">
        <ele>27.60000038147</ele>
        <time>2021-10-10T08:04:19.000Z</time>
      </trkpt>
      <trkpt lat="47.24528" lon="-2.2891">
        <ele>27.60000038147</ele>
        <time>2021-10-10T08:04:25.000Z</time>
      </trkpt>
      <trkpt lat="47.24523" lon="-2.28891">
        <ele>27.60000038147</ele>
        <time>2021-10-10T08:04:27.000Z</time>
      </trkpt>
      <trkpt lat="47.24523" lon="-2.28873">
        <ele>27.60000038147</ele>
        <time>2021-10-10T08:04:29.000Z</time>
      </trkpt>
      <trkpt lat="47.24533" lon="-2.28851">
        <ele>27.60000038147</ele>
        <time>2021-10-10T08:04:32.000Z</time>
      </trkpt>
      <trkpt lat="47.24543" lon="-2.2884">
        <ele>27.60000038147</ele>
        <time>2021-10-10T08:04:34.000Z</time>
      </trkpt>
      <trkpt lat="47.24553" lon="-2.28829">
        <ele>27.60000038147</ele>
        <time>2021-10-10T08:04:36.000Z</time>
      </trkpt>
      <trkpt lat="47.24557" lon="-2.28823">
        <ele>27.60000038147</ele>
        <time>2021-10-10T08:04:37.000Z</time>
      </trkpt>
      <trkpt lat="47.24562" lon="-2.28797">
        <ele>27.60000038147</ele>
        <time>2021-10-10T08:04:40.000Z</time>
      </trkpt>
      <trkpt lat="47.24562" lon="-2.28787">
        <ele>27.200000762939</ele>
        <time>2021-10-10T08:04:41.000Z</time>
      </trkpt>
      <trkpt lat="47.24561" lon="-2.28778">
        <ele>26.799999237061</ele>
        <time>2021-10-10T08:04:42.000Z</time>
      </trkpt>
      <trkpt lat="47.24559" lon="-2.28768">
        <ele>26.39999961853</ele>
        <time>2021-10-10T08:04:43.000Z</time>
      </trkpt>
      <trkpt lat="47.24558" lon="-2.28759">
        <ele>26</ele>
        <time>2021-10-10T08:04:44.000Z</time>
      </trkpt>
      <trkpt lat="47.24557" lon="-2.28749">
        <ele>25.60000038147</ele>
        <time>2021-10-10T08:04:45.000Z</time>
      </trkpt>
      <trkpt lat="47.24549" lon="-2.28686">
        <ele>25.60000038147</ele>
        <time>2021-10-10T08:04:52.000Z</time>
      </trkpt>
      <trkpt lat="47.24548" lon="-2.28612">
        <ele>25.60000038147</ele>
        <time>2021-10-10T08:05:00.000Z</time>
      </trkpt>
      <trkpt lat="47.24558" lon="-2.28595">
        <ele>25.60000038147</ele>
        <time>2021-10-10T08:05:03.000Z</time>
      </trkpt>
      <trkpt lat="47.24575" lon="-2.28585">
        <ele>25.60000038147</ele>
        <time>2021-10-10T08:05:06.000Z</time>
      </trkpt>
      <trkpt lat="47.24585" lon="-2.28579">
        <ele>25.60000038147</ele>
        <time>2021-10-10T08:05:08.000Z</time>
      </trkpt>
      <trkpt lat="47.24621" lon="-2.28554">
        <ele>25.60000038147</ele>
        <time>2021-10-10T08:05:15.000Z</time>
      </trkpt>
      <trkpt lat="47.24657" lon="-2.28532">
        <ele>25.60000038147</ele>
        <time>2021-10-10T08:05:22.000Z</time>
      </trkpt>
      <trkpt lat="47.24668" lon="-2.28533">
        <ele>26</ele>
        <time>2021-10-10T08:05:24.000Z</time>
      </trkpt>
      <trkpt lat="47.24673" lon="-2.28535">
        <ele>26.39999961853</ele>
        <time>2021-10-10T08:05:25.000Z</time>
      </trkpt>
      <trkpt lat="47.24678" lon="-2.28537">
        <ele>26.799999237061</ele>
        <time>2021-10-10T08:05:26.000Z</time>
      </trkpt>
      <trkpt lat="47.24683" lon="-2.28541">
        <ele>27.39999961853</ele>
        <time>2021-10-10T08:05:27.000Z</time>
      </trkpt>
      <trkpt lat="47.24688" lon="-2.28544">
        <ele>27.799999237061</ele>
        <time>2021-10-10T08:05:28.000Z</time>
      </trkpt>
      <trkpt lat="47.24708" lon="-2.28561">
        <ele>27.799999237061</ele>
        <time>2021-10-10T08:05:32.000Z</time>
      </trkpt>
      <trkpt lat="47.24728" lon="-2.28575">
        <ele>27.799999237061</ele>
        <time>2021-10-10T08:05:36.000Z</time>
      </trkpt>
      <trkpt lat="47.24739" lon="-2.28575">
        <ele>27.799999237061</ele>
        <time>2021-10-10T08:05:38.000Z</time>
      </trkpt>
      <trkpt lat="47.24754" lon="-2.28561">
        <ele>27.799999237061</ele>
        <time>2021-10-10T08:05:41.000Z</time>
      </trkpt>
      <trkpt lat="47.24759" lon="-2.28555">
        <ele>27.799999237061</ele>
        <time>2021-10-10T08:05:42.000Z</time>
      </trkpt>
      <trkpt lat="47.24768" lon="-2.28544">
        <ele>27.799999237061</ele>
        <time>2021-10-10T08:05:44.000Z</time>
      </trkpt>
      <trkpt lat="47.24783" lon="-2.28529">
        <ele>27.799999237061</ele>
        <time>2021-10-10T08:05:47.000Z</time>
      </trkpt>
      <trkpt lat="47.24814" lon="-2.28502">
        <ele>27.799999237061</ele>
        <time>2021-10-10T08:05:53.000Z</time>
      </trkpt>
      <trkpt lat="47.24859" lon="-2.28467">
        <ele>27.799999237061</ele>
        <time>2021-10-10T08:06:01.000Z</time>
      </trkpt>
      <trkpt lat="47.24865" lon="-2.28462">
        <ele>27.799999237061</ele>
        <time>2021-10-10T08:06:02.000Z</time>
      </trkpt>
      <trkpt lat="47.24884" lon="-2.28436">
        <ele>27.799999237061</ele>
        <time>2021-10-10T08:06:06.000Z</time>
      </trkpt>
      <trkpt lat="47.24889" lon="-2.28431">
        <ele>27.39999961853</ele>
        <time>2021-10-10T08:06:07.000Z</time>
      </trkpt>
      <trkpt lat="47.24895" lon="-2.28427">
        <ele>27</ele>
        <time>2021-10-10T08:06:08.000Z</time>
      </trkpt>
      <trkpt lat="47.24901" lon="-2.28423">
        <ele>26.60000038147</ele>
        <time>2021-10-10T08:06:09.000Z</time>
      </trkpt>
      <trkpt lat="47.24908" lon="-2.2842">
        <ele>26.200000762939</ele>
        <time>2021-10-10T08:06:10.000Z</time>
      </trkpt>
      <trkpt lat="47.24913" lon="-2.28417">
        <ele>25.799999237061</ele>
        <time>2021-10-10T08:06:11.000Z</time>
      </trkpt>
      <trkpt lat="47.24925" lon="-2.28411">
        <ele>25.799999237061</ele>
        <time>2021-10-10T08:06:13.000Z</time>
      </trkpt>
      <trkpt lat="47.2493" lon="-2.28408">
        <ele>25.39999961853</ele>
        <time>2021-10-10T08:06:14.000Z</time>
      </trkpt>
      <trkpt lat="47.24936" lon="-2.28405">
        <ele>25</ele>
        <time>2021-10-10T08:06:15.000Z</time>
      </trkpt>
      <trkpt lat="47.24943" lon="-2.28403">
        <ele>24.39999961853</ele>
        <time>2021-10-10T08:06:16.000Z</time>
      </trkpt>
      <trkpt lat="47.2495" lon="-2.28401">
        <ele>24</ele>
        <time>2021-10-10T08:06:17.000Z</time>
      </trkpt>
      <trkpt lat="47.24957" lon="-2.28399">
        <ele>23.60000038147</ele>
        <time>2021-10-10T08:06:18.000Z</time>
      </trkpt>
      <trkpt lat="47.24964" lon="-2.28395">
        <ele>23.60000038147</ele>
        <time>2021-10-10T08:06:19.000Z</time>
      </trkpt>
      <trkpt lat="47.24971" lon="-2.28391">
        <ele>23.200000762939</ele>
        <time>2021-10-10T08:06:20.000Z</time>
      </trkpt>
      <trkpt lat="47.24977" lon="-2.28384">
        <ele>22.799999237061</ele>
        <time>2021-10-10T08:06:21.000Z</time>
      </trkpt>
      <trkpt lat="47.24983" lon="-2.28377">
        <ele>22.39999961853</ele>
        <time>2021-10-10T08:06:22.000Z</time>
      </trkpt>
      <trkpt lat="47.24987" lon="-2.28369">
        <ele>21.799999237061</ele>
        <time>2021-10-10T08:06:23.000Z</time>
      </trkpt>
      <trkpt lat="47.24991" lon="-2.2836">
        <ele>21.39999961853</ele>
        <time>2021-10-10T08:06:24.000Z</time>
      </trkpt>
      <trkpt lat="47.24995" lon="-2.28351">
        <ele>21.39999961853</ele>
        <time>2021-10-10T08:06:25.000Z</time>
      </trkpt>
      <trkpt lat="47.24999" lon="-2.28343">
        <ele>21.39999961853</ele>
        <time>2021-10-10T08:06:26.000Z</time>
      </trkpt>
      <trkpt lat="47.25009" lon="-2.2833">
        <ele>21.39999961853</ele>
        <time>2021-10-10T08:06:28.000Z</time>
      </trkpt>
      <trkpt lat="47.25021" lon="-2.28317">
        <ele>21.39999961853</ele>
        <time>2021-10-10T08:06:31.000Z</time>
      </trkpt>
      <trkpt lat="47.25023" lon="-2.28312">
        <ele>21.39999961853</ele>
        <time>2021-10-10T08:06:32.000Z</time>
      </trkpt>
      <trkpt lat="47.25026" lon="-2.28293">
        <ele>21.39999961853</ele>
        <time>2021-10-10T08:06:35.000Z</time>
      </trkpt>
      <trkpt lat="47.25027" lon="-2.28286">
        <ele>21.39999961853</ele>
        <time>2021-10-10T08:06:36.000Z</time>
      </trkpt>
      <trkpt lat="47.25029" lon="-2.28269">
        <ele>21.799999237061</ele>
        <time>2021-10-10T08:06:38.000Z</time>
      </trkpt>
      <trkpt lat="47.25031" lon="-2.28261">
        <ele>22.200000762939</ele>
        <time>2021-10-10T08:06:39.000Z</time>
      </trkpt>
      <trkpt lat="47.25033" lon="-2.28252">
        <ele>22.799999237061</ele>
        <time>2021-10-10T08:06:40.000Z</time>
      </trkpt>
      <trkpt lat="47.25035" lon="-2.28243">
        <ele>23.200000762939</ele>
        <time>2021-10-10T08:06:41.000Z</time>
      </trkpt>
      <trkpt lat="47.25037" lon="-2.28235">
        <ele>23.60000038147</ele>
        <time>2021-10-10T08:06:42.000Z</time>
      </trkpt>
      <trkpt lat="47.25048" lon="-2.2819">
        <ele>23.60000038147</ele>
        <time>2021-10-10T08:06:47.000Z</time>
      </trkpt>
      <trkpt lat="47.25061" lon="-2.28144">
        <ele>23.60000038147</ele>
        <time>2021-10-10T08:06:53.000Z</time>
      </trkpt>
      <trkpt lat="47.25068" lon="-2.28122">
        <ele>23.60000038147</ele>
        <time>2021-10-10T08:06:56.000Z</time>
      </trkpt>
      <trkpt lat="47.2507" lon="-2.28105">
        <ele>23.60000038147</ele>
        <time>2021-10-10T08:06:58.000Z</time>
      </trkpt>
      <trkpt lat="47.25076" lon="-2.28079">
        <ele>23.60000038147</ele>
        <time>2021-10-10T08:07:01.000Z</time>
      </trkpt>
      <trkpt lat="47.25082" lon="-2.28063">
        <ele>23.60000038147</ele>
        <time>2021-10-10T08:07:03.000Z</time>
      </trkpt>
      <trkpt lat="47.251" lon="-2.28021">
        <ele>23.60000038147</ele>
        <time>2021-10-10T08:07:09.000Z</time>
      </trkpt>
      <trkpt lat="47.25109" lon="-2.28">
        <ele>24</ele>
        <time>2021-10-10T08:07:12.000Z</time>
      </trkpt>
      <trkpt lat="47.25113" lon="-2.27993">
        <ele>24.39999961853</ele>
        <time>2021-10-10T08:07:13.000Z</time>
      </trkpt>
      <trkpt lat="47.25117" lon="-2.27986">
        <ele>24.799999237061</ele>
        <time>2021-10-10T08:07:14.000Z</time>
      </trkpt>
      <trkpt lat="47.25121" lon="-2.27979">
        <ele>25.200000762939</ele>
        <time>2021-10-10T08:07:15.000Z</time>
      </trkpt>
      <trkpt lat="47.25126" lon="-2.27973">
        <ele>25.60000038147</ele>
        <time>2021-10-10T08:07:16.000Z</time>
      </trkpt>
      <trkpt lat="47.2514" lon="-2.27956">
        <ele>25.60000038147</ele>
        <time>2021-10-10T08:07:19.000Z</time>
      </trkpt>
      <trkpt lat="47.25146" lon="-2.27952">
        <ele>25.60000038147</ele>
        <time>2021-10-10T08:07:20.000Z</time>
      </trkpt>
      <trkpt lat="47.25179" lon="-2.27929">
        <ele>25.60000038147</ele>
        <time>2021-10-10T08:07:26.000Z</time>
      </trkpt>
      <trkpt lat="47.2519" lon="-2.27921">
        <ele>26</ele>
        <time>2021-10-10T08:07:28.000Z</time>
      </trkpt>
      <trkpt lat="47.25196" lon="-2.27918">
        <ele>26.39999961853</ele>
        <time>2021-10-10T08:07:29.000Z</time>
      </trkpt>
      <trkpt lat="47.252" lon="-2.27914">
        <ele>26.799999237061</ele>
        <time>2021-10-10T08:07:30.000Z</time>
      </trkpt>
      <trkpt lat="47.25205" lon="-2.2791">
        <ele>27.200000762939</ele>
        <time>2021-10-10T08:07:31.000Z</time>
      </trkpt>
      <trkpt lat="47.25211" lon="-2.27907">
        <ele>27.60000038147</ele>
        <time>2021-10-10T08:07:32.000Z</time>
      </trkpt>
      <trkpt lat="47.25244" lon="-2.2789">
        <ele>27.60000038147</ele>
        <time>2021-10-10T08:07:38.000Z</time>
      </trkpt>
      <trkpt lat="47.25273" lon="-2.27876">
        <ele>28</ele>
        <time>2021-10-10T08:07:43.000Z</time>
      </trkpt>
      <trkpt lat="47.25279" lon="-2.27874">
        <ele>28.60000038147</ele>
        <time>2021-10-10T08:07:44.000Z</time>
      </trkpt>
      <trkpt lat="47.25284" lon="-2.27873">
        <ele>29.39999961853</ele>
        <time>2021-10-10T08:07:45.000Z</time>
      </trkpt>
      <trkpt lat="47.2529" lon="-2.27871">
        <ele>29.799999237061</ele>
        <time>2021-10-10T08:07:46.000Z</time>
      </trkpt>
      <trkpt lat="47.25321" lon="-2.27865">
        <ele>29.799999237061</ele>
        <time>2021-10-10T08:07:51.000Z</time>
      </trkpt>
      <trkpt lat="47.25369" lon="-2.27854">
        <ele>29.799999237061</ele>
        <time>2021-10-10T08:07:59.000Z</time>
      </trkpt>
      <trkpt lat="47.25403" lon="-2.27842">
        <ele>29.799999237061</ele>
        <time>2021-10-10T08:08:05.000Z</time>
      </trkpt>
      <trkpt lat="47.25408" lon="-2.2784">
        <ele>30.200000762939</ele>
        <time>2021-10-10T08:08:06.000Z</time>
      </trkpt>
      <trkpt lat="47.25414" lon="-2.27838">
        <ele>30.60000038147</ele>
        <time>2021-10-10T08:08:07.000Z</time>
      </trkpt>
      <trkpt lat="47.25419" lon="-2.27835">
        <ele>31</ele>
        <time>2021-10-10T08:08:08.000Z</time>
      </trkpt>
      <trkpt lat="47.25425" lon="-2.27831">
        <ele>31.39999961853</ele>
        <time>2021-10-10T08:08:09.000Z</time>
      </trkpt>
      <trkpt lat="47.25431" lon="-2.27827">
        <ele>31.799999237061</ele>
        <time>2021-10-10T08:08:10.000Z</time>
      </trkpt>
      <trkpt lat="47.25436" lon="-2.27824">
        <ele>31.799999237061</ele>
        <time>2021-10-10T08:08:11.000Z</time>
      </trkpt>
      <trkpt lat="47.25447" lon="-2.27813">
        <ele>31.799999237061</ele>
        <time>2021-10-10T08:08:13.000Z</time>
      </trkpt>
      <trkpt lat="47.2546" lon="-2.27797">
        <ele>31.799999237061</ele>
        <time>2021-10-10T08:08:16.000Z</time>
      </trkpt>
      <trkpt lat="47.25485" lon="-2.27767">
        <ele>31.799999237061</ele>
        <time>2021-10-10T08:08:22.000Z</time>
      </trkpt>
      <trkpt lat="47.2549" lon="-2.27762">
        <ele>32.400001525879</ele>
        <time>2021-10-10T08:08:23.000Z</time>
      </trkpt>
      <trkpt lat="47.25494" lon="-2.27758">
        <ele>32.799999237061</ele>
        <time>2021-10-10T08:08:24.000Z</time>
      </trkpt>
      <trkpt lat="47.25497" lon="-2.27754">
        <ele>33.200000762939</ele>
        <time>2021-10-10T08:08:25.000Z</time>
      </trkpt>
      <trkpt lat="47.25501" lon="-2.27751">
        <ele>33.599998474121</ele>
        <time>2021-10-10T08:08:26.000Z</time>
      </trkpt>
      <trkpt lat="47.25505" lon="-2.2775">
        <ele>34</ele>
        <time>2021-10-10T08:08:27.000Z</time>
      </trkpt>
      <trkpt lat="47.2552" lon="-2.27759">
        <ele>34</ele>
        <time>2021-10-10T08:08:31.000Z</time>
      </trkpt>
      <trkpt lat="47.25531" lon="-2.27777">
        <ele>34</ele>
        <time>2021-10-10T08:08:34.000Z</time>
      </trkpt>
      <trkpt lat="47.25535" lon="-2.27783">
        <ele>34</ele>
        <time>2021-10-10T08:08:35.000Z</time>
      </trkpt>
      <trkpt lat="47.25554" lon="-2.27814">
        <ele>34.400001525879</ele>
        <time>2021-10-10T08:08:40.000Z</time>
      </trkpt>
      <trkpt lat="47.25557" lon="-2.2782">
        <ele>34.799999237061</ele>
        <time>2021-10-10T08:08:41.000Z</time>
      </trkpt>
      <trkpt lat="47.25561" lon="-2.27826">
        <ele>35.200000762939</ele>
        <time>2021-10-10T08:08:42.000Z</time>
      </trkpt>
      <trkpt lat="47.25565" lon="-2.27832">
        <ele>35.599998474121</ele>
        <time>2021-10-10T08:08:43.000Z</time>
      </trkpt>
      <trkpt lat="47.25569" lon="-2.27838">
        <ele>36</ele>
        <time>2021-10-10T08:08:44.000Z</time>
      </trkpt>
      <trkpt lat="47.25582" lon="-2.27854">
        <ele>36</ele>
        <time>2021-10-10T08:08:47.000Z</time>
      </trkpt>
      <trkpt lat="47.25605" lon="-2.2788">
        <ele>36</ele>
        <time>2021-10-10T08:08:53.000Z</time>
      </trkpt>
      <trkpt lat="47.25633" lon="-2.27905">
        <ele>36</ele>
        <time>2021-10-10T08:08:59.000Z</time>
      </trkpt>
      <trkpt lat="47.25646" lon="-2.27919">
        <ele>36</ele>
        <time>2021-10-10T08:09:02.000Z</time>
      </trkpt>
      <trkpt lat="47.25651" lon="-2.27925">
        <ele>36.400001525879</ele>
        <time>2021-10-10T08:09:03.000Z</time>
      </trkpt>
      <trkpt lat="47.25654" lon="-2.27931">
        <ele>36.799999237061</ele>
        <time>2021-10-10T08:09:04.000Z</time>
      </trkpt>
      <trkpt lat="47.25658" lon="-2.27937">
        <ele>37.200000762939</ele>
        <time>2021-10-10T08:09:05.000Z</time>
      </trkpt>
      <trkpt lat="47.25661" lon="-2.27943">
        <ele>37.599998474121</ele>
        <time>2021-10-10T08:09:06.000Z</time>
      </trkpt>
      <trkpt lat="47.25664" lon="-2.2795">
        <ele>38</ele>
        <time>2021-10-10T08:09:07.000Z</time>
      </trkpt>
      <trkpt lat="47.25677" lon="-2.27977">
        <ele>38</ele>
        <time>2021-10-10T08:09:11.000Z</time>
      </trkpt>
      <trkpt lat="47.25695" lon="-2.27998">
        <ele>38</ele>
        <time>2021-10-10T08:09:15.000Z</time>
      </trkpt>
      <trkpt lat="47.25726" lon="-2.28034">
        <ele>38</ele>
        <time>2021-10-10T08:09:22.000Z</time>
      </trkpt>
      <trkpt lat="47.25759" lon="-2.28068">
        <ele>38</ele>
        <time>2021-10-10T08:09:29.000Z</time>
      </trkpt>
      <trkpt lat="47.25795" lon="-2.28101">
        <ele>38</ele>
        <time>2021-10-10T08:09:36.000Z</time>
      </trkpt>
      <trkpt lat="47.25831" lon="-2.28134">
        <ele>38</ele>
        <time>2021-10-10T08:09:43.000Z</time>
      </trkpt>
      <trkpt lat="47.25865" lon="-2.28169">
        <ele>38</ele>
        <time>2021-10-10T08:09:50.000Z</time>
      </trkpt>
      <trkpt lat="47.2588" lon="-2.2818">
        <ele>38</ele>
        <time>2021-10-10T08:09:53.000Z</time>
      </trkpt>
      <trkpt lat="47.25891" lon="-2.28182">
        <ele>38</ele>
        <time>2021-10-10T08:09:55.000Z</time>
      </trkpt>
      <trkpt lat="47.25906" lon="-2.28184">
        <ele>38</ele>
        <time>2021-10-10T08:09:58.000Z</time>
      </trkpt>
      <trkpt lat="47.25918" lon="-2.28187">
        <ele>38</ele>
        <time>2021-10-10T08:10:01.000Z</time>
      </trkpt>
      <trkpt lat="47.25931" lon="-2.28179">
        <ele>38</ele>
        <time>2021-10-10T08:10:04.000Z</time>
      </trkpt>
      <trkpt lat="47.25936" lon="-2.28177">
        <ele>38</ele>
        <time>2021-10-10T08:10:05.000Z</time>
      </trkpt>
      <trkpt lat="47.25952" lon="-2.28178">
        <ele>38</ele>
        <time>2021-10-10T08:10:08.000Z</time>
      </trkpt>
      <trkpt lat="47.25964" lon="-2.28194">
        <ele>38</ele>
        <time>2021-10-10T08:10:11.000Z</time>
      </trkpt>
      <trkpt lat="47.25969" lon="-2.28209">
        <ele>38</ele>
        <time>2021-10-10T08:10:13.000Z</time>
      </trkpt>
      <trkpt lat="47.25974" lon="-2.28224">
        <ele>38</ele>
        <time>2021-10-10T08:10:15.000Z</time>
      </trkpt>
      <trkpt lat="47.25978" lon="-2.2823">
        <ele>38</ele>
        <time>2021-10-10T08:10:16.000Z</time>
      </trkpt>
      <trkpt lat="47.25996" lon="-2.28242">
        <ele>38</ele>
        <time>2021-10-10T08:10:19.000Z</time>
      </trkpt>
      <trkpt lat="47.26021" lon="-2.28253">
        <ele>38</ele>
        <time>2021-10-10T08:10:23.000Z</time>
      </trkpt>
      <trkpt lat="47.26026" lon="-2.28257">
        <ele>38</ele>
        <time>2021-10-10T08:10:24.000Z</time>
      </trkpt>
      <trkpt lat="47.26055" lon="-2.28277">
        <ele>38</ele>
        <time>2021-10-10T08:10:29.000Z</time>
      </trkpt>
      <trkpt lat="47.26086" lon="-2.28306">
        <ele>38</ele>
        <time>2021-10-10T08:10:35.000Z</time>
      </trkpt>
      <trkpt lat="47.26119" lon="-2.28338">
        <ele>38</ele>
        <time>2021-10-10T08:10:41.000Z</time>
      </trkpt>
      <trkpt lat="47.26162" lon="-2.28381">
        <ele>38</ele>
        <time>2021-10-10T08:10:49.000Z</time>
      </trkpt>
      <trkpt lat="47.26173" lon="-2.28393">
        <ele>37.599998474121</ele>
        <time>2021-10-10T08:10:51.000Z</time>
      </trkpt>
      <trkpt lat="47.26178" lon="-2.28398">
        <ele>37.200000762939</ele>
        <time>2021-10-10T08:10:52.000Z</time>
      </trkpt>
      <trkpt lat="47.26183" lon="-2.28403">
        <ele>36.799999237061</ele>
        <time>2021-10-10T08:10:53.000Z</time>
      </trkpt>
      <trkpt lat="47.26189" lon="-2.28408">
        <ele>36.400001525879</ele>
        <time>2021-10-10T08:10:54.000Z</time>
      </trkpt>
      <trkpt lat="47.26195" lon="-2.28414">
        <ele>36</ele>
        <time>2021-10-10T08:10:55.000Z</time>
      </trkpt>
      <trkpt lat="47.26235" lon="-2.28447">
        <ele>36</ele>
        <time>2021-10-10T08:11:02.000Z</time>
      </trkpt>
      <trkpt lat="47.26283" lon="-2.28478">
        <ele>36</ele>
        <time>2021-10-10T08:11:10.000Z</time>
      </trkpt>
      <trkpt lat="47.2632" lon="-2.28505">
        <ele>36</ele>
        <time>2021-10-10T08:11:16.000Z</time>
      </trkpt>
      <trkpt lat="47.26331" lon="-2.28515">
        <ele>35.599998474121</ele>
        <time>2021-10-10T08:11:18.000Z</time>
      </trkpt>
      <trkpt lat="47.26336" lon="-2.2852">
        <ele>35.200000762939</ele>
        <time>2021-10-10T08:11:19.000Z</time>
      </trkpt>
      <trkpt lat="47.26342" lon="-2.28525">
        <ele>34.799999237061</ele>
        <time>2021-10-10T08:11:20.000Z</time>
      </trkpt>
      <trkpt lat="47.26347" lon="-2.28529">
        <ele>34.400001525879</ele>
        <time>2021-10-10T08:11:21.000Z</time>
      </trkpt>
      <trkpt lat="47.26353" lon="-2.28533">
        <ele>34</ele>
        <time>2021-10-10T08:11:22.000Z</time>
      </trkpt>
      <trkpt lat="47.26359" lon="-2.28537">
        <ele>34</ele>
        <time>2021-10-10T08:11:23.000Z</time>
      </trkpt>
      <trkpt lat="47.26414" lon="-2.28573">
        <ele>34</ele>
        <time>2021-10-10T08:11:32.000Z</time>
      </trkpt>
      <trkpt lat="47.26456" lon="-2.28592">
        <ele>34</ele>
        <time>2021-10-10T08:11:39.000Z</time>
      </trkpt>
      <trkpt lat="47.26494" lon="-2.28605">
        <ele>34</ele>
        <time>2021-10-10T08:11:46.000Z</time>
      </trkpt>
      <trkpt lat="47.26502" lon="-2.28591">
        <ele>34</ele>
        <time>2021-10-10T08:11:49.000Z</time>
      </trkpt>
      <trkpt lat="47.26499" lon="-2.28577">
        <ele>33.400001525879</ele>
        <time>2021-10-10T08:11:51.000Z</time>
      </trkpt>
      <trkpt lat="47.26497" lon="-2.2857">
        <ele>32.599998474121</ele>
        <time>2021-10-10T08:11:52.000Z</time>
      </trkpt>
      <trkpt lat="47.26494" lon="-2.28562">
        <ele>32.200000762939</ele>
        <time>2021-10-10T08:11:53.000Z</time>
      </trkpt>
      <trkpt lat="47.26491" lon="-2.28555">
        <ele>31.799999237061</ele>
        <time>2021-10-10T08:11:54.000Z</time>
      </trkpt>
      <trkpt lat="47.26474" lon="-2.28518">
        <ele>31.799999237061</ele>
        <time>2021-10-10T08:11:59.000Z</time>
      </trkpt>
      <trkpt lat="47.26453" lon="-2.28479">
        <ele>31.799999237061</ele>
        <time>2021-10-10T08:12:05.000Z</time>
      </trkpt>
      <trkpt lat="47.26444" lon="-2.28459">
        <ele>32.200000762939</ele>
        <time>2021-10-10T08:12:08.000Z</time>
      </trkpt>
      <trkpt lat="47.26441" lon="-2.28452">
        <ele>32.599998474121</ele>
        <time>2021-10-10T08:12:09.000Z</time>
      </trkpt>
      <trkpt lat="47.26438" lon="-2.28445">
        <ele>33</ele>
        <time>2021-10-10T08:12:10.000Z</time>
      </trkpt>
      <trkpt lat="47.26434" lon="-2.28439">
        <ele>33.400001525879</ele>
        <time>2021-10-10T08:12:11.000Z</time>
      </trkpt>
      <trkpt lat="47.26431" lon="-2.28432">
        <ele>34</ele>
        <time>2021-10-10T08:12:12.000Z</time>
      </trkpt>
      <trkpt lat="47.26427" lon="-2.28425">
        <ele>34</ele>
        <time>2021-10-10T08:12:13.000Z</time>
      </trkpt>
      <trkpt lat="47.26404" lon="-2.28376">
        <ele>34</ele>
        <time>2021-10-10T08:12:20.000Z</time>
      </trkpt>
      <trkpt lat="47.26376" lon="-2.28309">
        <ele>34</ele>
        <time>2021-10-10T08:12:29.000Z</time>
      </trkpt>
      <trkpt lat="47.2636" lon="-2.28253">
        <ele>34</ele>
        <time>2021-10-10T08:12:36.000Z</time>
      </trkpt>
      <trkpt lat="47.26348" lon="-2.28205">
        <ele>34</ele>
        <time>2021-10-10T08:12:42.000Z</time>
      </trkpt>
      <trkpt lat="47.26338" lon="-2.28156">
        <ele>34</ele>
        <time>2021-10-10T08:12:48.000Z</time>
      </trkpt>
      <trkpt lat="47.2633" lon="-2.28102">
        <ele>34</ele>
        <time>2021-10-10T08:12:54.000Z</time>
      </trkpt>
      <trkpt lat="47.26319" lon="-2.28048">
        <ele>34</ele>
        <time>2021-10-10T08:13:00.000Z</time>
      </trkpt>
      <trkpt lat="47.26302" lon="-2.28001">
        <ele>34</ele>
        <time>2021-10-10T08:13:06.000Z</time>
      </trkpt>
      <trkpt lat="47.26295" lon="-2.27983">
        <ele>33.400001525879</ele>
        <time>2021-10-10T08:13:09.000Z</time>
      </trkpt>
      <trkpt lat="47.26293" lon="-2.27978">
        <ele>33</ele>
        <time>2021-10-10T08:13:10.000Z</time>
      </trkpt>
      <trkpt lat="47.26292" lon="-2.27975">
        <ele>32.599998474121</ele>
        <time>2021-10-10T08:13:11.000Z</time>
      </trkpt>
      <trkpt lat="47.26291" lon="-2.27972">
        <ele>32.200000762939</ele>
        <time>2021-10-10T08:13:12.000Z</time>
      </trkpt>
      <trkpt lat="47.26288" lon="-2.27969">
        <ele>31.799999237061</ele>
        <time>2021-10-10T08:13:13.000Z</time>
      </trkpt>
      <trkpt lat="47.26282" lon="-2.27965">
        <ele>31.799999237061</ele>
        <time>2021-10-10T08:13:15.000Z</time>
      </trkpt>
      <trkpt lat="47.26271" lon="-2.27949">
        <ele>31.799999237061</ele>
        <time>2021-10-10T08:13:18.000Z</time>
      </trkpt>
      <trkpt lat="47.26268" lon="-2.27943">
        <ele>31.799999237061</ele>
        <time>2021-10-10T08:13:19.000Z</time>
      </trkpt>
      <trkpt lat="47.26247" lon="-2.27899">
        <ele>31.799999237061</ele>
        <time>2021-10-10T08:13:25.000Z</time>
      </trkpt>
      <trkpt lat="47.26221" lon="-2.27848">
        <ele>31.799999237061</ele>
        <time>2021-10-10T08:13:32.000Z</time>
      </trkpt>
      <trkpt lat="47.26203" lon="-2.27812">
        <ele>32.200000762939</ele>
        <time>2021-10-10T08:13:37.000Z</time>
      </trkpt>
      <trkpt lat="47.262" lon="-2.27805">
        <ele>32.599998474121</ele>
        <time>2021-10-10T08:13:38.000Z</time>
      </trkpt>
      <trkpt lat="47.26196" lon="-2.27797">
        <ele>33</ele>
        <time>2021-10-10T08:13:39.000Z</time>
      </trkpt>
      <trkpt lat="47.26193" lon="-2.27789">
        <ele>33.400001525879</ele>
        <time>2021-10-10T08:13:41.000Z</time>
      </trkpt>
      <trkpt lat="47.2619" lon="-2.27782">
        <ele>33.799999237061</ele>
        <time>2021-10-10T08:13:42.000Z</time>
      </trkpt>
      <trkpt lat="47.26173" lon="-2.27736">
        <ele>33.799999237061</ele>
        <time>2021-10-10T08:13:48.000Z</time>
      </trkpt>
      <trkpt lat="47.26158" lon="-2.27681">
        <ele>33.799999237061</ele>
        <time>2021-10-10T08:13:55.000Z</time>
      </trkpt>
      <trkpt lat="47.26145" lon="-2.27623">
        <ele>33.799999237061</ele>
        <time>2021-10-10T08:14:02.000Z</time>
      </trkpt>
      <trkpt lat="47.26141" lon="-2.27598">
        <ele>33.799999237061</ele>
        <time>2021-10-10T08:14:05.000Z</time>
      </trkpt>
      <trkpt lat="47.26133" lon="-2.27586">
        <ele>33.799999237061</ele>
        <time>2021-10-10T08:14:07.000Z</time>
      </trkpt>
      <trkpt lat="47.26115" lon="-2.27589">
        <ele>33.799999237061</ele>
        <time>2021-10-10T08:14:10.000Z</time>
      </trkpt>
      <trkpt lat="47.26103" lon="-2.27596">
        <ele>33.799999237061</ele>
        <time>2021-10-10T08:14:12.000Z</time>
      </trkpt>
      <trkpt lat="47.26081" lon="-2.27609">
        <ele>33.799999237061</ele>
        <time>2021-10-10T08:14:16.000Z</time>
      </trkpt>
      <trkpt lat="47.2607" lon="-2.27616">
        <ele>33.799999237061</ele>
        <time>2021-10-10T08:14:18.000Z</time>
      </trkpt>
      <trkpt lat="47.26053" lon="-2.27623">
        <ele>33.799999237061</ele>
        <time>2021-10-10T08:14:21.000Z</time>
      </trkpt>
      <trkpt lat="47.26048" lon="-2.27622">
        <ele>33.799999237061</ele>
        <time>2021-10-10T08:14:22.000Z</time>
      </trkpt>
      <trkpt lat="47.26036" lon="-2.27606">
        <ele>33.799999237061</ele>
        <time>2021-10-10T08:14:25.000Z</time>
      </trkpt>
      <trkpt lat="47.26028" lon="-2.27577">
        <ele>33.799999237061</ele>
        <time>2021-10-10T08:14:29.000Z</time>
      </trkpt>
      <trkpt lat="47.26025" lon="-2.2757">
        <ele>33.799999237061</ele>
        <time>2021-10-10T08:14:30.000Z</time>
      </trkpt>
      <trkpt lat="47.26018" lon="-2.27538">
        <ele>33.799999237061</ele>
        <time>2021-10-10T08:14:35.000Z</time>
      </trkpt>
      <trkpt lat="47.26019" lon="-2.27513">
        <ele>33.799999237061</ele>
        <time>2021-10-10T08:14:40.000Z</time>
      </trkpt>
      <trkpt lat="47.26029" lon="-2.2748">
        <ele>33.799999237061</ele>
        <time>2021-10-10T08:14:44.000Z</time>
      </trkpt>
      <trkpt lat="47.26037" lon="-2.27455">
        <ele>33.799999237061</ele>
        <time>2021-10-10T08:14:47.000Z</time>
      </trkpt>
      <trkpt lat="47.26047" lon="-2.27439">
        <ele>33.799999237061</ele>
        <time>2021-10-10T08:14:49.000Z</time>
      </trkpt>
      <trkpt lat="47.26075" lon="-2.27387">
        <ele>33.799999237061</ele>
        <time>2021-10-10T08:14:56.000Z</time>
      </trkpt>
      <trkpt lat="47.2608" lon="-2.27378">
        <ele>33.799999237061</ele>
        <time>2021-10-10T08:14:57.000Z</time>
      </trkpt>
      <trkpt lat="47.26099" lon="-2.27357">
        <ele>33.799999237061</ele>
        <time>2021-10-10T08:15:00.000Z</time>
      </trkpt>
      <trkpt lat="47.26131" lon="-2.27321">
        <ele>33.799999237061</ele>
        <time>2021-10-10T08:15:06.000Z</time>
      </trkpt>
      <trkpt lat="47.26142" lon="-2.27314">
        <ele>33.799999237061</ele>
        <time>2021-10-10T08:15:08.000Z</time>
      </trkpt>
      <trkpt lat="47.26154" lon="-2.27314">
        <ele>33.799999237061</ele>
        <time>2021-10-10T08:15:10.000Z</time>
      </trkpt>
      <trkpt lat="47.26182" lon="-2.27312">
        <ele>33.799999237061</ele>
        <time>2021-10-10T08:15:14.000Z</time>
      </trkpt>
      <trkpt lat="47.26201" lon="-2.27311">
        <ele>33.799999237061</ele>
        <time>2021-10-10T08:15:17.000Z</time>
      </trkpt>
      <trkpt lat="47.26214" lon="-2.27314">
        <ele>33.799999237061</ele>
        <time>2021-10-10T08:15:19.000Z</time>
      </trkpt>
      <trkpt lat="47.26234" lon="-2.27317">
        <ele>33.400001525879</ele>
        <time>2021-10-10T08:15:22.000Z</time>
      </trkpt>
      <trkpt lat="47.2624" lon="-2.27318">
        <ele>33</ele>
        <time>2021-10-10T08:15:23.000Z</time>
      </trkpt>
      <trkpt lat="47.26247" lon="-2.2732">
        <ele>32.599998474121</ele>
        <time>2021-10-10T08:15:24.000Z</time>
      </trkpt>
      <trkpt lat="47.26253" lon="-2.2732">
        <ele>32.200000762939</ele>
        <time>2021-10-10T08:15:25.000Z</time>
      </trkpt>
      <trkpt lat="47.26259" lon="-2.2732">
        <ele>31.799999237061</ele>
        <time>2021-10-10T08:15:26.000Z</time>
      </trkpt>
      <trkpt lat="47.26272" lon="-2.2732">
        <ele>31.799999237061</ele>
        <time>2021-10-10T08:15:28.000Z</time>
      </trkpt>
      <trkpt lat="47.2631" lon="-2.27327">
        <ele>31.799999237061</ele>
        <time>2021-10-10T08:15:34.000Z</time>
      </trkpt>
      <trkpt lat="47.26354" lon="-2.27331">
        <ele>31.799999237061</ele>
        <time>2021-10-10T08:15:41.000Z</time>
      </trkpt>
      <trkpt lat="47.26401" lon="-2.27331">
        <ele>31.799999237061</ele>
        <time>2021-10-10T08:15:48.000Z</time>
      </trkpt>
      <trkpt lat="47.26413" lon="-2.27334">
        <ele>31.39999961853</ele>
        <time>2021-10-10T08:15:50.000Z</time>
      </trkpt>
      <trkpt lat="47.26419" lon="-2.27335">
        <ele>31</ele>
        <time>2021-10-10T08:15:51.000Z</time>
      </trkpt>
      <trkpt lat="47.26424" lon="-2.27338">
        <ele>30.60000038147</ele>
        <time>2021-10-10T08:15:52.000Z</time>
      </trkpt>
      <trkpt lat="47.26428" lon="-2.27344">
        <ele>30.200000762939</ele>
        <time>2021-10-10T08:15:53.000Z</time>
      </trkpt>
      <trkpt lat="47.26432" lon="-2.2735">
        <ele>29.799999237061</ele>
        <time>2021-10-10T08:15:54.000Z</time>
      </trkpt>
      <trkpt lat="47.26435" lon="-2.27357">
        <ele>29.799999237061</ele>
        <time>2021-10-10T08:15:55.000Z</time>
      </trkpt>
      <trkpt lat="47.26438" lon="-2.27365">
        <ele>29.799999237061</ele>
        <time>2021-10-10T08:15:56.000Z</time>
      </trkpt>
      <trkpt lat="47.26449" lon="-2.274">
        <ele>29.39999961853</ele>
        <time>2021-10-10T08:16:00.000Z</time>
      </trkpt>
      <trkpt lat="47.26451" lon="-2.27408">
        <ele>29</ele>
        <time>2021-10-10T08:16:01.000Z</time>
      </trkpt>
      <trkpt lat="47.26454" lon="-2.27418">
        <ele>28.60000038147</ele>
        <time>2021-10-10T08:16:02.000Z</time>
      </trkpt>
      <trkpt lat="47.26458" lon="-2.27427">
        <ele>28.200000762939</ele>
        <time>2021-10-10T08:16:03.000Z</time>
      </trkpt>
      <trkpt lat="47.2646" lon="-2.27438">
        <ele>27.799999237061</ele>
        <time>2021-10-10T08:16:04.000Z</time>
      </trkpt>
      <trkpt lat="47.26469" lon="-2.27467">
        <ele>27.799999237061</ele>
        <time>2021-10-10T08:16:07.000Z</time>
      </trkpt>
      <trkpt lat="47.26485" lon="-2.27523">
        <ele>27.200000762939</ele>
        <time>2021-10-10T08:16:13.000Z</time>
      </trkpt>
      <trkpt lat="47.26486" lon="-2.27532">
        <ele>26.799999237061</ele>
        <time>2021-10-10T08:16:14.000Z</time>
      </trkpt>
      <trkpt lat="47.26488" lon="-2.27543">
        <ele>26.39999961853</ele>
        <time>2021-10-10T08:16:15.000Z</time>
      </trkpt>
      <trkpt lat="47.26489" lon="-2.27552">
        <ele>26</ele>
        <time>2021-10-10T08:16:16.000Z</time>
      </trkpt>
      <trkpt lat="47.26491" lon="-2.27561">
        <ele>25.60000038147</ele>
        <time>2021-10-10T08:16:17.000Z</time>
      </trkpt>
      <trkpt lat="47.26495" lon="-2.27574">
        <ele>25.60000038147</ele>
        <time>2021-10-10T08:16:19.000Z</time>
      </trkpt>
      <trkpt lat="47.26506" lon="-2.27583">
        <ele>25.200000762939</ele>
        <time>2021-10-10T08:16:22.000Z</time>
      </trkpt>
      <trkpt lat="47.26509" lon="-2.27584">
        <ele>24.799999237061</ele>
        <time>2021-10-10T08:16:23.000Z</time>
      </trkpt>
      <trkpt lat="47.26514" lon="-2.27583">
        <ele>24.39999961853</ele>
        <time>2021-10-10T08:16:24.000Z</time>
      </trkpt>
      <trkpt lat="47.26519" lon="-2.27581">
        <ele>23.60000038147</ele>
        <time>2021-10-10T08:16:25.000Z</time>
      </trkpt>
      <trkpt lat="47.26542" lon="-2.27562">
        <ele>23.60000038147</ele>
        <time>2021-10-10T08:16:29.000Z</time>
      </trkpt>
      <trkpt lat="47.26547" lon="-2.27556">
        <ele>23.60000038147</ele>
        <time>2021-10-10T08:16:30.000Z</time>
      </trkpt>
      <trkpt lat="47.26563" lon="-2.27527">
        <ele>23.60000038147</ele>
        <time>2021-10-10T08:16:34.000Z</time>
      </trkpt>
      <trkpt lat="47.26566" lon="-2.2752">
        <ele>23.60000038147</ele>
        <time>2021-10-10T08:16:35.000Z</time>
      </trkpt>
      <trkpt lat="47.2658" lon="-2.27484">
        <ele>24</ele>
        <time>2021-10-10T08:16:40.000Z</time>
      </trkpt>
      <trkpt lat="47.26584" lon="-2.27478">
        <ele>24.39999961853</ele>
        <time>2021-10-10T08:16:41.000Z</time>
      </trkpt>
      <trkpt lat="47.26588" lon="-2.27472">
        <ele>24.799999237061</ele>
        <time>2021-10-10T08:16:42.000Z</time>
      </trkpt>
      <trkpt lat="47.26592" lon="-2.27466">
        <ele>25.200000762939</ele>
        <time>2021-10-10T08:16:43.000Z</time>
      </trkpt>
      <trkpt lat="47.26596" lon="-2.2746">
        <ele>25.60000038147</ele>
        <time>2021-10-10T08:16:44.000Z</time>
      </trkpt>
      <trkpt lat="47.26609" lon="-2.27446">
        <ele>25.60000038147</ele>
        <time>2021-10-10T08:16:47.000Z</time>
      </trkpt>
      <trkpt lat="47.26643" lon="-2.27412">
        <ele>25.60000038147</ele>
        <time>2021-10-10T08:16:54.000Z</time>
      </trkpt>
      <trkpt lat="47.26673" lon="-2.27385">
        <ele>25.60000038147</ele>
        <time>2021-10-10T08:17:00.000Z</time>
      </trkpt>
      <trkpt lat="47.26693" lon="-2.2737">
        <ele>25.60000038147</ele>
        <time>2021-10-10T08:17:04.000Z</time>
      </trkpt>
      <trkpt lat="47.26704" lon="-2.27365">
        <ele>25.60000038147</ele>
        <time>2021-10-10T08:17:06.000Z</time>
      </trkpt>
      <trkpt lat="47.26733" lon="-2.2735">
        <ele>25.60000038147</ele>
        <time>2021-10-10T08:17:12.000Z</time>
      </trkpt>
      <trkpt lat="47.26737" lon="-2.27333">
        <ele>25.60000038147</ele>
        <time>2021-10-10T08:17:15.000Z</time>
      </trkpt>
      <trkpt lat="47.26733" lon="-2.27305">
        <ele>25.60000038147</ele>
        <time>2021-10-10T08:17:19.000Z</time>
      </trkpt>
      <trkpt lat="47.26732" lon="-2.27299">
        <ele>25.60000038147</ele>
        <time>2021-10-10T08:17:20.000Z</time>
      </trkpt>
      <trkpt lat="47.2673" lon="-2.27285">
        <ele>25.60000038147</ele>
        <time>2021-10-10T08:17:22.000Z</time>
      </trkpt>
      <trkpt lat="47.26727" lon="-2.27264">
        <ele>25.60000038147</ele>
        <time>2021-10-10T08:17:25.000Z</time>
      </trkpt>
      <trkpt lat="47.26724" lon="-2.27238">
        <ele>25.60000038147</ele>
        <time>2021-10-10T08:17:29.000Z</time>
      </trkpt>
      <trkpt lat="47.26723" lon="-2.27224">
        <ele>25.60000038147</ele>
        <time>2021-10-10T08:17:31.000Z</time>
      </trkpt>
      <trkpt lat="47.2672" lon="-2.27211">
        <ele>25.60000038147</ele>
        <time>2021-10-10T08:17:33.000Z</time>
      </trkpt>
      <trkpt lat="47.26719" lon="-2.27204">
        <ele>25.60000038147</ele>
        <time>2021-10-10T08:17:34.000Z</time>
      </trkpt>
      <trkpt lat="47.26722" lon="-2.27193">
        <ele>25.60000038147</ele>
        <time>2021-10-10T08:17:36.000Z</time>
      </trkpt>
      <trkpt lat="47.26729" lon="-2.27177">
        <ele>25.60000038147</ele>
        <time>2021-10-10T08:17:39.000Z</time>
      </trkpt>
      <trkpt lat="47.26737" lon="-2.27165">
        <ele>25.60000038147</ele>
        <time>2021-10-10T08:17:41.000Z</time>
      </trkpt>
      <trkpt lat="47.26769" lon="-2.2714">
        <ele>25.60000038147</ele>
        <time>2021-10-10T08:17:46.000Z</time>
      </trkpt>
      <trkpt lat="47.26775" lon="-2.27138">
        <ele>25.60000038147</ele>
        <time>2021-10-10T08:17:47.000Z</time>
      </trkpt>
      <trkpt lat="47.26788" lon="-2.27132">
        <ele>25.200000762939</ele>
        <time>2021-10-10T08:17:49.000Z</time>
      </trkpt>
      <trkpt lat="47.26794" lon="-2.2713">
        <ele>24.799999237061</ele>
        <time>2021-10-10T08:17:50.000Z</time>
      </trkpt>
      <trkpt lat="47.26801" lon="-2.27128">
        <ele>24.39999961853</ele>
        <time>2021-10-10T08:17:51.000Z</time>
      </trkpt>
      <trkpt lat="47.26806" lon="-2.27126">
        <ele>24</ele>
        <time>2021-10-10T08:17:52.000Z</time>
      </trkpt>
      <trkpt lat="47.26813" lon="-2.27124">
        <ele>23.60000038147</ele>
        <time>2021-10-10T08:17:53.000Z</time>
      </trkpt>
      <trkpt lat="47.26849" lon="-2.27116">
        <ele>23.60000038147</ele>
        <time>2021-10-10T08:17:58.000Z</time>
      </trkpt>
      <trkpt lat="47.26868" lon="-2.27104">
        <ele>23.60000038147</ele>
        <time>2021-10-10T08:18:01.000Z</time>
      </trkpt>
      <trkpt lat="47.2688" lon="-2.27095">
        <ele>23.200000762939</ele>
        <time>2021-10-10T08:18:03.000Z</time>
      </trkpt>
      <trkpt lat="47.26886" lon="-2.27088">
        <ele>22.39999961853</ele>
        <time>2021-10-10T08:18:04.000Z</time>
      </trkpt>
      <trkpt lat="47.26892" lon="-2.27081">
        <ele>22</ele>
        <time>2021-10-10T08:18:05.000Z</time>
      </trkpt>
      <trkpt lat="47.26898" lon="-2.27075">
        <ele>21.39999961853</ele>
        <time>2021-10-10T08:18:06.000Z</time>
      </trkpt>
      <trkpt lat="47.26911" lon="-2.27061">
        <ele>21</ele>
        <time>2021-10-10T08:18:08.000Z</time>
      </trkpt>
      <trkpt lat="47.26917" lon="-2.27054">
        <ele>20.60000038147</ele>
        <time>2021-10-10T08:18:09.000Z</time>
      </trkpt>
      <trkpt lat="47.26923" lon="-2.27046">
        <ele>20.200000762939</ele>
        <time>2021-10-10T08:18:10.000Z</time>
      </trkpt>
      <trkpt lat="47.26929" lon="-2.27039">
        <ele>19.799999237061</ele>
        <time>2021-10-10T08:18:11.000Z</time>
      </trkpt>
      <trkpt lat="47.26934" lon="-2.27031">
        <ele>19.200000762939</ele>
        <time>2021-10-10T08:18:12.000Z</time>
      </trkpt>
      <trkpt lat="47.2694" lon="-2.27023">
        <ele>19.200000762939</ele>
        <time>2021-10-10T08:18:13.000Z</time>
      </trkpt>
      <trkpt lat="47.26944" lon="-2.27015">
        <ele>18.799999237061</ele>
        <time>2021-10-10T08:18:14.000Z</time>
      </trkpt>
      <trkpt lat="47.26947" lon="-2.27009">
        <ele>18.39999961853</ele>
        <time>2021-10-10T08:18:15.000Z</time>
      </trkpt>
      <trkpt lat="47.2695" lon="-2.27003">
        <ele>18</ele>
        <time>2021-10-10T08:18:16.000Z</time>
      </trkpt>
      <trkpt lat="47.26953" lon="-2.26997">
        <ele>17.39999961853</ele>
        <time>2021-10-10T08:18:17.000Z</time>
      </trkpt>
      <trkpt lat="47.26955" lon="-2.26991">
        <ele>17</ele>
        <time>2021-10-10T08:18:18.000Z</time>
      </trkpt>
      <trkpt lat="47.26958" lon="-2.26969">
        <ele>17</ele>
        <time>2021-10-10T08:18:21.000Z</time>
      </trkpt>
      <trkpt lat="47.26961" lon="-2.26946">
        <ele>16.60000038147</ele>
        <time>2021-10-10T08:18:24.000Z</time>
      </trkpt>
      <trkpt lat="47.26963" lon="-2.26937">
        <ele>16.200000762939</ele>
        <time>2021-10-10T08:18:25.000Z</time>
      </trkpt>
      <trkpt lat="47.26964" lon="-2.26927">
        <ele>15.800000190735</ele>
        <time>2021-10-10T08:18:26.000Z</time>
      </trkpt>
      <trkpt lat="47.26965" lon="-2.26917">
        <ele>15.39999961853</ele>
        <time>2021-10-10T08:18:27.000Z</time>
      </trkpt>
      <trkpt lat="47.26964" lon="-2.26906">
        <ele>15</ele>
        <time>2021-10-10T08:18:28.000Z</time>
      </trkpt>
      <trkpt lat="47.26961" lon="-2.26883">
        <ele>15</ele>
        <time>2021-10-10T08:18:30.000Z</time>
      </trkpt>
      <trkpt lat="47.26957" lon="-2.26851">
        <ele>15</ele>
        <time>2021-10-10T08:18:33.000Z</time>
      </trkpt>
      <trkpt lat="47.26955" lon="-2.26833">
        <ele>15</ele>
        <time>2021-10-10T08:18:36.000Z</time>
      </trkpt>
      <trkpt lat="47.26951" lon="-2.26821">
        <ele>15</ele>
        <time>2021-10-10T08:18:40.000Z</time>
      </trkpt>
      <trkpt lat="47.26944" lon="-2.26806">
        <ele>15</ele>
        <time>2021-10-10T08:18:46.000Z</time>
      </trkpt>
      <trkpt lat="47.26933" lon="-2.26781">
        <ele>15</ele>
        <time>2021-10-10T08:18:53.000Z</time>
      </trkpt>
      <trkpt lat="47.26925" lon="-2.26745">
        <ele>15</ele>
        <time>2021-10-10T08:18:59.000Z</time>
      </trkpt>
      <trkpt lat="47.26922" lon="-2.26731">
        <ele>15</ele>
        <time>2021-10-10T08:19:01.000Z</time>
      </trkpt>
      <trkpt lat="47.26917" lon="-2.26711">
        <ele>15</ele>
        <time>2021-10-10T08:19:04.000Z</time>
      </trkpt>
      <trkpt lat="47.2691" lon="-2.26685">
        <ele>15.39999961853</ele>
        <time>2021-10-10T08:19:08.000Z</time>
      </trkpt>
      <trkpt lat="47.26908" lon="-2.26679">
        <ele>15.800000190735</ele>
        <time>2021-10-10T08:19:09.000Z</time>
      </trkpt>
      <trkpt lat="47.26906" lon="-2.26673">
        <ele>16.200000762939</ele>
        <time>2021-10-10T08:19:10.000Z</time>
      </trkpt>
      <trkpt lat="47.26903" lon="-2.26666">
        <ele>16.60000038147</ele>
        <time>2021-10-10T08:19:11.000Z</time>
      </trkpt>
      <trkpt lat="47.26901" lon="-2.2666">
        <ele>17</ele>
        <time>2021-10-10T08:19:12.000Z</time>
      </trkpt>
      <trkpt lat="47.26894" lon="-2.26637">
        <ele>17</ele>
        <time>2021-10-10T08:19:15.000Z</time>
      </trkpt>
      <trkpt lat="47.26881" lon="-2.266">
        <ele>17</ele>
        <time>2021-10-10T08:19:21.000Z</time>
      </trkpt>
      <trkpt lat="47.26868" lon="-2.26552">
        <ele>17</ele>
        <time>2021-10-10T08:19:29.000Z</time>
      </trkpt>
      <trkpt lat="47.2687" lon="-2.26548">
        <ele>17</ele>
        <time>2021-10-10T08:19:30.000Z</time>
      </trkpt>
      <trkpt lat="47.26876" lon="-2.26543">
        <ele>17</ele>
        <time>2021-10-10T08:19:32.000Z</time>
      </trkpt>
      <trkpt lat="47.26883" lon="-2.26537">
        <ele>17</ele>
        <time>2021-10-10T08:19:34.000Z</time>
      </trkpt>
      <trkpt lat="47.26894" lon="-2.26532">
        <ele>17</ele>
        <time>2021-10-10T08:19:36.000Z</time>
      </trkpt>
      <trkpt lat="47.26929" lon="-2.26518">
        <ele>17</ele>
        <time>2021-10-10T08:19:42.000Z</time>
      </trkpt>
      <trkpt lat="47.26964" lon="-2.26497">
        <ele>17</ele>
        <time>2021-10-10T08:19:48.000Z</time>
      </trkpt>
      <trkpt lat="47.26995" lon="-2.26467">
        <ele>17</ele>
        <time>2021-10-10T08:19:54.000Z</time>
      </trkpt>
      <trkpt lat="47.27027" lon="-2.26423">
        <ele>17</ele>
        <time>2021-10-10T08:20:01.000Z</time>
      </trkpt>
      <trkpt lat="47.27069" lon="-2.26367">
        <ele>17</ele>
        <time>2021-10-10T08:20:10.000Z</time>
      </trkpt>
      <trkpt lat="47.27073" lon="-2.26361">
        <ele>17</ele>
        <time>2021-10-10T08:20:11.000Z</time>
      </trkpt>
      <trkpt lat="47.2711" lon="-2.26308">
        <ele>17</ele>
        <time>2021-10-10T08:20:19.000Z</time>
      </trkpt>
      <trkpt lat="47.27146" lon="-2.26257">
        <ele>17</ele>
        <time>2021-10-10T08:20:26.000Z</time>
      </trkpt>
      <trkpt lat="47.27189" lon="-2.26206">
        <ele>16.60000038147</ele>
        <time>2021-10-10T08:20:33.000Z</time>
      </trkpt>
      <trkpt lat="47.27195" lon="-2.262">
        <ele>16.200000762939</ele>
        <time>2021-10-10T08:20:34.000Z</time>
      </trkpt>
      <trkpt lat="47.27202" lon="-2.26194">
        <ele>15.800000190735</ele>
        <time>2021-10-10T08:20:35.000Z</time>
      </trkpt>
      <trkpt lat="47.27209" lon="-2.26189">
        <ele>15.199999809265</ele>
        <time>2021-10-10T08:20:36.000Z</time>
      </trkpt>
      <trkpt lat="47.27215" lon="-2.26183">
        <ele>14.800000190735</ele>
        <time>2021-10-10T08:20:37.000Z</time>
      </trkpt>
      <trkpt lat="47.27229" lon="-2.26174">
        <ele>14.800000190735</ele>
        <time>2021-10-10T08:20:39.000Z</time>
      </trkpt>
      <trkpt lat="47.27277" lon="-2.26147">
        <ele>14.800000190735</ele>
        <time>2021-10-10T08:20:46.000Z</time>
      </trkpt>
      <trkpt lat="47.27332" lon="-2.26128">
        <ele>14.39999961853</ele>
        <time>2021-10-10T08:20:54.000Z</time>
      </trkpt>
      <trkpt lat="47.27338" lon="-2.26126">
        <ele>14</ele>
        <time>2021-10-10T08:20:55.000Z</time>
      </trkpt>
      <trkpt lat="47.27342" lon="-2.26124">
        <ele>13.60000038147</ele>
        <time>2021-10-10T08:20:56.000Z</time>
      </trkpt>
      <trkpt lat="47.27345" lon="-2.26119">
        <ele>12.800000190735</ele>
        <time>2021-10-10T08:20:57.000Z</time>
      </trkpt>
      <trkpt lat="47.27346" lon="-2.26113">
        <ele>12.800000190735</ele>
        <time>2021-10-10T08:20:58.000Z</time>
      </trkpt>
      <trkpt lat="47.27337" lon="-2.26096">
        <ele>12.800000190735</ele>
        <time>2021-10-10T08:21:01.000Z</time>
      </trkpt>
      <trkpt lat="47.27317" lon="-2.26054">
        <ele>12.800000190735</ele>
        <time>2021-10-10T08:21:07.000Z</time>
      </trkpt>
      <trkpt lat="47.27294" lon="-2.26012">
        <ele>12.800000190735</ele>
        <time>2021-10-10T08:21:14.000Z</time>
      </trkpt>
      <trkpt lat="47.27289" lon="-2.26004">
        <ele>12.39999961853</ele>
        <time>2021-10-10T08:21:17.000Z</time>
      </trkpt>
      <trkpt lat="47.27287" lon="-2.26002">
        <ele>12</ele>
        <time>2021-10-10T08:21:18.000Z</time>
      </trkpt>
      <trkpt lat="47.27286" lon="-2.26">
        <ele>11.60000038147</ele>
        <time>2021-10-10T08:21:19.000Z</time>
      </trkpt>
      <trkpt lat="47.27286" lon="-2.25999">
        <ele>11</ele>
        <time>2021-10-10T08:21:20.000Z</time>
      </trkpt>
      <trkpt lat="47.27285" lon="-2.25997">
        <ele>10.60000038147</ele>
        <time>2021-10-10T08:21:21.000Z</time>
      </trkpt>
      <trkpt lat="47.27283" lon="-2.25993">
        <ele>10.60000038147</ele>
        <time>2021-10-10T08:21:23.000Z</time>
      </trkpt>
      <trkpt lat="47.27283" lon="-2.25989">
        <ele>10.60000038147</ele>
        <time>2021-10-10T08:21:25.000Z</time>
      </trkpt>
      <trkpt lat="47.27285" lon="-2.25991">
        <ele>10.60000038147</ele>
        <time>2021-10-10T08:21:28.000Z</time>
      </trkpt>
      <trkpt lat="47.27293" lon="-2.26004">
        <ele>10.60000038147</ele>
        <time>2021-10-10T08:21:34.000Z</time>
      </trkpt>
      <trkpt lat="47.27306" lon="-2.26026">
        <ele>10.60000038147</ele>
        <time>2021-10-10T08:21:40.000Z</time>
      </trkpt>
      <trkpt lat="47.27311" lon="-2.26036">
        <ele>10.60000038147</ele>
        <time>2021-10-10T08:21:42.000Z</time>
      </trkpt>
      <trkpt lat="47.2732" lon="-2.26054">
        <ele>10.60000038147</ele>
        <time>2021-10-10T08:21:45.000Z</time>
      </trkpt>
      <trkpt lat="47.2734" lon="-2.26096">
        <ele>10.60000038147</ele>
        <time>2021-10-10T08:21:52.000Z</time>
      </trkpt>
      <trkpt lat="47.27342" lon="-2.26102">
        <ele>10.60000038147</ele>
        <time>2021-10-10T08:21:53.000Z</time>
      </trkpt>
      <trkpt lat="47.27351" lon="-2.26118">
        <ele>10.60000038147</ele>
        <time>2021-10-10T08:21:57.000Z</time>
      </trkpt>
      <trkpt lat="47.27359" lon="-2.2612">
        <ele>10.60000038147</ele>
        <time>2021-10-10T08:21:59.000Z</time>
      </trkpt>
      <trkpt lat="47.27364" lon="-2.26119">
        <ele>10.60000038147</ele>
        <time>2021-10-10T08:22:00.000Z</time>
      </trkpt>
      <trkpt lat="47.27379" lon="-2.26113">
        <ele>10.60000038147</ele>
        <time>2021-10-10T08:22:03.000Z</time>
      </trkpt>
      <trkpt lat="47.27391" lon="-2.26108">
        <ele>10.60000038147</ele>
        <time>2021-10-10T08:22:05.000Z</time>
      </trkpt>
      <trkpt lat="47.27422" lon="-2.26092">
        <ele>10.60000038147</ele>
        <time>2021-10-10T08:22:10.000Z</time>
      </trkpt>
      <trkpt lat="47.2745" lon="-2.26069">
        <ele>10.60000038147</ele>
        <time>2021-10-10T08:22:15.000Z</time>
      </trkpt>
      <trkpt lat="47.27455" lon="-2.26063">
        <ele>10.60000038147</ele>
        <time>2021-10-10T08:22:16.000Z</time>
      </trkpt>
      <trkpt lat="47.27476" lon="-2.26037">
        <ele>10.60000038147</ele>
        <time>2021-10-10T08:22:20.000Z</time>
      </trkpt>
      <trkpt lat="47.27503" lon="-2.25992">
        <ele>10.60000038147</ele>
        <time>2021-10-10T08:22:26.000Z</time>
      </trkpt>
      <trkpt lat="47.2754" lon="-2.25948">
        <ele>10.60000038147</ele>
        <time>2021-10-10T08:22:33.000Z</time>
      </trkpt>
      <trkpt lat="47.27568" lon="-2.25923">
        <ele>10.60000038147</ele>
        <time>2021-10-10T08:22:38.000Z</time>
      </trkpt>
      <trkpt lat="47.27595" lon="-2.25898">
        <ele>10.199999809265</ele>
        <time>2021-10-10T08:22:43.000Z</time>
      </trkpt>
      <trkpt lat="47.27601" lon="-2.25894">
        <ele>9.8000001907349</ele>
        <time>2021-10-10T08:22:44.000Z</time>
      </trkpt>
      <trkpt lat="47.27606" lon="-2.2589">
        <ele>9.3999996185303</ele>
        <time>2021-10-10T08:22:45.000Z</time>
      </trkpt>
      <trkpt lat="47.27612" lon="-2.25886">
        <ele>9</ele>
        <time>2021-10-10T08:22:46.000Z</time>
      </trkpt>
      <trkpt lat="47.27617" lon="-2.25883">
        <ele>8.6000003814697</ele>
        <time>2021-10-10T08:22:47.000Z</time>
      </trkpt>
      <trkpt lat="47.27621" lon="-2.25872">
        <ele>8.6000003814697</ele>
        <time>2021-10-10T08:22:49.000Z</time>
      </trkpt>
      <trkpt lat="47.27618" lon="-2.25857">
        <ele>8.6000003814697</ele>
        <time>2021-10-10T08:22:52.000Z</time>
      </trkpt>
      <trkpt lat="47.27604" lon="-2.25836">
        <ele>8.6000003814697</ele>
        <time>2021-10-10T08:22:56.000Z</time>
      </trkpt>
      <trkpt lat="47.27597" lon="-2.25824">
        <ele>8.6000003814697</ele>
        <time>2021-10-10T08:22:58.000Z</time>
      </trkpt>
      <trkpt lat="47.27592" lon="-2.25811">
        <ele>8.6000003814697</ele>
        <time>2021-10-10T08:23:00.000Z</time>
      </trkpt>
      <trkpt lat="47.27591" lon="-2.25804">
        <ele>8.6000003814697</ele>
        <time>2021-10-10T08:23:01.000Z</time>
      </trkpt>
      <trkpt lat="47.27592" lon="-2.25768">
        <ele>8.6000003814697</ele>
        <time>2021-10-10T08:23:05.000Z</time>
      </trkpt>
      <trkpt lat="47.27594" lon="-2.25759">
        <ele>8.6000003814697</ele>
        <time>2021-10-10T08:23:06.000Z</time>
      </trkpt>
      <trkpt lat="47.27595" lon="-2.2574">
        <ele>8.6000003814697</ele>
        <time>2021-10-10T08:23:08.000Z</time>
      </trkpt>
      <trkpt lat="47.27593" lon="-2.2572">
        <ele>8.6000003814697</ele>
        <time>2021-10-10T08:23:10.000Z</time>
      </trkpt>
      <trkpt lat="47.27586" lon="-2.2569">
        <ele>8.6000003814697</ele>
        <time>2021-10-10T08:23:14.000Z</time>
      </trkpt>
      <trkpt lat="47.2758" lon="-2.25678">
        <ele>8.6000003814697</ele>
        <time>2021-10-10T08:23:16.000Z</time>
      </trkpt>
      <trkpt lat="47.27574" lon="-2.25663">
        <ele>8.6000003814697</ele>
        <time>2021-10-10T08:23:18.000Z</time>
      </trkpt>
      <trkpt lat="47.27567" lon="-2.25642">
        <ele>8.6000003814697</ele>
        <time>2021-10-10T08:23:21.000Z</time>
      </trkpt>
      <trkpt lat="47.27566" lon="-2.25629">
        <ele>8.6000003814697</ele>
        <time>2021-10-10T08:23:23.000Z</time>
      </trkpt>
      <trkpt lat="47.27565" lon="-2.25589">
        <ele>8.6000003814697</ele>
        <time>2021-10-10T08:23:27.000Z</time>
      </trkpt>
      <trkpt lat="47.27558" lon="-2.25551">
        <ele>8.1999998092651</ele>
        <time>2021-10-10T08:23:31.000Z</time>
      </trkpt>
      <trkpt lat="47.27555" lon="-2.25542">
        <ele>7.8000001907349</ele>
        <time>2021-10-10T08:23:32.000Z</time>
      </trkpt>
      <trkpt lat="47.27553" lon="-2.25534">
        <ele>7.4000000953674</ele>
        <time>2021-10-10T08:23:33.000Z</time>
      </trkpt>
      <trkpt lat="47.2755" lon="-2.25526">
        <ele>7</ele>
        <time>2021-10-10T08:23:34.000Z</time>
      </trkpt>
      <trkpt lat="47.27547" lon="-2.25518">
        <ele>6.5999999046326</ele>
        <time>2021-10-10T08:23:35.000Z</time>
      </trkpt>
      <trkpt lat="47.27538" lon="-2.25496">
        <ele>6.5999999046326</ele>
        <time>2021-10-10T08:23:38.000Z</time>
      </trkpt>
      <trkpt lat="47.27534" lon="-2.25488">
        <ele>6.5999999046326</ele>
        <time>2021-10-10T08:23:39.000Z</time>
      </trkpt>
      <trkpt lat="47.27518" lon="-2.25471">
        <ele>6.5999999046326</ele>
        <time>2021-10-10T08:23:42.000Z</time>
      </trkpt>
      <trkpt lat="47.27508" lon="-2.25461">
        <ele>6.5999999046326</ele>
        <time>2021-10-10T08:23:44.000Z</time>
      </trkpt>
      <trkpt lat="47.27495" lon="-2.25457">
        <ele>6.5999999046326</ele>
        <time>2021-10-10T08:23:46.000Z</time>
      </trkpt>
      <trkpt lat="47.27482" lon="-2.25457">
        <ele>6.5999999046326</ele>
        <time>2021-10-10T08:23:48.000Z</time>
      </trkpt>
      <trkpt lat="47.27468" lon="-2.25454">
        <ele>6.5999999046326</ele>
        <time>2021-10-10T08:23:50.000Z</time>
      </trkpt>
      <trkpt lat="47.27445" lon="-2.25444">
        <ele>6.5999999046326</ele>
        <time>2021-10-10T08:23:54.000Z</time>
      </trkpt>
      <trkpt lat="47.2744" lon="-2.25439">
        <ele>6.5999999046326</ele>
        <time>2021-10-10T08:23:55.000Z</time>
      </trkpt>
      <trkpt lat="47.27427" lon="-2.25426">
        <ele>6.5999999046326</ele>
        <time>2021-10-10T08:23:58.000Z</time>
      </trkpt>
      <trkpt lat="47.27419" lon="-2.25419">
        <ele>6.5999999046326</ele>
        <time>2021-10-10T08:24:00.000Z</time>
      </trkpt>
      <trkpt lat="47.27412" lon="-2.25402">
        <ele>6.5999999046326</ele>
        <time>2021-10-10T08:24:04.000Z</time>
      </trkpt>
      <trkpt lat="47.27411" lon="-2.25398">
        <ele>6.5999999046326</ele>
        <time>2021-10-10T08:24:05.000Z</time>
      </trkpt>
      <trkpt lat="47.27402" lon="-2.25386">
        <ele>6.5999999046326</ele>
        <time>2021-10-10T08:24:09.000Z</time>
      </trkpt>
      <trkpt lat="47.27401" lon="-2.25382">
        <ele>6.5999999046326</ele>
        <time>2021-10-10T08:24:10.000Z</time>
      </trkpt>
      <trkpt lat="47.274" lon="-2.25367">
        <ele>6.5999999046326</ele>
        <time>2021-10-10T08:24:13.000Z</time>
      </trkpt>
      <trkpt lat="47.274" lon="-2.25342">
        <ele>6.5999999046326</ele>
        <time>2021-10-10T08:24:17.000Z</time>
      </trkpt>
      <trkpt lat="47.27394" lon="-2.25326">
        <ele>6.5999999046326</ele>
        <time>2021-10-10T08:24:20.000Z</time>
      </trkpt>
      <trkpt lat="47.27393" lon="-2.2532">
        <ele>6.5999999046326</ele>
        <time>2021-10-10T08:24:21.000Z</time>
      </trkpt>
      <trkpt lat="47.27392" lon="-2.25311">
        <ele>6.5999999046326</ele>
        <time>2021-10-10T08:24:23.000Z</time>
      </trkpt>
      <trkpt lat="47.27395" lon="-2.25297">
        <ele>6.5999999046326</ele>
        <time>2021-10-10T08:24:25.000Z</time>
      </trkpt>
      <trkpt lat="47.27394" lon="-2.25281">
        <ele>6.5999999046326</ele>
        <time>2021-10-10T08:24:27.000Z</time>
      </trkpt>
      <trkpt lat="47.27392" lon="-2.25266">
        <ele>6.5999999046326</ele>
        <time>2021-10-10T08:24:29.000Z</time>
      </trkpt>
      <trkpt lat="47.27388" lon="-2.25242">
        <ele>6.5999999046326</ele>
        <time>2021-10-10T08:24:33.000Z</time>
      </trkpt>
      <trkpt lat="47.27388" lon="-2.25235">
        <ele>6.5999999046326</ele>
        <time>2021-10-10T08:24:34.000Z</time>
      </trkpt>
      <trkpt lat="47.27388" lon="-2.25211">
        <ele>6.5999999046326</ele>
        <time>2021-10-10T08:24:38.000Z</time>
      </trkpt>
      <trkpt lat="47.27384" lon="-2.25178">
        <ele>6.5999999046326</ele>
        <time>2021-10-10T08:24:43.000Z</time>
      </trkpt>
      <trkpt lat="47.27368" lon="-2.25137">
        <ele>6.5999999046326</ele>
        <time>2021-10-10T08:24:49.000Z</time>
      </trkpt>
      <trkpt lat="47.2736" lon="-2.25114">
        <ele>6.5999999046326</ele>
        <time>2021-10-10T08:24:52.000Z</time>
      </trkpt>
      <trkpt lat="47.27351" lon="-2.25091">
        <ele>6.5999999046326</ele>
        <time>2021-10-10T08:24:55.000Z</time>
      </trkpt>
      <trkpt lat="47.27349" lon="-2.25083">
        <ele>6.5999999046326</ele>
        <time>2021-10-10T08:24:56.000Z</time>
      </trkpt>
      <trkpt lat="47.27345" lon="-2.25053">
        <ele>6.5999999046326</ele>
        <time>2021-10-10T08:25:00.000Z</time>
      </trkpt>
      <trkpt lat="47.27355" lon="-2.25023">
        <ele>6.5999999046326</ele>
        <time>2021-10-10T08:25:04.000Z</time>
      </trkpt>
      <trkpt lat="47.27361" lon="-2.2501">
        <ele>6.5999999046326</ele>
        <time>2021-10-10T08:25:06.000Z</time>
      </trkpt>
      <trkpt lat="47.27373" lon="-2.24989">
        <ele>6.5999999046326</ele>
        <time>2021-10-10T08:25:09.000Z</time>
      </trkpt>
      <trkpt lat="47.27382" lon="-2.24977">
        <ele>6.5999999046326</ele>
        <time>2021-10-10T08:25:11.000Z</time>
      </trkpt>
      <trkpt lat="47.27398" lon="-2.24967">
        <ele>6.5999999046326</ele>
        <time>2021-10-10T08:25:14.000Z</time>
      </trkpt>
      <trkpt lat="47.27403" lon="-2.24964">
        <ele>6.5999999046326</ele>
        <time>2021-10-10T08:25:15.000Z</time>
      </trkpt>
      <trkpt lat="47.27417" lon="-2.24955">
        <ele>6.5999999046326</ele>
        <time>2021-10-10T08:25:18.000Z</time>
      </trkpt>
      <trkpt lat="47.27424" lon="-2.24947">
        <ele>6.5999999046326</ele>
        <time>2021-10-10T08:25:20.000Z</time>
      </trkpt>
      <trkpt lat="47.27427" lon="-2.24942">
        <ele>6.5999999046326</ele>
        <time>2021-10-10T08:25:21.000Z</time>
      </trkpt>
      <trkpt lat="47.27425" lon="-2.24923">
        <ele>6.5999999046326</ele>
        <time>2021-10-10T08:25:24.000Z</time>
      </trkpt>
      <trkpt lat="47.27417" lon="-2.24901">
        <ele>6.5999999046326</ele>
        <time>2021-10-10T08:25:28.000Z</time>
      </trkpt>
      <trkpt lat="47.27415" lon="-2.24896">
        <ele>6.5999999046326</ele>
        <time>2021-10-10T08:25:29.000Z</time>
      </trkpt>
      <trkpt lat="47.27412" lon="-2.24891">
        <ele>6.5999999046326</ele>
        <time>2021-10-10T08:25:30.000Z</time>
      </trkpt>
      <trkpt lat="47.27411" lon="-2.24878">
        <ele>6.5999999046326</ele>
        <time>2021-10-10T08:25:33.000Z</time>
      </trkpt>
      <trkpt lat="47.27411" lon="-2.24874">
        <ele>6.5999999046326</ele>
        <time>2021-10-10T08:25:34.000Z</time>
      </trkpt>
      <trkpt lat="47.27423" lon="-2.24824">
        <ele>6.5999999046326</ele>
        <time>2021-10-10T08:25:42.000Z</time>
      </trkpt>
      <trkpt lat="47.27424" lon="-2.24815">
        <ele>6.5999999046326</ele>
        <time>2021-10-10T08:25:43.000Z</time>
      </trkpt>
      <trkpt lat="47.2744" lon="-2.24766">
        <ele>6.5999999046326</ele>
        <time>2021-10-10T08:25:49.000Z</time>
      </trkpt>
      <trkpt lat="47.27447" lon="-2.24753">
        <ele>6.5999999046326</ele>
        <time>2021-10-10T08:25:51.000Z</time>
      </trkpt>
      <trkpt lat="47.27458" lon="-2.24738">
        <ele>6.5999999046326</ele>
        <time>2021-10-10T08:25:54.000Z</time>
      </trkpt>
      <trkpt lat="47.27476" lon="-2.24715">
        <ele>6.5999999046326</ele>
        <time>2021-10-10T08:26:00.000Z</time>
      </trkpt>
      <trkpt lat="47.27491" lon="-2.24693">
        <ele>6.5999999046326</ele>
        <time>2021-10-10T08:26:06.000Z</time>
      </trkpt>
      <trkpt lat="47.27514" lon="-2.24662">
        <ele>6.5999999046326</ele>
        <time>2021-10-10T08:26:14.000Z</time>
      </trkpt>
      <trkpt lat="47.27522" lon="-2.24654">
        <ele>6.5999999046326</ele>
        <time>2021-10-10T08:26:19.000Z</time>
      </trkpt>
      <trkpt lat="47.27524" lon="-2.24657">
        <ele>6.5999999046326</ele>
        <time>2021-10-10T08:26:22.000Z</time>
      </trkpt>
      <trkpt lat="47.27523" lon="-2.24659">
        <ele>6.5999999046326</ele>
        <time>2021-10-10T08:26:23.000Z</time>
      </trkpt>
      <trkpt lat="47.27515" lon="-2.2467">
        <ele>6.5999999046326</ele>
        <time>2021-10-10T08:26:27.000Z</time>
      </trkpt>
      <trkpt lat="47.27513" lon="-2.24674">
        <ele>6.5999999046326</ele>
        <time>2021-10-10T08:26:28.000Z</time>
      </trkpt>
      <trkpt lat="47.27492" lon="-2.24699">
        <ele>6.5999999046326</ele>
        <time>2021-10-10T08:26:34.000Z</time>
      </trkpt>
      <trkpt lat="47.27468" lon="-2.24728">
        <ele>6.5999999046326</ele>
        <time>2021-10-10T08:26:41.000Z</time>
      </trkpt>
      <trkpt lat="47.27444" lon="-2.24761">
        <ele>6.5999999046326</ele>
        <time>2021-10-10T08:26:49.000Z</time>
      </trkpt>
      <trkpt lat="47.27443" lon="-2.24771">
        <ele>6.5999999046326</ele>
        <time>2021-10-10T08:26:53.000Z</time>
      </trkpt>
      <trkpt lat="47.2744" lon="-2.24788">
        <ele>6.5999999046326</ele>
        <time>2021-10-10T08:27:01.000Z</time>
      </trkpt>
      <trkpt lat="47.2744" lon="-2.24789">
        <ele>6.5999999046326</ele>
        <time>2021-10-10T08:27:06.000Z</time>
      </trkpt>
      <trkpt lat="47.2744" lon="-2.2479">
        <ele>6.5999999046326</ele>
        <time>2021-10-10T08:27:20.000Z</time>
      </trkpt>
      <trkpt lat="47.27441" lon="-2.2479">
        <ele>6.5999999046326</ele>
        <time>2021-10-10T08:27:25.000Z</time>
      </trkpt>
      <trkpt lat="47.27441" lon="-2.24791">
        <ele>6.5999999046326</ele>
        <time>2021-10-10T08:27:32.000Z</time>
      </trkpt>
      <trkpt lat="47.27442" lon="-2.24791">
        <ele>6.5999999046326</ele>
        <time>2021-10-10T08:27:37.000Z</time>
      </trkpt>
      <trkpt lat="47.27445" lon="-2.24791">
        <ele>6.5999999046326</ele>
        <time>2021-10-10T08:27:39.000Z</time>
      </trkpt>
      <trkpt lat="47.2745" lon="-2.24786">
        <ele>6.5999999046326</ele>
        <time>2021-10-10T08:27:42.000Z</time>
      </trkpt>
      <trkpt lat="47.27453" lon="-2.24784">
        <ele>6.5999999046326</ele>
        <time>2021-10-10T08:27:43.000Z</time>
      </trkpt>
      <trkpt lat="47.27465" lon="-2.2478">
        <ele>7</ele>
        <time>2021-10-10T08:27:47.000Z</time>
      </trkpt>
      <trkpt lat="47.27468" lon="-2.24782">
        <ele>7.4000000953674</ele>
        <time>2021-10-10T08:27:48.000Z</time>
      </trkpt>
      <trkpt lat="47.27472" lon="-2.24783">
        <ele>8</ele>
        <time>2021-10-10T08:27:49.000Z</time>
      </trkpt>
      <trkpt lat="47.27475" lon="-2.24784">
        <ele>8.3999996185303</ele>
        <time>2021-10-10T08:27:50.000Z</time>
      </trkpt>
      <trkpt lat="47.27479" lon="-2.24785">
        <ele>8.8000001907349</ele>
        <time>2021-10-10T08:27:51.000Z</time>
      </trkpt>
      <trkpt lat="47.27483" lon="-2.24785">
        <ele>8.8000001907349</ele>
        <time>2021-10-10T08:27:52.000Z</time>
      </trkpt>
      <trkpt lat="47.27487" lon="-2.24785">
        <ele>9.1999998092651</ele>
        <time>2021-10-10T08:27:53.000Z</time>
      </trkpt>
      <trkpt lat="47.27491" lon="-2.24786">
        <ele>9.6000003814697</ele>
        <time>2021-10-10T08:27:54.000Z</time>
      </trkpt>
      <trkpt lat="47.27495" lon="-2.24786">
        <ele>10</ele>
        <time>2021-10-10T08:27:55.000Z</time>
      </trkpt>
      <trkpt lat="47.275" lon="-2.24787">
        <ele>10.39999961853</ele>
        <time>2021-10-10T08:27:56.000Z</time>
      </trkpt>
      <trkpt lat="47.27504" lon="-2.24787">
        <ele>11</ele>
        <time>2021-10-10T08:27:57.000Z</time>
      </trkpt>
      <trkpt lat="47.27509" lon="-2.24787">
        <ele>11</ele>
        <time>2021-10-10T08:27:58.000Z</time>
      </trkpt>
      <trkpt lat="47.2754" lon="-2.24785">
        <ele>11</ele>
        <time>2021-10-10T08:28:05.000Z</time>
      </trkpt>
      <trkpt lat="47.27567" lon="-2.24786">
        <ele>11</ele>
        <time>2021-10-10T08:28:11.000Z</time>
      </trkpt>
      <trkpt lat="47.27571" lon="-2.24786">
        <ele>11.39999961853</ele>
        <time>2021-10-10T08:28:12.000Z</time>
      </trkpt>
      <trkpt lat="47.27576" lon="-2.24787">
        <ele>11.800000190735</ele>
        <time>2021-10-10T08:28:13.000Z</time>
      </trkpt>
      <trkpt lat="47.27581" lon="-2.24788">
        <ele>12.199999809265</ele>
        <time>2021-10-10T08:28:14.000Z</time>
      </trkpt>
      <trkpt lat="47.27585" lon="-2.24789">
        <ele>12.60000038147</ele>
        <time>2021-10-10T08:28:15.000Z</time>
      </trkpt>
      <trkpt lat="47.2759" lon="-2.2479">
        <ele>13</ele>
        <time>2021-10-10T08:28:16.000Z</time>
      </trkpt>
      <trkpt lat="47.276" lon="-2.2479">
        <ele>13</ele>
        <time>2021-10-10T08:28:18.000Z</time>
      </trkpt>
      <trkpt lat="47.27629" lon="-2.24789">
        <ele>13</ele>
        <time>2021-10-10T08:28:24.000Z</time>
      </trkpt>
      <trkpt lat="47.27657" lon="-2.24797">
        <ele>13</ele>
        <time>2021-10-10T08:28:30.000Z</time>
      </trkpt>
      <trkpt lat="47.27662" lon="-2.24801">
        <ele>13</ele>
        <time>2021-10-10T08:28:31.000Z</time>
      </trkpt>
      <trkpt lat="47.27675" lon="-2.24806">
        <ele>13</ele>
        <time>2021-10-10T08:28:33.000Z</time>
      </trkpt>
      <trkpt lat="47.277" lon="-2.24805">
        <ele>13</ele>
        <time>2021-10-10T08:28:37.000Z</time>
      </trkpt>
      <trkpt lat="47.2773" lon="-2.24803">
        <ele>13</ele>
        <time>2021-10-10T08:28:42.000Z</time>
      </trkpt>
      <trkpt lat="47.2777" lon="-2.24803">
        <ele>13</ele>
        <time>2021-10-10T08:28:49.000Z</time>
      </trkpt>
      <trkpt lat="47.278" lon="-2.24801">
        <ele>13</ele>
        <time>2021-10-10T08:28:55.000Z</time>
      </trkpt>
      <trkpt lat="47.27838" lon="-2.24797">
        <ele>13</ele>
        <time>2021-10-10T08:29:02.000Z</time>
      </trkpt>
      <trkpt lat="47.27849" lon="-2.24793">
        <ele>13</ele>
        <time>2021-10-10T08:29:04.000Z</time>
      </trkpt>
      <trkpt lat="47.27856" lon="-2.24786">
        <ele>13</ele>
        <time>2021-10-10T08:29:06.000Z</time>
      </trkpt>
      <trkpt lat="47.27858" lon="-2.24777">
        <ele>13</ele>
        <time>2021-10-10T08:29:09.000Z</time>
      </trkpt>
      <trkpt lat="47.27865" lon="-2.24771">
        <ele>13</ele>
        <time>2021-10-10T08:29:13.000Z</time>
      </trkpt>
      <trkpt lat="47.27879" lon="-2.2477">
        <ele>13</ele>
        <time>2021-10-10T08:29:17.000Z</time>
      </trkpt>
      <trkpt lat="47.27894" lon="-2.24764">
        <ele>13</ele>
        <time>2021-10-10T08:29:22.000Z</time>
      </trkpt>
      <trkpt lat="47.27897" lon="-2.24764">
        <ele>13.39999961853</ele>
        <time>2021-10-10T08:29:23.000Z</time>
      </trkpt>
      <trkpt lat="47.279" lon="-2.24765">
        <ele>14</ele>
        <time>2021-10-10T08:29:24.000Z</time>
      </trkpt>
      <trkpt lat="47.27902" lon="-2.24765">
        <ele>14.39999961853</ele>
        <time>2021-10-10T08:29:25.000Z</time>
      </trkpt>
      <trkpt lat="47.27906" lon="-2.24765">
        <ele>14.800000190735</ele>
        <time>2021-10-10T08:29:26.000Z</time>
      </trkpt>
      <trkpt lat="47.27909" lon="-2.24764">
        <ele>15.199999809265</ele>
        <time>2021-10-10T08:29:27.000Z</time>
      </trkpt>
      <trkpt lat="47.27919" lon="-2.24764">
        <ele>15.60000038147</ele>
        <time>2021-10-10T08:29:31.000Z</time>
      </trkpt>
      <trkpt lat="47.27921" lon="-2.24765">
        <ele>16</ele>
        <time>2021-10-10T08:29:32.000Z</time>
      </trkpt>
      <trkpt lat="47.27921" lon="-2.24768">
        <ele>16.39999961853</ele>
        <time>2021-10-10T08:29:33.000Z</time>
      </trkpt>
      <trkpt lat="47.27922" lon="-2.24771">
        <ele>17.39999961853</ele>
        <time>2021-10-10T08:29:34.000Z</time>
      </trkpt>
      <trkpt lat="47.27917" lon="-2.24777">
        <ele>17.39999961853</ele>
        <time>2021-10-10T08:29:37.000Z</time>
      </trkpt>
      <trkpt lat="47.27909" lon="-2.2478">
        <ele>17.39999961853</ele>
        <time>2021-10-10T08:29:39.000Z</time>
      </trkpt>
      <trkpt lat="47.27901" lon="-2.24785">
        <ele>17.39999961853</ele>
        <time>2021-10-10T08:29:41.000Z</time>
      </trkpt>
      <trkpt lat="47.27899" lon="-2.24793">
        <ele>17.39999961853</ele>
        <time>2021-10-10T08:29:43.000Z</time>
      </trkpt>
      <trkpt lat="47.27901" lon="-2.24797">
        <ele>17.39999961853</ele>
        <time>2021-10-10T08:29:44.000Z</time>
      </trkpt>
      <trkpt lat="47.27915" lon="-2.24805">
        <ele>17.39999961853</ele>
        <time>2021-10-10T08:29:47.000Z</time>
      </trkpt>
      <trkpt lat="47.27935" lon="-2.24814">
        <ele>17.39999961853</ele>
        <time>2021-10-10T08:29:51.000Z</time>
      </trkpt>
      <trkpt lat="47.27939" lon="-2.24815">
        <ele>17.39999961853</ele>
        <time>2021-10-10T08:29:52.000Z</time>
      </trkpt>
      <trkpt lat="47.27944" lon="-2.24817">
        <ele>17.39999961853</ele>
        <time>2021-10-10T08:29:53.000Z</time>
      </trkpt>
      <trkpt lat="47.2795" lon="-2.24824">
        <ele>17.39999961853</ele>
        <time>2021-10-10T08:29:55.000Z</time>
      </trkpt>
      <trkpt lat="47.27954" lon="-2.24823">
        <ele>17.39999961853</ele>
        <time>2021-10-10T08:29:56.000Z</time>
      </trkpt>
      <trkpt lat="47.27962" lon="-2.24824">
        <ele>17.39999961853</ele>
        <time>2021-10-10T08:29:58.000Z</time>
      </trkpt>
      <trkpt lat="47.2799" lon="-2.24832">
        <ele>17.39999961853</ele>
        <time>2021-10-10T08:30:04.000Z</time>
      </trkpt>
      <trkpt lat="47.27999" lon="-2.24833">
        <ele>17.39999961853</ele>
        <time>2021-10-10T08:30:06.000Z</time>
      </trkpt>
      <trkpt lat="47.28026" lon="-2.24838">
        <ele>17.39999961853</ele>
        <time>2021-10-10T08:30:12.000Z</time>
      </trkpt>
      <trkpt lat="47.28049" lon="-2.24841">
        <ele>17.39999961853</ele>
        <time>2021-10-10T08:30:17.000Z</time>
      </trkpt>
      <trkpt lat="47.28053" lon="-2.24841">
        <ele>17.39999961853</ele>
        <time>2021-10-10T08:30:18.000Z</time>
      </trkpt>
      <trkpt lat="47.28057" lon="-2.24843">
        <ele>17.39999961853</ele>
        <time>2021-10-10T08:30:19.000Z</time>
      </trkpt>
      <trkpt lat="47.28071" lon="-2.24847">
        <ele>17.39999961853</ele>
        <time>2021-10-10T08:30:22.000Z</time>
      </trkpt>
      <trkpt lat="47.28076" lon="-2.24846">
        <ele>17.39999961853</ele>
        <time>2021-10-10T08:30:23.000Z</time>
      </trkpt>
      <trkpt lat="47.2809" lon="-2.24845">
        <ele>17.39999961853</ele>
        <time>2021-10-10T08:30:26.000Z</time>
      </trkpt>
      <trkpt lat="47.28094" lon="-2.24846">
        <ele>17.39999961853</ele>
        <time>2021-10-10T08:30:27.000Z</time>
      </trkpt>
      <trkpt lat="47.28117" lon="-2.24856">
        <ele>17.39999961853</ele>
        <time>2021-10-10T08:30:31.000Z</time>
      </trkpt>
      <trkpt lat="47.28123" lon="-2.24857">
        <ele>17.39999961853</ele>
        <time>2021-10-10T08:30:32.000Z</time>
      </trkpt>
      <trkpt lat="47.28128" lon="-2.24858">
        <ele>16.799999237061</ele>
        <time>2021-10-10T08:30:33.000Z</time>
      </trkpt>
      <trkpt lat="47.28134" lon="-2.24859">
        <ele>16.39999961853</ele>
        <time>2021-10-10T08:30:34.000Z</time>
      </trkpt>
      <trkpt lat="47.2814" lon="-2.2486">
        <ele>16</ele>
        <time>2021-10-10T08:30:35.000Z</time>
      </trkpt>
      <trkpt lat="47.28145" lon="-2.24859">
        <ele>15.60000038147</ele>
        <time>2021-10-10T08:30:36.000Z</time>
      </trkpt>
      <trkpt lat="47.28149" lon="-2.24858">
        <ele>15.199999809265</ele>
        <time>2021-10-10T08:30:37.000Z</time>
      </trkpt>
      <trkpt lat="47.28153" lon="-2.24856">
        <ele>14.60000038147</ele>
        <time>2021-10-10T08:30:38.000Z</time>
      </trkpt>
      <trkpt lat="47.28156" lon="-2.24854">
        <ele>14.199999809265</ele>
        <time>2021-10-10T08:30:39.000Z</time>
      </trkpt>
      <trkpt lat="47.2816" lon="-2.2485">
        <ele>13.800000190735</ele>
        <time>2021-10-10T08:30:40.000Z</time>
      </trkpt>
      <trkpt lat="47.28162" lon="-2.24846">
        <ele>13.199999809265</ele>
        <time>2021-10-10T08:30:41.000Z</time>
      </trkpt>
      <trkpt lat="47.28164" lon="-2.24841">
        <ele>12.800000190735</ele>
        <time>2021-10-10T08:30:42.000Z</time>
      </trkpt>
      <trkpt lat="47.28166" lon="-2.24832">
        <ele>12.800000190735</ele>
        <time>2021-10-10T08:30:44.000Z</time>
      </trkpt>
      <trkpt lat="47.28167" lon="-2.24827">
        <ele>12.800000190735</ele>
        <time>2021-10-10T08:30:45.000Z</time>
      </trkpt>
      <trkpt lat="47.28174" lon="-2.24814">
        <ele>12.800000190735</ele>
        <time>2021-10-10T08:30:48.000Z</time>
      </trkpt>
      <trkpt lat="47.28177" lon="-2.24812">
        <ele>12.39999961853</ele>
        <time>2021-10-10T08:30:49.000Z</time>
      </trkpt>
      <trkpt lat="47.28182" lon="-2.24812">
        <ele>12</ele>
        <time>2021-10-10T08:30:50.000Z</time>
      </trkpt>
      <trkpt lat="47.28188" lon="-2.24812">
        <ele>11.39999961853</ele>
        <time>2021-10-10T08:30:51.000Z</time>
      </trkpt>
      <trkpt lat="47.28194" lon="-2.24812">
        <ele>11</ele>
        <time>2021-10-10T08:30:52.000Z</time>
      </trkpt>
      <trkpt lat="47.28201" lon="-2.24811">
        <ele>10.60000038147</ele>
        <time>2021-10-10T08:30:53.000Z</time>
      </trkpt>
      <trkpt lat="47.28208" lon="-2.24811">
        <ele>10</ele>
        <time>2021-10-10T08:30:54.000Z</time>
      </trkpt>
      <trkpt lat="47.28217" lon="-2.24812">
        <ele>9.3999996185303</ele>
        <time>2021-10-10T08:30:55.000Z</time>
      </trkpt>
      <trkpt lat="47.28225" lon="-2.24814">
        <ele>8.6000003814697</ele>
        <time>2021-10-10T08:30:56.000Z</time>
      </trkpt>
      <trkpt lat="47.28233" lon="-2.24814">
        <ele>7.8000001907349</ele>
        <time>2021-10-10T08:30:57.000Z</time>
      </trkpt>
      <trkpt lat="47.28242" lon="-2.24811">
        <ele>7.1999998092651</ele>
        <time>2021-10-10T08:30:58.000Z</time>
      </trkpt>
      <trkpt lat="47.2825" lon="-2.24808">
        <ele>6.4000000953674</ele>
        <time>2021-10-10T08:30:59.000Z</time>
      </trkpt>
      <trkpt lat="47.28257" lon="-2.24804">
        <ele>5.8000001907349</ele>
        <time>2021-10-10T08:31:00.000Z</time>
      </trkpt>
      <trkpt lat="47.28264" lon="-2.24799">
        <ele>5.1999998092651</ele>
        <time>2021-10-10T08:31:01.000Z</time>
      </trkpt>
      <trkpt lat="47.28271" lon="-2.24794">
        <ele>4.5999999046326</ele>
        <time>2021-10-10T08:31:02.000Z</time>
      </trkpt>
      <trkpt lat="47.28277" lon="-2.2479">
        <ele>4</ele>
        <time>2021-10-10T08:31:03.000Z</time>
      </trkpt>
      <trkpt lat="47.28283" lon="-2.24785">
        <ele>3.5999999046326</ele>
        <time>2021-10-10T08:31:04.000Z</time>
      </trkpt>
      <trkpt lat="47.28304" lon="-2.24772">
        <ele>3.5999999046326</ele>
        <time>2021-10-10T08:31:07.000Z</time>
      </trkpt>
      <trkpt lat="47.28317" lon="-2.24763">
        <ele>3</ele>
        <time>2021-10-10T08:31:09.000Z</time>
      </trkpt>
      <trkpt lat="47.28323" lon="-2.2476">
        <ele>2.5999999046326</ele>
        <time>2021-10-10T08:31:10.000Z</time>
      </trkpt>
      <trkpt lat="47.2833" lon="-2.24757">
        <ele>2.2000000476837</ele>
        <time>2021-10-10T08:31:11.000Z</time>
      </trkpt>
      <trkpt lat="47.28337" lon="-2.24756">
        <ele>1.7999999523163</ele>
        <time>2021-10-10T08:31:12.000Z</time>
      </trkpt>
      <trkpt lat="47.28344" lon="-2.24757">
        <ele>1.3999999761581</ele>
        <time>2021-10-10T08:31:13.000Z</time>
      </trkpt>
      <trkpt lat="47.28357" lon="-2.24764">
        <ele>1.3999999761581</ele>
        <time>2021-10-10T08:31:15.000Z</time>
      </trkpt>
      <trkpt lat="47.28363" lon="-2.24768">
        <ele>1.3999999761581</ele>
        <time>2021-10-10T08:31:16.000Z</time>
      </trkpt>
      <trkpt lat="47.28368" lon="-2.24771">
        <ele>1</ele>
        <time>2021-10-10T08:31:17.000Z</time>
      </trkpt>
      <trkpt lat="47.28373" lon="-2.24774">
        <ele>0.40000000596046</ele>
        <time>2021-10-10T08:31:18.000Z</time>
      </trkpt>
      <trkpt lat="47.28379" lon="-2.24774">
        <ele>6.6</ele>
        <time>2021-10-10T08:31:19.000Z</time>
      </trkpt>
      <trkpt lat="47.28385" lon="-2.24772">
        <ele>-0.40000000596046</ele>
        <time>2021-10-10T08:31:20.000Z</time>
      </trkpt>
      <trkpt lat="47.2839" lon="-2.2477">
        <ele>-0.80000001192093</ele>
        <time>2021-10-10T08:31:21.000Z</time>
      </trkpt>
      <trkpt lat="47.28396" lon="-2.24767">
        <ele>-0.80000001192093</ele>
        <time>2021-10-10T08:31:22.000Z</time>
      </trkpt>
      <trkpt lat="47.28402" lon="-2.24763">
        <ele>-0.80000001192093</ele>
        <time>2021-10-10T08:31:23.000Z</time>
      </trkpt>
      <trkpt lat="47.28412" lon="-2.24756">
        <ele>-0.80000001192093</ele>
        <time>2021-10-10T08:31:25.000Z</time>
      </trkpt>
      <trkpt lat="47.28429" lon="-2.24743">
        <ele>-0.80000001192093</ele>
        <time>2021-10-10T08:31:28.000Z</time>
      </trkpt>
      <trkpt lat="47.28453" lon="-2.24728">
        <ele>-0.80000001192093</ele>
        <time>2021-10-10T08:31:32.000Z</time>
      </trkpt>
      <trkpt lat="47.28465" lon="-2.24718">
        <ele>-0.80000001192093</ele>
        <time>2021-10-10T08:31:34.000Z</time>
      </trkpt>
      <trkpt lat="47.2849" lon="-2.247">
        <ele>-1.2000000476837</ele>
        <time>2021-10-10T08:31:38.000Z</time>
      </trkpt>
      <trkpt lat="47.28496" lon="-2.24696">
        <ele>-1.6000000238419</ele>
        <time>2021-10-10T08:31:39.000Z</time>
      </trkpt>
      <trkpt lat="47.28502" lon="-2.24691">
        <ele>-2</ele>
        <time>2021-10-10T08:31:40.000Z</time>
      </trkpt>
      <trkpt lat="47.28508" lon="-2.24687">
        <ele>-2.4000000953674</ele>
        <time>2021-10-10T08:31:41.000Z</time>
      </trkpt>
      <trkpt lat="47.28513" lon="-2.24683">
        <ele>-2.7999999523163</ele>
        <time>2021-10-10T08:31:42.000Z</time>
      </trkpt>
      <trkpt lat="47.28547" lon="-2.24656">
        <ele>-2.7999999523163</ele>
        <time>2021-10-10T08:31:48.000Z</time>
      </trkpt>
      <trkpt lat="47.28573" lon="-2.24632">
        <ele>-2.7999999523163</ele>
        <time>2021-10-10T08:31:54.000Z</time>
      </trkpt>
      <trkpt lat="47.28583" lon="-2.24626">
        <ele>-2.7999999523163</ele>
        <time>2021-10-10T08:31:59.000Z</time>
      </trkpt>
      <trkpt lat="47.2859" lon="-2.24616">
        <ele>-2.7999999523163</ele>
        <time>2021-10-10T08:32:04.000Z</time>
      </trkpt>
      <trkpt lat="47.28598" lon="-2.24604">
        <ele>-2.7999999523163</ele>
        <time>2021-10-10T08:32:09.000Z</time>
      </trkpt>
      <trkpt lat="47.28608" lon="-2.24588">
        <ele>-2.7999999523163</ele>
        <time>2021-10-10T08:32:13.000Z</time>
      </trkpt>
      <trkpt lat="47.28611" lon="-2.24566">
        <ele>-2.7999999523163</ele>
        <time>2021-10-10T08:32:17.000Z</time>
      </trkpt>
      <trkpt lat="47.28623" lon="-2.24524">
        <ele>-2.7999999523163</ele>
        <time>2021-10-10T08:32:23.000Z</time>
      </trkpt>
      <trkpt lat="47.28624" lon="-2.24516">
        <ele>-2.7999999523163</ele>
        <time>2021-10-10T08:32:24.000Z</time>
      </trkpt>
      <trkpt lat="47.28633" lon="-2.24481">
        <ele>-2.7999999523163</ele>
        <time>2021-10-10T08:32:28.000Z</time>
      </trkpt>
      <trkpt lat="47.28645" lon="-2.24436">
        <ele>-2.7999999523163</ele>
        <time>2021-10-10T08:32:33.000Z</time>
      </trkpt>
      <trkpt lat="47.28647" lon="-2.24428">
        <ele>-2.7999999523163</ele>
        <time>2021-10-10T08:32:34.000Z</time>
      </trkpt>
      <trkpt lat="47.28649" lon="-2.2442">
        <ele>-2.7999999523163</ele>
        <time>2021-10-10T08:32:35.000Z</time>
      </trkpt>
      <trkpt lat="47.28655" lon="-2.24395">
        <ele>-2.7999999523163</ele>
        <time>2021-10-10T08:32:38.000Z</time>
      </trkpt>
      <trkpt lat="47.28658" lon="-2.24387">
        <ele>-2.7999999523163</ele>
        <time>2021-10-10T08:32:39.000Z</time>
      </trkpt>
      <trkpt lat="47.2867" lon="-2.24338">
        <ele>-2.7999999523163</ele>
        <time>2021-10-10T08:32:45.000Z</time>
      </trkpt>
      <trkpt lat="47.28682" lon="-2.24284">
        <ele>-2.7999999523163</ele>
        <time>2021-10-10T08:32:52.000Z</time>
      </trkpt>
      <trkpt lat="47.28686" lon="-2.24259">
        <ele>-2.7999999523163</ele>
        <time>2021-10-10T08:32:55.000Z</time>
      </trkpt>
      <trkpt lat="47.28686" lon="-2.2425">
        <ele>-2.7999999523163</ele>
        <time>2021-10-10T08:32:56.000Z</time>
      </trkpt>
      <trkpt lat="47.28681" lon="-2.24219">
        <ele>-2.7999999523163</ele>
        <time>2021-10-10T08:33:00.000Z</time>
      </trkpt>
      <trkpt lat="47.28679" lon="-2.24212">
        <ele>-2.7999999523163</ele>
        <time>2021-10-10T08:33:01.000Z</time>
      </trkpt>
      <trkpt lat="47.28675" lon="-2.24175">
        <ele>-2.7999999523163</ele>
        <time>2021-10-10T08:33:06.000Z</time>
      </trkpt>
      <trkpt lat="47.28673" lon="-2.24129">
        <ele>-2.7999999523163</ele>
        <time>2021-10-10T08:33:12.000Z</time>
      </trkpt>
      <trkpt lat="47.28669" lon="-2.24079">
        <ele>-2.7999999523163</ele>
        <time>2021-10-10T08:33:18.000Z</time>
      </trkpt>
      <trkpt lat="47.28666" lon="-2.24034">
        <ele>-2.7999999523163</ele>
        <time>2021-10-10T08:33:23.000Z</time>
      </trkpt>
      <trkpt lat="47.28663" lon="-2.23979">
        <ele>-2.7999999523163</ele>
        <time>2021-10-10T08:33:29.000Z</time>
      </trkpt>
      <trkpt lat="47.28656" lon="-2.23932">
        <ele>-2.7999999523163</ele>
        <time>2021-10-10T08:33:35.000Z</time>
      </trkpt>
      <trkpt lat="47.28649" lon="-2.23883">
        <ele>-2.7999999523163</ele>
        <time>2021-10-10T08:33:41.000Z</time>
      </trkpt>
      <trkpt lat="47.28644" lon="-2.23834">
        <ele>-2.7999999523163</ele>
        <time>2021-10-10T08:33:47.000Z</time>
      </trkpt>
      <trkpt lat="47.28642" lon="-2.23818">
        <ele>-2.7999999523163</ele>
        <time>2021-10-10T08:33:49.000Z</time>
      </trkpt>
      <trkpt lat="47.28638" lon="-2.23803">
        <ele>-2.7999999523163</ele>
        <time>2021-10-10T08:33:51.000Z</time>
      </trkpt>
      <trkpt lat="47.28637" lon="-2.23794">
        <ele>-2.7999999523163</ele>
        <time>2021-10-10T08:33:52.000Z</time>
      </trkpt>
      <trkpt lat="47.28631" lon="-2.23727">
        <ele>-2.7999999523163</ele>
        <time>2021-10-10T08:33:59.000Z</time>
      </trkpt>
      <trkpt lat="47.28627" lon="-2.23669">
        <ele>-2.7999999523163</ele>
        <time>2021-10-10T08:34:05.000Z</time>
      </trkpt>
      <trkpt lat="47.28624" lon="-2.23616">
        <ele>-2.7999999523163</ele>
        <time>2021-10-10T08:34:11.000Z</time>
      </trkpt>
      <trkpt lat="47.28624" lon="-2.23602">
        <ele>-2.7999999523163</ele>
        <time>2021-10-10T08:34:13.000Z</time>
      </trkpt>
      <trkpt lat="47.28627" lon="-2.23591">
        <ele>-2.7999999523163</ele>
        <time>2021-10-10T08:34:15.000Z</time>
      </trkpt>
      <trkpt lat="47.28628" lon="-2.23581">
        <ele>-3.2000000476837</ele>
        <time>2021-10-10T08:34:17.000Z</time>
      </trkpt>
      <trkpt lat="47.28627" lon="-2.23577">
        <ele>-3.5999999046326</ele>
        <time>2021-10-10T08:34:18.000Z</time>
      </trkpt>
      <trkpt lat="47.28625" lon="-2.23574">
        <ele>-4</ele>
        <time>2021-10-10T08:34:19.000Z</time>
      </trkpt>
      <trkpt lat="47.28622" lon="-2.23572">
        <ele>-4.4000000953674</ele>
        <time>2021-10-10T08:34:20.000Z</time>
      </trkpt>
      <trkpt lat="47.28618" lon="-2.23571">
        <ele>-5</ele>
        <time>2021-10-10T08:34:21.000Z</time>
      </trkpt>
      <trkpt lat="47.2861" lon="-2.2357">
        <ele>-5</ele>
        <time>2021-10-10T08:34:23.000Z</time>
      </trkpt>
      <trkpt lat="47.28603" lon="-2.23566">
        <ele>-5</ele>
        <time>2021-10-10T08:34:27.000Z</time>
      </trkpt>
      <trkpt lat="47.28603" lon="-2.23566">
        <ele>-5</ele>
        <time>2021-10-10T08:34:39.000Z</time>
      </trkpt>
      <trkpt lat="47.28603" lon="-2.23566">
        <ele>-5</ele>
        <time>2021-10-10T08:34:52.000Z</time>
      </trkpt>
      <trkpt lat="47.28603" lon="-2.23566">
        <ele>-5</ele>
        <time>2021-10-10T08:35:06.000Z</time>
      </trkpt>
      <trkpt lat="47.28602" lon="-2.23566">
        <ele>-5</ele>
        <time>2021-10-10T08:35:20.000Z</time>
      </trkpt>
      <trkpt lat="47.28602" lon="-2.23566">
        <ele>-5</ele>
        <time>2021-10-10T08:35:36.000Z</time>
      </trkpt>
      <trkpt lat="47.28599" lon="-2.23564">
        <ele>-5</ele>
        <time>2021-10-10T08:35:44.000Z</time>
      </trkpt>
      <trkpt lat="47.28597" lon="-2.23563">
        <ele>-5</ele>
        <time>2021-10-10T08:35:52.000Z</time>
      </trkpt>
      <trkpt lat="47.28586" lon="-2.23554">
        <ele>-5</ele>
        <time>2021-10-10T08:35:57.000Z</time>
      </trkpt>
      <trkpt lat="47.28579" lon="-2.23543">
        <ele>-5</ele>
        <time>2021-10-10T08:36:00.000Z</time>
      </trkpt>
      <trkpt lat="47.28579" lon="-2.23536">
        <ele>-5</ele>
        <time>2021-10-10T08:36:01.000Z</time>
      </trkpt>
      <trkpt lat="47.2858" lon="-2.23512">
        <ele>-5</ele>
        <time>2021-10-10T08:36:04.000Z</time>
      </trkpt>
      <trkpt lat="47.2858" lon="-2.23503">
        <ele>-5</ele>
        <time>2021-10-10T08:36:05.000Z</time>
      </trkpt>
      <trkpt lat="47.2858" lon="-2.23471">
        <ele>-5</ele>
        <time>2021-10-10T08:36:09.000Z</time>
      </trkpt>
      <trkpt lat="47.28576" lon="-2.23441">
        <ele>-5</ele>
        <time>2021-10-10T08:36:14.000Z</time>
      </trkpt>
      <trkpt lat="47.28577" lon="-2.23416">
        <ele>-5</ele>
        <time>2021-10-10T08:36:19.000Z</time>
      </trkpt>
      <trkpt lat="47.28582" lon="-2.23363">
        <ele>-5</ele>
        <time>2021-10-10T08:36:26.000Z</time>
      </trkpt>
      <trkpt lat="47.28583" lon="-2.23323">
        <ele>-5</ele>
        <time>2021-10-10T08:36:31.000Z</time>
      </trkpt>
      <trkpt lat="47.28583" lon="-2.23315">
        <ele>-5</ele>
        <time>2021-10-10T08:36:32.000Z</time>
      </trkpt>
      <trkpt lat="47.28582" lon="-2.23275">
        <ele>-5</ele>
        <time>2021-10-10T08:36:37.000Z</time>
      </trkpt>
      <trkpt lat="47.28583" lon="-2.23258">
        <ele>-5</ele>
        <time>2021-10-10T08:36:39.000Z</time>
      </trkpt>
      <trkpt lat="47.28586" lon="-2.23242">
        <ele>-5</ele>
        <time>2021-10-10T08:36:41.000Z</time>
      </trkpt>
      <trkpt lat="47.28589" lon="-2.23226">
        <ele>-5</ele>
        <time>2021-10-10T08:36:43.000Z</time>
      </trkpt>
      <trkpt lat="47.286" lon="-2.23207">
        <ele>-5</ele>
        <time>2021-10-10T08:36:46.000Z</time>
      </trkpt>
      <trkpt lat="47.28616" lon="-2.23194">
        <ele>-5</ele>
        <time>2021-10-10T08:36:49.000Z</time>
      </trkpt>
      <trkpt lat="47.28622" lon="-2.23189">
        <ele>-5</ele>
        <time>2021-10-10T08:36:50.000Z</time>
      </trkpt>
      <trkpt lat="47.28639" lon="-2.2318">
        <ele>-5</ele>
        <time>2021-10-10T08:36:53.000Z</time>
      </trkpt>
      <trkpt lat="47.28649" lon="-2.23181">
        <ele>-5</ele>
        <time>2021-10-10T08:36:55.000Z</time>
      </trkpt>
      <trkpt lat="47.28656" lon="-2.23187">
        <ele>-5</ele>
        <time>2021-10-10T08:36:57.000Z</time>
      </trkpt>
      <trkpt lat="47.28665" lon="-2.23193">
        <ele>-5</ele>
        <time>2021-10-10T08:36:59.000Z</time>
      </trkpt>
      <trkpt lat="47.28676" lon="-2.23204">
        <ele>-5</ele>
        <time>2021-10-10T08:37:03.000Z</time>
      </trkpt>
      <trkpt lat="47.28681" lon="-2.23216">
        <ele>-5</ele>
        <time>2021-10-10T08:37:09.000Z</time>
      </trkpt>
      <trkpt lat="47.28684" lon="-2.23226">
        <ele>-4.4000000953674</ele>
        <time>2021-10-10T08:37:14.000Z</time>
      </trkpt>
      <trkpt lat="47.28685" lon="-2.23228">
        <ele>-4</ele>
        <time>2021-10-10T08:37:15.000Z</time>
      </trkpt>
      <trkpt lat="47.28686" lon="-2.23229">
        <ele>-3.5999999046326</ele>
        <time>2021-10-10T08:37:16.000Z</time>
      </trkpt>
      <trkpt lat="47.28688" lon="-2.2323">
        <ele>-3.2000000476837</ele>
        <time>2021-10-10T08:37:17.000Z</time>
      </trkpt>
      <trkpt lat="47.28689" lon="-2.23232">
        <ele>-2.7999999523163</ele>
        <time>2021-10-10T08:37:18.000Z</time>
      </trkpt>
      <trkpt lat="47.2869" lon="-2.23235">
        <ele>-2.4000000953674</ele>
        <time>2021-10-10T08:37:20.000Z</time>
      </trkpt>
      <trkpt lat="47.28691" lon="-2.23237">
        <ele>-2</ele>
        <time>2021-10-10T08:37:21.000Z</time>
      </trkpt>
      <trkpt lat="47.28691" lon="-2.23239">
        <ele>-1.6000000238419</ele>
        <time>2021-10-10T08:37:22.000Z</time>
      </trkpt>
      <trkpt lat="47.2869" lon="-2.2324">
        <ele>-1.2000000476837</ele>
        <time>2021-10-10T08:37:23.000Z</time>
      </trkpt>
      <trkpt lat="47.28689" lon="-2.23242">
        <ele>-0.80000001192093</ele>
        <time>2021-10-10T08:37:24.000Z</time>
      </trkpt>
      <trkpt lat="47.28686" lon="-2.23244">
        <ele>-0.80000001192093</ele>
        <time>2021-10-10T08:37:26.000Z</time>
      </trkpt>
      <trkpt lat="47.28684" lon="-2.23246">
        <ele>-1.2000000476837</ele>
        <time>2021-10-10T08:37:28.000Z</time>
      </trkpt>
      <trkpt lat="47.28684" lon="-2.23247">
        <ele>-1.6000000238419</ele>
        <time>2021-10-10T08:37:29.000Z</time>
      </trkpt>
      <trkpt lat="47.28684" lon="-2.23248">
        <ele>-2.2000000476837</ele>
        <time>2021-10-10T08:37:30.000Z</time>
      </trkpt>
      <trkpt lat="47.28684" lon="-2.23248">
        <ele>-2.5999999046326</ele>
        <time>2021-10-10T08:37:31.000Z</time>
      </trkpt>
      <trkpt lat="47.28684" lon="-2.23248">
        <ele>-3</ele>
        <time>2021-10-10T08:37:32.000Z</time>
      </trkpt>
      <trkpt lat="47.28684" lon="-2.23248">
        <ele>-3</ele>
        <time>2021-10-10T08:37:41.000Z</time>
      </trkpt>
      <trkpt lat="47.28684" lon="-2.23248">
        <ele>-3</ele>
        <time>2021-10-10T08:37:51.000Z</time>
      </trkpt>
      <trkpt lat="47.28684" lon="-2.23248">
        <ele>-3</ele>
        <time>2021-10-10T08:38:03.000Z</time>
      </trkpt>
      <trkpt lat="47.28684" lon="-2.23248">
        <ele>-3</ele>
        <time>2021-10-10T08:38:12.000Z</time>
      </trkpt>
      <trkpt lat="47.28684" lon="-2.23251">
        <ele>-3</ele>
        <time>2021-10-10T08:38:20.000Z</time>
      </trkpt>
      <trkpt lat="47.28684" lon="-2.23251">
        <ele>-3</ele>
        <time>2021-10-10T08:38:31.000Z</time>
      </trkpt>
      <trkpt lat="47.28684" lon="-2.23251">
        <ele>-3</ele>
        <time>2021-10-10T08:38:44.000Z</time>
      </trkpt>
      <trkpt lat="47.28684" lon="-2.23254">
        <ele>-3</ele>
        <time>2021-10-10T08:38:57.000Z</time>
      </trkpt>
      <trkpt lat="47.28684" lon="-2.23256">
        <ele>-3</ele>
        <time>2021-10-10T08:38:58.000Z</time>
      </trkpt>
      <trkpt lat="47.28679" lon="-2.23272">
        <ele>-3</ele>
        <time>2021-10-10T08:39:02.000Z</time>
      </trkpt>
      <trkpt lat="47.28677" lon="-2.2329">
        <ele>-3</ele>
        <time>2021-10-10T08:39:05.000Z</time>
      </trkpt>
      <trkpt lat="47.28676" lon="-2.23299">
        <ele>-3</ele>
        <time>2021-10-10T08:39:09.000Z</time>
      </trkpt>
      <trkpt lat="47.28676" lon="-2.23301">
        <ele>-3</ele>
        <time>2021-10-10T08:39:10.000Z</time>
      </trkpt>
      <trkpt lat="47.28676" lon="-2.23317">
        <ele>-3</ele>
        <time>2021-10-10T08:39:14.000Z</time>
      </trkpt>
      <trkpt lat="47.28673" lon="-2.23347">
        <ele>-3</ele>
        <time>2021-10-10T08:39:19.000Z</time>
      </trkpt>
      <trkpt lat="47.28669" lon="-2.23361">
        <ele>-3</ele>
        <time>2021-10-10T08:39:22.000Z</time>
      </trkpt>
      <trkpt lat="47.28667" lon="-2.23361">
        <ele>-3</ele>
        <time>2021-10-10T08:39:23.000Z</time>
      </trkpt>
      <trkpt lat="47.28659" lon="-2.23359">
        <ele>-3</ele>
        <time>2021-10-10T08:39:26.000Z</time>
      </trkpt>
      <trkpt lat="47.28652" lon="-2.23364">
        <ele>-3.4000000953674</ele>
        <time>2021-10-10T08:39:28.000Z</time>
      </trkpt>
      <trkpt lat="47.28649" lon="-2.23369">
        <ele>-3.7999999523163</ele>
        <time>2021-10-10T08:39:29.000Z</time>
      </trkpt>
      <trkpt lat="47.28648" lon="-2.23375">
        <ele>-4.4000000953674</ele>
        <time>2021-10-10T08:39:30.000Z</time>
      </trkpt>
      <trkpt lat="47.28647" lon="-2.23381">
        <ele>-4.8000001907349</ele>
        <time>2021-10-10T08:39:31.000Z</time>
      </trkpt>
      <trkpt lat="47.28646" lon="-2.23388">
        <ele>-5.1999998092651</ele>
        <time>2021-10-10T08:39:32.000Z</time>
      </trkpt>
      <trkpt lat="47.28646" lon="-2.23395">
        <ele>-5.1999998092651</ele>
        <time>2021-10-10T08:39:33.000Z</time>
      </trkpt>
      <trkpt lat="47.28646" lon="-2.23402">
        <ele>-5.1999998092651</ele>
        <time>2021-10-10T08:39:34.000Z</time>
      </trkpt>
      <trkpt lat="47.2865" lon="-2.23424">
        <ele>-5.1999998092651</ele>
        <time>2021-10-10T08:39:37.000Z</time>
      </trkpt>
      <trkpt lat="47.28655" lon="-2.23436">
        <ele>-5.1999998092651</ele>
        <time>2021-10-10T08:39:39.000Z</time>
      </trkpt>
      <trkpt lat="47.28659" lon="-2.2346">
        <ele>-5.1999998092651</ele>
        <time>2021-10-10T08:39:43.000Z</time>
      </trkpt>
      <trkpt lat="47.28659" lon="-2.23475">
        <ele>-5.1999998092651</ele>
        <time>2021-10-10T08:39:45.000Z</time>
      </trkpt>
      <trkpt lat="47.28658" lon="-2.2349">
        <ele>-4.8000001907349</ele>
        <time>2021-10-10T08:39:47.000Z</time>
      </trkpt>
      <trkpt lat="47.28657" lon="-2.23498">
        <ele>-4.4000000953674</ele>
        <time>2021-10-10T08:39:48.000Z</time>
      </trkpt>
      <trkpt lat="47.28656" lon="-2.23505">
        <ele>-3.7999999523163</ele>
        <time>2021-10-10T08:39:49.000Z</time>
      </trkpt>
      <trkpt lat="47.28655" lon="-2.23512">
        <ele>-3.4000000953674</ele>
        <time>2021-10-10T08:39:50.000Z</time>
      </trkpt>
      <trkpt lat="47.28654" lon="-2.23519">
        <ele>-3</ele>
        <time>2021-10-10T08:39:51.000Z</time>
      </trkpt>
      <trkpt lat="47.28653" lon="-2.23527">
        <ele>-3</ele>
        <time>2021-10-10T08:39:52.000Z</time>
      </trkpt>
      <trkpt lat="47.28653" lon="-2.23543">
        <ele>-3</ele>
        <time>2021-10-10T08:39:54.000Z</time>
      </trkpt>
      <trkpt lat="47.28655" lon="-2.23558">
        <ele>-3</ele>
        <time>2021-10-10T08:39:57.000Z</time>
      </trkpt>
      <trkpt lat="47.28657" lon="-2.2356">
        <ele>-3</ele>
        <time>2021-10-10T08:39:58.000Z</time>
      </trkpt>
      <trkpt lat="47.28677" lon="-2.23573">
        <ele>-3</ele>
        <time>2021-10-10T08:40:04.000Z</time>
      </trkpt>
      <trkpt lat="47.28695" lon="-2.23592">
        <ele>-3</ele>
        <time>2021-10-10T08:40:09.000Z</time>
      </trkpt>
      <trkpt lat="47.28708" lon="-2.23587">
        <ele>-3</ele>
        <time>2021-10-10T08:40:12.000Z</time>
      </trkpt>
      <trkpt lat="47.28724" lon="-2.23571">
        <ele>-3</ele>
        <time>2021-10-10T08:40:17.000Z</time>
      </trkpt>
      <trkpt lat="47.28735" lon="-2.23546">
        <ele>-3</ele>
        <time>2021-10-10T08:40:22.000Z</time>
      </trkpt>
      <trkpt lat="47.28747" lon="-2.23534">
        <ele>-3</ele>
        <time>2021-10-10T08:40:26.000Z</time>
      </trkpt>
      <trkpt lat="47.28758" lon="-2.23528">
        <ele>-3</ele>
        <time>2021-10-10T08:40:30.000Z</time>
      </trkpt>
      <trkpt lat="47.28771" lon="-2.23521">
        <ele>-2.5999999046326</ele>
        <time>2021-10-10T08:40:34.000Z</time>
      </trkpt>
      <trkpt lat="47.28776" lon="-2.23519">
        <ele>-2.2000000476837</ele>
        <time>2021-10-10T08:40:35.000Z</time>
      </trkpt>
      <trkpt lat="47.2878" lon="-2.23518">
        <ele>-1.7999999523163</ele>
        <time>2021-10-10T08:40:36.000Z</time>
      </trkpt>
      <trkpt lat="47.28784" lon="-2.23517">
        <ele>-1.3999999761581</ele>
        <time>2021-10-10T08:40:37.000Z</time>
      </trkpt>
      <trkpt lat="47.28788" lon="-2.23515">
        <ele>-1</ele>
        <time>2021-10-10T08:40:38.000Z</time>
      </trkpt>
      <trkpt lat="47.28796" lon="-2.23512">
        <ele>-1</ele>
        <time>2021-10-10T08:40:40.000Z</time>
      </trkpt>
      <trkpt lat="47.28815" lon="-2.2351">
        <ele>-0.60000002384186</ele>
        <time>2021-10-10T08:40:45.000Z</time>
      </trkpt>
      <trkpt lat="47.28819" lon="-2.2351">
        <ele>-0.20000000298023</ele>
        <time>2021-10-10T08:40:46.000Z</time>
      </trkpt>
      <trkpt lat="47.28823" lon="-2.2351">
        <ele>0.20000000298023</ele>
        <time>2021-10-10T08:40:47.000Z</time>
      </trkpt>
      <trkpt lat="47.28826" lon="-2.23509">
        <ele>0.60000002384186</ele>
        <time>2021-10-10T08:40:48.000Z</time>
      </trkpt>
      <trkpt lat="47.2883" lon="-2.23509">
        <ele>1</ele>
        <time>2021-10-10T08:40:49.000Z</time>
      </trkpt>
      <trkpt lat="47.28838" lon="-2.23508">
        <ele>1</ele>
        <time>2021-10-10T08:40:51.000Z</time>
      </trkpt>
      <trkpt lat="47.28865" lon="-2.23505">
        <ele>1</ele>
        <time>2021-10-10T08:40:58.000Z</time>
      </trkpt>
      <trkpt lat="47.2888" lon="-2.23505">
        <ele>1.3999999761581</ele>
        <time>2021-10-10T08:41:02.000Z</time>
      </trkpt>
      <trkpt lat="47.28884" lon="-2.23506">
        <ele>1.7999999523163</ele>
        <time>2021-10-10T08:41:03.000Z</time>
      </trkpt>
      <trkpt lat="47.28888" lon="-2.23506">
        <ele>2.2000000476837</ele>
        <time>2021-10-10T08:41:04.000Z</time>
      </trkpt>
      <trkpt lat="47.28892" lon="-2.23506">
        <ele>2.5999999046326</ele>
        <time>2021-10-10T08:41:05.000Z</time>
      </trkpt>
      <trkpt lat="47.28897" lon="-2.23506">
        <ele>3</ele>
        <time>2021-10-10T08:41:06.000Z</time>
      </trkpt>
      <trkpt lat="47.28919" lon="-2.23501">
        <ele>3</ele>
        <time>2021-10-10T08:41:12.000Z</time>
      </trkpt>
      <trkpt lat="47.28937" lon="-2.23495">
        <ele>3</ele>
        <time>2021-10-10T08:41:17.000Z</time>
      </trkpt>
      <trkpt lat="47.28949" lon="-2.23493">
        <ele>3</ele>
        <time>2021-10-10T08:41:22.000Z</time>
      </trkpt>
      <trkpt lat="47.28951" lon="-2.23494">
        <ele>3</ele>
        <time>2021-10-10T08:41:26.000Z</time>
      </trkpt>
      <trkpt lat="47.28951" lon="-2.23495">
        <ele>3</ele>
        <time>2021-10-10T08:41:27.000Z</time>
      </trkpt>
      <trkpt lat="47.28952" lon="-2.23497">
        <ele>3</ele>
        <time>2021-10-10T08:41:29.000Z</time>
      </trkpt>
      <trkpt lat="47.28952" lon="-2.23498">
        <ele>3</ele>
        <time>2021-10-10T08:41:35.000Z</time>
      </trkpt>
      <trkpt lat="47.28952" lon="-2.23498">
        <ele>3</ele>
        <time>2021-10-10T08:41:51.000Z</time>
      </trkpt>
      <trkpt lat="47.28952" lon="-2.23498">
        <ele>3</ele>
        <time>2021-10-10T08:42:05.000Z</time>
      </trkpt>
      <trkpt lat="47.28952" lon="-2.23498">
        <ele>3</ele>
        <time>2021-10-10T08:42:20.000Z</time>
      </trkpt>
      <trkpt lat="47.28952" lon="-2.23498">
        <ele>3</ele>
        <time>2021-10-10T08:42:39.000Z</time>
      </trkpt>
      <trkpt lat="47.28952" lon="-2.23498">
        <ele>3</ele>
        <time>2021-10-10T08:42:57.000Z</time>
      </trkpt>
      <trkpt lat="47.28952" lon="-2.23498">
        <ele>3</ele>
        <time>2021-10-10T08:43:15.000Z</time>
      </trkpt>
      <trkpt lat="47.28952" lon="-2.23498">
        <ele>3</ele>
        <time>2021-10-10T08:43:30.000Z</time>
      </trkpt>
      <trkpt lat="47.28952" lon="-2.23498">
        <ele>3</ele>
        <time>2021-10-10T08:43:46.000Z</time>
      </trkpt>
      <trkpt lat="47.28952" lon="-2.23498">
        <ele>3</ele>
        <time>2021-10-10T08:43:57.000Z</time>
      </trkpt>
      <trkpt lat="47.28952" lon="-2.23498">
        <ele>3</ele>
        <time>2021-10-10T08:44:13.000Z</time>
      </trkpt>
      <trkpt lat="47.28952" lon="-2.23498">
        <ele>3</ele>
        <time>2021-10-10T08:44:27.000Z</time>
      </trkpt>
      <trkpt lat="47.28952" lon="-2.23498">
        <ele>3</ele>
        <time>2021-10-10T08:44:44.000Z</time>
      </trkpt>
      <trkpt lat="47.28952" lon="-2.23498">
        <ele>3</ele>
        <time>2021-10-10T08:45:00.000Z</time>
      </trkpt>
      <trkpt lat="47.28952" lon="-2.23498">
        <ele>3</ele>
        <time>2021-10-10T08:45:18.000Z</time>
      </trkpt>
      <trkpt lat="47.28952" lon="-2.23498">
        <ele>3</ele>
        <time>2021-10-10T08:45:35.000Z</time>
      </trkpt>
      <trkpt lat="47.28952" lon="-2.23498">
        <ele>3</ele>
        <time>2021-10-10T08:45:52.000Z</time>
      </trkpt>
      <trkpt lat="47.28952" lon="-2.23498">
        <ele>3</ele>
        <time>2021-10-10T08:46:07.000Z</time>
      </trkpt>
      <trkpt lat="47.28952" lon="-2.23498">
        <ele>3</ele>
        <time>2021-10-10T08:46:21.000Z</time>
      </trkpt>
      <trkpt lat="47.28952" lon="-2.23498">
        <ele>3</ele>
        <time>2021-10-10T08:46:36.000Z</time>
      </trkpt>
      <trkpt lat="47.28952" lon="-2.23498">
        <ele>3</ele>
        <time>2021-10-10T08:46:54.000Z</time>
      </trkpt>
      <trkpt lat="47.28952" lon="-2.23498">
        <ele>3</ele>
        <time>2021-10-10T08:47:07.000Z</time>
      </trkpt>
      <trkpt lat="47.28952" lon="-2.23496">
        <ele>3</ele>
        <time>2021-10-10T08:47:09.000Z</time>
      </trkpt>
      <trkpt lat="47.28953" lon="-2.23494">
        <ele>3</ele>
        <time>2021-10-10T08:47:11.000Z</time>
      </trkpt>
      <trkpt lat="47.28954" lon="-2.23494">
        <ele>3</ele>
        <time>2021-10-10T08:47:12.000Z</time>
      </trkpt>
      <trkpt lat="47.28955" lon="-2.23494">
        <ele>3</ele>
        <time>2021-10-10T08:47:18.000Z</time>
      </trkpt>
      <trkpt lat="47.28959" lon="-2.23493">
        <ele>3</ele>
        <time>2021-10-10T08:47:21.000Z</time>
      </trkpt>
      <trkpt lat="47.2896" lon="-2.23492">
        <ele>3</ele>
        <time>2021-10-10T08:47:22.000Z</time>
      </trkpt>
      <trkpt lat="47.28961" lon="-2.23489">
        <ele>3</ele>
        <time>2021-10-10T08:47:23.000Z</time>
      </trkpt>
      <trkpt lat="47.2896" lon="-2.23478">
        <ele>3</ele>
        <time>2021-10-10T08:47:27.000Z</time>
      </trkpt>
      <trkpt lat="47.2896" lon="-2.23478">
        <ele>3</ele>
        <time>2021-10-10T08:47:31.000Z</time>
      </trkpt>
      <trkpt lat="47.2896" lon="-2.23478">
        <ele>3</ele>
        <time>2021-10-10T08:47:44.000Z</time>
      </trkpt>
      <trkpt lat="47.28957" lon="-2.23478">
        <ele>3</ele>
        <time>2021-10-10T08:47:49.000Z</time>
      </trkpt>
      <trkpt lat="47.28957" lon="-2.23478">
        <ele>3</ele>
        <time>2021-10-10T08:47:54.000Z</time>
      </trkpt>
      <trkpt lat="47.28957" lon="-2.23478">
        <ele>3</ele>
        <time>2021-10-10T08:48:09.000Z</time>
      </trkpt>
      <trkpt lat="47.28957" lon="-2.23478">
        <ele>3</ele>
        <time>2021-10-10T08:48:25.000Z</time>
      </trkpt>
      <trkpt lat="47.28958" lon="-2.23478">
        <ele>3</ele>
        <time>2021-10-10T08:48:41.000Z</time>
      </trkpt>
      <trkpt lat="47.28958" lon="-2.23478">
        <ele>3</ele>
        <time>2021-10-10T08:48:58.000Z</time>
      </trkpt>
      <trkpt lat="47.28958" lon="-2.23478">
        <ele>3</ele>
        <time>2021-10-10T08:49:14.000Z</time>
      </trkpt>
      <trkpt lat="47.28958" lon="-2.23478">
        <ele>3</ele>
        <time>2021-10-10T08:49:32.000Z</time>
      </trkpt>
      <trkpt lat="47.28958" lon="-2.23478">
        <ele>3</ele>
        <time>2021-10-10T08:49:47.000Z</time>
      </trkpt>
      <trkpt lat="47.28958" lon="-2.23477">
        <ele>3</ele>
        <time>2021-10-10T08:50:05.000Z</time>
      </trkpt>
      <trkpt lat="47.28958" lon="-2.23477">
        <ele>3</ele>
        <time>2021-10-10T08:50:24.000Z</time>
      </trkpt>
      <trkpt lat="47.28958" lon="-2.23477">
        <ele>3</ele>
        <time>2021-10-10T08:50:39.000Z</time>
      </trkpt>
      <trkpt lat="47.28958" lon="-2.23477">
        <ele>3.4000000953674</ele>
        <time>2021-10-10T08:50:53.000Z</time>
      </trkpt>
      <trkpt lat="47.28958" lon="-2.23477">
        <ele>3.7999999523163</ele>
        <time>2021-10-10T08:50:54.000Z</time>
      </trkpt>
      <trkpt lat="47.28958" lon="-2.23477">
        <ele>4.1999998092651</ele>
        <time>2021-10-10T08:50:55.000Z</time>
      </trkpt>
      <trkpt lat="47.28958" lon="-2.23477">
        <ele>4.5999999046326</ele>
        <time>2021-10-10T08:50:56.000Z</time>
      </trkpt>
      <trkpt lat="47.28958" lon="-2.23477">
        <ele>5</ele>
        <time>2021-10-10T08:50:57.000Z</time>
      </trkpt>
      <trkpt lat="47.28959" lon="-2.23476">
        <ele>5</ele>
        <time>2021-10-10T08:51:11.000Z</time>
      </trkpt>
      <trkpt lat="47.2896" lon="-2.23474">
        <ele>5</ele>
        <time>2021-10-10T08:51:15.000Z</time>
      </trkpt>
      <trkpt lat="47.2896" lon="-2.23472">
        <ele>5</ele>
        <time>2021-10-10T08:51:16.000Z</time>
      </trkpt>
      <trkpt lat="47.28961" lon="-2.23462">
        <ele>5</ele>
        <time>2021-10-10T08:51:20.000Z</time>
      </trkpt>
      <trkpt lat="47.28961" lon="-2.23458">
        <ele>5</ele>
        <time>2021-10-10T08:51:21.000Z</time>
      </trkpt>
      <trkpt lat="47.28963" lon="-2.23434">
        <ele>5</ele>
        <time>2021-10-10T08:51:27.000Z</time>
      </trkpt>
      <trkpt lat="47.28968" lon="-2.23385">
        <ele>5</ele>
        <time>2021-10-10T08:51:36.000Z</time>
      </trkpt>
      <trkpt lat="47.28974" lon="-2.23327">
        <ele>5</ele>
        <time>2021-10-10T08:51:46.000Z</time>
      </trkpt>
      <trkpt lat="47.28978" lon="-2.2328">
        <ele>5</ele>
        <time>2021-10-10T08:51:53.000Z</time>
      </trkpt>
      <trkpt lat="47.28983" lon="-2.23234">
        <ele>4.5999999046326</ele>
        <time>2021-10-10T08:51:59.000Z</time>
      </trkpt>
      <trkpt lat="47.28983" lon="-2.23226">
        <ele>4.1999998092651</ele>
        <time>2021-10-10T08:52:00.000Z</time>
      </trkpt>
      <trkpt lat="47.28984" lon="-2.23218">
        <ele>3.7999999523163</ele>
        <time>2021-10-10T08:52:01.000Z</time>
      </trkpt>
      <trkpt lat="47.28984" lon="-2.23211">
        <ele>3.4000000953674</ele>
        <time>2021-10-10T08:52:02.000Z</time>
      </trkpt>
      <trkpt lat="47.28985" lon="-2.23202">
        <ele>3</ele>
        <time>2021-10-10T08:52:03.000Z</time>
      </trkpt>
      <trkpt lat="47.2899" lon="-2.23159">
        <ele>3</ele>
        <time>2021-10-10T08:52:08.000Z</time>
      </trkpt>
      <trkpt lat="47.28991" lon="-2.23149">
        <ele>2.5999999046326</ele>
        <time>2021-10-10T08:52:09.000Z</time>
      </trkpt>
      <trkpt lat="47.28992" lon="-2.2314">
        <ele>2</ele>
        <time>2021-10-10T08:52:10.000Z</time>
      </trkpt>
      <trkpt lat="47.28993" lon="-2.23131">
        <ele>1.6000000238419</ele>
        <time>2021-10-10T08:52:11.000Z</time>
      </trkpt>
      <trkpt lat="47.28994" lon="-2.23122">
        <ele>1.2000000476837</ele>
        <time>2021-10-10T08:52:12.000Z</time>
      </trkpt>
      <trkpt lat="47.28996" lon="-2.23112">
        <ele>0.80000001192093</ele>
        <time>2021-10-10T08:52:13.000Z</time>
      </trkpt>
      <trkpt lat="47.29" lon="-2.23085">
        <ele>0.40000000596046</ele>
        <time>2021-10-10T08:52:16.000Z</time>
      </trkpt>
      <trkpt lat="47.29002" lon="-2.23075">
        <ele>3.7</ele>
        <time>2021-10-10T08:52:17.000Z</time>
      </trkpt>
      <trkpt lat="47.29004" lon="-2.23066">
        <ele>-0.40000000596046</ele>
        <time>2021-10-10T08:52:18.000Z</time>
      </trkpt>
      <trkpt lat="47.29006" lon="-2.23058">
        <ele>-1</ele>
        <time>2021-10-10T08:52:19.000Z</time>
      </trkpt>
      <trkpt lat="47.29009" lon="-2.23048">
        <ele>-1.3999999761581</ele>
        <time>2021-10-10T08:52:20.000Z</time>
      </trkpt>
      <trkpt lat="47.29016" lon="-2.23022">
        <ele>-1.3999999761581</ele>
        <time>2021-10-10T08:52:23.000Z</time>
      </trkpt>
      <trkpt lat="47.29021" lon="-2.23005">
        <ele>-1.7999999523163</ele>
        <time>2021-10-10T08:52:25.000Z</time>
      </trkpt>
      <trkpt lat="47.29024" lon="-2.22998">
        <ele>-2.2000000476837</ele>
        <time>2021-10-10T08:52:26.000Z</time>
      </trkpt>
      <trkpt lat="47.29025" lon="-2.22991">
        <ele>-2.5999999046326</ele>
        <time>2021-10-10T08:52:27.000Z</time>
      </trkpt>
      <trkpt lat="47.29026" lon="-2.22984">
        <ele>-3.2000000476837</ele>
        <time>2021-10-10T08:52:28.000Z</time>
      </trkpt>
      <trkpt lat="47.29028" lon="-2.22978">
        <ele>-3.5999999046326</ele>
        <time>2021-10-10T08:52:29.000Z</time>
      </trkpt>
      <trkpt lat="47.29036" lon="-2.22975">
        <ele>-3.5999999046326</ele>
        <time>2021-10-10T08:52:31.000Z</time>
      </trkpt>
      <trkpt lat="47.29046" lon="-2.2299">
        <ele>-3.5999999046326</ele>
        <time>2021-10-10T08:52:34.000Z</time>
      </trkpt>
      <trkpt lat="47.29064" lon="-2.23013">
        <ele>-3.5999999046326</ele>
        <time>2021-10-10T08:52:38.000Z</time>
      </trkpt>
      <trkpt lat="47.29096" lon="-2.23052">
        <ele>-3.5999999046326</ele>
        <time>2021-10-10T08:52:45.000Z</time>
      </trkpt>
      <trkpt lat="47.29132" lon="-2.23099">
        <ele>-3.5999999046326</ele>
        <time>2021-10-10T08:52:53.000Z</time>
      </trkpt>
      <trkpt lat="47.29163" lon="-2.23138">
        <ele>-3.5999999046326</ele>
        <time>2021-10-10T08:53:00.000Z</time>
      </trkpt>
      <trkpt lat="47.29184" lon="-2.23167">
        <ele>-3.5999999046326</ele>
        <time>2021-10-10T08:53:05.000Z</time>
      </trkpt>
      <trkpt lat="47.29188" lon="-2.23174">
        <ele>-3.5999999046326</ele>
        <time>2021-10-10T08:53:06.000Z</time>
      </trkpt>
      <trkpt lat="47.29198" lon="-2.23194">
        <ele>-3.5999999046326</ele>
        <time>2021-10-10T08:53:09.000Z</time>
      </trkpt>
      <trkpt lat="47.292" lon="-2.23202">
        <ele>-3.5999999046326</ele>
        <time>2021-10-10T08:53:10.000Z</time>
      </trkpt>
      <trkpt lat="47.29206" lon="-2.23228">
        <ele>-3.5999999046326</ele>
        <time>2021-10-10T08:53:13.000Z</time>
      </trkpt>
      <trkpt lat="47.2921" lon="-2.23235">
        <ele>-3.5999999046326</ele>
        <time>2021-10-10T08:53:14.000Z</time>
      </trkpt>
      <trkpt lat="47.29224" lon="-2.23253">
        <ele>-3.5999999046326</ele>
        <time>2021-10-10T08:53:17.000Z</time>
      </trkpt>
      <trkpt lat="47.29233" lon="-2.23265">
        <ele>-3.5999999046326</ele>
        <time>2021-10-10T08:53:19.000Z</time>
      </trkpt>
      <trkpt lat="47.29253" lon="-2.23296">
        <ele>-3.5999999046326</ele>
        <time>2021-10-10T08:53:24.000Z</time>
      </trkpt>
      <trkpt lat="47.2926" lon="-2.23311">
        <ele>-3.5999999046326</ele>
        <time>2021-10-10T08:53:26.000Z</time>
      </trkpt>
      <trkpt lat="47.29268" lon="-2.23336">
        <ele>-3.5999999046326</ele>
        <time>2021-10-10T08:53:29.000Z</time>
      </trkpt>
      <trkpt lat="47.29273" lon="-2.23361">
        <ele>-3.5999999046326</ele>
        <time>2021-10-10T08:53:32.000Z</time>
      </trkpt>
      <trkpt lat="47.29282" lon="-2.23405">
        <ele>-3.5999999046326</ele>
        <time>2021-10-10T08:53:37.000Z</time>
      </trkpt>
      <trkpt lat="47.29284" lon="-2.23413">
        <ele>-3.5999999046326</ele>
        <time>2021-10-10T08:53:38.000Z</time>
      </trkpt>
      <trkpt lat="47.29297" lon="-2.23473">
        <ele>-3.5999999046326</ele>
        <time>2021-10-10T08:53:45.000Z</time>
      </trkpt>
      <trkpt lat="47.293" lon="-2.23491">
        <ele>-3.5999999046326</ele>
        <time>2021-10-10T08:53:47.000Z</time>
      </trkpt>
      <trkpt lat="47.29307" lon="-2.23525">
        <ele>-3.5999999046326</ele>
        <time>2021-10-10T08:53:51.000Z</time>
      </trkpt>
      <trkpt lat="47.29315" lon="-2.23596">
        <ele>-3.5999999046326</ele>
        <time>2021-10-10T08:53:59.000Z</time>
      </trkpt>
      <trkpt lat="47.29316" lon="-2.23623">
        <ele>-3.5999999046326</ele>
        <time>2021-10-10T08:54:02.000Z</time>
      </trkpt>
      <trkpt lat="47.29317" lon="-2.2365">
        <ele>-3.5999999046326</ele>
        <time>2021-10-10T08:54:05.000Z</time>
      </trkpt>
      <trkpt lat="47.29315" lon="-2.23722">
        <ele>-3.5999999046326</ele>
        <time>2021-10-10T08:54:13.000Z</time>
      </trkpt>
      <trkpt lat="47.29316" lon="-2.23778">
        <ele>-3.5999999046326</ele>
        <time>2021-10-10T08:54:20.000Z</time>
      </trkpt>
      <trkpt lat="47.29327" lon="-2.23782">
        <ele>-3.5999999046326</ele>
        <time>2021-10-10T08:54:23.000Z</time>
      </trkpt>
      <trkpt lat="47.29337" lon="-2.23786">
        <ele>-3.5999999046326</ele>
        <time>2021-10-10T08:54:25.000Z</time>
      </trkpt>
      <trkpt lat="47.29345" lon="-2.23792">
        <ele>-3.5999999046326</ele>
        <time>2021-10-10T08:54:27.000Z</time>
      </trkpt>
      <trkpt lat="47.2935" lon="-2.23793">
        <ele>-3.5999999046326</ele>
        <time>2021-10-10T08:54:28.000Z</time>
      </trkpt>
      <trkpt lat="47.29364" lon="-2.23791">
        <ele>-3.5999999046326</ele>
        <time>2021-10-10T08:54:31.000Z</time>
      </trkpt>
      <trkpt lat="47.2937" lon="-2.23772">
        <ele>-3.5999999046326</ele>
        <time>2021-10-10T08:54:34.000Z</time>
      </trkpt>
      <trkpt lat="47.29372" lon="-2.23758">
        <ele>-3.5999999046326</ele>
        <time>2021-10-10T08:54:36.000Z</time>
      </trkpt>
      <trkpt lat="47.29375" lon="-2.23735">
        <ele>-3.5999999046326</ele>
        <time>2021-10-10T08:54:39.000Z</time>
      </trkpt>
      <trkpt lat="47.29379" lon="-2.2372">
        <ele>-3.5999999046326</ele>
        <time>2021-10-10T08:54:41.000Z</time>
      </trkpt>
      <trkpt lat="47.29386" lon="-2.23709">
        <ele>-3.5999999046326</ele>
        <time>2021-10-10T08:54:43.000Z</time>
      </trkpt>
      <trkpt lat="47.29401" lon="-2.23701">
        <ele>-3</ele>
        <time>2021-10-10T08:54:46.000Z</time>
      </trkpt>
      <trkpt lat="47.29406" lon="-2.23699">
        <ele>-2.5999999046326</ele>
        <time>2021-10-10T08:54:47.000Z</time>
      </trkpt>
      <trkpt lat="47.29411" lon="-2.23698">
        <ele>-2.2000000476837</ele>
        <time>2021-10-10T08:54:48.000Z</time>
      </trkpt>
      <trkpt lat="47.29417" lon="-2.23696">
        <ele>-1.7999999523163</ele>
        <time>2021-10-10T08:54:49.000Z</time>
      </trkpt>
      <trkpt lat="47.29422" lon="-2.23695">
        <ele>-1.2000000476837</ele>
        <time>2021-10-10T08:54:50.000Z</time>
      </trkpt>
      <trkpt lat="47.29442" lon="-2.23689">
        <ele>-0.80000001192093</ele>
        <time>2021-10-10T08:54:54.000Z</time>
      </trkpt>
      <trkpt lat="47.29447" lon="-2.23687">
        <ele>-0.40000000596046</ele>
        <time>2021-10-10T08:54:55.000Z</time>
      </trkpt>
      <trkpt lat="47.29452" lon="-2.23684">
        <ele>6.8</ele>
        <time>2021-10-10T08:54:56.000Z</time>
      </trkpt>
      <trkpt lat="47.29456" lon="-2.23683">
        <ele>0.40000000596046</ele>
        <time>2021-10-10T08:54:57.000Z</time>
      </trkpt>
      <trkpt lat="47.2946" lon="-2.23681">
        <ele>0.80000001192093</ele>
        <time>2021-10-10T08:54:58.000Z</time>
      </trkpt>
      <trkpt lat="47.29472" lon="-2.23673">
        <ele>1.2000000476837</ele>
        <time>2021-10-10T08:55:01.000Z</time>
      </trkpt>
      <trkpt lat="47.29476" lon="-2.2367">
        <ele>1.7999999523163</ele>
        <time>2021-10-10T08:55:02.000Z</time>
      </trkpt>
      <trkpt lat="47.2948" lon="-2.23668">
        <ele>2.2000000476837</ele>
        <time>2021-10-10T08:55:03.000Z</time>
      </trkpt>
      <trkpt lat="47.29484" lon="-2.23665">
        <ele>2.5999999046326</ele>
        <time>2021-10-10T08:55:04.000Z</time>
      </trkpt>
      <trkpt lat="47.29489" lon="-2.23661">
        <ele>3</ele>
        <time>2021-10-10T08:55:05.000Z</time>
      </trkpt>
      <trkpt lat="47.29501" lon="-2.23654">
        <ele>3</ele>
        <time>2021-10-10T08:55:07.000Z</time>
      </trkpt>
      <trkpt lat="47.29514" lon="-2.23648">
        <ele>3</ele>
        <time>2021-10-10T08:55:09.000Z</time>
      </trkpt>
      <trkpt lat="47.29533" lon="-2.23643">
        <ele>3</ele>
        <time>2021-10-10T08:55:12.000Z</time>
      </trkpt>
      <trkpt lat="47.29555" lon="-2.23644">
        <ele>2.5999999046326</ele>
        <time>2021-10-10T08:55:15.000Z</time>
      </trkpt>
      <trkpt lat="47.29562" lon="-2.23646">
        <ele>2.2000000476837</ele>
        <time>2021-10-10T08:55:16.000Z</time>
      </trkpt>
      <trkpt lat="47.29569" lon="-2.23647">
        <ele>1.7999999523163</ele>
        <time>2021-10-10T08:55:17.000Z</time>
      </trkpt>
      <trkpt lat="47.29576" lon="-2.23649">
        <ele>1.3999999761581</ele>
        <time>2021-10-10T08:55:18.000Z</time>
      </trkpt>
      <trkpt lat="47.29582" lon="-2.2365">
        <ele>1</ele>
        <time>2021-10-10T08:55:19.000Z</time>
      </trkpt>
      <trkpt lat="47.29617" lon="-2.23655">
        <ele>0.60000002384186</ele>
        <time>2021-10-10T08:55:24.000Z</time>
      </trkpt>
      <trkpt lat="47.29624" lon="-2.23657">
        <ele>4.4</ele>
        <time>2021-10-10T08:55:25.000Z</time>
      </trkpt>
      <trkpt lat="47.2963" lon="-2.23658">
        <ele>-0.40000000596046</ele>
        <time>2021-10-10T08:55:26.000Z</time>
      </trkpt>
      <trkpt lat="47.29637" lon="-2.2366">
        <ele>-0.80000001192093</ele>
        <time>2021-10-10T08:55:27.000Z</time>
      </trkpt>
      <trkpt lat="47.29642" lon="-2.23662">
        <ele>-1.2000000476837</ele>
        <time>2021-10-10T08:55:28.000Z</time>
      </trkpt>
      <trkpt lat="47.29648" lon="-2.23663">
        <ele>-1.2000000476837</ele>
        <time>2021-10-10T08:55:30.000Z</time>
      </trkpt>
      <trkpt lat="47.29649" lon="-2.23664">
        <ele>-1.7999999523163</ele>
        <time>2021-10-10T08:55:31.000Z</time>
      </trkpt>
      <trkpt lat="47.2965" lon="-2.23664">
        <ele>-2.5999999046326</ele>
        <time>2021-10-10T08:55:32.000Z</time>
      </trkpt>
      <trkpt lat="47.29651" lon="-2.23664">
        <ele>-3.2000000476837</ele>
        <time>2021-10-10T08:55:33.000Z</time>
      </trkpt>
      <trkpt lat="47.29652" lon="-2.23665">
        <ele>-3.5999999046326</ele>
        <time>2021-10-10T08:55:34.000Z</time>
      </trkpt>
      <trkpt lat="47.29653" lon="-2.23666">
        <ele>-3.5999999046326</ele>
        <time>2021-10-10T08:55:35.000Z</time>
      </trkpt>
      <trkpt lat="47.29654" lon="-2.23679">
        <ele>-3.5999999046326</ele>
        <time>2021-10-10T08:55:38.000Z</time>
      </trkpt>
      <trkpt lat="47.29653" lon="-2.23691">
        <ele>-3.5999999046326</ele>
        <time>2021-10-10T08:55:40.000Z</time>
      </trkpt>
      <trkpt lat="47.29651" lon="-2.23714">
        <ele>-3.5999999046326</ele>
        <time>2021-10-10T08:55:43.000Z</time>
      </trkpt>
      <trkpt lat="47.29647" lon="-2.23777">
        <ele>-3.5999999046326</ele>
        <time>2021-10-10T08:55:51.000Z</time>
      </trkpt>
      <trkpt lat="47.29641" lon="-2.23836">
        <ele>-3.5999999046326</ele>
        <time>2021-10-10T08:55:58.000Z</time>
      </trkpt>
      <trkpt lat="47.29636" lon="-2.23897">
        <ele>-3.5999999046326</ele>
        <time>2021-10-10T08:56:05.000Z</time>
      </trkpt>
      <trkpt lat="47.29629" lon="-2.23969">
        <ele>-3.5999999046326</ele>
        <time>2021-10-10T08:56:13.000Z</time>
      </trkpt>
      <trkpt lat="47.29623" lon="-2.24045">
        <ele>-3.5999999046326</ele>
        <time>2021-10-10T08:56:22.000Z</time>
      </trkpt>
      <trkpt lat="47.2962" lon="-2.24069">
        <ele>-3.5999999046326</ele>
        <time>2021-10-10T08:56:26.000Z</time>
      </trkpt>
      <trkpt lat="47.29622" lon="-2.24071">
        <ele>-3.5999999046326</ele>
        <time>2021-10-10T08:56:27.000Z</time>
      </trkpt>
      <trkpt lat="47.29628" lon="-2.24059">
        <ele>-3.5999999046326</ele>
        <time>2021-10-10T08:56:30.000Z</time>
      </trkpt>
      <trkpt lat="47.2963" lon="-2.24037">
        <ele>-3.5999999046326</ele>
        <time>2021-10-10T08:56:33.000Z</time>
      </trkpt>
      <trkpt lat="47.2963" lon="-2.24028">
        <ele>-3.5999999046326</ele>
        <time>2021-10-10T08:56:34.000Z</time>
      </trkpt>
      <trkpt lat="47.29636" lon="-2.23995">
        <ele>-3.5999999046326</ele>
        <time>2021-10-10T08:56:38.000Z</time>
      </trkpt>
      <trkpt lat="47.2964" lon="-2.23991">
        <ele>-3.5999999046326</ele>
        <time>2021-10-10T08:56:39.000Z</time>
      </trkpt>
      <trkpt lat="47.29666" lon="-2.23967">
        <ele>-3.5999999046326</ele>
        <time>2021-10-10T08:56:44.000Z</time>
      </trkpt>
      <trkpt lat="47.29688" lon="-2.23951">
        <ele>-3.5999999046326</ele>
        <time>2021-10-10T08:56:48.000Z</time>
      </trkpt>
      <trkpt lat="47.29699" lon="-2.23946">
        <ele>-3.5999999046326</ele>
        <time>2021-10-10T08:56:50.000Z</time>
      </trkpt>
      <trkpt lat="47.29704" lon="-2.23941">
        <ele>-3.5999999046326</ele>
        <time>2021-10-10T08:56:51.000Z</time>
      </trkpt>
      <trkpt lat="47.29713" lon="-2.23927">
        <ele>-3.5999999046326</ele>
        <time>2021-10-10T08:56:53.000Z</time>
      </trkpt>
      <trkpt lat="47.29716" lon="-2.23911">
        <ele>-3.5999999046326</ele>
        <time>2021-10-10T08:56:55.000Z</time>
      </trkpt>
      <trkpt lat="47.29716" lon="-2.23902">
        <ele>-3.5999999046326</ele>
        <time>2021-10-10T08:56:56.000Z</time>
      </trkpt>
      <trkpt lat="47.29719" lon="-2.23885">
        <ele>-3.5999999046326</ele>
        <time>2021-10-10T08:56:58.000Z</time>
      </trkpt>
      <trkpt lat="47.29727" lon="-2.23858">
        <ele>-3.5999999046326</ele>
        <time>2021-10-10T08:57:01.000Z</time>
      </trkpt>
      <trkpt lat="47.29744" lon="-2.23815">
        <ele>-3.5999999046326</ele>
        <time>2021-10-10T08:57:07.000Z</time>
      </trkpt>
      <trkpt lat="47.29747" lon="-2.23809">
        <ele>-3.5999999046326</ele>
        <time>2021-10-10T08:57:08.000Z</time>
      </trkpt>
      <trkpt lat="47.29766" lon="-2.23792">
        <ele>-3.5999999046326</ele>
        <time>2021-10-10T08:57:12.000Z</time>
      </trkpt>
      <trkpt lat="47.29786" lon="-2.23788">
        <ele>-3.5999999046326</ele>
        <time>2021-10-10T08:57:16.000Z</time>
      </trkpt>
      <trkpt lat="47.29811" lon="-2.23802">
        <ele>-3.5999999046326</ele>
        <time>2021-10-10T08:57:21.000Z</time>
      </trkpt>
      <trkpt lat="47.29835" lon="-2.2382">
        <ele>-3.5999999046326</ele>
        <time>2021-10-10T08:57:25.000Z</time>
      </trkpt>
      <trkpt lat="47.29847" lon="-2.23825">
        <ele>-3.5999999046326</ele>
        <time>2021-10-10T08:57:27.000Z</time>
      </trkpt>
      <trkpt lat="47.29872" lon="-2.23824">
        <ele>-3.5999999046326</ele>
        <time>2021-10-10T08:57:31.000Z</time>
      </trkpt>
      <trkpt lat="47.29902" lon="-2.23822">
        <ele>-3.5999999046326</ele>
        <time>2021-10-10T08:57:36.000Z</time>
      </trkpt>
      <trkpt lat="47.29937" lon="-2.23832">
        <ele>-3.5999999046326</ele>
        <time>2021-10-10T08:57:42.000Z</time>
      </trkpt>
      <trkpt lat="47.29957" lon="-2.2384">
        <ele>-3.5999999046326</ele>
        <time>2021-10-10T08:57:45.000Z</time>
      </trkpt>
      <trkpt lat="47.29963" lon="-2.23845">
        <ele>-3.5999999046326</ele>
        <time>2021-10-10T08:57:46.000Z</time>
      </trkpt>
      <trkpt lat="47.29986" lon="-2.23862">
        <ele>-3.5999999046326</ele>
        <time>2021-10-10T08:57:50.000Z</time>
      </trkpt>
      <trkpt lat="47.29993" lon="-2.23873">
        <ele>-3.5999999046326</ele>
        <time>2021-10-10T08:57:52.000Z</time>
      </trkpt>
      <trkpt lat="47.30009" lon="-2.23881">
        <ele>-3.5999999046326</ele>
        <time>2021-10-10T08:57:56.000Z</time>
      </trkpt>
      <trkpt lat="47.30017" lon="-2.23863">
        <ele>-3.5999999046326</ele>
        <time>2021-10-10T08:57:59.000Z</time>
      </trkpt>
      <trkpt lat="47.30036" lon="-2.23815">
        <ele>-3.5999999046326</ele>
        <time>2021-10-10T08:58:06.000Z</time>
      </trkpt>
      <trkpt lat="47.30059" lon="-2.23775">
        <ele>-3.5999999046326</ele>
        <time>2021-10-10T08:58:12.000Z</time>
      </trkpt>
      <trkpt lat="47.30064" lon="-2.23769">
        <ele>-3.5999999046326</ele>
        <time>2021-10-10T08:58:13.000Z</time>
      </trkpt>
      <trkpt lat="47.3008" lon="-2.23758">
        <ele>-3.5999999046326</ele>
        <time>2021-10-10T08:58:16.000Z</time>
      </trkpt>
      <trkpt lat="47.30109" lon="-2.23751">
        <ele>-3.5999999046326</ele>
        <time>2021-10-10T08:58:21.000Z</time>
      </trkpt>
      <trkpt lat="47.30139" lon="-2.23764">
        <ele>-3.5999999046326</ele>
        <time>2021-10-10T08:58:26.000Z</time>
      </trkpt>
      <trkpt lat="47.30149" lon="-2.23772">
        <ele>-3.5999999046326</ele>
        <time>2021-10-10T08:58:28.000Z</time>
      </trkpt>
      <trkpt lat="47.30159" lon="-2.23783">
        <ele>-3.5999999046326</ele>
        <time>2021-10-10T08:58:30.000Z</time>
      </trkpt>
      <trkpt lat="47.30168" lon="-2.23795">
        <ele>-3.5999999046326</ele>
        <time>2021-10-10T08:58:32.000Z</time>
      </trkpt>
      <trkpt lat="47.30193" lon="-2.23837">
        <ele>-3.5999999046326</ele>
        <time>2021-10-10T08:58:38.000Z</time>
      </trkpt>
      <trkpt lat="47.30206" lon="-2.23856">
        <ele>-3.5999999046326</ele>
        <time>2021-10-10T08:58:41.000Z</time>
      </trkpt>
      <trkpt lat="47.30216" lon="-2.23865">
        <ele>-3.5999999046326</ele>
        <time>2021-10-10T08:58:43.000Z</time>
      </trkpt>
      <trkpt lat="47.30221" lon="-2.23868">
        <ele>-3.5999999046326</ele>
        <time>2021-10-10T08:58:44.000Z</time>
      </trkpt>
      <trkpt lat="47.30238" lon="-2.23873">
        <ele>-3.5999999046326</ele>
        <time>2021-10-10T08:58:47.000Z</time>
      </trkpt>
      <trkpt lat="47.30262" lon="-2.23886">
        <ele>-3.5999999046326</ele>
        <time>2021-10-10T08:58:52.000Z</time>
      </trkpt>
      <trkpt lat="47.30263" lon="-2.23894">
        <ele>-3.5999999046326</ele>
        <time>2021-10-10T08:58:53.000Z</time>
      </trkpt>
      <trkpt lat="47.30264" lon="-2.23922">
        <ele>-3.5999999046326</ele>
        <time>2021-10-10T08:58:57.000Z</time>
      </trkpt>
      <trkpt lat="47.30264" lon="-2.23937">
        <ele>-3.5999999046326</ele>
        <time>2021-10-10T08:58:59.000Z</time>
      </trkpt>
      <trkpt lat="47.30269" lon="-2.23959">
        <ele>-3.5999999046326</ele>
        <time>2021-10-10T08:59:02.000Z</time>
      </trkpt>
      <trkpt lat="47.30274" lon="-2.23972">
        <ele>-3.5999999046326</ele>
        <time>2021-10-10T08:59:04.000Z</time>
      </trkpt>
      <trkpt lat="47.30275" lon="-2.23979">
        <ele>-3.5999999046326</ele>
        <time>2021-10-10T08:59:05.000Z</time>
      </trkpt>
      <trkpt lat="47.30278" lon="-2.23993">
        <ele>-3.5999999046326</ele>
        <time>2021-10-10T08:59:07.000Z</time>
      </trkpt>
      <trkpt lat="47.30281" lon="-2.24006">
        <ele>-3.2000000476837</ele>
        <time>2021-10-10T08:59:09.000Z</time>
      </trkpt>
      <trkpt lat="47.30281" lon="-2.24014">
        <ele>-2.7999999523163</ele>
        <time>2021-10-10T08:59:10.000Z</time>
      </trkpt>
      <trkpt lat="47.30282" lon="-2.2402">
        <ele>-2.4000000953674</ele>
        <time>2021-10-10T08:59:11.000Z</time>
      </trkpt>
      <trkpt lat="47.30284" lon="-2.24025">
        <ele>-2</ele>
        <time>2021-10-10T08:59:12.000Z</time>
      </trkpt>
      <trkpt lat="47.30284" lon="-2.24031">
        <ele>-1.6000000238419</ele>
        <time>2021-10-10T08:59:13.000Z</time>
      </trkpt>
      <trkpt lat="47.30285" lon="-2.24042">
        <ele>-1.2000000476837</ele>
        <time>2021-10-10T08:59:15.000Z</time>
      </trkpt>
      <trkpt lat="47.30285" lon="-2.24048">
        <ele>-0.80000001192093</ele>
        <time>2021-10-10T08:59:16.000Z</time>
      </trkpt>
      <trkpt lat="47.30285" lon="-2.24054">
        <ele>-0.40000000596046</ele>
        <time>2021-10-10T08:59:17.000Z</time>
      </trkpt>
      <trkpt lat="47.30283" lon="-2.24058">
        <ele>0.20000000298023</ele>
        <time>2021-10-10T08:59:18.000Z</time>
      </trkpt>
      <trkpt lat="47.3028" lon="-2.24061">
        <ele>0.60000002384186</ele>
        <time>2021-10-10T08:59:19.000Z</time>
      </trkpt>
      <trkpt lat="47.30277" lon="-2.24062">
        <ele>0.60000002384186</ele>
        <time>2021-10-10T08:59:20.000Z</time>
      </trkpt>
      <trkpt lat="47.30273" lon="-2.24063">
        <ele>0.60000002384186</ele>
        <time>2021-10-10T08:59:21.000Z</time>
      </trkpt>
      <trkpt lat="47.30255" lon="-2.24061">
        <ele>1</ele>
        <time>2021-10-10T08:59:25.000Z</time>
      </trkpt>
      <trkpt lat="47.3025" lon="-2.24061">
        <ele>1.3999999761581</ele>
        <time>2021-10-10T08:59:26.000Z</time>
      </trkpt>
      <trkpt lat="47.30245" lon="-2.24061">
        <ele>1.7999999523163</ele>
        <time>2021-10-10T08:59:27.000Z</time>
      </trkpt>
      <trkpt lat="47.3024" lon="-2.2406">
        <ele>2.2000000476837</ele>
        <time>2021-10-10T08:59:28.000Z</time>
      </trkpt>
      <trkpt lat="47.30235" lon="-2.24059">
        <ele>2.5999999046326</ele>
        <time>2021-10-10T08:59:29.000Z</time>
      </trkpt>
      <trkpt lat="47.30214" lon="-2.24059">
        <ele>2.5999999046326</ele>
        <time>2021-10-10T08:59:33.000Z</time>
      </trkpt>
      <trkpt lat="47.3019" lon="-2.24058">
        <ele>2.5999999046326</ele>
        <time>2021-10-10T08:59:38.000Z</time>
      </trkpt>
      <trkpt lat="47.30186" lon="-2.24059">
        <ele>2.5999999046326</ele>
        <time>2021-10-10T08:59:39.000Z</time>
      </trkpt>
      <trkpt lat="47.30156" lon="-2.24071">
        <ele>2.5999999046326</ele>
        <time>2021-10-10T08:59:45.000Z</time>
      </trkpt>
      <trkpt lat="47.30134" lon="-2.24082">
        <ele>3</ele>
        <time>2021-10-10T08:59:50.000Z</time>
      </trkpt>
      <trkpt lat="47.3013" lon="-2.24085">
        <ele>3.5999999046326</ele>
        <time>2021-10-10T08:59:51.000Z</time>
      </trkpt>
      <trkpt lat="47.30126" lon="-2.24087">
        <ele>4</ele>
        <time>2021-10-10T08:59:52.000Z</time>
      </trkpt>
      <trkpt lat="47.3012" lon="-2.2409">
        <ele>4.4000000953674</ele>
        <time>2021-10-10T08:59:53.000Z</time>
      </trkpt>
      <trkpt lat="47.30116" lon="-2.24093">
        <ele>4.8000001907349</ele>
        <time>2021-10-10T08:59:54.000Z</time>
      </trkpt>
      <trkpt lat="47.30109" lon="-2.24098">
        <ele>4.8000001907349</ele>
        <time>2021-10-10T08:59:56.000Z</time>
      </trkpt>
      <trkpt lat="47.3008" lon="-2.24112">
        <ele>4.8000001907349</ele>
        <time>2021-10-10T09:00:02.000Z</time>
      </trkpt>
      <trkpt lat="47.30076" lon="-2.24115">
        <ele>4.8000001907349</ele>
        <time>2021-10-10T09:00:03.000Z</time>
      </trkpt>
      <trkpt lat="47.30058" lon="-2.24125">
        <ele>4.8000001907349</ele>
        <time>2021-10-10T09:00:07.000Z</time>
      </trkpt>
      <trkpt lat="47.30041" lon="-2.24136">
        <ele>4.8000001907349</ele>
        <time>2021-10-10T09:00:12.000Z</time>
      </trkpt>
      <trkpt lat="47.30038" lon="-2.24138">
        <ele>4.1999998092651</ele>
        <time>2021-10-10T09:00:13.000Z</time>
      </trkpt>
      <trkpt lat="47.30035" lon="-2.2414">
        <ele>3.7999999523163</ele>
        <time>2021-10-10T09:00:14.000Z</time>
      </trkpt>
      <trkpt lat="47.30033" lon="-2.24141">
        <ele>3.2000000476837</ele>
        <time>2021-10-10T09:00:15.000Z</time>
      </trkpt>
      <trkpt lat="47.30031" lon="-2.24143">
        <ele>2.7999999523163</ele>
        <time>2021-10-10T09:00:16.000Z</time>
      </trkpt>
      <trkpt lat="47.3003" lon="-2.24145">
        <ele>2.2000000476837</ele>
        <time>2021-10-10T09:00:17.000Z</time>
      </trkpt>
      <trkpt lat="47.3003" lon="-2.24147">
        <ele>2.2000000476837</ele>
        <time>2021-10-10T09:00:18.000Z</time>
      </trkpt>
      <trkpt lat="47.30032" lon="-2.24152">
        <ele>2.2000000476837</ele>
        <time>2021-10-10T09:00:21.000Z</time>
      </trkpt>
      <trkpt lat="47.30034" lon="-2.24171">
        <ele>2.2000000476837</ele>
        <time>2021-10-10T09:00:26.000Z</time>
      </trkpt>
      <trkpt lat="47.30033" lon="-2.24192">
        <ele>2.5999999046326</ele>
        <time>2021-10-10T09:00:30.000Z</time>
      </trkpt>
      <trkpt lat="47.30033" lon="-2.24196">
        <ele>3</ele>
        <time>2021-10-10T09:00:31.000Z</time>
      </trkpt>
      <trkpt lat="47.30032" lon="-2.24199">
        <ele>3.4000000953674</ele>
        <time>2021-10-10T09:00:32.000Z</time>
      </trkpt>
      <trkpt lat="47.30032" lon="-2.24204">
        <ele>3.7999999523163</ele>
        <time>2021-10-10T09:00:33.000Z</time>
      </trkpt>
      <trkpt lat="47.30031" lon="-2.24208">
        <ele>4.1999998092651</ele>
        <time>2021-10-10T09:00:34.000Z</time>
      </trkpt>
      <trkpt lat="47.30031" lon="-2.24217">
        <ele>4.1999998092651</ele>
        <time>2021-10-10T09:00:36.000Z</time>
      </trkpt>
      <trkpt lat="47.30029" lon="-2.24233">
        <ele>4.8000001907349</ele>
        <time>2021-10-10T09:00:39.000Z</time>
      </trkpt>
      <trkpt lat="47.30031" lon="-2.24237">
        <ele>5.1999998092651</ele>
        <time>2021-10-10T09:00:40.000Z</time>
      </trkpt>
      <trkpt lat="47.30031" lon="-2.24241">
        <ele>5.5999999046326</ele>
        <time>2021-10-10T09:00:41.000Z</time>
      </trkpt>
      <trkpt lat="47.30032" lon="-2.24245">
        <ele>6</ele>
        <time>2021-10-10T09:00:42.000Z</time>
      </trkpt>
      <trkpt lat="47.30032" lon="-2.2425">
        <ele>6.4000000953674</ele>
        <time>2021-10-10T09:00:43.000Z</time>
      </trkpt>
      <trkpt lat="47.30032" lon="-2.24254">
        <ele>6.4000000953674</ele>
        <time>2021-10-10T09:00:44.000Z</time>
      </trkpt>
      <trkpt lat="47.30032" lon="-2.24259">
        <ele>7</ele>
        <time>2021-10-10T09:00:45.000Z</time>
      </trkpt>
      <trkpt lat="47.30031" lon="-2.24263">
        <ele>7.4000000953674</ele>
        <time>2021-10-10T09:00:46.000Z</time>
      </trkpt>
      <trkpt lat="47.30031" lon="-2.24266">
        <ele>7.8000001907349</ele>
        <time>2021-10-10T09:00:47.000Z</time>
      </trkpt>
      <trkpt lat="47.30029" lon="-2.24269">
        <ele>8.3999996185303</ele>
        <time>2021-10-10T09:00:48.000Z</time>
      </trkpt>
      <trkpt lat="47.30027" lon="-2.24272">
        <ele>8.8000001907349</ele>
        <time>2021-10-10T09:00:49.000Z</time>
      </trkpt>
      <trkpt lat="47.3002" lon="-2.24288">
        <ele>8.8000001907349</ele>
        <time>2021-10-10T09:00:52.000Z</time>
      </trkpt>
      <trkpt lat="47.30012" lon="-2.24314">
        <ele>8.8000001907349</ele>
        <time>2021-10-10T09:00:57.000Z</time>
      </trkpt>
      <trkpt lat="47.3001" lon="-2.24319">
        <ele>8.8000001907349</ele>
        <time>2021-10-10T09:00:58.000Z</time>
      </trkpt>
      <trkpt lat="47.30002" lon="-2.24346">
        <ele>8.8000001907349</ele>
        <time>2021-10-10T09:01:03.000Z</time>
      </trkpt>
      <trkpt lat="47.29997" lon="-2.24362">
        <ele>8.8000001907349</ele>
        <time>2021-10-10T09:01:07.000Z</time>
      </trkpt>
      <trkpt lat="47.29995" lon="-2.24362">
        <ele>8.8000001907349</ele>
        <time>2021-10-10T09:01:08.000Z</time>
      </trkpt>
      <trkpt lat="47.29994" lon="-2.24362">
        <ele>8.8000001907349</ele>
        <time>2021-10-10T09:01:10.000Z</time>
      </trkpt>
      <trkpt lat="47.29994" lon="-2.24362">
        <ele>8.8000001907349</ele>
        <time>2021-10-10T09:01:16.000Z</time>
      </trkpt>
      <trkpt lat="47.29992" lon="-2.24361">
        <ele>8.8000001907349</ele>
        <time>2021-10-10T09:01:21.000Z</time>
      </trkpt>
      <trkpt lat="47.29989" lon="-2.24358">
        <ele>8.8000001907349</ele>
        <time>2021-10-10T09:01:23.000Z</time>
      </trkpt>
      <trkpt lat="47.29984" lon="-2.24353">
        <ele>8.8000001907349</ele>
        <time>2021-10-10T09:01:25.000Z</time>
      </trkpt>
      <trkpt lat="47.29977" lon="-2.24346">
        <ele>8.8000001907349</ele>
        <time>2021-10-10T09:01:27.000Z</time>
      </trkpt>
      <trkpt lat="47.29964" lon="-2.2433">
        <ele>8.8000001907349</ele>
        <time>2021-10-10T09:01:31.000Z</time>
      </trkpt>
      <trkpt lat="47.29955" lon="-2.24324">
        <ele>8.8000001907349</ele>
        <time>2021-10-10T09:01:33.000Z</time>
      </trkpt>
      <trkpt lat="47.29939" lon="-2.24309">
        <ele>8.8000001907349</ele>
        <time>2021-10-10T09:01:37.000Z</time>
      </trkpt>
      <trkpt lat="47.29933" lon="-2.24298">
        <ele>8.8000001907349</ele>
        <time>2021-10-10T09:01:39.000Z</time>
      </trkpt>
      <trkpt lat="47.29915" lon="-2.24284">
        <ele>8.8000001907349</ele>
        <time>2021-10-10T09:01:43.000Z</time>
      </trkpt>
      <trkpt lat="47.2989" lon="-2.24264">
        <ele>8.8000001907349</ele>
        <time>2021-10-10T09:01:49.000Z</time>
      </trkpt>
      <trkpt lat="47.29876" lon="-2.24255">
        <ele>8.8000001907349</ele>
        <time>2021-10-10T09:01:52.000Z</time>
      </trkpt>
      <trkpt lat="47.29857" lon="-2.24244">
        <ele>8.8000001907349</ele>
        <time>2021-10-10T09:01:56.000Z</time>
      </trkpt>
      <trkpt lat="47.29812" lon="-2.24221">
        <ele>8.8000001907349</ele>
        <time>2021-10-10T09:02:05.000Z</time>
      </trkpt>
      <trkpt lat="47.29802" lon="-2.24216">
        <ele>8.8000001907349</ele>
        <time>2021-10-10T09:02:07.000Z</time>
      </trkpt>
      <trkpt lat="47.29789" lon="-2.24219">
        <ele>8.8000001907349</ele>
        <time>2021-10-10T09:02:09.000Z</time>
      </trkpt>
      <trkpt lat="47.29777" lon="-2.24225">
        <ele>8.8000001907349</ele>
        <time>2021-10-10T09:02:11.000Z</time>
      </trkpt>
      <trkpt lat="47.29759" lon="-2.24237">
        <ele>8.3999996185303</ele>
        <time>2021-10-10T09:02:14.000Z</time>
      </trkpt>
      <trkpt lat="47.29752" lon="-2.24241">
        <ele>8</ele>
        <time>2021-10-10T09:02:15.000Z</time>
      </trkpt>
      <trkpt lat="47.29745" lon="-2.24245">
        <ele>7.5999999046326</ele>
        <time>2021-10-10T09:02:16.000Z</time>
      </trkpt>
      <trkpt lat="47.29737" lon="-2.24249">
        <ele>7</ele>
        <time>2021-10-10T09:02:17.000Z</time>
      </trkpt>
      <trkpt lat="47.2973" lon="-2.24253">
        <ele>6.5999999046326</ele>
        <time>2021-10-10T09:02:18.000Z</time>
      </trkpt>
      <trkpt lat="47.29715" lon="-2.24262">
        <ele>6.5999999046326</ele>
        <time>2021-10-10T09:02:20.000Z</time>
      </trkpt>
      <trkpt lat="47.297" lon="-2.2427">
        <ele>6.1999998092651</ele>
        <time>2021-10-10T09:02:22.000Z</time>
      </trkpt>
      <trkpt lat="47.29693" lon="-2.24274">
        <ele>5.8000001907349</ele>
        <time>2021-10-10T09:02:23.000Z</time>
      </trkpt>
      <trkpt lat="47.29685" lon="-2.24278">
        <ele>5.4000000953674</ele>
        <time>2021-10-10T09:02:24.000Z</time>
      </trkpt>
      <trkpt lat="47.29677" lon="-2.24282">
        <ele>4.8000001907349</ele>
        <time>2021-10-10T09:02:25.000Z</time>
      </trkpt>
      <trkpt lat="47.2967" lon="-2.24286">
        <ele>4.4000000953674</ele>
        <time>2021-10-10T09:02:26.000Z</time>
      </trkpt>
      <trkpt lat="47.29663" lon="-2.2429">
        <ele>4.4000000953674</ele>
        <time>2021-10-10T09:02:27.000Z</time>
      </trkpt>
      <trkpt lat="47.29648" lon="-2.24297">
        <ele>4</ele>
        <time>2021-10-10T09:02:29.000Z</time>
      </trkpt>
      <trkpt lat="47.29641" lon="-2.24301">
        <ele>3.5999999046326</ele>
        <time>2021-10-10T09:02:30.000Z</time>
      </trkpt>
      <trkpt lat="47.29633" lon="-2.24306">
        <ele>2.5999999046326</ele>
        <time>2021-10-10T09:02:31.000Z</time>
      </trkpt>
      <trkpt lat="47.29625" lon="-2.24309">
        <ele>2.2000000476837</ele>
        <time>2021-10-10T09:02:32.000Z</time>
      </trkpt>
      <trkpt lat="47.29618" lon="-2.24313">
        <ele>2.2000000476837</ele>
        <time>2021-10-10T09:02:33.000Z</time>
      </trkpt>
      <trkpt lat="47.29611" lon="-2.24314">
        <ele>2.2000000476837</ele>
        <time>2021-10-10T09:02:34.000Z</time>
      </trkpt>
      <trkpt lat="47.29582" lon="-2.24318">
        <ele>2.2000000476837</ele>
        <time>2021-10-10T09:02:38.000Z</time>
      </trkpt>
      <trkpt lat="47.29575" lon="-2.24316">
        <ele>2.2000000476837</ele>
        <time>2021-10-10T09:02:39.000Z</time>
      </trkpt>
      <trkpt lat="47.29562" lon="-2.24307">
        <ele>1.7999999523163</ele>
        <time>2021-10-10T09:02:41.000Z</time>
      </trkpt>
      <trkpt lat="47.29555" lon="-2.243">
        <ele>1.3999999761581</ele>
        <time>2021-10-10T09:02:42.000Z</time>
      </trkpt>
      <trkpt lat="47.29548" lon="-2.24293">
        <ele>0.80000001192093</ele>
        <time>2021-10-10T09:02:43.000Z</time>
      </trkpt>
      <trkpt lat="47.29541" lon="-2.24289">
        <ele>0.40000000596046</ele>
        <time>2021-10-10T09:02:44.000Z</time>
      </trkpt>
      <trkpt lat="47.29533" lon="-2.24288">
        <ele>5.2</ele>
        <time>2021-10-10T09:02:45.000Z</time>
      </trkpt>
      <trkpt lat="47.29509" lon="-2.24293">
        <ele>6.5</ele>
        <time>2021-10-10T09:02:48.000Z</time>
      </trkpt>
      <trkpt lat="47.29489" lon="-2.24302">
        <ele>7.4</ele>
        <time>2021-10-10T09:02:51.000Z</time>
      </trkpt>
      <trkpt lat="47.29483" lon="-2.24304">
        <ele>7.6</ele>
        <time>2021-10-10T09:02:52.000Z</time>
      </trkpt>
      <trkpt lat="47.29438" lon="-2.24322">
        <ele>0.40000000596046</ele>
        <time>2021-10-10T09:03:00.000Z</time>
      </trkpt>
      <trkpt lat="47.29432" lon="-2.24324">
        <ele>0.80000001192093</ele>
        <time>2021-10-10T09:03:01.000Z</time>
      </trkpt>
      <trkpt lat="47.29426" lon="-2.24328">
        <ele>1.3999999761581</ele>
        <time>2021-10-10T09:03:02.000Z</time>
      </trkpt>
      <trkpt lat="47.29421" lon="-2.24332">
        <ele>1.7999999523163</ele>
        <time>2021-10-10T09:03:03.000Z</time>
      </trkpt>
      <trkpt lat="47.29416" lon="-2.24337">
        <ele>2.2000000476837</ele>
        <time>2021-10-10T09:03:04.000Z</time>
      </trkpt>
      <trkpt lat="47.29411" lon="-2.24341">
        <ele>2.2000000476837</ele>
        <time>2021-10-10T09:03:05.000Z</time>
      </trkpt>
      <trkpt lat="47.29382" lon="-2.24372">
        <ele>2.2000000476837</ele>
        <time>2021-10-10T09:03:11.000Z</time>
      </trkpt>
      <trkpt lat="47.29352" lon="-2.24403">
        <ele>2.2000000476837</ele>
        <time>2021-10-10T09:03:17.000Z</time>
      </trkpt>
      <trkpt lat="47.29334" lon="-2.24424">
        <ele>2.2000000476837</ele>
        <time>2021-10-10T09:03:21.000Z</time>
      </trkpt>
      <trkpt lat="47.2933" lon="-2.24428">
        <ele>2.2000000476837</ele>
        <time>2021-10-10T09:03:22.000Z</time>
      </trkpt>
      <trkpt lat="47.2932" lon="-2.24437">
        <ele>2.2000000476837</ele>
        <time>2021-10-10T09:03:24.000Z</time>
      </trkpt>
      <trkpt lat="47.29307" lon="-2.2445">
        <ele>2.2000000476837</ele>
        <time>2021-10-10T09:03:27.000Z</time>
      </trkpt>
      <trkpt lat="47.29295" lon="-2.24462">
        <ele>2.5999999046326</ele>
        <time>2021-10-10T09:03:30.000Z</time>
      </trkpt>
      <trkpt lat="47.29293" lon="-2.2447">
        <ele>3</ele>
        <time>2021-10-10T09:03:31.000Z</time>
      </trkpt>
      <trkpt lat="47.29292" lon="-2.24477">
        <ele>3.4000000953674</ele>
        <time>2021-10-10T09:03:32.000Z</time>
      </trkpt>
      <trkpt lat="47.29291" lon="-2.24484">
        <ele>3.7999999523163</ele>
        <time>2021-10-10T09:03:33.000Z</time>
      </trkpt>
      <trkpt lat="47.29291" lon="-2.2449">
        <ele>4.4000000953674</ele>
        <time>2021-10-10T09:03:34.000Z</time>
      </trkpt>
      <trkpt lat="47.29292" lon="-2.24498">
        <ele>4.4000000953674</ele>
        <time>2021-10-10T09:03:35.000Z</time>
      </trkpt>
      <trkpt lat="47.29293" lon="-2.24513">
        <ele>4.4000000953674</ele>
        <time>2021-10-10T09:03:37.000Z</time>
      </trkpt>
      <trkpt lat="47.29294" lon="-2.24529">
        <ele>4.4000000953674</ele>
        <time>2021-10-10T09:03:39.000Z</time>
      </trkpt>
      <trkpt lat="47.29296" lon="-2.24558">
        <ele>4.4000000953674</ele>
        <time>2021-10-10T09:03:42.000Z</time>
      </trkpt>
      <trkpt lat="47.29301" lon="-2.24605">
        <ele>4.4000000953674</ele>
        <time>2021-10-10T09:03:47.000Z</time>
      </trkpt>
      <trkpt lat="47.293" lon="-2.24623">
        <ele>4.4000000953674</ele>
        <time>2021-10-10T09:03:49.000Z</time>
      </trkpt>
      <trkpt lat="47.29299" lon="-2.24631">
        <ele>4.4000000953674</ele>
        <time>2021-10-10T09:03:50.000Z</time>
      </trkpt>
      <trkpt lat="47.29298" lon="-2.24654">
        <ele>4.4000000953674</ele>
        <time>2021-10-10T09:03:53.000Z</time>
      </trkpt>
      <trkpt lat="47.29298" lon="-2.24677">
        <ele>4.4000000953674</ele>
        <time>2021-10-10T09:03:56.000Z</time>
      </trkpt>
      <trkpt lat="47.29301" lon="-2.2469">
        <ele>4.4000000953674</ele>
        <time>2021-10-10T09:03:58.000Z</time>
      </trkpt>
      <trkpt lat="47.29304" lon="-2.24702">
        <ele>4.4000000953674</ele>
        <time>2021-10-10T09:04:00.000Z</time>
      </trkpt>
      <trkpt lat="47.29311" lon="-2.2473">
        <ele>4.8000001907349</ele>
        <time>2021-10-10T09:04:04.000Z</time>
      </trkpt>
      <trkpt lat="47.29312" lon="-2.24737">
        <ele>5.1999998092651</ele>
        <time>2021-10-10T09:04:05.000Z</time>
      </trkpt>
      <trkpt lat="47.29313" lon="-2.24743">
        <ele>5.5999999046326</ele>
        <time>2021-10-10T09:04:06.000Z</time>
      </trkpt>
      <trkpt lat="47.29315" lon="-2.24749">
        <ele>6</ele>
        <time>2021-10-10T09:04:07.000Z</time>
      </trkpt>
      <trkpt lat="47.29317" lon="-2.24755">
        <ele>6.4000000953674</ele>
        <time>2021-10-10T09:04:08.000Z</time>
      </trkpt>
      <trkpt lat="47.29325" lon="-2.24772">
        <ele>6.4000000953674</ele>
        <time>2021-10-10T09:04:11.000Z</time>
      </trkpt>
      <trkpt lat="47.29326" lon="-2.24778">
        <ele>6.4000000953674</ele>
        <time>2021-10-10T09:04:12.000Z</time>
      </trkpt>
      <trkpt lat="47.29334" lon="-2.24823">
        <ele>6.4000000953674</ele>
        <time>2021-10-10T09:04:19.000Z</time>
      </trkpt>
      <trkpt lat="47.29337" lon="-2.24865">
        <ele>6.4000000953674</ele>
        <time>2021-10-10T09:04:25.000Z</time>
      </trkpt>
      <trkpt lat="47.29336" lon="-2.24901">
        <ele>6.4000000953674</ele>
        <time>2021-10-10T09:04:30.000Z</time>
      </trkpt>
      <trkpt lat="47.29322" lon="-2.24916">
        <ele>6.4000000953674</ele>
        <time>2021-10-10T09:04:34.000Z</time>
      </trkpt>
      <trkpt lat="47.29312" lon="-2.24916">
        <ele>6.4000000953674</ele>
        <time>2021-10-10T09:04:36.000Z</time>
      </trkpt>
      <trkpt lat="47.29297" lon="-2.24917">
        <ele>6.8000001907349</ele>
        <time>2021-10-10T09:04:39.000Z</time>
      </trkpt>
      <trkpt lat="47.29292" lon="-2.24918">
        <ele>7.1999998092651</ele>
        <time>2021-10-10T09:04:40.000Z</time>
      </trkpt>
      <trkpt lat="47.29287" lon="-2.24918">
        <ele>7.5999999046326</ele>
        <time>2021-10-10T09:04:41.000Z</time>
      </trkpt>
      <trkpt lat="47.29282" lon="-2.24918">
        <ele>8</ele>
        <time>2021-10-10T09:04:42.000Z</time>
      </trkpt>
      <trkpt lat="47.29278" lon="-2.24918">
        <ele>8.3999996185303</ele>
        <time>2021-10-10T09:04:43.000Z</time>
      </trkpt>
      <trkpt lat="47.29273" lon="-2.24918">
        <ele>8.3999996185303</ele>
        <time>2021-10-10T09:04:44.000Z</time>
      </trkpt>
      <trkpt lat="47.29265" lon="-2.2492">
        <ele>8.3999996185303</ele>
        <time>2021-10-10T09:04:46.000Z</time>
      </trkpt>
      <trkpt lat="47.29258" lon="-2.24936">
        <ele>8.3999996185303</ele>
        <time>2021-10-10T09:04:49.000Z</time>
      </trkpt>
      <trkpt lat="47.29261" lon="-2.24965">
        <ele>8.3999996185303</ele>
        <time>2021-10-10T09:04:53.000Z</time>
      </trkpt>
      <trkpt lat="47.29271" lon="-2.25013">
        <ele>8.3999996185303</ele>
        <time>2021-10-10T09:04:59.000Z</time>
      </trkpt>
      <trkpt lat="47.29289" lon="-2.25078">
        <ele>8.3999996185303</ele>
        <time>2021-10-10T09:05:07.000Z</time>
      </trkpt>
      <trkpt lat="47.29299" lon="-2.25132">
        <ele>8.3999996185303</ele>
        <time>2021-10-10T09:05:13.000Z</time>
      </trkpt>
      <trkpt lat="47.29301" lon="-2.25142">
        <ele>8</ele>
        <time>2021-10-10T09:05:14.000Z</time>
      </trkpt>
      <trkpt lat="47.29302" lon="-2.25151">
        <ele>7.5999999046326</ele>
        <time>2021-10-10T09:05:15.000Z</time>
      </trkpt>
      <trkpt lat="47.29304" lon="-2.2516">
        <ele>7.1999998092651</ele>
        <time>2021-10-10T09:05:16.000Z</time>
      </trkpt>
      <trkpt lat="47.29305" lon="-2.2517">
        <ele>6.8000001907349</ele>
        <time>2021-10-10T09:05:17.000Z</time>
      </trkpt>
      <trkpt lat="47.29307" lon="-2.25179">
        <ele>6.4000000953674</ele>
        <time>2021-10-10T09:05:18.000Z</time>
      </trkpt>
      <trkpt lat="47.29309" lon="-2.25187">
        <ele>6.4000000953674</ele>
        <time>2021-10-10T09:05:19.000Z</time>
      </trkpt>
      <trkpt lat="47.2932" lon="-2.25198">
        <ele>6.4000000953674</ele>
        <time>2021-10-10T09:05:22.000Z</time>
      </trkpt>
      <trkpt lat="47.29334" lon="-2.25198">
        <ele>6.4000000953674</ele>
        <time>2021-10-10T09:05:25.000Z</time>
      </trkpt>
      <trkpt lat="47.29345" lon="-2.25199">
        <ele>6.4000000953674</ele>
        <time>2021-10-10T09:05:27.000Z</time>
      </trkpt>
      <trkpt lat="47.29391" lon="-2.25211">
        <ele>6.4000000953674</ele>
        <time>2021-10-10T09:05:35.000Z</time>
      </trkpt>
      <trkpt lat="47.29417" lon="-2.25215">
        <ele>6.4000000953674</ele>
        <time>2021-10-10T09:05:39.000Z</time>
      </trkpt>
      <trkpt lat="47.29423" lon="-2.25213">
        <ele>6.4000000953674</ele>
        <time>2021-10-10T09:05:40.000Z</time>
      </trkpt>
      <trkpt lat="47.29457" lon="-2.25203">
        <ele>6.4000000953674</ele>
        <time>2021-10-10T09:05:46.000Z</time>
      </trkpt>
      <trkpt lat="47.29494" lon="-2.25191">
        <ele>6.4000000953674</ele>
        <time>2021-10-10T09:05:53.000Z</time>
      </trkpt>
      <trkpt lat="47.29528" lon="-2.25179">
        <ele>6.4000000953674</ele>
        <time>2021-10-10T09:06:00.000Z</time>
      </trkpt>
      <trkpt lat="47.29544" lon="-2.25178">
        <ele>6.8000001907349</ele>
        <time>2021-10-10T09:06:04.000Z</time>
      </trkpt>
      <trkpt lat="47.29546" lon="-2.2518">
        <ele>7.1999998092651</ele>
        <time>2021-10-10T09:06:05.000Z</time>
      </trkpt>
      <trkpt lat="47.29548" lon="-2.25184">
        <ele>7.5999999046326</ele>
        <time>2021-10-10T09:06:06.000Z</time>
      </trkpt>
      <trkpt lat="47.2955" lon="-2.25189">
        <ele>8</ele>
        <time>2021-10-10T09:06:07.000Z</time>
      </trkpt>
      <trkpt lat="47.2955" lon="-2.25195">
        <ele>8.3999996185303</ele>
        <time>2021-10-10T09:06:08.000Z</time>
      </trkpt>
      <trkpt lat="47.29547" lon="-2.25216">
        <ele>8.3999996185303</ele>
        <time>2021-10-10T09:06:11.000Z</time>
      </trkpt>
      <trkpt lat="47.29542" lon="-2.2525">
        <ele>8.3999996185303</ele>
        <time>2021-10-10T09:06:16.000Z</time>
      </trkpt>
      <trkpt lat="47.29541" lon="-2.25264">
        <ele>8.3999996185303</ele>
        <time>2021-10-10T09:06:18.000Z</time>
      </trkpt>
      <trkpt lat="47.29542" lon="-2.25279">
        <ele>8.3999996185303</ele>
        <time>2021-10-10T09:06:20.000Z</time>
      </trkpt>
      <trkpt lat="47.29547" lon="-2.25301">
        <ele>8.3999996185303</ele>
        <time>2021-10-10T09:06:23.000Z</time>
      </trkpt>
      <trkpt lat="47.29554" lon="-2.2532">
        <ele>8.3999996185303</ele>
        <time>2021-10-10T09:06:26.000Z</time>
      </trkpt>
      <trkpt lat="47.29561" lon="-2.25337">
        <ele>8.3999996185303</ele>
        <time>2021-10-10T09:06:29.000Z</time>
      </trkpt>
      <trkpt lat="47.29572" lon="-2.25364">
        <ele>8.8000001907349</ele>
        <time>2021-10-10T09:06:34.000Z</time>
      </trkpt>
      <trkpt lat="47.29575" lon="-2.25369">
        <ele>9.1999998092651</ele>
        <time>2021-10-10T09:06:35.000Z</time>
      </trkpt>
      <trkpt lat="47.29577" lon="-2.25375">
        <ele>9.6000003814697</ele>
        <time>2021-10-10T09:06:36.000Z</time>
      </trkpt>
      <trkpt lat="47.29578" lon="-2.25382">
        <ele>10.39999961853</ele>
        <time>2021-10-10T09:06:37.000Z</time>
      </trkpt>
      <trkpt lat="47.29584" lon="-2.25414">
        <ele>10.39999961853</ele>
        <time>2021-10-10T09:06:42.000Z</time>
      </trkpt>
      <trkpt lat="47.29585" lon="-2.25426">
        <ele>10.39999961853</ele>
        <time>2021-10-10T09:06:44.000Z</time>
      </trkpt>
      <trkpt lat="47.29588" lon="-2.25458">
        <ele>10.39999961853</ele>
        <time>2021-10-10T09:06:49.000Z</time>
      </trkpt>
      <trkpt lat="47.29588" lon="-2.25465">
        <ele>10.800000190735</ele>
        <time>2021-10-10T09:06:50.000Z</time>
      </trkpt>
      <trkpt lat="47.29589" lon="-2.25472">
        <ele>11.39999961853</ele>
        <time>2021-10-10T09:06:51.000Z</time>
      </trkpt>
      <trkpt lat="47.29589" lon="-2.25478">
        <ele>11.800000190735</ele>
        <time>2021-10-10T09:06:52.000Z</time>
      </trkpt>
      <trkpt lat="47.29589" lon="-2.25485">
        <ele>12.199999809265</ele>
        <time>2021-10-10T09:06:53.000Z</time>
      </trkpt>
      <trkpt lat="47.29589" lon="-2.25491">
        <ele>12.60000038147</ele>
        <time>2021-10-10T09:06:54.000Z</time>
      </trkpt>
      <trkpt lat="47.29588" lon="-2.25505">
        <ele>12.60000038147</ele>
        <time>2021-10-10T09:06:56.000Z</time>
      </trkpt>
      <trkpt lat="47.29586" lon="-2.25511">
        <ele>12.60000038147</ele>
        <time>2021-10-10T09:06:57.000Z</time>
      </trkpt>
      <trkpt lat="47.29572" lon="-2.25539">
        <ele>12.60000038147</ele>
        <time>2021-10-10T09:07:02.000Z</time>
      </trkpt>
      <trkpt lat="47.29559" lon="-2.2555">
        <ele>12.60000038147</ele>
        <time>2021-10-10T09:07:05.000Z</time>
      </trkpt>
      <trkpt lat="47.2955" lon="-2.25556">
        <ele>12.60000038147</ele>
        <time>2021-10-10T09:07:07.000Z</time>
      </trkpt>
      <trkpt lat="47.29524" lon="-2.25571">
        <ele>13</ele>
        <time>2021-10-10T09:07:12.000Z</time>
      </trkpt>
      <trkpt lat="47.29519" lon="-2.25575">
        <ele>13.39999961853</ele>
        <time>2021-10-10T09:07:13.000Z</time>
      </trkpt>
      <trkpt lat="47.29514" lon="-2.25579">
        <ele>13.800000190735</ele>
        <time>2021-10-10T09:07:14.000Z</time>
      </trkpt>
      <trkpt lat="47.29509" lon="-2.25583">
        <ele>14.199999809265</ele>
        <time>2021-10-10T09:07:15.000Z</time>
      </trkpt>
      <trkpt lat="47.29505" lon="-2.25586">
        <ele>14.60000038147</ele>
        <time>2021-10-10T09:07:16.000Z</time>
      </trkpt>
      <trkpt lat="47.29494" lon="-2.25592">
        <ele>14.60000038147</ele>
        <time>2021-10-10T09:07:18.000Z</time>
      </trkpt>
      <trkpt lat="47.29484" lon="-2.25597">
        <ele>14.60000038147</ele>
        <time>2021-10-10T09:07:20.000Z</time>
      </trkpt>
      <trkpt lat="47.2945" lon="-2.25612">
        <ele>15.60000038147</ele>
        <time>2021-10-10T09:07:27.000Z</time>
      </trkpt>
      <trkpt lat="47.29445" lon="-2.25615">
        <ele>16</ele>
        <time>2021-10-10T09:07:28.000Z</time>
      </trkpt>
      <trkpt lat="47.2944" lon="-2.25617">
        <ele>16.39999961853</ele>
        <time>2021-10-10T09:07:29.000Z</time>
      </trkpt>
      <trkpt lat="47.29435" lon="-2.25619">
        <ele>16.799999237061</ele>
        <time>2021-10-10T09:07:30.000Z</time>
      </trkpt>
      <trkpt lat="47.29404" lon="-2.25632">
        <ele>16.799999237061</ele>
        <time>2021-10-10T09:07:37.000Z</time>
      </trkpt>
      <trkpt lat="47.294" lon="-2.25635">
        <ele>16.799999237061</ele>
        <time>2021-10-10T09:07:38.000Z</time>
      </trkpt>
      <trkpt lat="47.29393" lon="-2.25646">
        <ele>16.799999237061</ele>
        <time>2021-10-10T09:07:41.000Z</time>
      </trkpt>
      <trkpt lat="47.29394" lon="-2.25654">
        <ele>16.799999237061</ele>
        <time>2021-10-10T09:07:44.000Z</time>
      </trkpt>
      <trkpt lat="47.29399" lon="-2.2566">
        <ele>16.799999237061</ele>
        <time>2021-10-10T09:07:48.000Z</time>
      </trkpt>
      <trkpt lat="47.29414" lon="-2.25674">
        <ele>16.799999237061</ele>
        <time>2021-10-10T09:07:52.000Z</time>
      </trkpt>
      <trkpt lat="47.29431" lon="-2.25707">
        <ele>16.799999237061</ele>
        <time>2021-10-10T09:07:57.000Z</time>
      </trkpt>
      <trkpt lat="47.29437" lon="-2.25726">
        <ele>16.200000762939</ele>
        <time>2021-10-10T09:07:59.000Z</time>
      </trkpt>
      <trkpt lat="47.2944" lon="-2.25736">
        <ele>15.800000190735</ele>
        <time>2021-10-10T09:08:00.000Z</time>
      </trkpt>
      <trkpt lat="47.29443" lon="-2.25746">
        <ele>15.39999961853</ele>
        <time>2021-10-10T09:08:01.000Z</time>
      </trkpt>
      <trkpt lat="47.29445" lon="-2.25755">
        <ele>14.800000190735</ele>
        <time>2021-10-10T09:08:02.000Z</time>
      </trkpt>
      <trkpt lat="47.29448" lon="-2.25765">
        <ele>14.199999809265</ele>
        <time>2021-10-10T09:08:03.000Z</time>
      </trkpt>
      <trkpt lat="47.2945" lon="-2.25774">
        <ele>13.60000038147</ele>
        <time>2021-10-10T09:08:04.000Z</time>
      </trkpt>
      <trkpt lat="47.29452" lon="-2.25782">
        <ele>13</ele>
        <time>2021-10-10T09:08:05.000Z</time>
      </trkpt>
      <trkpt lat="47.29455" lon="-2.25789">
        <ele>12.199999809265</ele>
        <time>2021-10-10T09:08:06.000Z</time>
      </trkpt>
      <trkpt lat="47.29457" lon="-2.25795">
        <ele>11.60000038147</ele>
        <time>2021-10-10T09:08:07.000Z</time>
      </trkpt>
      <trkpt lat="47.29459" lon="-2.25799">
        <ele>11.199999809265</ele>
        <time>2021-10-10T09:08:08.000Z</time>
      </trkpt>
      <trkpt lat="47.29461" lon="-2.25802">
        <ele>10.60000038147</ele>
        <time>2021-10-10T09:08:09.000Z</time>
      </trkpt>
      <trkpt lat="47.29462" lon="-2.25804">
        <ele>10</ele>
        <time>2021-10-10T09:08:10.000Z</time>
      </trkpt>
      <trkpt lat="47.29462" lon="-2.25806">
        <ele>9.3999996185303</ele>
        <time>2021-10-10T09:08:11.000Z</time>
      </trkpt>
      <trkpt lat="47.29462" lon="-2.25807">
        <ele>8.8000001907349</ele>
        <time>2021-10-10T09:08:12.000Z</time>
      </trkpt>
      <trkpt lat="47.29462" lon="-2.25808">
        <ele>8.3999996185303</ele>
        <time>2021-10-10T09:08:13.000Z</time>
      </trkpt>
      <trkpt lat="47.29461" lon="-2.25808">
        <ele>7.8000001907349</ele>
        <time>2021-10-10T09:08:14.000Z</time>
      </trkpt>
      <trkpt lat="47.2946" lon="-2.25808">
        <ele>7.1999998092651</ele>
        <time>2021-10-10T09:08:15.000Z</time>
      </trkpt>
      <trkpt lat="47.29458" lon="-2.25804">
        <ele>7.1999998092651</ele>
        <time>2021-10-10T09:08:19.000Z</time>
      </trkpt>
      <trkpt lat="47.29454" lon="-2.25793">
        <ele>7.1999998092651</ele>
        <time>2021-10-10T09:08:24.000Z</time>
      </trkpt>
      <trkpt lat="47.29446" lon="-2.25791">
        <ele>7.1999998092651</ele>
        <time>2021-10-10T09:08:28.000Z</time>
      </trkpt>
      <trkpt lat="47.29444" lon="-2.25791">
        <ele>7.1999998092651</ele>
        <time>2021-10-10T09:08:29.000Z</time>
      </trkpt>
      <trkpt lat="47.29435" lon="-2.25789">
        <ele>7.5999999046326</ele>
        <time>2021-10-10T09:08:32.000Z</time>
      </trkpt>
      <trkpt lat="47.29433" lon="-2.25787">
        <ele>8</ele>
        <time>2021-10-10T09:08:33.000Z</time>
      </trkpt>
      <trkpt lat="47.29431" lon="-2.25785">
        <ele>8.6000003814697</ele>
        <time>2021-10-10T09:08:34.000Z</time>
      </trkpt>
      <trkpt lat="47.29429" lon="-2.25783">
        <ele>9</ele>
        <time>2021-10-10T09:08:35.000Z</time>
      </trkpt>
      <trkpt lat="47.29427" lon="-2.25782">
        <ele>9.3999996185303</ele>
        <time>2021-10-10T09:08:36.000Z</time>
      </trkpt>
      <trkpt lat="47.29421" lon="-2.25778">
        <ele>9.3999996185303</ele>
        <time>2021-10-10T09:08:39.000Z</time>
      </trkpt>
      <trkpt lat="47.29417" lon="-2.2577">
        <ele>9.3999996185303</ele>
        <time>2021-10-10T09:08:43.000Z</time>
      </trkpt>
      <trkpt lat="47.29415" lon="-2.25768">
        <ele>9.8000001907349</ele>
        <time>2021-10-10T09:08:44.000Z</time>
      </trkpt>
      <trkpt lat="47.29414" lon="-2.25768">
        <ele>10.199999809265</ele>
        <time>2021-10-10T09:08:45.000Z</time>
      </trkpt>
      <trkpt lat="47.29412" lon="-2.25768">
        <ele>10.60000038147</ele>
        <time>2021-10-10T09:08:46.000Z</time>
      </trkpt>
      <trkpt lat="47.29411" lon="-2.25767">
        <ele>11</ele>
        <time>2021-10-10T09:08:47.000Z</time>
      </trkpt>
      <trkpt lat="47.29409" lon="-2.25766">
        <ele>11.39999961853</ele>
        <time>2021-10-10T09:08:48.000Z</time>
      </trkpt>
      <trkpt lat="47.29404" lon="-2.25762">
        <ele>11.39999961853</ele>
        <time>2021-10-10T09:08:51.000Z</time>
      </trkpt>
      <trkpt lat="47.29402" lon="-2.25761">
        <ele>11.39999961853</ele>
        <time>2021-10-10T09:08:52.000Z</time>
      </trkpt>
      <trkpt lat="47.29397" lon="-2.25762">
        <ele>11.39999961853</ele>
        <time>2021-10-10T09:08:55.000Z</time>
      </trkpt>
      <trkpt lat="47.29387" lon="-2.25766">
        <ele>11.39999961853</ele>
        <time>2021-10-10T09:08:59.000Z</time>
      </trkpt>
      <trkpt lat="47.29383" lon="-2.25764">
        <ele>11.39999961853</ele>
        <time>2021-10-10T09:09:01.000Z</time>
      </trkpt>
      <trkpt lat="47.29372" lon="-2.25769">
        <ele>12.199999809265</ele>
        <time>2021-10-10T09:09:06.000Z</time>
      </trkpt>
      <trkpt lat="47.2937" lon="-2.25771">
        <ele>12.60000038147</ele>
        <time>2021-10-10T09:09:07.000Z</time>
      </trkpt>
      <trkpt lat="47.29368" lon="-2.25774">
        <ele>13</ele>
        <time>2021-10-10T09:09:08.000Z</time>
      </trkpt>
      <trkpt lat="47.29365" lon="-2.25777">
        <ele>13.39999961853</ele>
        <time>2021-10-10T09:09:09.000Z</time>
      </trkpt>
      <trkpt lat="47.29361" lon="-2.25786">
        <ele>13.39999961853</ele>
        <time>2021-10-10T09:09:12.000Z</time>
      </trkpt>
      <trkpt lat="47.29361" lon="-2.25789">
        <ele>13.39999961853</ele>
        <time>2021-10-10T09:09:13.000Z</time>
      </trkpt>
      <trkpt lat="47.29359" lon="-2.25794">
        <ele>13.39999961853</ele>
        <time>2021-10-10T09:09:19.000Z</time>
      </trkpt>
      <trkpt lat="47.29352" lon="-2.25796">
        <ele>13.39999961853</ele>
        <time>2021-10-10T09:09:24.000Z</time>
      </trkpt>
      <trkpt lat="47.29347" lon="-2.25796">
        <ele>13.39999961853</ele>
        <time>2021-10-10T09:09:26.000Z</time>
      </trkpt>
      <trkpt lat="47.29342" lon="-2.25794">
        <ele>13.39999961853</ele>
        <time>2021-10-10T09:09:28.000Z</time>
      </trkpt>
      <trkpt lat="47.29338" lon="-2.25792">
        <ele>13.39999961853</ele>
        <time>2021-10-10T09:09:30.000Z</time>
      </trkpt>
      <trkpt lat="47.29336" lon="-2.25792">
        <ele>13.39999961853</ele>
        <time>2021-10-10T09:09:31.000Z</time>
      </trkpt>
      <trkpt lat="47.29325" lon="-2.25799">
        <ele>13.39999961853</ele>
        <time>2021-10-10T09:09:37.000Z</time>
      </trkpt>
      <trkpt lat="47.29324" lon="-2.25806">
        <ele>13.39999961853</ele>
        <time>2021-10-10T09:09:42.000Z</time>
      </trkpt>
      <trkpt lat="47.29327" lon="-2.25812">
        <ele>13.39999961853</ele>
        <time>2021-10-10T09:09:48.000Z</time>
      </trkpt>
      <trkpt lat="47.2933" lon="-2.2581">
        <ele>13.39999961853</ele>
        <time>2021-10-10T09:09:51.000Z</time>
      </trkpt>
      <trkpt lat="47.29334" lon="-2.25811">
        <ele>13.39999961853</ele>
        <time>2021-10-10T09:09:53.000Z</time>
      </trkpt>
      <trkpt lat="47.29345" lon="-2.25821">
        <ele>13.39999961853</ele>
        <time>2021-10-10T09:09:59.000Z</time>
      </trkpt>
      <trkpt lat="47.29355" lon="-2.25832">
        <ele>13.39999961853</ele>
        <time>2021-10-10T09:10:06.000Z</time>
      </trkpt>
      <trkpt lat="47.29358" lon="-2.25841">
        <ele>13.39999961853</ele>
        <time>2021-10-10T09:10:09.000Z</time>
      </trkpt>
      <trkpt lat="47.29364" lon="-2.25854">
        <ele>13.39999961853</ele>
        <time>2021-10-10T09:10:12.000Z</time>
      </trkpt>
      <trkpt lat="47.29368" lon="-2.2586">
        <ele>13.39999961853</ele>
        <time>2021-10-10T09:10:14.000Z</time>
      </trkpt>
      <trkpt lat="47.29375" lon="-2.25865">
        <ele>13.39999961853</ele>
        <time>2021-10-10T09:10:16.000Z</time>
      </trkpt>
      <trkpt lat="47.2938" lon="-2.25868">
        <ele>13.39999961853</ele>
        <time>2021-10-10T09:10:18.000Z</time>
      </trkpt>
      <trkpt lat="47.29382" lon="-2.25873">
        <ele>13.39999961853</ele>
        <time>2021-10-10T09:10:19.000Z</time>
      </trkpt>
      <trkpt lat="47.29383" lon="-2.25881">
        <ele>13.39999961853</ele>
        <time>2021-10-10T09:10:21.000Z</time>
      </trkpt>
      <trkpt lat="47.29383" lon="-2.259">
        <ele>13.39999961853</ele>
        <time>2021-10-10T09:10:25.000Z</time>
      </trkpt>
      <trkpt lat="47.29383" lon="-2.25904">
        <ele>13.39999961853</ele>
        <time>2021-10-10T09:10:26.000Z</time>
      </trkpt>
      <trkpt lat="47.29384" lon="-2.25908">
        <ele>13.39999961853</ele>
        <time>2021-10-10T09:10:27.000Z</time>
      </trkpt>
      <trkpt lat="47.29386" lon="-2.25937">
        <ele>13.39999961853</ele>
        <time>2021-10-10T09:10:33.000Z</time>
      </trkpt>
      <trkpt lat="47.29374" lon="-2.25958">
        <ele>13.39999961853</ele>
        <time>2021-10-10T09:10:38.000Z</time>
      </trkpt>
      <trkpt lat="47.29365" lon="-2.25969">
        <ele>13.39999961853</ele>
        <time>2021-10-10T09:10:42.000Z</time>
      </trkpt>
      <trkpt lat="47.2935" lon="-2.25973">
        <ele>13.39999961853</ele>
        <time>2021-10-10T09:10:47.000Z</time>
      </trkpt>
      <trkpt lat="47.29347" lon="-2.25973">
        <ele>13.39999961853</ele>
        <time>2021-10-10T09:10:48.000Z</time>
      </trkpt>
      <trkpt lat="47.29339" lon="-2.25969">
        <ele>13.39999961853</ele>
        <time>2021-10-10T09:10:50.000Z</time>
      </trkpt>
      <trkpt lat="47.29323" lon="-2.2597">
        <ele>13.39999961853</ele>
        <time>2021-10-10T09:10:54.000Z</time>
      </trkpt>
      <trkpt lat="47.29315" lon="-2.25973">
        <ele>13.39999961853</ele>
        <time>2021-10-10T09:10:56.000Z</time>
      </trkpt>
      <trkpt lat="47.29305" lon="-2.25982">
        <ele>13.39999961853</ele>
        <time>2021-10-10T09:10:59.000Z</time>
      </trkpt>
      <trkpt lat="47.29301" lon="-2.26003">
        <ele>13.39999961853</ele>
        <time>2021-10-10T09:11:03.000Z</time>
      </trkpt>
      <trkpt lat="47.29309" lon="-2.26037">
        <ele>13.39999961853</ele>
        <time>2021-10-10T09:11:08.000Z</time>
      </trkpt>
      <trkpt lat="47.29311" lon="-2.26058">
        <ele>13.39999961853</ele>
        <time>2021-10-10T09:11:12.000Z</time>
      </trkpt>
      <trkpt lat="47.29309" lon="-2.26061">
        <ele>13.39999961853</ele>
        <time>2021-10-10T09:11:13.000Z</time>
      </trkpt>
      <trkpt lat="47.29297" lon="-2.26067">
        <ele>13.800000190735</ele>
        <time>2021-10-10T09:11:17.000Z</time>
      </trkpt>
      <trkpt lat="47.29293" lon="-2.26067">
        <ele>14.39999961853</ele>
        <time>2021-10-10T09:11:18.000Z</time>
      </trkpt>
      <trkpt lat="47.29289" lon="-2.26068">
        <ele>14.800000190735</ele>
        <time>2021-10-10T09:11:19.000Z</time>
      </trkpt>
      <trkpt lat="47.29284" lon="-2.2607">
        <ele>15.199999809265</ele>
        <time>2021-10-10T09:11:20.000Z</time>
      </trkpt>
      <trkpt lat="47.2928" lon="-2.26071">
        <ele>15.60000038147</ele>
        <time>2021-10-10T09:11:21.000Z</time>
      </trkpt>
      <trkpt lat="47.29269" lon="-2.26076">
        <ele>15.60000038147</ele>
        <time>2021-10-10T09:11:24.000Z</time>
      </trkpt>
      <trkpt lat="47.29265" lon="-2.26077">
        <ele>16</ele>
        <time>2021-10-10T09:11:25.000Z</time>
      </trkpt>
      <trkpt lat="47.29261" lon="-2.26079">
        <ele>16.39999961853</ele>
        <time>2021-10-10T09:11:26.000Z</time>
      </trkpt>
      <trkpt lat="47.29257" lon="-2.26081">
        <ele>16.799999237061</ele>
        <time>2021-10-10T09:11:27.000Z</time>
      </trkpt>
      <trkpt lat="47.29253" lon="-2.26082">
        <ele>17.200000762939</ele>
        <time>2021-10-10T09:11:28.000Z</time>
      </trkpt>
      <trkpt lat="47.29249" lon="-2.26083">
        <ele>17.60000038147</ele>
        <time>2021-10-10T09:11:29.000Z</time>
      </trkpt>
      <trkpt lat="47.29246" lon="-2.26083">
        <ele>17.60000038147</ele>
        <time>2021-10-10T09:11:30.000Z</time>
      </trkpt>
      <trkpt lat="47.29231" lon="-2.26079">
        <ele>17.60000038147</ele>
        <time>2021-10-10T09:11:34.000Z</time>
      </trkpt>
      <trkpt lat="47.29228" lon="-2.26076">
        <ele>17.60000038147</ele>
        <time>2021-10-10T09:11:35.000Z</time>
      </trkpt>
      <trkpt lat="47.29207" lon="-2.26048">
        <ele>17.60000038147</ele>
        <time>2021-10-10T09:11:40.000Z</time>
      </trkpt>
      <trkpt lat="47.29197" lon="-2.26039">
        <ele>17.60000038147</ele>
        <time>2021-10-10T09:11:42.000Z</time>
      </trkpt>
      <trkpt lat="47.29186" lon="-2.26016">
        <ele>17.60000038147</ele>
        <time>2021-10-10T09:11:45.000Z</time>
      </trkpt>
      <trkpt lat="47.29176" lon="-2.25994">
        <ele>17.60000038147</ele>
        <time>2021-10-10T09:11:48.000Z</time>
      </trkpt>
      <trkpt lat="47.29168" lon="-2.25985">
        <ele>17.60000038147</ele>
        <time>2021-10-10T09:11:50.000Z</time>
      </trkpt>
      <trkpt lat="47.29147" lon="-2.25979">
        <ele>17.200000762939</ele>
        <time>2021-10-10T09:11:54.000Z</time>
      </trkpt>
      <trkpt lat="47.29141" lon="-2.25977">
        <ele>16.799999237061</ele>
        <time>2021-10-10T09:11:55.000Z</time>
      </trkpt>
      <trkpt lat="47.29136" lon="-2.25976">
        <ele>16.39999961853</ele>
        <time>2021-10-10T09:11:56.000Z</time>
      </trkpt>
      <trkpt lat="47.2913" lon="-2.25974">
        <ele>16</ele>
        <time>2021-10-10T09:11:57.000Z</time>
      </trkpt>
      <trkpt lat="47.29125" lon="-2.25974">
        <ele>15.60000038147</ele>
        <time>2021-10-10T09:11:58.000Z</time>
      </trkpt>
      <trkpt lat="47.29113" lon="-2.25973">
        <ele>15.60000038147</ele>
        <time>2021-10-10T09:12:00.000Z</time>
      </trkpt>
      <trkpt lat="47.29108" lon="-2.25974">
        <ele>15.60000038147</ele>
        <time>2021-10-10T09:12:01.000Z</time>
      </trkpt>
      <trkpt lat="47.29086" lon="-2.25976">
        <ele>15.60000038147</ele>
        <time>2021-10-10T09:12:05.000Z</time>
      </trkpt>
      <trkpt lat="47.29082" lon="-2.25978">
        <ele>15.60000038147</ele>
        <time>2021-10-10T09:12:06.000Z</time>
      </trkpt>
      <trkpt lat="47.29075" lon="-2.25987">
        <ele>15.60000038147</ele>
        <time>2021-10-10T09:12:08.000Z</time>
      </trkpt>
      <trkpt lat="47.2908" lon="-2.26009">
        <ele>15.60000038147</ele>
        <time>2021-10-10T09:12:11.000Z</time>
      </trkpt>
      <trkpt lat="47.29088" lon="-2.26029">
        <ele>15.60000038147</ele>
        <time>2021-10-10T09:12:14.000Z</time>
      </trkpt>
      <trkpt lat="47.29095" lon="-2.2605">
        <ele>15.60000038147</ele>
        <time>2021-10-10T09:12:17.000Z</time>
      </trkpt>
      <trkpt lat="47.29106" lon="-2.2609">
        <ele>15.60000038147</ele>
        <time>2021-10-10T09:12:23.000Z</time>
      </trkpt>
      <trkpt lat="47.29109" lon="-2.26102">
        <ele>15.60000038147</ele>
        <time>2021-10-10T09:12:25.000Z</time>
      </trkpt>
      <trkpt lat="47.29107" lon="-2.26115">
        <ele>15.60000038147</ele>
        <time>2021-10-10T09:12:27.000Z</time>
      </trkpt>
      <trkpt lat="47.29103" lon="-2.26144">
        <ele>16</ele>
        <time>2021-10-10T09:12:31.000Z</time>
      </trkpt>
      <trkpt lat="47.29102" lon="-2.26152">
        <ele>16.39999961853</ele>
        <time>2021-10-10T09:12:32.000Z</time>
      </trkpt>
      <trkpt lat="47.29101" lon="-2.2616">
        <ele>16.799999237061</ele>
        <time>2021-10-10T09:12:33.000Z</time>
      </trkpt>
      <trkpt lat="47.291" lon="-2.26168">
        <ele>17.200000762939</ele>
        <time>2021-10-10T09:12:34.000Z</time>
      </trkpt>
      <trkpt lat="47.29099" lon="-2.26176">
        <ele>17.60000038147</ele>
        <time>2021-10-10T09:12:35.000Z</time>
      </trkpt>
      <trkpt lat="47.29092" lon="-2.26216">
        <ele>17.60000038147</ele>
        <time>2021-10-10T09:12:40.000Z</time>
      </trkpt>
      <trkpt lat="47.29078" lon="-2.2628">
        <ele>17.60000038147</ele>
        <time>2021-10-10T09:12:48.000Z</time>
      </trkpt>
      <trkpt lat="47.29075" lon="-2.26296">
        <ele>17.60000038147</ele>
        <time>2021-10-10T09:12:50.000Z</time>
      </trkpt>
      <trkpt lat="47.29063" lon="-2.26323">
        <ele>17.60000038147</ele>
        <time>2021-10-10T09:12:54.000Z</time>
      </trkpt>
      <trkpt lat="47.29039" lon="-2.26349">
        <ele>17.60000038147</ele>
        <time>2021-10-10T09:12:59.000Z</time>
      </trkpt>
      <trkpt lat="47.29021" lon="-2.26368">
        <ele>17.60000038147</ele>
        <time>2021-10-10T09:13:03.000Z</time>
      </trkpt>
      <trkpt lat="47.29015" lon="-2.2638">
        <ele>17.60000038147</ele>
        <time>2021-10-10T09:13:05.000Z</time>
      </trkpt>
      <trkpt lat="47.29014" lon="-2.26403">
        <ele>18</ele>
        <time>2021-10-10T09:13:08.000Z</time>
      </trkpt>
      <trkpt lat="47.29014" lon="-2.26411">
        <ele>18.39999961853</ele>
        <time>2021-10-10T09:13:09.000Z</time>
      </trkpt>
      <trkpt lat="47.29015" lon="-2.26418">
        <ele>19</ele>
        <time>2021-10-10T09:13:10.000Z</time>
      </trkpt>
      <trkpt lat="47.29016" lon="-2.26426">
        <ele>19.39999961853</ele>
        <time>2021-10-10T09:13:11.000Z</time>
      </trkpt>
      <trkpt lat="47.29017" lon="-2.26435">
        <ele>19.799999237061</ele>
        <time>2021-10-10T09:13:12.000Z</time>
      </trkpt>
      <trkpt lat="47.29021" lon="-2.26456">
        <ele>19.39999961853</ele>
        <time>2021-10-10T09:13:14.000Z</time>
      </trkpt>
      <trkpt lat="47.29023" lon="-2.26467">
        <ele>19</ele>
        <time>2021-10-10T09:13:15.000Z</time>
      </trkpt>
      <trkpt lat="47.29024" lon="-2.2648">
        <ele>18.60000038147</ele>
        <time>2021-10-10T09:13:16.000Z</time>
      </trkpt>
      <trkpt lat="47.29025" lon="-2.26491">
        <ele>18.200000762939</ele>
        <time>2021-10-10T09:13:17.000Z</time>
      </trkpt>
      <trkpt lat="47.29027" lon="-2.26502">
        <ele>17.799999237061</ele>
        <time>2021-10-10T09:13:18.000Z</time>
      </trkpt>
      <trkpt lat="47.29031" lon="-2.26524">
        <ele>17.799999237061</ele>
        <time>2021-10-10T09:13:20.000Z</time>
      </trkpt>
      <trkpt lat="47.29041" lon="-2.26566">
        <ele>17.799999237061</ele>
        <time>2021-10-10T09:13:25.000Z</time>
      </trkpt>
      <trkpt lat="47.29046" lon="-2.26587">
        <ele>17.799999237061</ele>
        <time>2021-10-10T09:13:28.000Z</time>
      </trkpt>
      <trkpt lat="47.29047" lon="-2.26603">
        <ele>17.39999961853</ele>
        <time>2021-10-10T09:13:30.000Z</time>
      </trkpt>
      <trkpt lat="47.29048" lon="-2.26612">
        <ele>16.799999237061</ele>
        <time>2021-10-10T09:13:31.000Z</time>
      </trkpt>
      <trkpt lat="47.29049" lon="-2.2662">
        <ele>16.39999961853</ele>
        <time>2021-10-10T09:13:32.000Z</time>
      </trkpt>
      <trkpt lat="47.2905" lon="-2.26629">
        <ele>16</ele>
        <time>2021-10-10T09:13:33.000Z</time>
      </trkpt>
      <trkpt lat="47.29052" lon="-2.26638">
        <ele>15.60000038147</ele>
        <time>2021-10-10T09:13:34.000Z</time>
      </trkpt>
      <trkpt lat="47.29053" lon="-2.26669">
        <ele>15.60000038147</ele>
        <time>2021-10-10T09:13:37.000Z</time>
      </trkpt>
      <trkpt lat="47.29057" lon="-2.26716">
        <ele>15.199999809265</ele>
        <time>2021-10-10T09:13:41.000Z</time>
      </trkpt>
      <trkpt lat="47.29059" lon="-2.26728">
        <ele>14.800000190735</ele>
        <time>2021-10-10T09:13:42.000Z</time>
      </trkpt>
      <trkpt lat="47.2906" lon="-2.26741">
        <ele>14.39999961853</ele>
        <time>2021-10-10T09:13:43.000Z</time>
      </trkpt>
      <trkpt lat="47.29061" lon="-2.26753">
        <ele>14</ele>
        <time>2021-10-10T09:13:44.000Z</time>
      </trkpt>
      <trkpt lat="47.29063" lon="-2.26767">
        <ele>13.60000038147</ele>
        <time>2021-10-10T09:13:45.000Z</time>
      </trkpt>
      <trkpt lat="47.29065" lon="-2.26779">
        <ele>13.199999809265</ele>
        <time>2021-10-10T09:13:46.000Z</time>
      </trkpt>
      <trkpt lat="47.29067" lon="-2.26792">
        <ele>12.800000190735</ele>
        <time>2021-10-10T09:13:47.000Z</time>
      </trkpt>
      <trkpt lat="47.29067" lon="-2.26804">
        <ele>12.199999809265</ele>
        <time>2021-10-10T09:13:48.000Z</time>
      </trkpt>
      <trkpt lat="47.29068" lon="-2.26817">
        <ele>11.800000190735</ele>
        <time>2021-10-10T09:13:49.000Z</time>
      </trkpt>
      <trkpt lat="47.29068" lon="-2.26829">
        <ele>11.39999961853</ele>
        <time>2021-10-10T09:13:50.000Z</time>
      </trkpt>
      <trkpt lat="47.29068" lon="-2.26853">
        <ele>11</ele>
        <time>2021-10-10T09:13:52.000Z</time>
      </trkpt>
      <trkpt lat="47.29067" lon="-2.26864">
        <ele>10.60000038147</ele>
        <time>2021-10-10T09:13:53.000Z</time>
      </trkpt>
      <trkpt lat="47.29067" lon="-2.26875">
        <ele>10.199999809265</ele>
        <time>2021-10-10T09:13:54.000Z</time>
      </trkpt>
      <trkpt lat="47.29066" lon="-2.26886">
        <ele>9.6000003814697</ele>
        <time>2021-10-10T09:13:55.000Z</time>
      </trkpt>
      <trkpt lat="47.29066" lon="-2.26897">
        <ele>9.1999998092651</ele>
        <time>2021-10-10T09:13:56.000Z</time>
      </trkpt>
      <trkpt lat="47.29065" lon="-2.26935">
        <ele>9.1999998092651</ele>
        <time>2021-10-10T09:14:00.000Z</time>
      </trkpt>
      <trkpt lat="47.29064" lon="-2.26986">
        <ele>9.1999998092651</ele>
        <time>2021-10-10T09:14:06.000Z</time>
      </trkpt>
      <trkpt lat="47.29063" lon="-2.27025">
        <ele>9.1999998092651</ele>
        <time>2021-10-10T09:14:11.000Z</time>
      </trkpt>
      <trkpt lat="47.29064" lon="-2.27031">
        <ele>9.1999998092651</ele>
        <time>2021-10-10T09:14:12.000Z</time>
      </trkpt>
      <trkpt lat="47.29069" lon="-2.27054">
        <ele>9.1999998092651</ele>
        <time>2021-10-10T09:14:16.000Z</time>
      </trkpt>
      <trkpt lat="47.29067" lon="-2.27064">
        <ele>9.1999998092651</ele>
        <time>2021-10-10T09:14:18.000Z</time>
      </trkpt>
      <trkpt lat="47.29061" lon="-2.27081">
        <ele>9.1999998092651</ele>
        <time>2021-10-10T09:14:21.000Z</time>
      </trkpt>
      <trkpt lat="47.29047" lon="-2.27094">
        <ele>9.1999998092651</ele>
        <time>2021-10-10T09:14:25.000Z</time>
      </trkpt>
      <trkpt lat="47.29032" lon="-2.27106">
        <ele>9.1999998092651</ele>
        <time>2021-10-10T09:14:29.000Z</time>
      </trkpt>
      <trkpt lat="47.2903" lon="-2.27111">
        <ele>9.1999998092651</ele>
        <time>2021-10-10T09:14:30.000Z</time>
      </trkpt>
      <trkpt lat="47.29029" lon="-2.27123">
        <ele>9.1999998092651</ele>
        <time>2021-10-10T09:14:33.000Z</time>
      </trkpt>
      <trkpt lat="47.2903" lon="-2.27127">
        <ele>9.1999998092651</ele>
        <time>2021-10-10T09:14:34.000Z</time>
      </trkpt>
      <trkpt lat="47.29035" lon="-2.27134">
        <ele>9.1999998092651</ele>
        <time>2021-10-10T09:14:36.000Z</time>
      </trkpt>
      <trkpt lat="47.29055" lon="-2.27157">
        <ele>9.1999998092651</ele>
        <time>2021-10-10T09:14:42.000Z</time>
      </trkpt>
      <trkpt lat="47.29065" lon="-2.2718">
        <ele>9.1999998092651</ele>
        <time>2021-10-10T09:14:46.000Z</time>
      </trkpt>
      <trkpt lat="47.2907" lon="-2.27184">
        <ele>9.1999998092651</ele>
        <time>2021-10-10T09:14:47.000Z</time>
      </trkpt>
      <trkpt lat="47.29081" lon="-2.27193">
        <ele>9.1999998092651</ele>
        <time>2021-10-10T09:14:49.000Z</time>
      </trkpt>
      <trkpt lat="47.29087" lon="-2.27195">
        <ele>9.1999998092651</ele>
        <time>2021-10-10T09:14:50.000Z</time>
      </trkpt>
      <trkpt lat="47.29096" lon="-2.27194">
        <ele>9.1999998092651</ele>
        <time>2021-10-10T09:14:52.000Z</time>
      </trkpt>
      <trkpt lat="47.29109" lon="-2.27196">
        <ele>9.1999998092651</ele>
        <time>2021-10-10T09:14:56.000Z</time>
      </trkpt>
      <trkpt lat="47.29113" lon="-2.27198">
        <ele>9.1999998092651</ele>
        <time>2021-10-10T09:14:58.000Z</time>
      </trkpt>
      <trkpt lat="47.29116" lon="-2.27201">
        <ele>9.1999998092651</ele>
        <time>2021-10-10T09:15:01.000Z</time>
      </trkpt>
      <trkpt lat="47.29116" lon="-2.27205">
        <ele>9.1999998092651</ele>
        <time>2021-10-10T09:15:04.000Z</time>
      </trkpt>
      <trkpt lat="47.29116" lon="-2.27215">
        <ele>9.1999998092651</ele>
        <time>2021-10-10T09:15:07.000Z</time>
      </trkpt>
      <trkpt lat="47.29113" lon="-2.27223">
        <ele>9.1999998092651</ele>
        <time>2021-10-10T09:15:09.000Z</time>
      </trkpt>
      <trkpt lat="47.2911" lon="-2.27239">
        <ele>9.1999998092651</ele>
        <time>2021-10-10T09:15:12.000Z</time>
      </trkpt>
      <trkpt lat="47.2911" lon="-2.27252">
        <ele>9.1999998092651</ele>
        <time>2021-10-10T09:15:14.000Z</time>
      </trkpt>
      <trkpt lat="47.29108" lon="-2.27263">
        <ele>9.1999998092651</ele>
        <time>2021-10-10T09:15:16.000Z</time>
      </trkpt>
      <trkpt lat="47.29106" lon="-2.27277">
        <ele>9.1999998092651</ele>
        <time>2021-10-10T09:15:18.000Z</time>
      </trkpt>
      <trkpt lat="47.29103" lon="-2.27291">
        <ele>9.1999998092651</ele>
        <time>2021-10-10T09:15:20.000Z</time>
      </trkpt>
      <trkpt lat="47.29098" lon="-2.27319">
        <ele>9.1999998092651</ele>
        <time>2021-10-10T09:15:25.000Z</time>
      </trkpt>
      <trkpt lat="47.29096" lon="-2.27343">
        <ele>9.1999998092651</ele>
        <time>2021-10-10T09:15:30.000Z</time>
      </trkpt>
      <trkpt lat="47.29102" lon="-2.27359">
        <ele>9.1999998092651</ele>
        <time>2021-10-10T09:15:34.000Z</time>
      </trkpt>
      <trkpt lat="47.29104" lon="-2.27366">
        <ele>9.1999998092651</ele>
        <time>2021-10-10T09:15:35.000Z</time>
      </trkpt>
      <trkpt lat="47.29109" lon="-2.274">
        <ele>9.1999998092651</ele>
        <time>2021-10-10T09:15:39.000Z</time>
      </trkpt>
      <trkpt lat="47.2911" lon="-2.27408">
        <ele>9.1999998092651</ele>
        <time>2021-10-10T09:15:40.000Z</time>
      </trkpt>
      <trkpt lat="47.2911" lon="-2.27439">
        <ele>9.1999998092651</ele>
        <time>2021-10-10T09:15:44.000Z</time>
      </trkpt>
      <trkpt lat="47.29109" lon="-2.27483">
        <ele>9.1999998092651</ele>
        <time>2021-10-10T09:15:50.000Z</time>
      </trkpt>
      <trkpt lat="47.29111" lon="-2.27522">
        <ele>9.1999998092651</ele>
        <time>2021-10-10T09:15:56.000Z</time>
      </trkpt>
      <trkpt lat="47.2912" lon="-2.27527">
        <ele>9.1999998092651</ele>
        <time>2021-10-10T09:15:59.000Z</time>
      </trkpt>
      <trkpt lat="47.29133" lon="-2.27526">
        <ele>9.1999998092651</ele>
        <time>2021-10-10T09:16:02.000Z</time>
      </trkpt>
      <trkpt lat="47.29146" lon="-2.27526">
        <ele>9.1999998092651</ele>
        <time>2021-10-10T09:16:05.000Z</time>
      </trkpt>
      <trkpt lat="47.29176" lon="-2.27528">
        <ele>9.1999998092651</ele>
        <time>2021-10-10T09:16:12.000Z</time>
      </trkpt>
      <trkpt lat="47.29201" lon="-2.27528">
        <ele>9.1999998092651</ele>
        <time>2021-10-10T09:16:17.000Z</time>
      </trkpt>
      <trkpt lat="47.29226" lon="-2.27528">
        <ele>9.1999998092651</ele>
        <time>2021-10-10T09:16:22.000Z</time>
      </trkpt>
      <trkpt lat="47.29235" lon="-2.27529">
        <ele>9.1999998092651</ele>
        <time>2021-10-10T09:16:24.000Z</time>
      </trkpt>
      <trkpt lat="47.29257" lon="-2.27525">
        <ele>9.1999998092651</ele>
        <time>2021-10-10T09:16:29.000Z</time>
      </trkpt>
      <trkpt lat="47.29261" lon="-2.27523">
        <ele>9.6000003814697</ele>
        <time>2021-10-10T09:16:30.000Z</time>
      </trkpt>
      <trkpt lat="47.29265" lon="-2.2752">
        <ele>10.60000038147</ele>
        <time>2021-10-10T09:16:31.000Z</time>
      </trkpt>
      <trkpt lat="47.29269" lon="-2.27518">
        <ele>11</ele>
        <time>2021-10-10T09:16:32.000Z</time>
      </trkpt>
      <trkpt lat="47.29273" lon="-2.27518">
        <ele>11.39999961853</ele>
        <time>2021-10-10T09:16:33.000Z</time>
      </trkpt>
      <trkpt lat="47.29287" lon="-2.27527">
        <ele>11.39999961853</ele>
        <time>2021-10-10T09:16:36.000Z</time>
      </trkpt>
      <trkpt lat="47.29308" lon="-2.27536">
        <ele>11.39999961853</ele>
        <time>2021-10-10T09:16:40.000Z</time>
      </trkpt>
      <trkpt lat="47.29315" lon="-2.27536">
        <ele>11.39999961853</ele>
        <time>2021-10-10T09:16:41.000Z</time>
      </trkpt>
      <trkpt lat="47.2932" lon="-2.27536">
        <ele>11.39999961853</ele>
        <time>2021-10-10T09:16:42.000Z</time>
      </trkpt>
      <trkpt lat="47.29344" lon="-2.27533">
        <ele>11.39999961853</ele>
        <time>2021-10-10T09:16:46.000Z</time>
      </trkpt>
      <trkpt lat="47.29377" lon="-2.27524">
        <ele>11.39999961853</ele>
        <time>2021-10-10T09:16:52.000Z</time>
      </trkpt>
      <trkpt lat="47.29413" lon="-2.27515">
        <ele>11.39999961853</ele>
        <time>2021-10-10T09:16:58.000Z</time>
      </trkpt>
      <trkpt lat="47.29452" lon="-2.27514">
        <ele>11.39999961853</ele>
        <time>2021-10-10T09:17:04.000Z</time>
      </trkpt>
      <trkpt lat="47.29494" lon="-2.27527">
        <ele>11.39999961853</ele>
        <time>2021-10-10T09:17:11.000Z</time>
      </trkpt>
      <trkpt lat="47.29536" lon="-2.2754">
        <ele>11.39999961853</ele>
        <time>2021-10-10T09:17:18.000Z</time>
      </trkpt>
      <trkpt lat="47.29584" lon="-2.27562">
        <ele>11.39999961853</ele>
        <time>2021-10-10T09:17:26.000Z</time>
      </trkpt>
      <trkpt lat="47.29609" lon="-2.27576">
        <ele>11</ele>
        <time>2021-10-10T09:17:30.000Z</time>
      </trkpt>
      <trkpt lat="47.29616" lon="-2.2758">
        <ele>10.60000038147</ele>
        <time>2021-10-10T09:17:31.000Z</time>
      </trkpt>
      <trkpt lat="47.29622" lon="-2.27585">
        <ele>10.199999809265</ele>
        <time>2021-10-10T09:17:32.000Z</time>
      </trkpt>
      <trkpt lat="47.29628" lon="-2.27589">
        <ele>9.8000001907349</ele>
        <time>2021-10-10T09:17:33.000Z</time>
      </trkpt>
      <trkpt lat="47.29635" lon="-2.27593">
        <ele>9.1999998092651</ele>
        <time>2021-10-10T09:17:34.000Z</time>
      </trkpt>
      <trkpt lat="47.29673" lon="-2.27612">
        <ele>9.1999998092651</ele>
        <time>2021-10-10T09:17:40.000Z</time>
      </trkpt>
      <trkpt lat="47.2968" lon="-2.27614">
        <ele>8.8000001907349</ele>
        <time>2021-10-10T09:17:41.000Z</time>
      </trkpt>
      <trkpt lat="47.29687" lon="-2.27615">
        <ele>8.3999996185303</ele>
        <time>2021-10-10T09:17:42.000Z</time>
      </trkpt>
      <trkpt lat="47.29694" lon="-2.27616">
        <ele>7.8000001907349</ele>
        <time>2021-10-10T09:17:43.000Z</time>
      </trkpt>
      <trkpt lat="47.29701" lon="-2.27616">
        <ele>7.4000000953674</ele>
        <time>2021-10-10T09:17:44.000Z</time>
      </trkpt>
      <trkpt lat="47.29708" lon="-2.27616">
        <ele>7</ele>
        <time>2021-10-10T09:17:45.000Z</time>
      </trkpt>
      <trkpt lat="47.29715" lon="-2.27614">
        <ele>7</ele>
        <time>2021-10-10T09:17:46.000Z</time>
      </trkpt>
      <trkpt lat="47.29742" lon="-2.27604">
        <ele>7</ele>
        <time>2021-10-10T09:17:51.000Z</time>
      </trkpt>
      <trkpt lat="47.29778" lon="-2.27591">
        <ele>7</ele>
        <time>2021-10-10T09:17:57.000Z</time>
      </trkpt>
      <trkpt lat="47.29791" lon="-2.2759">
        <ele>7</ele>
        <time>2021-10-10T09:17:59.000Z</time>
      </trkpt>
      <trkpt lat="47.2981" lon="-2.27595">
        <ele>7</ele>
        <time>2021-10-10T09:18:02.000Z</time>
      </trkpt>
      <trkpt lat="47.29829" lon="-2.27608">
        <ele>7</ele>
        <time>2021-10-10T09:18:06.000Z</time>
      </trkpt>
      <trkpt lat="47.29853" lon="-2.27619">
        <ele>7</ele>
        <time>2021-10-10T09:18:10.000Z</time>
      </trkpt>
      <trkpt lat="47.29859" lon="-2.2762">
        <ele>7</ele>
        <time>2021-10-10T09:18:11.000Z</time>
      </trkpt>
      <trkpt lat="47.29884" lon="-2.27611">
        <ele>7</ele>
        <time>2021-10-10T09:18:15.000Z</time>
      </trkpt>
      <trkpt lat="47.29911" lon="-2.27598">
        <ele>6.5999999046326</ele>
        <time>2021-10-10T09:18:20.000Z</time>
      </trkpt>
      <trkpt lat="47.29917" lon="-2.27596">
        <ele>6.1999998092651</ele>
        <time>2021-10-10T09:18:21.000Z</time>
      </trkpt>
      <trkpt lat="47.29922" lon="-2.27596">
        <ele>5.5999999046326</ele>
        <time>2021-10-10T09:18:22.000Z</time>
      </trkpt>
      <trkpt lat="47.29929" lon="-2.27594">
        <ele>5.1999998092651</ele>
        <time>2021-10-10T09:18:23.000Z</time>
      </trkpt>
      <trkpt lat="47.29935" lon="-2.27594">
        <ele>4.8000001907349</ele>
        <time>2021-10-10T09:18:24.000Z</time>
      </trkpt>
      <trkpt lat="47.2994" lon="-2.27594">
        <ele>4.8000001907349</ele>
        <time>2021-10-10T09:18:25.000Z</time>
      </trkpt>
      <trkpt lat="47.29946" lon="-2.27595">
        <ele>4.8000001907349</ele>
        <time>2021-10-10T09:18:26.000Z</time>
      </trkpt>
      <trkpt lat="47.29956" lon="-2.27604">
        <ele>4.8000001907349</ele>
        <time>2021-10-10T09:18:28.000Z</time>
      </trkpt>
      <trkpt lat="47.29962" lon="-2.27629">
        <ele>4.8000001907349</ele>
        <time>2021-10-10T09:18:31.000Z</time>
      </trkpt>
      <trkpt lat="47.2996" lon="-2.27656">
        <ele>4.8000001907349</ele>
        <time>2021-10-10T09:18:34.000Z</time>
      </trkpt>
      <trkpt lat="47.29959" lon="-2.27665">
        <ele>4.8000001907349</ele>
        <time>2021-10-10T09:18:35.000Z</time>
      </trkpt>
      <trkpt lat="47.29952" lon="-2.27742">
        <ele>4.8000001907349</ele>
        <time>2021-10-10T09:18:44.000Z</time>
      </trkpt>
      <trkpt lat="47.29947" lon="-2.27801">
        <ele>4.8000001907349</ele>
        <time>2021-10-10T09:18:51.000Z</time>
      </trkpt>
      <trkpt lat="47.29943" lon="-2.2785">
        <ele>4.8000001907349</ele>
        <time>2021-10-10T09:18:57.000Z</time>
      </trkpt>
      <trkpt lat="47.29941" lon="-2.27867">
        <ele>5.5999999046326</ele>
        <time>2021-10-10T09:18:59.000Z</time>
      </trkpt>
      <trkpt lat="47.2994" lon="-2.27876">
        <ele>6</ele>
        <time>2021-10-10T09:19:00.000Z</time>
      </trkpt>
      <trkpt lat="47.2994" lon="-2.27885">
        <ele>6.4000000953674</ele>
        <time>2021-10-10T09:19:01.000Z</time>
      </trkpt>
      <trkpt lat="47.29939" lon="-2.27893">
        <ele>6.8000001907349</ele>
        <time>2021-10-10T09:19:02.000Z</time>
      </trkpt>
      <trkpt lat="47.29937" lon="-2.27919">
        <ele>6.8000001907349</ele>
        <time>2021-10-10T09:19:05.000Z</time>
      </trkpt>
      <trkpt lat="47.29934" lon="-2.27976">
        <ele>6.8000001907349</ele>
        <time>2021-10-10T09:19:12.000Z</time>
      </trkpt>
      <trkpt lat="47.29936" lon="-2.28009">
        <ele>6.8000001907349</ele>
        <time>2021-10-10T09:19:17.000Z</time>
      </trkpt>
      <trkpt lat="47.29937" lon="-2.28016">
        <ele>6.8000001907349</ele>
        <time>2021-10-10T09:19:18.000Z</time>
      </trkpt>
      <trkpt lat="47.29947" lon="-2.2804">
        <ele>6.8000001907349</ele>
        <time>2021-10-10T09:19:22.000Z</time>
      </trkpt>
      <trkpt lat="47.2995" lon="-2.28045">
        <ele>6.8000001907349</ele>
        <time>2021-10-10T09:19:23.000Z</time>
      </trkpt>
      <trkpt lat="47.2996" lon="-2.28047">
        <ele>6.8000001907349</ele>
        <time>2021-10-10T09:19:26.000Z</time>
      </trkpt>
      <trkpt lat="47.29964" lon="-2.28045">
        <ele>6.8000001907349</ele>
        <time>2021-10-10T09:19:27.000Z</time>
      </trkpt>
      <trkpt lat="47.29978" lon="-2.28039">
        <ele>6.8000001907349</ele>
        <time>2021-10-10T09:19:32.000Z</time>
      </trkpt>
      <trkpt lat="47.29979" lon="-2.28039">
        <ele>6.8000001907349</ele>
        <time>2021-10-10T09:19:36.000Z</time>
      </trkpt>
      <trkpt lat="47.29979" lon="-2.28039">
        <ele>6.8000001907349</ele>
        <time>2021-10-10T09:19:45.000Z</time>
      </trkpt>
      <trkpt lat="47.29981" lon="-2.28036">
        <ele>6.8000001907349</ele>
        <time>2021-10-10T09:19:52.000Z</time>
      </trkpt>
      <trkpt lat="47.29983" lon="-2.28035">
        <ele>6.8000001907349</ele>
        <time>2021-10-10T09:19:53.000Z</time>
      </trkpt>
      <trkpt lat="47.29994" lon="-2.2804">
        <ele>6.8000001907349</ele>
        <time>2021-10-10T09:19:58.000Z</time>
      </trkpt>
      <trkpt lat="47.29989" lon="-2.28052">
        <ele>6.8000001907349</ele>
        <time>2021-10-10T09:20:01.000Z</time>
      </trkpt>
      <trkpt lat="47.29987" lon="-2.28058">
        <ele>6.8000001907349</ele>
        <time>2021-10-10T09:20:02.000Z</time>
      </trkpt>
      <trkpt lat="47.29977" lon="-2.28091">
        <ele>6.8000001907349</ele>
        <time>2021-10-10T09:20:07.000Z</time>
      </trkpt>
      <trkpt lat="47.29966" lon="-2.28134">
        <ele>6.8000001907349</ele>
        <time>2021-10-10T09:20:13.000Z</time>
      </trkpt>
      <trkpt lat="47.29957" lon="-2.28175">
        <ele>6.8000001907349</ele>
        <time>2021-10-10T09:20:19.000Z</time>
      </trkpt>
      <trkpt lat="47.29954" lon="-2.28197">
        <ele>6.8000001907349</ele>
        <time>2021-10-10T09:20:22.000Z</time>
      </trkpt>
      <trkpt lat="47.29955" lon="-2.28222">
        <ele>6.8000001907349</ele>
        <time>2021-10-10T09:20:25.000Z</time>
      </trkpt>
      <trkpt lat="47.29961" lon="-2.28273">
        <ele>6.8000001907349</ele>
        <time>2021-10-10T09:20:31.000Z</time>
      </trkpt>
      <trkpt lat="47.29963" lon="-2.28316">
        <ele>6.8000001907349</ele>
        <time>2021-10-10T09:20:36.000Z</time>
      </trkpt>
      <trkpt lat="47.29962" lon="-2.28325">
        <ele>6.8000001907349</ele>
        <time>2021-10-10T09:20:37.000Z</time>
      </trkpt>
      <trkpt lat="47.29958" lon="-2.28353">
        <ele>6.8000001907349</ele>
        <time>2021-10-10T09:20:40.000Z</time>
      </trkpt>
      <trkpt lat="47.29954" lon="-2.28397">
        <ele>6.8000001907349</ele>
        <time>2021-10-10T09:20:45.000Z</time>
      </trkpt>
      <trkpt lat="47.29954" lon="-2.28406">
        <ele>6.8000001907349</ele>
        <time>2021-10-10T09:20:46.000Z</time>
      </trkpt>
      <trkpt lat="47.29946" lon="-2.28428">
        <ele>6.8000001907349</ele>
        <time>2021-10-10T09:20:49.000Z</time>
      </trkpt>
      <trkpt lat="47.29937" lon="-2.28459">
        <ele>6.8000001907349</ele>
        <time>2021-10-10T09:20:53.000Z</time>
      </trkpt>
      <trkpt lat="47.29937" lon="-2.28493">
        <ele>6.8000001907349</ele>
        <time>2021-10-10T09:20:57.000Z</time>
      </trkpt>
      <trkpt lat="47.29932" lon="-2.28512">
        <ele>6.8000001907349</ele>
        <time>2021-10-10T09:21:00.000Z</time>
      </trkpt>
      <trkpt lat="47.29931" lon="-2.28519">
        <ele>6.8000001907349</ele>
        <time>2021-10-10T09:21:01.000Z</time>
      </trkpt>
      <trkpt lat="47.29926" lon="-2.28544">
        <ele>6.8000001907349</ele>
        <time>2021-10-10T09:21:05.000Z</time>
      </trkpt>
      <trkpt lat="47.29928" lon="-2.2855">
        <ele>6.8000001907349</ele>
        <time>2021-10-10T09:21:06.000Z</time>
      </trkpt>
      <trkpt lat="47.29935" lon="-2.28562">
        <ele>6.8000001907349</ele>
        <time>2021-10-10T09:21:09.000Z</time>
      </trkpt>
      <trkpt lat="47.29937" lon="-2.28565">
        <ele>6.8000001907349</ele>
        <time>2021-10-10T09:21:10.000Z</time>
      </trkpt>
      <trkpt lat="47.29943" lon="-2.28581">
        <ele>6.8000001907349</ele>
        <time>2021-10-10T09:21:14.000Z</time>
      </trkpt>
      <trkpt lat="47.29944" lon="-2.28599">
        <ele>6.8000001907349</ele>
        <time>2021-10-10T09:21:17.000Z</time>
      </trkpt>
      <trkpt lat="47.29943" lon="-2.28607">
        <ele>6.8000001907349</ele>
        <time>2021-10-10T09:21:18.000Z</time>
      </trkpt>
      <trkpt lat="47.29939" lon="-2.28632">
        <ele>6.4000000953674</ele>
        <time>2021-10-10T09:21:21.000Z</time>
      </trkpt>
      <trkpt lat="47.29937" lon="-2.2864">
        <ele>6</ele>
        <time>2021-10-10T09:21:22.000Z</time>
      </trkpt>
      <trkpt lat="47.29935" lon="-2.28647">
        <ele>5.5999999046326</ele>
        <time>2021-10-10T09:21:23.000Z</time>
      </trkpt>
      <trkpt lat="47.29932" lon="-2.28655">
        <ele>5.1999998092651</ele>
        <time>2021-10-10T09:21:24.000Z</time>
      </trkpt>
      <trkpt lat="47.29929" lon="-2.28662">
        <ele>4.8000001907349</ele>
        <time>2021-10-10T09:21:25.000Z</time>
      </trkpt>
      <trkpt lat="47.29925" lon="-2.28676">
        <ele>4.8000001907349</ele>
        <time>2021-10-10T09:21:27.000Z</time>
      </trkpt>
      <trkpt lat="47.29922" lon="-2.28691">
        <ele>4.8000001907349</ele>
        <time>2021-10-10T09:21:29.000Z</time>
      </trkpt>
      <trkpt lat="47.29919" lon="-2.28706">
        <ele>4.8000001907349</ele>
        <time>2021-10-10T09:21:31.000Z</time>
      </trkpt>
      <trkpt lat="47.29915" lon="-2.28728">
        <ele>4.8000001907349</ele>
        <time>2021-10-10T09:21:34.000Z</time>
      </trkpt>
      <trkpt lat="47.29908" lon="-2.28772">
        <ele>4.8000001907349</ele>
        <time>2021-10-10T09:21:39.000Z</time>
      </trkpt>
      <trkpt lat="47.29899" lon="-2.28822">
        <ele>4.8000001907349</ele>
        <time>2021-10-10T09:21:45.000Z</time>
      </trkpt>
      <trkpt lat="47.29897" lon="-2.28838">
        <ele>4.8000001907349</ele>
        <time>2021-10-10T09:21:47.000Z</time>
      </trkpt>
      <trkpt lat="47.29891" lon="-2.2887">
        <ele>4.8000001907349</ele>
        <time>2021-10-10T09:21:51.000Z</time>
      </trkpt>
      <trkpt lat="47.29887" lon="-2.28883">
        <ele>4.8000001907349</ele>
        <time>2021-10-10T09:21:53.000Z</time>
      </trkpt>
      <trkpt lat="47.29879" lon="-2.28896">
        <ele>4.8000001907349</ele>
        <time>2021-10-10T09:21:55.000Z</time>
      </trkpt>
      <trkpt lat="47.29877" lon="-2.28919">
        <ele>4.8000001907349</ele>
        <time>2021-10-10T09:21:58.000Z</time>
      </trkpt>
      <trkpt lat="47.29877" lon="-2.28927">
        <ele>4.8000001907349</ele>
        <time>2021-10-10T09:21:59.000Z</time>
      </trkpt>
      <trkpt lat="47.29877" lon="-2.28934">
        <ele>4.8000001907349</ele>
        <time>2021-10-10T09:22:00.000Z</time>
      </trkpt>
      <trkpt lat="47.29883" lon="-2.28944">
        <ele>4.8000001907349</ele>
        <time>2021-10-10T09:22:02.000Z</time>
      </trkpt>
      <trkpt lat="47.29896" lon="-2.28947">
        <ele>4.8000001907349</ele>
        <time>2021-10-10T09:22:05.000Z</time>
      </trkpt>
      <trkpt lat="47.29901" lon="-2.28948">
        <ele>4.8000001907349</ele>
        <time>2021-10-10T09:22:06.000Z</time>
      </trkpt>
      <trkpt lat="47.29911" lon="-2.28951">
        <ele>4.8000001907349</ele>
        <time>2021-10-10T09:22:08.000Z</time>
      </trkpt>
      <trkpt lat="47.2992" lon="-2.28954">
        <ele>4.8000001907349</ele>
        <time>2021-10-10T09:22:10.000Z</time>
      </trkpt>
      <trkpt lat="47.29924" lon="-2.28958">
        <ele>4.8000001907349</ele>
        <time>2021-10-10T09:22:11.000Z</time>
      </trkpt>
      <trkpt lat="47.29927" lon="-2.28962">
        <ele>4.4000000953674</ele>
        <time>2021-10-10T09:22:12.000Z</time>
      </trkpt>
      <trkpt lat="47.2993" lon="-2.28966">
        <ele>4</ele>
        <time>2021-10-10T09:22:13.000Z</time>
      </trkpt>
      <trkpt lat="47.29933" lon="-2.28971">
        <ele>3.5999999046326</ele>
        <time>2021-10-10T09:22:14.000Z</time>
      </trkpt>
      <trkpt lat="47.29937" lon="-2.28976">
        <ele>3.2000000476837</ele>
        <time>2021-10-10T09:22:15.000Z</time>
      </trkpt>
      <trkpt lat="47.2994" lon="-2.28982">
        <ele>2.7999999523163</ele>
        <time>2021-10-10T09:22:16.000Z</time>
      </trkpt>
      <trkpt lat="47.29944" lon="-2.2899">
        <ele>2.7999999523163</ele>
        <time>2021-10-10T09:22:17.000Z</time>
      </trkpt>
      <trkpt lat="47.29951" lon="-2.28999">
        <ele>2.7999999523163</ele>
        <time>2021-10-10T09:22:19.000Z</time>
      </trkpt>
      <trkpt lat="47.2997" lon="-2.2903">
        <ele>2.7999999523163</ele>
        <time>2021-10-10T09:22:24.000Z</time>
      </trkpt>
      <trkpt lat="47.29988" lon="-2.29067">
        <ele>2.7999999523163</ele>
        <time>2021-10-10T09:22:29.000Z</time>
      </trkpt>
      <trkpt lat="47.29996" lon="-2.29081">
        <ele>2.7999999523163</ele>
        <time>2021-10-10T09:22:31.000Z</time>
      </trkpt>
      <trkpt lat="47.30004" lon="-2.29092">
        <ele>2.7999999523163</ele>
        <time>2021-10-10T09:22:33.000Z</time>
      </trkpt>
      <trkpt lat="47.30034" lon="-2.29123">
        <ele>2.7999999523163</ele>
        <time>2021-10-10T09:22:39.000Z</time>
      </trkpt>
      <trkpt lat="47.30055" lon="-2.29138">
        <ele>2.7999999523163</ele>
        <time>2021-10-10T09:22:43.000Z</time>
      </trkpt>
      <trkpt lat="47.30064" lon="-2.2915">
        <ele>2.7999999523163</ele>
        <time>2021-10-10T09:22:45.000Z</time>
      </trkpt>
      <trkpt lat="47.3007" lon="-2.29156">
        <ele>2.7999999523163</ele>
        <time>2021-10-10T09:22:46.000Z</time>
      </trkpt>
      <trkpt lat="47.30091" lon="-2.29188">
        <ele>2.4000000953674</ele>
        <time>2021-10-10T09:22:50.000Z</time>
      </trkpt>
      <trkpt lat="47.30096" lon="-2.29195">
        <ele>2</ele>
        <time>2021-10-10T09:22:51.000Z</time>
      </trkpt>
      <trkpt lat="47.30101" lon="-2.29203">
        <ele>1.6000000238419</ele>
        <time>2021-10-10T09:22:52.000Z</time>
      </trkpt>
      <trkpt lat="47.30106" lon="-2.2921">
        <ele>1.2000000476837</ele>
        <time>2021-10-10T09:22:53.000Z</time>
      </trkpt>
      <trkpt lat="47.30111" lon="-2.29218">
        <ele>0.80000001192093</ele>
        <time>2021-10-10T09:22:54.000Z</time>
      </trkpt>
      <trkpt lat="47.3012" lon="-2.29232">
        <ele>0.80000001192093</ele>
        <time>2021-10-10T09:22:56.000Z</time>
      </trkpt>
      <trkpt lat="47.30123" lon="-2.29239">
        <ele>0.80000001192093</ele>
        <time>2021-10-10T09:22:57.000Z</time>
      </trkpt>
      <trkpt lat="47.3015" lon="-2.29286">
        <ele>0.80000001192093</ele>
        <time>2021-10-10T09:23:03.000Z</time>
      </trkpt>
      <trkpt lat="47.30185" lon="-2.29346">
        <ele>0.80000001192093</ele>
        <time>2021-10-10T09:23:11.000Z</time>
      </trkpt>
      <trkpt lat="47.30201" lon="-2.29363">
        <ele>0.80000001192093</ele>
        <time>2021-10-10T09:23:14.000Z</time>
      </trkpt>
      <trkpt lat="47.30213" lon="-2.29369">
        <ele>0.80000001192093</ele>
        <time>2021-10-10T09:23:16.000Z</time>
      </trkpt>
      <trkpt lat="47.30238" lon="-2.29369">
        <ele>0.80000001192093</ele>
        <time>2021-10-10T09:23:20.000Z</time>
      </trkpt>
      <trkpt lat="47.30263" lon="-2.29352">
        <ele>0.80000001192093</ele>
        <time>2021-10-10T09:23:24.000Z</time>
      </trkpt>
      <trkpt lat="47.30268" lon="-2.29347">
        <ele>0.80000001192093</ele>
        <time>2021-10-10T09:23:25.000Z</time>
      </trkpt>
      <trkpt lat="47.30288" lon="-2.29324">
        <ele>0.80000001192093</ele>
        <time>2021-10-10T09:23:29.000Z</time>
      </trkpt>
      <trkpt lat="47.30306" lon="-2.29308">
        <ele>0.20000000298023</ele>
        <time>2021-10-10T09:23:32.000Z</time>
      </trkpt>
      <trkpt lat="47.30311" lon="-2.29304">
        <ele>-0.20000000298023</ele>
        <time>2021-10-10T09:23:33.000Z</time>
      </trkpt>
      <trkpt lat="47.30317" lon="-2.293">
        <ele>-0.60000002384186</ele>
        <time>2021-10-10T09:23:34.000Z</time>
      </trkpt>
      <trkpt lat="47.30323" lon="-2.29297">
        <ele>-1</ele>
        <time>2021-10-10T09:23:35.000Z</time>
      </trkpt>
      <trkpt lat="47.3033" lon="-2.29295">
        <ele>-1.3999999761581</ele>
        <time>2021-10-10T09:23:36.000Z</time>
      </trkpt>
      <trkpt lat="47.3035" lon="-2.29293">
        <ele>-1.3999999761581</ele>
        <time>2021-10-10T09:23:39.000Z</time>
      </trkpt>
      <trkpt lat="47.30357" lon="-2.29293">
        <ele>-1.3999999761581</ele>
        <time>2021-10-10T09:23:40.000Z</time>
      </trkpt>
      <trkpt lat="47.30388" lon="-2.29283">
        <ele>-1.3999999761581</ele>
        <time>2021-10-10T09:23:45.000Z</time>
      </trkpt>
      <trkpt lat="47.30404" lon="-2.29269">
        <ele>-1.3999999761581</ele>
        <time>2021-10-10T09:23:48.000Z</time>
      </trkpt>
      <trkpt lat="47.30413" lon="-2.29256">
        <ele>-1.3999999761581</ele>
        <time>2021-10-10T09:23:50.000Z</time>
      </trkpt>
      <trkpt lat="47.3044" lon="-2.29214">
        <ele>-1.3999999761581</ele>
        <time>2021-10-10T09:23:56.000Z</time>
      </trkpt>
      <trkpt lat="47.30477" lon="-2.29159">
        <ele>-1.3999999761581</ele>
        <time>2021-10-10T09:24:04.000Z</time>
      </trkpt>
      <trkpt lat="47.30495" lon="-2.2912">
        <ele>-1.3999999761581</ele>
        <time>2021-10-10T09:24:09.000Z</time>
      </trkpt>
      <trkpt lat="47.30505" lon="-2.29076">
        <ele>-1.3999999761581</ele>
        <time>2021-10-10T09:24:14.000Z</time>
      </trkpt>
      <trkpt lat="47.30505" lon="-2.29067">
        <ele>-1.3999999761581</ele>
        <time>2021-10-10T09:24:15.000Z</time>
      </trkpt>
      <trkpt lat="47.30499" lon="-2.29031">
        <ele>-1.3999999761581</ele>
        <time>2021-10-10T09:24:19.000Z</time>
      </trkpt>
      <trkpt lat="47.30497" lon="-2.29024">
        <ele>-1.3999999761581</ele>
        <time>2021-10-10T09:24:20.000Z</time>
      </trkpt>
      <trkpt lat="47.30495" lon="-2.28991">
        <ele>-1.3999999761581</ele>
        <time>2021-10-10T09:24:25.000Z</time>
      </trkpt>
      <trkpt lat="47.30508" lon="-2.28974">
        <ele>-1.3999999761581</ele>
        <time>2021-10-10T09:24:29.000Z</time>
      </trkpt>
      <trkpt lat="47.30512" lon="-2.28971">
        <ele>-1.3999999761581</ele>
        <time>2021-10-10T09:24:30.000Z</time>
      </trkpt>
      <trkpt lat="47.30526" lon="-2.28964">
        <ele>-1.3999999761581</ele>
        <time>2021-10-10T09:24:33.000Z</time>
      </trkpt>
      <trkpt lat="47.30538" lon="-2.28958">
        <ele>-1.3999999761581</ele>
        <time>2021-10-10T09:24:35.000Z</time>
      </trkpt>
      <trkpt lat="47.30549" lon="-2.28949">
        <ele>-1.3999999761581</ele>
        <time>2021-10-10T09:24:37.000Z</time>
      </trkpt>
      <trkpt lat="47.30555" lon="-2.28944">
        <ele>-1.3999999761581</ele>
        <time>2021-10-10T09:24:38.000Z</time>
      </trkpt>
      <trkpt lat="47.3056" lon="-2.28941">
        <ele>-1.3999999761581</ele>
        <time>2021-10-10T09:24:39.000Z</time>
      </trkpt>
      <trkpt lat="47.30565" lon="-2.28936">
        <ele>-1</ele>
        <time>2021-10-10T09:24:40.000Z</time>
      </trkpt>
      <trkpt lat="47.30569" lon="-2.28932">
        <ele>-0.40000000596046</ele>
        <time>2021-10-10T09:24:41.000Z</time>
      </trkpt>
      <trkpt lat="47.30573" lon="-2.28927">
        <ele>5.1</ele>
        <time>2021-10-10T09:24:42.000Z</time>
      </trkpt>
      <trkpt lat="47.30577" lon="-2.28923">
        <ele>0.40000000596046</ele>
        <time>2021-10-10T09:24:43.000Z</time>
      </trkpt>
      <trkpt lat="47.30581" lon="-2.28919">
        <ele>0.80000001192093</ele>
        <time>2021-10-10T09:24:44.000Z</time>
      </trkpt>
      <trkpt lat="47.30586" lon="-2.28916">
        <ele>0.80000001192093</ele>
        <time>2021-10-10T09:24:45.000Z</time>
      </trkpt>
      <trkpt lat="47.306" lon="-2.28908">
        <ele>0.80000001192093</ele>
        <time>2021-10-10T09:24:48.000Z</time>
      </trkpt>
      <trkpt lat="47.30609" lon="-2.28902">
        <ele>0.80000001192093</ele>
        <time>2021-10-10T09:24:50.000Z</time>
      </trkpt>
      <trkpt lat="47.30618" lon="-2.28896">
        <ele>0.80000001192093</ele>
        <time>2021-10-10T09:24:52.000Z</time>
      </trkpt>
      <trkpt lat="47.3065" lon="-2.28879">
        <ele>0.80000001192093</ele>
        <time>2021-10-10T09:24:59.000Z</time>
      </trkpt>
      <trkpt lat="47.3068" lon="-2.28859">
        <ele>0.80000001192093</ele>
        <time>2021-10-10T09:25:06.000Z</time>
      </trkpt>
      <trkpt lat="47.30684" lon="-2.28855">
        <ele>1.2000000476837</ele>
        <time>2021-10-10T09:25:07.000Z</time>
      </trkpt>
      <trkpt lat="47.30689" lon="-2.28852">
        <ele>1.7999999523163</ele>
        <time>2021-10-10T09:25:08.000Z</time>
      </trkpt>
      <trkpt lat="47.30693" lon="-2.28848">
        <ele>2.2000000476837</ele>
        <time>2021-10-10T09:25:09.000Z</time>
      </trkpt>
      <trkpt lat="47.30697" lon="-2.28844">
        <ele>3</ele>
        <time>2021-10-10T09:25:10.000Z</time>
      </trkpt>
      <trkpt lat="47.3071" lon="-2.28835">
        <ele>3</ele>
        <time>2021-10-10T09:25:13.000Z</time>
      </trkpt>
      <trkpt lat="47.30715" lon="-2.28834">
        <ele>3</ele>
        <time>2021-10-10T09:25:14.000Z</time>
      </trkpt>
      <trkpt lat="47.30724" lon="-2.28831">
        <ele>3</ele>
        <time>2021-10-10T09:25:16.000Z</time>
      </trkpt>
      <trkpt lat="47.30749" lon="-2.28825">
        <ele>3</ele>
        <time>2021-10-10T09:25:21.000Z</time>
      </trkpt>
      <trkpt lat="47.30787" lon="-2.28819">
        <ele>3</ele>
        <time>2021-10-10T09:25:28.000Z</time>
      </trkpt>
      <trkpt lat="47.30817" lon="-2.28817">
        <ele>2.5999999046326</ele>
        <time>2021-10-10T09:25:33.000Z</time>
      </trkpt>
      <trkpt lat="47.30823" lon="-2.28818">
        <ele>1.7999999523163</ele>
        <time>2021-10-10T09:25:34.000Z</time>
      </trkpt>
      <trkpt lat="47.3083" lon="-2.28819">
        <ele>1.3999999761581</ele>
        <time>2021-10-10T09:25:35.000Z</time>
      </trkpt>
      <trkpt lat="47.30836" lon="-2.2882">
        <ele>1</ele>
        <time>2021-10-10T09:25:36.000Z</time>
      </trkpt>
      <trkpt lat="47.3086" lon="-2.28823">
        <ele>1</ele>
        <time>2021-10-10T09:25:40.000Z</time>
      </trkpt>
      <trkpt lat="47.30866" lon="-2.28822">
        <ele>1</ele>
        <time>2021-10-10T09:25:41.000Z</time>
      </trkpt>
      <trkpt lat="47.30891" lon="-2.28821">
        <ele>0.60000002384186</ele>
        <time>2021-10-10T09:25:45.000Z</time>
      </trkpt>
      <trkpt lat="47.30897" lon="-2.28821">
        <ele>0.20000000298023</ele>
        <time>2021-10-10T09:25:46.000Z</time>
      </trkpt>
      <trkpt lat="47.30904" lon="-2.28821">
        <ele>-0.20000000298023</ele>
        <time>2021-10-10T09:25:47.000Z</time>
      </trkpt>
      <trkpt lat="47.3091" lon="-2.2882">
        <ele>-0.80000001192093</ele>
        <time>2021-10-10T09:25:48.000Z</time>
      </trkpt>
      <trkpt lat="47.30916" lon="-2.2882">
        <ele>-1.2000000476837</ele>
        <time>2021-10-10T09:25:49.000Z</time>
      </trkpt>
      <trkpt lat="47.30948" lon="-2.28822">
        <ele>-1.2000000476837</ele>
        <time>2021-10-10T09:25:55.000Z</time>
      </trkpt>
      <trkpt lat="47.30965" lon="-2.28821">
        <ele>-0.60000002384186</ele>
        <time>2021-10-10T09:25:59.000Z</time>
      </trkpt>
      <trkpt lat="47.30969" lon="-2.28821">
        <ele>-0.20000000298023</ele>
        <time>2021-10-10T09:26:00.000Z</time>
      </trkpt>
      <trkpt lat="47.30973" lon="-2.2882">
        <ele>0.20000000298023</ele>
        <time>2021-10-10T09:26:01.000Z</time>
      </trkpt>
      <trkpt lat="47.30977" lon="-2.28819">
        <ele>0.60000002384186</ele>
        <time>2021-10-10T09:26:02.000Z</time>
      </trkpt>
      <trkpt lat="47.30981" lon="-2.28817">
        <ele>1.2000000476837</ele>
        <time>2021-10-10T09:26:03.000Z</time>
      </trkpt>
      <trkpt lat="47.30994" lon="-2.28812">
        <ele>1.6000000238419</ele>
        <time>2021-10-10T09:26:06.000Z</time>
      </trkpt>
      <trkpt lat="47.30998" lon="-2.28811">
        <ele>2</ele>
        <time>2021-10-10T09:26:07.000Z</time>
      </trkpt>
      <trkpt lat="47.31002" lon="-2.2881">
        <ele>2.5999999046326</ele>
        <time>2021-10-10T09:26:08.000Z</time>
      </trkpt>
      <trkpt lat="47.31006" lon="-2.2881">
        <ele>3</ele>
        <time>2021-10-10T09:26:09.000Z</time>
      </trkpt>
      <trkpt lat="47.31009" lon="-2.28812">
        <ele>3.4000000953674</ele>
        <time>2021-10-10T09:26:10.000Z</time>
      </trkpt>
      <trkpt lat="47.31013" lon="-2.28814">
        <ele>3.4000000953674</ele>
        <time>2021-10-10T09:26:11.000Z</time>
      </trkpt>
      <trkpt lat="47.31029" lon="-2.2883">
        <ele>3.4000000953674</ele>
        <time>2021-10-10T09:26:16.000Z</time>
      </trkpt>
      <trkpt lat="47.31055" lon="-2.28851">
        <ele>3.4000000953674</ele>
        <time>2021-10-10T09:26:22.000Z</time>
      </trkpt>
      <trkpt lat="47.31092" lon="-2.28876">
        <ele>3.4000000953674</ele>
        <time>2021-10-10T09:26:29.000Z</time>
      </trkpt>
      <trkpt lat="47.31113" lon="-2.28888">
        <ele>3.4000000953674</ele>
        <time>2021-10-10T09:26:32.000Z</time>
      </trkpt>
      <trkpt lat="47.31119" lon="-2.28894">
        <ele>3</ele>
        <time>2021-10-10T09:26:33.000Z</time>
      </trkpt>
      <trkpt lat="47.31125" lon="-2.28899">
        <ele>2.5999999046326</ele>
        <time>2021-10-10T09:26:34.000Z</time>
      </trkpt>
      <trkpt lat="47.31131" lon="-2.28903">
        <ele>2.2000000476837</ele>
        <time>2021-10-10T09:26:35.000Z</time>
      </trkpt>
      <trkpt lat="47.31137" lon="-2.28903">
        <ele>1.7999999523163</ele>
        <time>2021-10-10T09:26:36.000Z</time>
      </trkpt>
      <trkpt lat="47.31142" lon="-2.28901">
        <ele>1.3999999761581</ele>
        <time>2021-10-10T09:26:37.000Z</time>
      </trkpt>
      <trkpt lat="47.31154" lon="-2.28896">
        <ele>1.3999999761581</ele>
        <time>2021-10-10T09:26:39.000Z</time>
      </trkpt>
      <trkpt lat="47.31169" lon="-2.28894">
        <ele>1.3999999761581</ele>
        <time>2021-10-10T09:26:42.000Z</time>
      </trkpt>
      <trkpt lat="47.3118" lon="-2.28909">
        <ele>1.3999999761581</ele>
        <time>2021-10-10T09:26:45.000Z</time>
      </trkpt>
      <trkpt lat="47.31189" lon="-2.2894">
        <ele>1.3999999761581</ele>
        <time>2021-10-10T09:26:49.000Z</time>
      </trkpt>
      <trkpt lat="47.31191" lon="-2.28948">
        <ele>1.3999999761581</ele>
        <time>2021-10-10T09:26:50.000Z</time>
      </trkpt>
      <trkpt lat="47.312" lon="-2.29006">
        <ele>1.3999999761581</ele>
        <time>2021-10-10T09:26:57.000Z</time>
      </trkpt>
      <trkpt lat="47.31205" lon="-2.29056">
        <ele>1.3999999761581</ele>
        <time>2021-10-10T09:27:03.000Z</time>
      </trkpt>
      <trkpt lat="47.31212" lon="-2.29116">
        <ele>1.3999999761581</ele>
        <time>2021-10-10T09:27:10.000Z</time>
      </trkpt>
      <trkpt lat="47.31219" lon="-2.29162">
        <ele>1.3999999761581</ele>
        <time>2021-10-10T09:27:15.000Z</time>
      </trkpt>
      <trkpt lat="47.31224" lon="-2.29179">
        <ele>1.3999999761581</ele>
        <time>2021-10-10T09:27:17.000Z</time>
      </trkpt>
      <trkpt lat="47.31242" lon="-2.29252">
        <ele>1.3999999761581</ele>
        <time>2021-10-10T09:27:26.000Z</time>
      </trkpt>
      <trkpt lat="47.31253" lon="-2.29308">
        <ele>1.3999999761581</ele>
        <time>2021-10-10T09:27:33.000Z</time>
      </trkpt>
      <trkpt lat="47.31261" lon="-2.29341">
        <ele>1.3999999761581</ele>
        <time>2021-10-10T09:27:38.000Z</time>
      </trkpt>
      <trkpt lat="47.31263" lon="-2.29355">
        <ele>1.3999999761581</ele>
        <time>2021-10-10T09:27:40.000Z</time>
      </trkpt>
      <trkpt lat="47.3126" lon="-2.29369">
        <ele>1.3999999761581</ele>
        <time>2021-10-10T09:27:42.000Z</time>
      </trkpt>
      <trkpt lat="47.31251" lon="-2.29385">
        <ele>1.3999999761581</ele>
        <time>2021-10-10T09:27:45.000Z</time>
      </trkpt>
      <trkpt lat="47.31247" lon="-2.29389">
        <ele>1.3999999761581</ele>
        <time>2021-10-10T09:27:46.000Z</time>
      </trkpt>
      <trkpt lat="47.31242" lon="-2.29393">
        <ele>1.3999999761581</ele>
        <time>2021-10-10T09:27:47.000Z</time>
      </trkpt>
      <trkpt lat="47.31224" lon="-2.29406">
        <ele>1.3999999761581</ele>
        <time>2021-10-10T09:27:50.000Z</time>
      </trkpt>
      <trkpt lat="47.31187" lon="-2.29431">
        <ele>1.3999999761581</ele>
        <time>2021-10-10T09:27:56.000Z</time>
      </trkpt>
      <trkpt lat="47.31148" lon="-2.29468">
        <ele>1.3999999761581</ele>
        <time>2021-10-10T09:28:03.000Z</time>
      </trkpt>
      <trkpt lat="47.31145" lon="-2.29495">
        <ele>1.3999999761581</ele>
        <time>2021-10-10T09:28:06.000Z</time>
      </trkpt>
      <trkpt lat="47.31148" lon="-2.2951">
        <ele>1.3999999761581</ele>
        <time>2021-10-10T09:28:08.000Z</time>
      </trkpt>
      <trkpt lat="47.3115" lon="-2.29516">
        <ele>1.3999999761581</ele>
        <time>2021-10-10T09:28:09.000Z</time>
      </trkpt>
      <trkpt lat="47.31153" lon="-2.29524">
        <ele>1.3999999761581</ele>
        <time>2021-10-10T09:28:10.000Z</time>
      </trkpt>
      <trkpt lat="47.31168" lon="-2.29568">
        <ele>1.3999999761581</ele>
        <time>2021-10-10T09:28:16.000Z</time>
      </trkpt>
      <trkpt lat="47.31168" lon="-2.29576">
        <ele>1.3999999761581</ele>
        <time>2021-10-10T09:28:17.000Z</time>
      </trkpt>
      <trkpt lat="47.31165" lon="-2.29589">
        <ele>1.3999999761581</ele>
        <time>2021-10-10T09:28:19.000Z</time>
      </trkpt>
      <trkpt lat="47.31152" lon="-2.29601">
        <ele>1.3999999761581</ele>
        <time>2021-10-10T09:28:22.000Z</time>
      </trkpt>
      <trkpt lat="47.31146" lon="-2.29605">
        <ele>1.3999999761581</ele>
        <time>2021-10-10T09:28:23.000Z</time>
      </trkpt>
      <trkpt lat="47.31119" lon="-2.2963">
        <ele>1.3999999761581</ele>
        <time>2021-10-10T09:28:28.000Z</time>
      </trkpt>
      <trkpt lat="47.31087" lon="-2.29665">
        <ele>1.3999999761581</ele>
        <time>2021-10-10T09:28:35.000Z</time>
      </trkpt>
      <trkpt lat="47.31061" lon="-2.29692">
        <ele>1.3999999761581</ele>
        <time>2021-10-10T09:28:41.000Z</time>
      </trkpt>
      <trkpt lat="47.31056" lon="-2.29695">
        <ele>1.3999999761581</ele>
        <time>2021-10-10T09:28:42.000Z</time>
      </trkpt>
      <trkpt lat="47.31045" lon="-2.29702">
        <ele>1.3999999761581</ele>
        <time>2021-10-10T09:28:46.000Z</time>
      </trkpt>
      <trkpt lat="47.31043" lon="-2.29703">
        <ele>1.3999999761581</ele>
        <time>2021-10-10T09:28:48.000Z</time>
      </trkpt>
      <trkpt lat="47.31042" lon="-2.29703">
        <ele>1.3999999761581</ele>
        <time>2021-10-10T09:28:51.000Z</time>
      </trkpt>
      <trkpt lat="47.31041" lon="-2.29705">
        <ele>1.3999999761581</ele>
        <time>2021-10-10T09:28:59.000Z</time>
      </trkpt>
      <trkpt lat="47.31041" lon="-2.29703">
        <ele>1.3999999761581</ele>
        <time>2021-10-10T09:29:00.000Z</time>
      </trkpt>
      <trkpt lat="47.31043" lon="-2.297">
        <ele>1.3999999761581</ele>
        <time>2021-10-10T09:29:03.000Z</time>
      </trkpt>
      <trkpt lat="47.31044" lon="-2.29699">
        <ele>1.3999999761581</ele>
        <time>2021-10-10T09:29:04.000Z</time>
      </trkpt>
      <trkpt lat="47.31052" lon="-2.29695">
        <ele>1.3999999761581</ele>
        <time>2021-10-10T09:29:07.000Z</time>
      </trkpt>
      <trkpt lat="47.31065" lon="-2.29687">
        <ele>1.3999999761581</ele>
        <time>2021-10-10T09:29:12.000Z</time>
      </trkpt>
      <trkpt lat="47.31077" lon="-2.29674">
        <ele>1.3999999761581</ele>
        <time>2021-10-10T09:29:19.000Z</time>
      </trkpt>
      <trkpt lat="47.31089" lon="-2.29656">
        <ele>1.3999999761581</ele>
        <time>2021-10-10T09:29:27.000Z</time>
      </trkpt>
      <trkpt lat="47.31103" lon="-2.29636">
        <ele>1.3999999761581</ele>
        <time>2021-10-10T09:29:33.000Z</time>
      </trkpt>
      <trkpt lat="47.31129" lon="-2.29613">
        <ele>1.3999999761581</ele>
        <time>2021-10-10T09:29:40.000Z</time>
      </trkpt>
      <trkpt lat="47.31153" lon="-2.29593">
        <ele>1.3999999761581</ele>
        <time>2021-10-10T09:29:46.000Z</time>
      </trkpt>
      <trkpt lat="47.31161" lon="-2.29582">
        <ele>1.3999999761581</ele>
        <time>2021-10-10T09:29:48.000Z</time>
      </trkpt>
      <trkpt lat="47.31165" lon="-2.29566">
        <ele>1.3999999761581</ele>
        <time>2021-10-10T09:29:50.000Z</time>
      </trkpt>
      <trkpt lat="47.31161" lon="-2.29543">
        <ele>1.3999999761581</ele>
        <time>2021-10-10T09:29:53.000Z</time>
      </trkpt>
      <trkpt lat="47.31159" lon="-2.29536">
        <ele>1.3999999761581</ele>
        <time>2021-10-10T09:29:54.000Z</time>
      </trkpt>
      <trkpt lat="47.31148" lon="-2.29506">
        <ele>1.3999999761581</ele>
        <time>2021-10-10T09:29:59.000Z</time>
      </trkpt>
      <trkpt lat="47.31142" lon="-2.29487">
        <ele>1.3999999761581</ele>
        <time>2021-10-10T09:30:02.000Z</time>
      </trkpt>
      <trkpt lat="47.31142" lon="-2.29474">
        <ele>1.3999999761581</ele>
        <time>2021-10-10T09:30:04.000Z</time>
      </trkpt>
      <trkpt lat="47.31149" lon="-2.29463">
        <ele>1.3999999761581</ele>
        <time>2021-10-10T09:30:07.000Z</time>
      </trkpt>
      <trkpt lat="47.31156" lon="-2.29456">
        <ele>1.3999999761581</ele>
        <time>2021-10-10T09:30:09.000Z</time>
      </trkpt>
      <trkpt lat="47.31169" lon="-2.29444">
        <ele>1.3999999761581</ele>
        <time>2021-10-10T09:30:13.000Z</time>
      </trkpt>
      <trkpt lat="47.31196" lon="-2.29424">
        <ele>1.3999999761581</ele>
        <time>2021-10-10T09:30:20.000Z</time>
      </trkpt>
      <trkpt lat="47.31223" lon="-2.29403">
        <ele>1.3999999761581</ele>
        <time>2021-10-10T09:30:27.000Z</time>
      </trkpt>
      <trkpt lat="47.3125" lon="-2.29382">
        <ele>1.3999999761581</ele>
        <time>2021-10-10T09:30:35.000Z</time>
      </trkpt>
      <trkpt lat="47.31259" lon="-2.29361">
        <ele>1.3999999761581</ele>
        <time>2021-10-10T09:30:40.000Z</time>
      </trkpt>
      <trkpt lat="47.31268" lon="-2.2934">
        <ele>1.3999999761581</ele>
        <time>2021-10-10T09:30:46.000Z</time>
      </trkpt>
      <trkpt lat="47.3128" lon="-2.29318">
        <ele>1.3999999761581</ele>
        <time>2021-10-10T09:30:52.000Z</time>
      </trkpt>
      <trkpt lat="47.31283" lon="-2.29313">
        <ele>1.3999999761581</ele>
        <time>2021-10-10T09:30:53.000Z</time>
      </trkpt>
      <trkpt lat="47.31297" lon="-2.29303">
        <ele>1.3999999761581</ele>
        <time>2021-10-10T09:30:56.000Z</time>
      </trkpt>
      <trkpt lat="47.31302" lon="-2.293">
        <ele>1.3999999761581</ele>
        <time>2021-10-10T09:30:57.000Z</time>
      </trkpt>
      <trkpt lat="47.31308" lon="-2.29299">
        <ele>1.3999999761581</ele>
        <time>2021-10-10T09:30:58.000Z</time>
      </trkpt>
      <trkpt lat="47.31324" lon="-2.29301">
        <ele>1.3999999761581</ele>
        <time>2021-10-10T09:31:01.000Z</time>
      </trkpt>
      <trkpt lat="47.31329" lon="-2.29302">
        <ele>1.3999999761581</ele>
        <time>2021-10-10T09:31:02.000Z</time>
      </trkpt>
      <trkpt lat="47.31335" lon="-2.29303">
        <ele>1.3999999761581</ele>
        <time>2021-10-10T09:31:03.000Z</time>
      </trkpt>
      <trkpt lat="47.3135" lon="-2.29308">
        <ele>1.7999999523163</ele>
        <time>2021-10-10T09:31:06.000Z</time>
      </trkpt>
      <trkpt lat="47.31355" lon="-2.2931">
        <ele>2.2000000476837</ele>
        <time>2021-10-10T09:31:07.000Z</time>
      </trkpt>
      <trkpt lat="47.31361" lon="-2.29312">
        <ele>2.5999999046326</ele>
        <time>2021-10-10T09:31:08.000Z</time>
      </trkpt>
      <trkpt lat="47.31366" lon="-2.29315">
        <ele>3</ele>
        <time>2021-10-10T09:31:09.000Z</time>
      </trkpt>
      <trkpt lat="47.31371" lon="-2.29318">
        <ele>3.4000000953674</ele>
        <time>2021-10-10T09:31:10.000Z</time>
      </trkpt>
      <trkpt lat="47.31391" lon="-2.29326">
        <ele>3.4000000953674</ele>
        <time>2021-10-10T09:31:14.000Z</time>
      </trkpt>
      <trkpt lat="47.31396" lon="-2.29329">
        <ele>3.4000000953674</ele>
        <time>2021-10-10T09:31:15.000Z</time>
      </trkpt>
      <trkpt lat="47.3141" lon="-2.29342">
        <ele>3.4000000953674</ele>
        <time>2021-10-10T09:31:18.000Z</time>
      </trkpt>
      <trkpt lat="47.31428" lon="-2.29364">
        <ele>3.4000000953674</ele>
        <time>2021-10-10T09:31:23.000Z</time>
      </trkpt>
      <trkpt lat="47.3143" lon="-2.29369">
        <ele>3.4000000953674</ele>
        <time>2021-10-10T09:31:24.000Z</time>
      </trkpt>
      <trkpt lat="47.31433" lon="-2.29374">
        <ele>3.7999999523163</ele>
        <time>2021-10-10T09:31:25.000Z</time>
      </trkpt>
      <trkpt lat="47.31436" lon="-2.29379">
        <ele>4.1999998092651</ele>
        <time>2021-10-10T09:31:26.000Z</time>
      </trkpt>
      <trkpt lat="47.31439" lon="-2.29384">
        <ele>4.5999999046326</ele>
        <time>2021-10-10T09:31:27.000Z</time>
      </trkpt>
      <trkpt lat="47.31442" lon="-2.29389">
        <ele>5</ele>
        <time>2021-10-10T09:31:28.000Z</time>
      </trkpt>
      <trkpt lat="47.31446" lon="-2.29394">
        <ele>5.4000000953674</ele>
        <time>2021-10-10T09:31:29.000Z</time>
      </trkpt>
      <trkpt lat="47.31464" lon="-2.29403">
        <ele>5.4000000953674</ele>
        <time>2021-10-10T09:31:33.000Z</time>
      </trkpt>
      <trkpt lat="47.31473" lon="-2.29401">
        <ele>5.4000000953674</ele>
        <time>2021-10-10T09:31:35.000Z</time>
      </trkpt>
      <trkpt lat="47.31488" lon="-2.29397">
        <ele>5.4000000953674</ele>
        <time>2021-10-10T09:31:38.000Z</time>
      </trkpt>
      <trkpt lat="47.31493" lon="-2.29397">
        <ele>5.4000000953674</ele>
        <time>2021-10-10T09:31:39.000Z</time>
      </trkpt>
      <trkpt lat="47.31505" lon="-2.29407">
        <ele>5.4000000953674</ele>
        <time>2021-10-10T09:31:42.000Z</time>
      </trkpt>
      <trkpt lat="47.31508" lon="-2.29412">
        <ele>5.8000001907349</ele>
        <time>2021-10-10T09:31:43.000Z</time>
      </trkpt>
      <trkpt lat="47.31511" lon="-2.29416">
        <ele>6.4000000953674</ele>
        <time>2021-10-10T09:31:44.000Z</time>
      </trkpt>
      <trkpt lat="47.31514" lon="-2.29421">
        <ele>7.1999998092651</ele>
        <time>2021-10-10T09:31:45.000Z</time>
      </trkpt>
      <trkpt lat="47.31517" lon="-2.29427">
        <ele>7.5999999046326</ele>
        <time>2021-10-10T09:31:46.000Z</time>
      </trkpt>
      <trkpt lat="47.31519" lon="-2.29434">
        <ele>7.5999999046326</ele>
        <time>2021-10-10T09:31:47.000Z</time>
      </trkpt>
      <trkpt lat="47.31533" lon="-2.29472">
        <ele>7.5999999046326</ele>
        <time>2021-10-10T09:31:53.000Z</time>
      </trkpt>
      <trkpt lat="47.31537" lon="-2.29492">
        <ele>8</ele>
        <time>2021-10-10T09:31:56.000Z</time>
      </trkpt>
      <trkpt lat="47.31538" lon="-2.29498">
        <ele>8.3999996185303</ele>
        <time>2021-10-10T09:31:57.000Z</time>
      </trkpt>
      <trkpt lat="47.3154" lon="-2.29504">
        <ele>9</ele>
        <time>2021-10-10T09:31:58.000Z</time>
      </trkpt>
      <trkpt lat="47.31541" lon="-2.2951">
        <ele>9.3999996185303</ele>
        <time>2021-10-10T09:31:59.000Z</time>
      </trkpt>
      <trkpt lat="47.31542" lon="-2.29516">
        <ele>9.8000001907349</ele>
        <time>2021-10-10T09:32:00.000Z</time>
      </trkpt>
      <trkpt lat="47.31549" lon="-2.29536">
        <ele>9.8000001907349</ele>
        <time>2021-10-10T09:32:03.000Z</time>
      </trkpt>
      <trkpt lat="47.3156" lon="-2.29556">
        <ele>9.8000001907349</ele>
        <time>2021-10-10T09:32:07.000Z</time>
      </trkpt>
      <trkpt lat="47.31564" lon="-2.29561">
        <ele>9.8000001907349</ele>
        <time>2021-10-10T09:32:08.000Z</time>
      </trkpt>
      <trkpt lat="47.31578" lon="-2.29579">
        <ele>9.8000001907349</ele>
        <time>2021-10-10T09:32:12.000Z</time>
      </trkpt>
      <trkpt lat="47.31605" lon="-2.2961">
        <ele>9.8000001907349</ele>
        <time>2021-10-10T09:32:20.000Z</time>
      </trkpt>
      <trkpt lat="47.31623" lon="-2.29638">
        <ele>9.8000001907349</ele>
        <time>2021-10-10T09:32:25.000Z</time>
      </trkpt>
      <trkpt lat="47.31631" lon="-2.29656">
        <ele>9.8000001907349</ele>
        <time>2021-10-10T09:32:28.000Z</time>
      </trkpt>
      <trkpt lat="47.31636" lon="-2.2967">
        <ele>10.199999809265</ele>
        <time>2021-10-10T09:32:30.000Z</time>
      </trkpt>
      <trkpt lat="47.31639" lon="-2.29677">
        <ele>10.60000038147</ele>
        <time>2021-10-10T09:32:31.000Z</time>
      </trkpt>
      <trkpt lat="47.31641" lon="-2.29683">
        <ele>11</ele>
        <time>2021-10-10T09:32:32.000Z</time>
      </trkpt>
      <trkpt lat="47.31643" lon="-2.2969">
        <ele>11.39999961853</ele>
        <time>2021-10-10T09:32:33.000Z</time>
      </trkpt>
      <trkpt lat="47.31646" lon="-2.29697">
        <ele>12</ele>
        <time>2021-10-10T09:32:34.000Z</time>
      </trkpt>
      <trkpt lat="47.31658" lon="-2.2973">
        <ele>12</ele>
        <time>2021-10-10T09:32:39.000Z</time>
      </trkpt>
      <trkpt lat="47.31674" lon="-2.29739">
        <ele>12</ele>
        <time>2021-10-10T09:32:43.000Z</time>
      </trkpt>
      <trkpt lat="47.31682" lon="-2.29737">
        <ele>12</ele>
        <time>2021-10-10T09:32:46.000Z</time>
      </trkpt>
      <trkpt lat="47.31687" lon="-2.29737">
        <ele>12</ele>
        <time>2021-10-10T09:32:48.000Z</time>
      </trkpt>
      <trkpt lat="47.31702" lon="-2.29733">
        <ele>12</ele>
        <time>2021-10-10T09:32:55.000Z</time>
      </trkpt>
      <trkpt lat="47.31715" lon="-2.29724">
        <ele>12</ele>
        <time>2021-10-10T09:33:01.000Z</time>
      </trkpt>
      <trkpt lat="47.31732" lon="-2.29708">
        <ele>12</ele>
        <time>2021-10-10T09:33:06.000Z</time>
      </trkpt>
      <trkpt lat="47.31759" lon="-2.29688">
        <ele>12</ele>
        <time>2021-10-10T09:33:12.000Z</time>
      </trkpt>
      <trkpt lat="47.318" lon="-2.29658">
        <ele>12</ele>
        <time>2021-10-10T09:33:21.000Z</time>
      </trkpt>
      <trkpt lat="47.31821" lon="-2.29642">
        <ele>12</ele>
        <time>2021-10-10T09:33:26.000Z</time>
      </trkpt>
      <trkpt lat="47.31826" lon="-2.2964">
        <ele>12</ele>
        <time>2021-10-10T09:33:27.000Z</time>
      </trkpt>
      <trkpt lat="47.31853" lon="-2.29624">
        <ele>12</ele>
        <time>2021-10-10T09:33:33.000Z</time>
      </trkpt>
      <trkpt lat="47.31857" lon="-2.29621">
        <ele>12</ele>
        <time>2021-10-10T09:33:34.000Z</time>
      </trkpt>
      <trkpt lat="47.31867" lon="-2.29605">
        <ele>12</ele>
        <time>2021-10-10T09:33:37.000Z</time>
      </trkpt>
      <trkpt lat="47.31871" lon="-2.29598">
        <ele>12</ele>
        <time>2021-10-10T09:33:38.000Z</time>
      </trkpt>
      <trkpt lat="47.31872" lon="-2.29575">
        <ele>12</ele>
        <time>2021-10-10T09:33:41.000Z</time>
      </trkpt>
      <trkpt lat="47.31866" lon="-2.29556">
        <ele>12</ele>
        <time>2021-10-10T09:33:44.000Z</time>
      </trkpt>
      <trkpt lat="47.31864" lon="-2.29549">
        <ele>12</ele>
        <time>2021-10-10T09:33:45.000Z</time>
      </trkpt>
      <trkpt lat="47.31847" lon="-2.29495">
        <ele>12</ele>
        <time>2021-10-10T09:33:53.000Z</time>
      </trkpt>
      <trkpt lat="47.31845" lon="-2.29482">
        <ele>12</ele>
        <time>2021-10-10T09:33:55.000Z</time>
      </trkpt>
      <trkpt lat="47.31846" lon="-2.29464">
        <ele>12</ele>
        <time>2021-10-10T09:33:58.000Z</time>
      </trkpt>
      <trkpt lat="47.31849" lon="-2.29442">
        <ele>11.39999961853</ele>
        <time>2021-10-10T09:34:02.000Z</time>
      </trkpt>
      <trkpt lat="47.3185" lon="-2.29437">
        <ele>11</ele>
        <time>2021-10-10T09:34:03.000Z</time>
      </trkpt>
      <trkpt lat="47.31851" lon="-2.2943">
        <ele>10.60000038147</ele>
        <time>2021-10-10T09:34:04.000Z</time>
      </trkpt>
      <trkpt lat="47.31851" lon="-2.29424">
        <ele>10.199999809265</ele>
        <time>2021-10-10T09:34:05.000Z</time>
      </trkpt>
      <trkpt lat="47.31851" lon="-2.29416">
        <ele>9.8000001907349</ele>
        <time>2021-10-10T09:34:06.000Z</time>
      </trkpt>
      <trkpt lat="47.31851" lon="-2.294">
        <ele>9.8000001907349</ele>
        <time>2021-10-10T09:34:08.000Z</time>
      </trkpt>
      <trkpt lat="47.31848" lon="-2.29385">
        <ele>9.8000001907349</ele>
        <time>2021-10-10T09:34:10.000Z</time>
      </trkpt>
      <trkpt lat="47.31843" lon="-2.29363">
        <ele>9.8000001907349</ele>
        <time>2021-10-10T09:34:13.000Z</time>
      </trkpt>
      <trkpt lat="47.31838" lon="-2.29343">
        <ele>9.8000001907349</ele>
        <time>2021-10-10T09:34:16.000Z</time>
      </trkpt>
      <trkpt lat="47.31837" lon="-2.29336">
        <ele>9.8000001907349</ele>
        <time>2021-10-10T09:34:17.000Z</time>
      </trkpt>
      <trkpt lat="47.31833" lon="-2.29305">
        <ele>9.8000001907349</ele>
        <time>2021-10-10T09:34:21.000Z</time>
      </trkpt>
      <trkpt lat="47.31828" lon="-2.29251">
        <ele>9.3999996185303</ele>
        <time>2021-10-10T09:34:27.000Z</time>
      </trkpt>
      <trkpt lat="47.31826" lon="-2.29242">
        <ele>9</ele>
        <time>2021-10-10T09:34:28.000Z</time>
      </trkpt>
      <trkpt lat="47.31824" lon="-2.29233">
        <ele>8.3999996185303</ele>
        <time>2021-10-10T09:34:29.000Z</time>
      </trkpt>
      <trkpt lat="47.31823" lon="-2.29224">
        <ele>8</ele>
        <time>2021-10-10T09:34:30.000Z</time>
      </trkpt>
      <trkpt lat="47.31821" lon="-2.29214">
        <ele>7.5999999046326</ele>
        <time>2021-10-10T09:34:31.000Z</time>
      </trkpt>
      <trkpt lat="47.31821" lon="-2.29193">
        <ele>7.5999999046326</ele>
        <time>2021-10-10T09:34:33.000Z</time>
      </trkpt>
      <trkpt lat="47.31824" lon="-2.29161">
        <ele>7.1999998092651</ele>
        <time>2021-10-10T09:34:36.000Z</time>
      </trkpt>
      <trkpt lat="47.31825" lon="-2.2915">
        <ele>6.8000001907349</ele>
        <time>2021-10-10T09:34:37.000Z</time>
      </trkpt>
      <trkpt lat="47.31826" lon="-2.29139">
        <ele>6</ele>
        <time>2021-10-10T09:34:38.000Z</time>
      </trkpt>
      <trkpt lat="47.31829" lon="-2.29127">
        <ele>5.5999999046326</ele>
        <time>2021-10-10T09:34:39.000Z</time>
      </trkpt>
      <trkpt lat="47.31832" lon="-2.29105">
        <ele>5.1999998092651</ele>
        <time>2021-10-10T09:34:41.000Z</time>
      </trkpt>
      <trkpt lat="47.31833" lon="-2.29094">
        <ele>4.5999999046326</ele>
        <time>2021-10-10T09:34:42.000Z</time>
      </trkpt>
      <trkpt lat="47.31835" lon="-2.29083">
        <ele>4.1999998092651</ele>
        <time>2021-10-10T09:34:43.000Z</time>
      </trkpt>
      <trkpt lat="47.31837" lon="-2.29072">
        <ele>3.7999999523163</ele>
        <time>2021-10-10T09:34:44.000Z</time>
      </trkpt>
      <trkpt lat="47.31839" lon="-2.29061">
        <ele>3.4000000953674</ele>
        <time>2021-10-10T09:34:45.000Z</time>
      </trkpt>
      <trkpt lat="47.31851" lon="-2.29009">
        <ele>3.4000000953674</ele>
        <time>2021-10-10T09:34:50.000Z</time>
      </trkpt>
      <trkpt lat="47.31855" lon="-2.28989">
        <ele>3.4000000953674</ele>
        <time>2021-10-10T09:34:52.000Z</time>
      </trkpt>
      <trkpt lat="47.31858" lon="-2.28968">
        <ele>3.4000000953674</ele>
        <time>2021-10-10T09:34:54.000Z</time>
      </trkpt>
      <trkpt lat="47.31858" lon="-2.2896">
        <ele>3.4000000953674</ele>
        <time>2021-10-10T09:34:55.000Z</time>
      </trkpt>
      <trkpt lat="47.31859" lon="-2.28953">
        <ele>3</ele>
        <time>2021-10-10T09:34:56.000Z</time>
      </trkpt>
      <trkpt lat="47.31861" lon="-2.28946">
        <ele>2.5999999046326</ele>
        <time>2021-10-10T09:34:57.000Z</time>
      </trkpt>
      <trkpt lat="47.31864" lon="-2.28941">
        <ele>2</ele>
        <time>2021-10-10T09:34:58.000Z</time>
      </trkpt>
      <trkpt lat="47.31867" lon="-2.2894">
        <ele>1.6000000238419</ele>
        <time>2021-10-10T09:34:59.000Z</time>
      </trkpt>
      <trkpt lat="47.31871" lon="-2.28941">
        <ele>1.2000000476837</ele>
        <time>2021-10-10T09:35:00.000Z</time>
      </trkpt>
      <trkpt lat="47.31875" lon="-2.28941">
        <ele>1.2000000476837</ele>
        <time>2021-10-10T09:35:01.000Z</time>
      </trkpt>
      <trkpt lat="47.31878" lon="-2.28941">
        <ele>1.2000000476837</ele>
        <time>2021-10-10T09:35:02.000Z</time>
      </trkpt>
      <trkpt lat="47.31883" lon="-2.2894">
        <ele>1.2000000476837</ele>
        <time>2021-10-10T09:35:03.000Z</time>
      </trkpt>
      <trkpt lat="47.31905" lon="-2.2893">
        <ele>1.2000000476837</ele>
        <time>2021-10-10T09:35:07.000Z</time>
      </trkpt>
      <trkpt lat="47.31925" lon="-2.28911">
        <ele>1.2000000476837</ele>
        <time>2021-10-10T09:35:11.000Z</time>
      </trkpt>
      <trkpt lat="47.31942" lon="-2.28898">
        <ele>0.80000001192093</ele>
        <time>2021-10-10T09:35:15.000Z</time>
      </trkpt>
      <trkpt lat="47.31946" lon="-2.28897">
        <ele>0.40000000596046</ele>
        <time>2021-10-10T09:35:16.000Z</time>
      </trkpt>
      <trkpt lat="47.3195" lon="-2.28896">
        <ele>3.2</ele>
        <time>2021-10-10T09:35:17.000Z</time>
      </trkpt>
      <trkpt lat="47.31955" lon="-2.28894">
        <ele>-0.40000000596046</ele>
        <time>2021-10-10T09:35:18.000Z</time>
      </trkpt>
      <trkpt lat="47.31959" lon="-2.28892">
        <ele>-0.80000001192093</ele>
        <time>2021-10-10T09:35:19.000Z</time>
      </trkpt>
      <trkpt lat="47.31969" lon="-2.2889">
        <ele>-0.80000001192093</ele>
        <time>2021-10-10T09:35:21.000Z</time>
      </trkpt>
      <trkpt lat="47.31975" lon="-2.28889">
        <ele>-0.80000001192093</ele>
        <time>2021-10-10T09:35:22.000Z</time>
      </trkpt>
      <trkpt lat="47.31988" lon="-2.28886">
        <ele>-0.80000001192093</ele>
        <time>2021-10-10T09:35:24.000Z</time>
      </trkpt>
      <trkpt lat="47.32005" lon="-2.28883">
        <ele>-0.80000001192093</ele>
        <time>2021-10-10T09:35:27.000Z</time>
      </trkpt>
      <trkpt lat="47.32026" lon="-2.2887">
        <ele>-0.80000001192093</ele>
        <time>2021-10-10T09:35:32.000Z</time>
      </trkpt>
      <trkpt lat="47.32033" lon="-2.28871">
        <ele>-0.80000001192093</ele>
        <time>2021-10-10T09:35:34.000Z</time>
      </trkpt>
      <trkpt lat="47.32037" lon="-2.28875">
        <ele>-0.80000001192093</ele>
        <time>2021-10-10T09:35:35.000Z</time>
      </trkpt>
      <trkpt lat="47.32043" lon="-2.28887">
        <ele>-0.80000001192093</ele>
        <time>2021-10-10T09:35:37.000Z</time>
      </trkpt>
      <trkpt lat="47.32046" lon="-2.28902">
        <ele>-0.80000001192093</ele>
        <time>2021-10-10T09:35:39.000Z</time>
      </trkpt>
      <trkpt lat="47.32048" lon="-2.28919">
        <ele>-0.80000001192093</ele>
        <time>2021-10-10T09:35:41.000Z</time>
      </trkpt>
      <trkpt lat="47.32053" lon="-2.2894">
        <ele>-0.80000001192093</ele>
        <time>2021-10-10T09:35:44.000Z</time>
      </trkpt>
      <trkpt lat="47.32057" lon="-2.28945">
        <ele>-0.80000001192093</ele>
        <time>2021-10-10T09:35:45.000Z</time>
      </trkpt>
      <trkpt lat="47.32067" lon="-2.28952">
        <ele>-0.80000001192093</ele>
        <time>2021-10-10T09:35:47.000Z</time>
      </trkpt>
      <trkpt lat="47.32085" lon="-2.28963">
        <ele>-0.80000001192093</ele>
        <time>2021-10-10T09:35:51.000Z</time>
      </trkpt>
      <trkpt lat="47.32094" lon="-2.28972">
        <ele>-0.80000001192093</ele>
        <time>2021-10-10T09:35:53.000Z</time>
      </trkpt>
      <trkpt lat="47.32107" lon="-2.28992">
        <ele>-0.80000001192093</ele>
        <time>2021-10-10T09:35:57.000Z</time>
      </trkpt>
      <trkpt lat="47.32109" lon="-2.28997">
        <ele>-0.80000001192093</ele>
        <time>2021-10-10T09:35:58.000Z</time>
      </trkpt>
      <trkpt lat="47.32121" lon="-2.29022">
        <ele>-0.40000000596046</ele>
        <time>2021-10-10T09:36:03.000Z</time>
      </trkpt>
      <trkpt lat="47.32124" lon="-2.29027">
        <ele>7</ele>
        <time>2021-10-10T09:36:04.000Z</time>
      </trkpt>
      <trkpt lat="47.32126" lon="-2.29032">
        <ele>0.40000000596046</ele>
        <time>2021-10-10T09:36:05.000Z</time>
      </trkpt>
      <trkpt lat="47.32128" lon="-2.29038">
        <ele>0.80000001192093</ele>
        <time>2021-10-10T09:36:06.000Z</time>
      </trkpt>
      <trkpt lat="47.32131" lon="-2.29043">
        <ele>1.2000000476837</ele>
        <time>2021-10-10T09:36:07.000Z</time>
      </trkpt>
      <trkpt lat="47.3214" lon="-2.29065">
        <ele>1.2000000476837</ele>
        <time>2021-10-10T09:36:11.000Z</time>
      </trkpt>
      <trkpt lat="47.32147" lon="-2.29082">
        <ele>1.2000000476837</ele>
        <time>2021-10-10T09:36:14.000Z</time>
      </trkpt>
      <trkpt lat="47.32159" lon="-2.29098">
        <ele>1.2000000476837</ele>
        <time>2021-10-10T09:36:17.000Z</time>
      </trkpt>
      <trkpt lat="47.32191" lon="-2.2914">
        <ele>1.2000000476837</ele>
        <time>2021-10-10T09:36:24.000Z</time>
      </trkpt>
      <trkpt lat="47.32222" lon="-2.29175">
        <ele>1.2000000476837</ele>
        <time>2021-10-10T09:36:30.000Z</time>
      </trkpt>
      <trkpt lat="47.32226" lon="-2.29182">
        <ele>1.2000000476837</ele>
        <time>2021-10-10T09:36:31.000Z</time>
      </trkpt>
      <trkpt lat="47.32238" lon="-2.29202">
        <ele>1.2000000476837</ele>
        <time>2021-10-10T09:36:34.000Z</time>
      </trkpt>
      <trkpt lat="47.32241" lon="-2.29208">
        <ele>1.2000000476837</ele>
        <time>2021-10-10T09:36:35.000Z</time>
      </trkpt>
      <trkpt lat="47.32249" lon="-2.29218">
        <ele>1.2000000476837</ele>
        <time>2021-10-10T09:36:37.000Z</time>
      </trkpt>
      <trkpt lat="47.32257" lon="-2.29223">
        <ele>1.2000000476837</ele>
        <time>2021-10-10T09:36:39.000Z</time>
      </trkpt>
      <trkpt lat="47.32271" lon="-2.2922">
        <ele>1.2000000476837</ele>
        <time>2021-10-10T09:36:42.000Z</time>
      </trkpt>
      <trkpt lat="47.32296" lon="-2.29215">
        <ele>1.2000000476837</ele>
        <time>2021-10-10T09:36:47.000Z</time>
      </trkpt>
      <trkpt lat="47.32306" lon="-2.29214">
        <ele>1.2000000476837</ele>
        <time>2021-10-10T09:36:49.000Z</time>
      </trkpt>
      <trkpt lat="47.32322" lon="-2.29222">
        <ele>1.2000000476837</ele>
        <time>2021-10-10T09:36:53.000Z</time>
      </trkpt>
      <trkpt lat="47.32348" lon="-2.29238">
        <ele>1.2000000476837</ele>
        <time>2021-10-10T09:36:59.000Z</time>
      </trkpt>
      <trkpt lat="47.32358" lon="-2.29243">
        <ele>1.2000000476837</ele>
        <time>2021-10-10T09:37:01.000Z</time>
      </trkpt>
      <trkpt lat="47.32373" lon="-2.29251">
        <ele>1.2000000476837</ele>
        <time>2021-10-10T09:37:04.000Z</time>
      </trkpt>
      <trkpt lat="47.32399" lon="-2.29266">
        <ele>1.2000000476837</ele>
        <time>2021-10-10T09:37:09.000Z</time>
      </trkpt>
      <trkpt lat="47.32404" lon="-2.29271">
        <ele>1.2000000476837</ele>
        <time>2021-10-10T09:37:10.000Z</time>
      </trkpt>
      <trkpt lat="47.32416" lon="-2.293">
        <ele>1.2000000476837</ele>
        <time>2021-10-10T09:37:14.000Z</time>
      </trkpt>
      <trkpt lat="47.32418" lon="-2.29308">
        <ele>1.2000000476837</ele>
        <time>2021-10-10T09:37:15.000Z</time>
      </trkpt>
      <trkpt lat="47.32424" lon="-2.29349">
        <ele>1.2000000476837</ele>
        <time>2021-10-10T09:37:20.000Z</time>
      </trkpt>
      <trkpt lat="47.32428" lon="-2.29382">
        <ele>1.2000000476837</ele>
        <time>2021-10-10T09:37:24.000Z</time>
      </trkpt>
      <trkpt lat="47.32431" lon="-2.29396">
        <ele>1.2000000476837</ele>
        <time>2021-10-10T09:37:26.000Z</time>
      </trkpt>
      <trkpt lat="47.32438" lon="-2.29447">
        <ele>1.2000000476837</ele>
        <time>2021-10-10T09:37:33.000Z</time>
      </trkpt>
      <trkpt lat="47.32441" lon="-2.29469">
        <ele>1.6000000238419</ele>
        <time>2021-10-10T09:37:36.000Z</time>
      </trkpt>
      <trkpt lat="47.32443" lon="-2.29477">
        <ele>2</ele>
        <time>2021-10-10T09:37:37.000Z</time>
      </trkpt>
      <trkpt lat="47.32445" lon="-2.29484">
        <ele>2.4000000953674</ele>
        <time>2021-10-10T09:37:38.000Z</time>
      </trkpt>
      <trkpt lat="47.32447" lon="-2.29492">
        <ele>2.7999999523163</ele>
        <time>2021-10-10T09:37:39.000Z</time>
      </trkpt>
      <trkpt lat="47.32449" lon="-2.29499">
        <ele>3.2000000476837</ele>
        <time>2021-10-10T09:37:40.000Z</time>
      </trkpt>
      <trkpt lat="47.32457" lon="-2.29525">
        <ele>3.2000000476837</ele>
        <time>2021-10-10T09:37:44.000Z</time>
      </trkpt>
      <trkpt lat="47.32459" lon="-2.29531">
        <ele>3.5999999046326</ele>
        <time>2021-10-10T09:37:45.000Z</time>
      </trkpt>
      <trkpt lat="47.32461" lon="-2.29538">
        <ele>4.1999998092651</ele>
        <time>2021-10-10T09:37:46.000Z</time>
      </trkpt>
      <trkpt lat="47.32464" lon="-2.29545">
        <ele>4.5999999046326</ele>
        <time>2021-10-10T09:37:47.000Z</time>
      </trkpt>
      <trkpt lat="47.32466" lon="-2.29551">
        <ele>5</ele>
        <time>2021-10-10T09:37:48.000Z</time>
      </trkpt>
      <trkpt lat="47.32468" lon="-2.29558">
        <ele>5.4000000953674</ele>
        <time>2021-10-10T09:37:49.000Z</time>
      </trkpt>
      <trkpt lat="47.3247" lon="-2.29564">
        <ele>5.4000000953674</ele>
        <time>2021-10-10T09:37:50.000Z</time>
      </trkpt>
      <trkpt lat="47.32476" lon="-2.29587">
        <ele>6.1999998092651</ele>
        <time>2021-10-10T09:37:54.000Z</time>
      </trkpt>
      <trkpt lat="47.32478" lon="-2.29593">
        <ele>6.5999999046326</ele>
        <time>2021-10-10T09:37:55.000Z</time>
      </trkpt>
      <trkpt lat="47.32479" lon="-2.29598">
        <ele>7</ele>
        <time>2021-10-10T09:37:56.000Z</time>
      </trkpt>
      <trkpt lat="47.32481" lon="-2.29604">
        <ele>7.4000000953674</ele>
        <time>2021-10-10T09:37:57.000Z</time>
      </trkpt>
      <trkpt lat="47.32483" lon="-2.29611">
        <ele>7.4000000953674</ele>
        <time>2021-10-10T09:37:58.000Z</time>
      </trkpt>
      <trkpt lat="47.32486" lon="-2.29624">
        <ele>8</ele>
        <time>2021-10-10T09:38:00.000Z</time>
      </trkpt>
      <trkpt lat="47.32488" lon="-2.2963">
        <ele>8.3999996185303</ele>
        <time>2021-10-10T09:38:01.000Z</time>
      </trkpt>
      <trkpt lat="47.32489" lon="-2.29636">
        <ele>8.8000001907349</ele>
        <time>2021-10-10T09:38:02.000Z</time>
      </trkpt>
      <trkpt lat="47.32491" lon="-2.29643">
        <ele>9.1999998092651</ele>
        <time>2021-10-10T09:38:03.000Z</time>
      </trkpt>
      <trkpt lat="47.32493" lon="-2.29649">
        <ele>9.6000003814697</ele>
        <time>2021-10-10T09:38:04.000Z</time>
      </trkpt>
      <trkpt lat="47.32497" lon="-2.2966">
        <ele>9.6000003814697</ele>
        <time>2021-10-10T09:38:06.000Z</time>
      </trkpt>
      <trkpt lat="47.32502" lon="-2.29678">
        <ele>10</ele>
        <time>2021-10-10T09:38:09.000Z</time>
      </trkpt>
      <trkpt lat="47.32504" lon="-2.29684">
        <ele>10.60000038147</ele>
        <time>2021-10-10T09:38:10.000Z</time>
      </trkpt>
      <trkpt lat="47.32505" lon="-2.2969">
        <ele>11</ele>
        <time>2021-10-10T09:38:11.000Z</time>
      </trkpt>
      <trkpt lat="47.32507" lon="-2.29696">
        <ele>11.39999961853</ele>
        <time>2021-10-10T09:38:12.000Z</time>
      </trkpt>
      <trkpt lat="47.32508" lon="-2.29703">
        <ele>11.800000190735</ele>
        <time>2021-10-10T09:38:13.000Z</time>
      </trkpt>
      <trkpt lat="47.3251" lon="-2.29709">
        <ele>11.800000190735</ele>
        <time>2021-10-10T09:38:14.000Z</time>
      </trkpt>
      <trkpt lat="47.32519" lon="-2.29748">
        <ele>11.800000190735</ele>
        <time>2021-10-10T09:38:20.000Z</time>
      </trkpt>
      <trkpt lat="47.32527" lon="-2.29776">
        <ele>11.800000190735</ele>
        <time>2021-10-10T09:38:26.000Z</time>
      </trkpt>
      <trkpt lat="47.32526" lon="-2.29788">
        <ele>11.800000190735</ele>
        <time>2021-10-10T09:38:30.000Z</time>
      </trkpt>
      <trkpt lat="47.32518" lon="-2.29798">
        <ele>11.800000190735</ele>
        <time>2021-10-10T09:38:35.000Z</time>
      </trkpt>
      <trkpt lat="47.32516" lon="-2.298">
        <ele>11.800000190735</ele>
        <time>2021-10-10T09:38:36.000Z</time>
      </trkpt>
      <trkpt lat="47.32497" lon="-2.29819">
        <ele>11.800000190735</ele>
        <time>2021-10-10T09:38:44.000Z</time>
      </trkpt>
      <trkpt lat="47.32479" lon="-2.29836">
        <ele>11.800000190735</ele>
        <time>2021-10-10T09:38:51.000Z</time>
      </trkpt>
      <trkpt lat="47.32463" lon="-2.29849">
        <ele>11.800000190735</ele>
        <time>2021-10-10T09:38:58.000Z</time>
      </trkpt>
      <trkpt lat="47.32446" lon="-2.29866">
        <ele>11.800000190735</ele>
        <time>2021-10-10T09:39:05.000Z</time>
      </trkpt>
      <trkpt lat="47.32442" lon="-2.29874">
        <ele>11.800000190735</ele>
        <time>2021-10-10T09:39:08.000Z</time>
      </trkpt>
      <trkpt lat="47.32442" lon="-2.29878">
        <ele>11.800000190735</ele>
        <time>2021-10-10T09:39:10.000Z</time>
      </trkpt>
      <trkpt lat="47.32442" lon="-2.29878">
        <ele>11.800000190735</ele>
        <time>2021-10-10T09:39:17.000Z</time>
      </trkpt>
      <trkpt lat="47.32444" lon="-2.29895">
        <ele>11.800000190735</ele>
        <time>2021-10-10T09:39:22.000Z</time>
      </trkpt>
      <trkpt lat="47.32451" lon="-2.29931">
        <ele>11.800000190735</ele>
        <time>2021-10-10T09:39:28.000Z</time>
      </trkpt>
      <trkpt lat="47.3245" lon="-2.29936">
        <ele>11.800000190735</ele>
        <time>2021-10-10T09:39:29.000Z</time>
      </trkpt>
      <trkpt lat="47.32446" lon="-2.29944">
        <ele>11.800000190735</ele>
        <time>2021-10-10T09:39:31.000Z</time>
      </trkpt>
      <trkpt lat="47.32446" lon="-2.29957">
        <ele>11.800000190735</ele>
        <time>2021-10-10T09:39:34.000Z</time>
      </trkpt>
      <trkpt lat="47.32453" lon="-2.29967">
        <ele>11.800000190735</ele>
        <time>2021-10-10T09:39:37.000Z</time>
      </trkpt>
      <trkpt lat="47.3246" lon="-2.29975">
        <ele>11.800000190735</ele>
        <time>2021-10-10T09:39:39.000Z</time>
      </trkpt>
      <trkpt lat="47.32478" lon="-2.30008">
        <ele>11.800000190735</ele>
        <time>2021-10-10T09:39:45.000Z</time>
      </trkpt>
      <trkpt lat="47.3248" lon="-2.30015">
        <ele>11.800000190735</ele>
        <time>2021-10-10T09:39:46.000Z</time>
      </trkpt>
      <trkpt lat="47.32492" lon="-2.30057">
        <ele>12.199999809265</ele>
        <time>2021-10-10T09:39:52.000Z</time>
      </trkpt>
      <trkpt lat="47.32494" lon="-2.30065">
        <ele>12.60000038147</ele>
        <time>2021-10-10T09:39:53.000Z</time>
      </trkpt>
      <trkpt lat="47.32495" lon="-2.30072">
        <ele>13.199999809265</ele>
        <time>2021-10-10T09:39:54.000Z</time>
      </trkpt>
      <trkpt lat="47.32496" lon="-2.30081">
        <ele>13.60000038147</ele>
        <time>2021-10-10T09:39:55.000Z</time>
      </trkpt>
      <trkpt lat="47.32497" lon="-2.30089">
        <ele>14</ele>
        <time>2021-10-10T09:39:56.000Z</time>
      </trkpt>
      <trkpt lat="47.32499" lon="-2.30104">
        <ele>14</ele>
        <time>2021-10-10T09:39:58.000Z</time>
      </trkpt>
      <trkpt lat="47.325" lon="-2.30112">
        <ele>14</ele>
        <time>2021-10-10T09:39:59.000Z</time>
      </trkpt>
      <trkpt lat="47.32506" lon="-2.30161">
        <ele>14</ele>
        <time>2021-10-10T09:40:05.000Z</time>
      </trkpt>
      <trkpt lat="47.32508" lon="-2.30169">
        <ele>14</ele>
        <time>2021-10-10T09:40:06.000Z</time>
      </trkpt>
      <trkpt lat="47.32511" lon="-2.30185">
        <ele>14</ele>
        <time>2021-10-10T09:40:08.000Z</time>
      </trkpt>
      <trkpt lat="47.32513" lon="-2.30202">
        <ele>14</ele>
        <time>2021-10-10T09:40:10.000Z</time>
      </trkpt>
      <trkpt lat="47.3252" lon="-2.30257">
        <ele>14</ele>
        <time>2021-10-10T09:40:16.000Z</time>
      </trkpt>
      <trkpt lat="47.32531" lon="-2.30317">
        <ele>13.60000038147</ele>
        <time>2021-10-10T09:40:23.000Z</time>
      </trkpt>
      <trkpt lat="47.32532" lon="-2.30325">
        <ele>13</ele>
        <time>2021-10-10T09:40:24.000Z</time>
      </trkpt>
      <trkpt lat="47.32534" lon="-2.30333">
        <ele>12.60000038147</ele>
        <time>2021-10-10T09:40:25.000Z</time>
      </trkpt>
      <trkpt lat="47.32535" lon="-2.30342">
        <ele>12.199999809265</ele>
        <time>2021-10-10T09:40:26.000Z</time>
      </trkpt>
      <trkpt lat="47.32537" lon="-2.3035">
        <ele>11.800000190735</ele>
        <time>2021-10-10T09:40:27.000Z</time>
      </trkpt>
      <trkpt lat="47.3254" lon="-2.30367">
        <ele>11.800000190735</ele>
        <time>2021-10-10T09:40:29.000Z</time>
      </trkpt>
      <trkpt lat="47.32543" lon="-2.3039">
        <ele>11.800000190735</ele>
        <time>2021-10-10T09:40:32.000Z</time>
      </trkpt>
      <trkpt lat="47.32542" lon="-2.30397">
        <ele>11.800000190735</ele>
        <time>2021-10-10T09:40:33.000Z</time>
      </trkpt>
      <trkpt lat="47.32529" lon="-2.30405">
        <ele>11.800000190735</ele>
        <time>2021-10-10T09:40:36.000Z</time>
      </trkpt>
      <trkpt lat="47.32524" lon="-2.30407">
        <ele>11.800000190735</ele>
        <time>2021-10-10T09:40:37.000Z</time>
      </trkpt>
      <trkpt lat="47.32506" lon="-2.30416">
        <ele>11.800000190735</ele>
        <time>2021-10-10T09:40:41.000Z</time>
      </trkpt>
      <trkpt lat="47.32503" lon="-2.3042">
        <ele>11.800000190735</ele>
        <time>2021-10-10T09:40:42.000Z</time>
      </trkpt>
      <trkpt lat="47.32502" lon="-2.30427">
        <ele>11.800000190735</ele>
        <time>2021-10-10T09:40:43.000Z</time>
      </trkpt>
      <trkpt lat="47.32508" lon="-2.30455">
        <ele>11.800000190735</ele>
        <time>2021-10-10T09:40:47.000Z</time>
      </trkpt>
      <trkpt lat="47.32513" lon="-2.3048">
        <ele>11.39999961853</ele>
        <time>2021-10-10T09:40:50.000Z</time>
      </trkpt>
      <trkpt lat="47.32515" lon="-2.30488">
        <ele>11</ele>
        <time>2021-10-10T09:40:51.000Z</time>
      </trkpt>
      <trkpt lat="47.32517" lon="-2.30497">
        <ele>10.60000038147</ele>
        <time>2021-10-10T09:40:52.000Z</time>
      </trkpt>
      <trkpt lat="47.32519" lon="-2.30506">
        <ele>10.199999809265</ele>
        <time>2021-10-10T09:40:53.000Z</time>
      </trkpt>
      <trkpt lat="47.3252" lon="-2.30515">
        <ele>9.8000001907349</ele>
        <time>2021-10-10T09:40:54.000Z</time>
      </trkpt>
      <trkpt lat="47.32527" lon="-2.3056">
        <ele>9.8000001907349</ele>
        <time>2021-10-10T09:40:59.000Z</time>
      </trkpt>
      <trkpt lat="47.32535" lon="-2.30611">
        <ele>9.8000001907349</ele>
        <time>2021-10-10T09:41:05.000Z</time>
      </trkpt>
      <trkpt lat="47.32537" lon="-2.3062">
        <ele>9.8000001907349</ele>
        <time>2021-10-10T09:41:06.000Z</time>
      </trkpt>
      <trkpt lat="47.32545" lon="-2.30655">
        <ele>9.8000001907349</ele>
        <time>2021-10-10T09:41:10.000Z</time>
      </trkpt>
      <trkpt lat="47.32548" lon="-2.30672">
        <ele>9.8000001907349</ele>
        <time>2021-10-10T09:41:12.000Z</time>
      </trkpt>
      <trkpt lat="47.32553" lon="-2.30725">
        <ele>9.8000001907349</ele>
        <time>2021-10-10T09:41:18.000Z</time>
      </trkpt>
      <trkpt lat="47.32555" lon="-2.30735">
        <ele>9.8000001907349</ele>
        <time>2021-10-10T09:41:19.000Z</time>
      </trkpt>
      <trkpt lat="47.3256" lon="-2.30762">
        <ele>9.8000001907349</ele>
        <time>2021-10-10T09:41:22.000Z</time>
      </trkpt>
      <trkpt lat="47.32569" lon="-2.30824">
        <ele>9.8000001907349</ele>
        <time>2021-10-10T09:41:29.000Z</time>
      </trkpt>
      <trkpt lat="47.32571" lon="-2.3085">
        <ele>9.8000001907349</ele>
        <time>2021-10-10T09:41:32.000Z</time>
      </trkpt>
      <trkpt lat="47.32572" lon="-2.30876">
        <ele>9.8000001907349</ele>
        <time>2021-10-10T09:41:35.000Z</time>
      </trkpt>
      <trkpt lat="47.32571" lon="-2.30926">
        <ele>9.8000001907349</ele>
        <time>2021-10-10T09:41:41.000Z</time>
      </trkpt>
      <trkpt lat="47.32569" lon="-2.3098">
        <ele>9.8000001907349</ele>
        <time>2021-10-10T09:41:48.000Z</time>
      </trkpt>
      <trkpt lat="47.32573" lon="-2.31028">
        <ele>9.8000001907349</ele>
        <time>2021-10-10T09:41:54.000Z</time>
      </trkpt>
      <trkpt lat="47.32578" lon="-2.3106">
        <ele>9.8000001907349</ele>
        <time>2021-10-10T09:41:58.000Z</time>
      </trkpt>
      <trkpt lat="47.32579" lon="-2.31077">
        <ele>9.8000001907349</ele>
        <time>2021-10-10T09:42:00.000Z</time>
      </trkpt>
      <trkpt lat="47.32575" lon="-2.3113">
        <ele>9.3999996185303</ele>
        <time>2021-10-10T09:42:06.000Z</time>
      </trkpt>
      <trkpt lat="47.32574" lon="-2.31138">
        <ele>8.8000001907349</ele>
        <time>2021-10-10T09:42:07.000Z</time>
      </trkpt>
      <trkpt lat="47.32573" lon="-2.31146">
        <ele>8.3999996185303</ele>
        <time>2021-10-10T09:42:08.000Z</time>
      </trkpt>
      <trkpt lat="47.32572" lon="-2.31152">
        <ele>8</ele>
        <time>2021-10-10T09:42:09.000Z</time>
      </trkpt>
      <trkpt lat="47.32572" lon="-2.31158">
        <ele>7.5999999046326</ele>
        <time>2021-10-10T09:42:10.000Z</time>
      </trkpt>
      <trkpt lat="47.32571" lon="-2.31165">
        <ele>7.5999999046326</ele>
        <time>2021-10-10T09:42:11.000Z</time>
      </trkpt>
      <trkpt lat="47.32571" lon="-2.31188">
        <ele>7.5999999046326</ele>
        <time>2021-10-10T09:42:15.000Z</time>
      </trkpt>
      <trkpt lat="47.32571" lon="-2.31193">
        <ele>7.5999999046326</ele>
        <time>2021-10-10T09:42:16.000Z</time>
      </trkpt>
      <trkpt lat="47.32576" lon="-2.31218">
        <ele>7.5999999046326</ele>
        <time>2021-10-10T09:42:20.000Z</time>
      </trkpt>
      <trkpt lat="47.32577" lon="-2.31242">
        <ele>7.5999999046326</ele>
        <time>2021-10-10T09:42:23.000Z</time>
      </trkpt>
      <trkpt lat="47.32577" lon="-2.3125">
        <ele>7.5999999046326</ele>
        <time>2021-10-10T09:42:24.000Z</time>
      </trkpt>
      <trkpt lat="47.32574" lon="-2.31305">
        <ele>7.5999999046326</ele>
        <time>2021-10-10T09:42:31.000Z</time>
      </trkpt>
      <trkpt lat="47.32572" lon="-2.31312">
        <ele>7.5999999046326</ele>
        <time>2021-10-10T09:42:32.000Z</time>
      </trkpt>
      <trkpt lat="47.32565" lon="-2.31328">
        <ele>7.5999999046326</ele>
        <time>2021-10-10T09:42:34.000Z</time>
      </trkpt>
      <trkpt lat="47.32561" lon="-2.31344">
        <ele>7.5999999046326</ele>
        <time>2021-10-10T09:42:36.000Z</time>
      </trkpt>
      <trkpt lat="47.32556" lon="-2.31387">
        <ele>7.5999999046326</ele>
        <time>2021-10-10T09:42:42.000Z</time>
      </trkpt>
      <trkpt lat="47.32552" lon="-2.31405">
        <ele>7.5999999046326</ele>
        <time>2021-10-10T09:42:46.000Z</time>
      </trkpt>
      <trkpt lat="47.32552" lon="-2.31416">
        <ele>7.5999999046326</ele>
        <time>2021-10-10T09:42:48.000Z</time>
      </trkpt>
      <trkpt lat="47.32554" lon="-2.31422">
        <ele>7.5999999046326</ele>
        <time>2021-10-10T09:42:49.000Z</time>
      </trkpt>
      <trkpt lat="47.32559" lon="-2.31452">
        <ele>7.5999999046326</ele>
        <time>2021-10-10T09:42:54.000Z</time>
      </trkpt>
      <trkpt lat="47.3256" lon="-2.31459">
        <ele>7.5999999046326</ele>
        <time>2021-10-10T09:42:55.000Z</time>
      </trkpt>
      <trkpt lat="47.3256" lon="-2.31477">
        <ele>7.5999999046326</ele>
        <time>2021-10-10T09:42:57.000Z</time>
      </trkpt>
      <trkpt lat="47.3256" lon="-2.31486">
        <ele>7.5999999046326</ele>
        <time>2021-10-10T09:42:58.000Z</time>
      </trkpt>
      <trkpt lat="47.32558" lon="-2.31547">
        <ele>7.5999999046326</ele>
        <time>2021-10-10T09:43:05.000Z</time>
      </trkpt>
      <trkpt lat="47.32558" lon="-2.3158">
        <ele>7.5999999046326</ele>
        <time>2021-10-10T09:43:09.000Z</time>
      </trkpt>
      <trkpt lat="47.32556" lon="-2.31586">
        <ele>7.5999999046326</ele>
        <time>2021-10-10T09:43:10.000Z</time>
      </trkpt>
      <trkpt lat="47.32541" lon="-2.31608">
        <ele>7.5999999046326</ele>
        <time>2021-10-10T09:43:14.000Z</time>
      </trkpt>
      <trkpt lat="47.32516" lon="-2.31641">
        <ele>7.5999999046326</ele>
        <time>2021-10-10T09:43:20.000Z</time>
      </trkpt>
      <trkpt lat="47.32513" lon="-2.31647">
        <ele>7.5999999046326</ele>
        <time>2021-10-10T09:43:21.000Z</time>
      </trkpt>
      <trkpt lat="47.3251" lon="-2.31663">
        <ele>7.5999999046326</ele>
        <time>2021-10-10T09:43:23.000Z</time>
      </trkpt>
      <trkpt lat="47.32509" lon="-2.31689">
        <ele>7.5999999046326</ele>
        <time>2021-10-10T09:43:26.000Z</time>
      </trkpt>
      <trkpt lat="47.3251" lon="-2.31707">
        <ele>7.5999999046326</ele>
        <time>2021-10-10T09:43:28.000Z</time>
      </trkpt>
      <trkpt lat="47.32511" lon="-2.31724">
        <ele>7.5999999046326</ele>
        <time>2021-10-10T09:43:30.000Z</time>
      </trkpt>
      <trkpt lat="47.32514" lon="-2.31761">
        <ele>7.5999999046326</ele>
        <time>2021-10-10T09:43:34.000Z</time>
      </trkpt>
      <trkpt lat="47.32519" lon="-2.31832">
        <ele>7.5999999046326</ele>
        <time>2021-10-10T09:43:42.000Z</time>
      </trkpt>
      <trkpt lat="47.32517" lon="-2.31887">
        <ele>7.5999999046326</ele>
        <time>2021-10-10T09:43:48.000Z</time>
      </trkpt>
      <trkpt lat="47.32511" lon="-2.31939">
        <ele>7.5999999046326</ele>
        <time>2021-10-10T09:43:54.000Z</time>
      </trkpt>
      <trkpt lat="47.3251" lon="-2.31948">
        <ele>7.5999999046326</ele>
        <time>2021-10-10T09:43:55.000Z</time>
      </trkpt>
      <trkpt lat="47.32508" lon="-2.31981">
        <ele>7.5999999046326</ele>
        <time>2021-10-10T09:43:59.000Z</time>
      </trkpt>
      <trkpt lat="47.32507" lon="-2.32047">
        <ele>7.5999999046326</ele>
        <time>2021-10-10T09:44:07.000Z</time>
      </trkpt>
      <trkpt lat="47.32506" lon="-2.32061">
        <ele>7.5999999046326</ele>
        <time>2021-10-10T09:44:09.000Z</time>
      </trkpt>
      <trkpt lat="47.32504" lon="-2.32079">
        <ele>7.5999999046326</ele>
        <time>2021-10-10T09:44:12.000Z</time>
      </trkpt>
      <trkpt lat="47.32501" lon="-2.32085">
        <ele>7.5999999046326</ele>
        <time>2021-10-10T09:44:13.000Z</time>
      </trkpt>
      <trkpt lat="47.32491" lon="-2.32094">
        <ele>7.5999999046326</ele>
        <time>2021-10-10T09:44:15.000Z</time>
      </trkpt>
      <trkpt lat="47.32479" lon="-2.32097">
        <ele>7.5999999046326</ele>
        <time>2021-10-10T09:44:17.000Z</time>
      </trkpt>
      <trkpt lat="47.32467" lon="-2.32099">
        <ele>7.5999999046326</ele>
        <time>2021-10-10T09:44:19.000Z</time>
      </trkpt>
      <trkpt lat="47.32419" lon="-2.32103">
        <ele>7.5999999046326</ele>
        <time>2021-10-10T09:44:27.000Z</time>
      </trkpt>
      <trkpt lat="47.32381" lon="-2.32106">
        <ele>7.5999999046326</ele>
        <time>2021-10-10T09:44:34.000Z</time>
      </trkpt>
      <trkpt lat="47.32357" lon="-2.32108">
        <ele>7.5999999046326</ele>
        <time>2021-10-10T09:44:40.000Z</time>
      </trkpt>
      <trkpt lat="47.32354" lon="-2.32109">
        <ele>7.1999998092651</ele>
        <time>2021-10-10T09:44:43.000Z</time>
      </trkpt>
      <trkpt lat="47.32354" lon="-2.32109">
        <ele>6.8000001907349</ele>
        <time>2021-10-10T09:44:44.000Z</time>
      </trkpt>
      <trkpt lat="47.32354" lon="-2.32109">
        <ele>6.4000000953674</ele>
        <time>2021-10-10T09:44:45.000Z</time>
      </trkpt>
      <trkpt lat="47.32354" lon="-2.32109">
        <ele>6</ele>
        <time>2021-10-10T09:44:46.000Z</time>
      </trkpt>
      <trkpt lat="47.32352" lon="-2.32109">
        <ele>5.5999999046326</ele>
        <time>2021-10-10T09:44:47.000Z</time>
      </trkpt>
      <trkpt lat="47.32347" lon="-2.32109">
        <ele>5.5999999046326</ele>
        <time>2021-10-10T09:44:49.000Z</time>
      </trkpt>
      <trkpt lat="47.32329" lon="-2.32102">
        <ele>5.5999999046326</ele>
        <time>2021-10-10T09:44:54.000Z</time>
      </trkpt>
      <trkpt lat="47.32315" lon="-2.321">
        <ele>5.5999999046326</ele>
        <time>2021-10-10T09:44:58.000Z</time>
      </trkpt>
      <trkpt lat="47.32286" lon="-2.32099">
        <ele>6</ele>
        <time>2021-10-10T09:45:05.000Z</time>
      </trkpt>
      <trkpt lat="47.32281" lon="-2.321">
        <ele>6.4000000953674</ele>
        <time>2021-10-10T09:45:06.000Z</time>
      </trkpt>
      <trkpt lat="47.32276" lon="-2.32101">
        <ele>6.8000001907349</ele>
        <time>2021-10-10T09:45:07.000Z</time>
      </trkpt>
      <trkpt lat="47.32271" lon="-2.32102">
        <ele>7.1999998092651</ele>
        <time>2021-10-10T09:45:08.000Z</time>
      </trkpt>
      <trkpt lat="47.32265" lon="-2.32102">
        <ele>7.5999999046326</ele>
        <time>2021-10-10T09:45:09.000Z</time>
      </trkpt>
      <trkpt lat="47.32254" lon="-2.32104">
        <ele>7.5999999046326</ele>
        <time>2021-10-10T09:45:11.000Z</time>
      </trkpt>
      <trkpt lat="47.32216" lon="-2.32113">
        <ele>7.5999999046326</ele>
        <time>2021-10-10T09:45:18.000Z</time>
      </trkpt>
      <trkpt lat="47.32203" lon="-2.32117">
        <ele>7.5999999046326</ele>
        <time>2021-10-10T09:45:22.000Z</time>
      </trkpt>
      <trkpt lat="47.32192" lon="-2.3212">
        <ele>7.5999999046326</ele>
        <time>2021-10-10T09:45:25.000Z</time>
      </trkpt>
      <trkpt lat="47.32188" lon="-2.32123">
        <ele>7.1999998092651</ele>
        <time>2021-10-10T09:45:26.000Z</time>
      </trkpt>
      <trkpt lat="47.32184" lon="-2.32126">
        <ele>6.8000001907349</ele>
        <time>2021-10-10T09:45:27.000Z</time>
      </trkpt>
      <trkpt lat="47.32179" lon="-2.3213">
        <ele>6.4000000953674</ele>
        <time>2021-10-10T09:45:28.000Z</time>
      </trkpt>
      <trkpt lat="47.32175" lon="-2.32133">
        <ele>5.8000001907349</ele>
        <time>2021-10-10T09:45:29.000Z</time>
      </trkpt>
      <trkpt lat="47.32171" lon="-2.32137">
        <ele>5.4000000953674</ele>
        <time>2021-10-10T09:45:30.000Z</time>
      </trkpt>
      <trkpt lat="47.32151" lon="-2.32155">
        <ele>5.4000000953674</ele>
        <time>2021-10-10T09:45:34.000Z</time>
      </trkpt>
      <trkpt lat="47.32115" lon="-2.32179">
        <ele>5.4000000953674</ele>
        <time>2021-10-10T09:45:41.000Z</time>
      </trkpt>
      <trkpt lat="47.32083" lon="-2.32183">
        <ele>5.4000000953674</ele>
        <time>2021-10-10T09:45:47.000Z</time>
      </trkpt>
      <trkpt lat="47.3205" lon="-2.32186">
        <ele>5.4000000953674</ele>
        <time>2021-10-10T09:45:54.000Z</time>
      </trkpt>
      <trkpt lat="47.32036" lon="-2.32187">
        <ele>5.8000001907349</ele>
        <time>2021-10-10T09:45:57.000Z</time>
      </trkpt>
      <trkpt lat="47.32031" lon="-2.32187">
        <ele>6.1999998092651</ele>
        <time>2021-10-10T09:45:58.000Z</time>
      </trkpt>
      <trkpt lat="47.32026" lon="-2.32188">
        <ele>6.5999999046326</ele>
        <time>2021-10-10T09:45:59.000Z</time>
      </trkpt>
      <trkpt lat="47.32021" lon="-2.3219">
        <ele>7.1999998092651</ele>
        <time>2021-10-10T09:46:00.000Z</time>
      </trkpt>
      <trkpt lat="47.32016" lon="-2.32193">
        <ele>7.5999999046326</ele>
        <time>2021-10-10T09:46:01.000Z</time>
      </trkpt>
      <trkpt lat="47.32006" lon="-2.32201">
        <ele>7.5999999046326</ele>
        <time>2021-10-10T09:46:03.000Z</time>
      </trkpt>
      <trkpt lat="47.31972" lon="-2.32236">
        <ele>7.5999999046326</ele>
        <time>2021-10-10T09:46:11.000Z</time>
      </trkpt>
      <trkpt lat="47.31966" lon="-2.32246">
        <ele>8</ele>
        <time>2021-10-10T09:46:13.000Z</time>
      </trkpt>
      <trkpt lat="47.31963" lon="-2.3225">
        <ele>8.3999996185303</ele>
        <time>2021-10-10T09:46:14.000Z</time>
      </trkpt>
      <trkpt lat="47.31961" lon="-2.32254">
        <ele>8.8000001907349</ele>
        <time>2021-10-10T09:46:15.000Z</time>
      </trkpt>
      <trkpt lat="47.31959" lon="-2.32259">
        <ele>9.3999996185303</ele>
        <time>2021-10-10T09:46:16.000Z</time>
      </trkpt>
      <trkpt lat="47.31956" lon="-2.32262">
        <ele>9.8000001907349</ele>
        <time>2021-10-10T09:46:17.000Z</time>
      </trkpt>
      <trkpt lat="47.31951" lon="-2.32259">
        <ele>10.199999809265</ele>
        <time>2021-10-10T09:46:19.000Z</time>
      </trkpt>
      <trkpt lat="47.3195" lon="-2.32255">
        <ele>10.800000190735</ele>
        <time>2021-10-10T09:46:20.000Z</time>
      </trkpt>
      <trkpt lat="47.3195" lon="-2.32252">
        <ele>11.199999809265</ele>
        <time>2021-10-10T09:46:21.000Z</time>
      </trkpt>
      <trkpt lat="47.31951" lon="-2.32247">
        <ele>11.60000038147</ele>
        <time>2021-10-10T09:46:22.000Z</time>
      </trkpt>
      <trkpt lat="47.31952" lon="-2.32243">
        <ele>12.199999809265</ele>
        <time>2021-10-10T09:46:23.000Z</time>
      </trkpt>
      <trkpt lat="47.31955" lon="-2.32234">
        <ele>12.199999809265</ele>
        <time>2021-10-10T09:46:25.000Z</time>
      </trkpt>
      <trkpt lat="47.31956" lon="-2.32229">
        <ele>12.60000038147</ele>
        <time>2021-10-10T09:46:26.000Z</time>
      </trkpt>
      <trkpt lat="47.31957" lon="-2.32224">
        <ele>13</ele>
        <time>2021-10-10T09:46:27.000Z</time>
      </trkpt>
      <trkpt lat="47.31957" lon="-2.3222">
        <ele>13.39999961853</ele>
        <time>2021-10-10T09:46:28.000Z</time>
      </trkpt>
      <trkpt lat="47.31955" lon="-2.32216">
        <ele>13.800000190735</ele>
        <time>2021-10-10T09:46:29.000Z</time>
      </trkpt>
      <trkpt lat="47.31952" lon="-2.32215">
        <ele>14.199999809265</ele>
        <time>2021-10-10T09:46:30.000Z</time>
      </trkpt>
      <trkpt lat="47.31949" lon="-2.32214">
        <ele>14.199999809265</ele>
        <time>2021-10-10T09:46:31.000Z</time>
      </trkpt>
      <trkpt lat="47.31933" lon="-2.32211">
        <ele>14.199999809265</ele>
        <time>2021-10-10T09:46:36.000Z</time>
      </trkpt>
      <trkpt lat="47.31923" lon="-2.32208">
        <ele>14.60000038147</ele>
        <time>2021-10-10T09:46:39.000Z</time>
      </trkpt>
      <trkpt lat="47.3192" lon="-2.32208">
        <ele>15</ele>
        <time>2021-10-10T09:46:40.000Z</time>
      </trkpt>
      <trkpt lat="47.31917" lon="-2.32208">
        <ele>15.39999961853</ele>
        <time>2021-10-10T09:46:41.000Z</time>
      </trkpt>
      <trkpt lat="47.31914" lon="-2.32207">
        <ele>15.800000190735</ele>
        <time>2021-10-10T09:46:42.000Z</time>
      </trkpt>
      <trkpt lat="47.31911" lon="-2.32208">
        <ele>16.39999961853</ele>
        <time>2021-10-10T09:46:43.000Z</time>
      </trkpt>
      <trkpt lat="47.31899" lon="-2.3221">
        <ele>16.799999237061</ele>
        <time>2021-10-10T09:46:47.000Z</time>
      </trkpt>
      <trkpt lat="47.31896" lon="-2.32211">
        <ele>17.200000762939</ele>
        <time>2021-10-10T09:46:48.000Z</time>
      </trkpt>
      <trkpt lat="47.31893" lon="-2.32211">
        <ele>17.60000038147</ele>
        <time>2021-10-10T09:46:49.000Z</time>
      </trkpt>
      <trkpt lat="47.31889" lon="-2.32212">
        <ele>18</ele>
        <time>2021-10-10T09:46:50.000Z</time>
      </trkpt>
      <trkpt lat="47.31885" lon="-2.32213">
        <ele>18.60000038147</ele>
        <time>2021-10-10T09:46:51.000Z</time>
      </trkpt>
      <trkpt lat="47.31878" lon="-2.32213">
        <ele>18.60000038147</ele>
        <time>2021-10-10T09:46:53.000Z</time>
      </trkpt>
      <trkpt lat="47.31868" lon="-2.32217">
        <ele>18.60000038147</ele>
        <time>2021-10-10T09:46:56.000Z</time>
      </trkpt>
      <trkpt lat="47.31865" lon="-2.32218">
        <ele>19</ele>
        <time>2021-10-10T09:46:57.000Z</time>
      </trkpt>
      <trkpt lat="47.31862" lon="-2.32219">
        <ele>19.39999961853</ele>
        <time>2021-10-10T09:46:58.000Z</time>
      </trkpt>
      <trkpt lat="47.31859" lon="-2.3222">
        <ele>19.799999237061</ele>
        <time>2021-10-10T09:46:59.000Z</time>
      </trkpt>
      <trkpt lat="47.31855" lon="-2.32221">
        <ele>20.200000762939</ele>
        <time>2021-10-10T09:47:00.000Z</time>
      </trkpt>
      <trkpt lat="47.31852" lon="-2.32221">
        <ele>20.60000038147</ele>
        <time>2021-10-10T09:47:01.000Z</time>
      </trkpt>
      <trkpt lat="47.31846" lon="-2.32223">
        <ele>20.60000038147</ele>
        <time>2021-10-10T09:47:03.000Z</time>
      </trkpt>
      <trkpt lat="47.3184" lon="-2.32224">
        <ele>21</ele>
        <time>2021-10-10T09:47:05.000Z</time>
      </trkpt>
      <trkpt lat="47.31837" lon="-2.32225">
        <ele>21.39999961853</ele>
        <time>2021-10-10T09:47:06.000Z</time>
      </trkpt>
      <trkpt lat="47.31834" lon="-2.32225">
        <ele>21.799999237061</ele>
        <time>2021-10-10T09:47:07.000Z</time>
      </trkpt>
      <trkpt lat="47.31831" lon="-2.32225">
        <ele>22.200000762939</ele>
        <time>2021-10-10T09:47:08.000Z</time>
      </trkpt>
      <trkpt lat="47.31828" lon="-2.32225">
        <ele>22.60000038147</ele>
        <time>2021-10-10T09:47:09.000Z</time>
      </trkpt>
      <trkpt lat="47.31807" lon="-2.32227">
        <ele>23</ele>
        <time>2021-10-10T09:47:15.000Z</time>
      </trkpt>
      <trkpt lat="47.31804" lon="-2.32228">
        <ele>23.39999961853</ele>
        <time>2021-10-10T09:47:16.000Z</time>
      </trkpt>
      <trkpt lat="47.318" lon="-2.32228">
        <ele>23.799999237061</ele>
        <time>2021-10-10T09:47:17.000Z</time>
      </trkpt>
      <trkpt lat="47.31797" lon="-2.32229">
        <ele>24.39999961853</ele>
        <time>2021-10-10T09:47:18.000Z</time>
      </trkpt>
      <trkpt lat="47.31793" lon="-2.3223">
        <ele>24.799999237061</ele>
        <time>2021-10-10T09:47:19.000Z</time>
      </trkpt>
      <trkpt lat="47.31786" lon="-2.3223">
        <ele>24.799999237061</ele>
        <time>2021-10-10T09:47:21.000Z</time>
      </trkpt>
      <trkpt lat="47.31766" lon="-2.32231">
        <ele>24.799999237061</ele>
        <time>2021-10-10T09:47:27.000Z</time>
      </trkpt>
      <trkpt lat="47.31758" lon="-2.32235">
        <ele>24.799999237061</ele>
        <time>2021-10-10T09:47:30.000Z</time>
      </trkpt>
      <trkpt lat="47.31757" lon="-2.32239">
        <ele>24.799999237061</ele>
        <time>2021-10-10T09:47:31.000Z</time>
      </trkpt>
      <trkpt lat="47.31759" lon="-2.32253">
        <ele>24.799999237061</ele>
        <time>2021-10-10T09:47:34.000Z</time>
      </trkpt>
      <trkpt lat="47.3176" lon="-2.32259">
        <ele>24.799999237061</ele>
        <time>2021-10-10T09:47:35.000Z</time>
      </trkpt>
      <trkpt lat="47.31768" lon="-2.32299">
        <ele>24.799999237061</ele>
        <time>2021-10-10T09:47:42.000Z</time>
      </trkpt>
      <trkpt lat="47.3177" lon="-2.32312">
        <ele>24.799999237061</ele>
        <time>2021-10-10T09:47:44.000Z</time>
      </trkpt>
      <trkpt lat="47.31776" lon="-2.32345">
        <ele>24.799999237061</ele>
        <time>2021-10-10T09:47:49.000Z</time>
      </trkpt>
      <trkpt lat="47.31782" lon="-2.32389">
        <ele>24.799999237061</ele>
        <time>2021-10-10T09:47:55.000Z</time>
      </trkpt>
      <trkpt lat="47.31791" lon="-2.32447">
        <ele>24.799999237061</ele>
        <time>2021-10-10T09:48:02.000Z</time>
      </trkpt>
      <trkpt lat="47.31795" lon="-2.32459">
        <ele>24.200000762939</ele>
        <time>2021-10-10T09:48:04.000Z</time>
      </trkpt>
      <trkpt lat="47.31797" lon="-2.32465">
        <ele>23.799999237061</ele>
        <time>2021-10-10T09:48:05.000Z</time>
      </trkpt>
      <trkpt lat="47.31799" lon="-2.32471">
        <ele>23.39999961853</ele>
        <time>2021-10-10T09:48:06.000Z</time>
      </trkpt>
      <trkpt lat="47.31802" lon="-2.32477">
        <ele>23</ele>
        <time>2021-10-10T09:48:07.000Z</time>
      </trkpt>
      <trkpt lat="47.31805" lon="-2.32483">
        <ele>22.60000038147</ele>
        <time>2021-10-10T09:48:08.000Z</time>
      </trkpt>
      <trkpt lat="47.31807" lon="-2.32489">
        <ele>22.60000038147</ele>
        <time>2021-10-10T09:48:09.000Z</time>
      </trkpt>
      <trkpt lat="47.31809" lon="-2.32497">
        <ele>22.200000762939</ele>
        <time>2021-10-10T09:48:10.000Z</time>
      </trkpt>
      <trkpt lat="47.31812" lon="-2.32505">
        <ele>21.200000762939</ele>
        <time>2021-10-10T09:48:11.000Z</time>
      </trkpt>
      <trkpt lat="47.31814" lon="-2.32514">
        <ele>20.799999237061</ele>
        <time>2021-10-10T09:48:12.000Z</time>
      </trkpt>
      <trkpt lat="47.31815" lon="-2.32523">
        <ele>20.200000762939</ele>
        <time>2021-10-10T09:48:13.000Z</time>
      </trkpt>
      <trkpt lat="47.31821" lon="-2.32554">
        <ele>20.200000762939</ele>
        <time>2021-10-10T09:48:16.000Z</time>
      </trkpt>
      <trkpt lat="47.31827" lon="-2.32586">
        <ele>19.799999237061</ele>
        <time>2021-10-10T09:48:19.000Z</time>
      </trkpt>
      <trkpt lat="47.31829" lon="-2.32596">
        <ele>19.39999961853</ele>
        <time>2021-10-10T09:48:20.000Z</time>
      </trkpt>
      <trkpt lat="47.31831" lon="-2.32607">
        <ele>19</ele>
        <time>2021-10-10T09:48:21.000Z</time>
      </trkpt>
      <trkpt lat="47.31833" lon="-2.32617">
        <ele>18.60000038147</ele>
        <time>2021-10-10T09:48:22.000Z</time>
      </trkpt>
      <trkpt lat="47.31835" lon="-2.32627">
        <ele>18</ele>
        <time>2021-10-10T09:48:23.000Z</time>
      </trkpt>
      <trkpt lat="47.31843" lon="-2.32656">
        <ele>18</ele>
        <time>2021-10-10T09:48:26.000Z</time>
      </trkpt>
      <trkpt lat="47.3185" lon="-2.32673">
        <ele>17.60000038147</ele>
        <time>2021-10-10T09:48:28.000Z</time>
      </trkpt>
      <trkpt lat="47.31852" lon="-2.32681">
        <ele>17.200000762939</ele>
        <time>2021-10-10T09:48:29.000Z</time>
      </trkpt>
      <trkpt lat="47.31855" lon="-2.32689">
        <ele>16.799999237061</ele>
        <time>2021-10-10T09:48:30.000Z</time>
      </trkpt>
      <trkpt lat="47.31858" lon="-2.32697">
        <ele>16.39999961853</ele>
        <time>2021-10-10T09:48:31.000Z</time>
      </trkpt>
      <trkpt lat="47.31861" lon="-2.32705">
        <ele>16</ele>
        <time>2021-10-10T09:48:32.000Z</time>
      </trkpt>
      <trkpt lat="47.31868" lon="-2.32723">
        <ele>16</ele>
        <time>2021-10-10T09:48:34.000Z</time>
      </trkpt>
      <trkpt lat="47.31885" lon="-2.32781">
        <ele>16</ele>
        <time>2021-10-10T09:48:40.000Z</time>
      </trkpt>
      <trkpt lat="47.31888" lon="-2.32801">
        <ele>15.60000038147</ele>
        <time>2021-10-10T09:48:42.000Z</time>
      </trkpt>
      <trkpt lat="47.31888" lon="-2.3281">
        <ele>15.199999809265</ele>
        <time>2021-10-10T09:48:43.000Z</time>
      </trkpt>
      <trkpt lat="47.31889" lon="-2.3282">
        <ele>14.60000038147</ele>
        <time>2021-10-10T09:48:44.000Z</time>
      </trkpt>
      <trkpt lat="47.3189" lon="-2.32829">
        <ele>14.199999809265</ele>
        <time>2021-10-10T09:48:45.000Z</time>
      </trkpt>
      <trkpt lat="47.31891" lon="-2.32838">
        <ele>13.800000190735</ele>
        <time>2021-10-10T09:48:46.000Z</time>
      </trkpt>
      <trkpt lat="47.31891" lon="-2.32848">
        <ele>13.800000190735</ele>
        <time>2021-10-10T09:48:47.000Z</time>
      </trkpt>
      <trkpt lat="47.31891" lon="-2.329">
        <ele>13.800000190735</ele>
        <time>2021-10-10T09:48:53.000Z</time>
      </trkpt>
      <trkpt lat="47.31894" lon="-2.32958">
        <ele>13.800000190735</ele>
        <time>2021-10-10T09:49:00.000Z</time>
      </trkpt>
      <trkpt lat="47.3189" lon="-2.33025">
        <ele>13.800000190735</ele>
        <time>2021-10-10T09:49:07.000Z</time>
      </trkpt>
      <trkpt lat="47.31887" lon="-2.33051">
        <ele>13.800000190735</ele>
        <time>2021-10-10T09:49:10.000Z</time>
      </trkpt>
      <trkpt lat="47.31885" lon="-2.33066">
        <ele>13.800000190735</ele>
        <time>2021-10-10T09:49:12.000Z</time>
      </trkpt>
      <trkpt lat="47.31883" lon="-2.33109">
        <ele>13.800000190735</ele>
        <time>2021-10-10T09:49:18.000Z</time>
      </trkpt>
      <trkpt lat="47.31879" lon="-2.3314">
        <ele>13.800000190735</ele>
        <time>2021-10-10T09:49:23.000Z</time>
      </trkpt>
      <trkpt lat="47.31873" lon="-2.33169">
        <ele>13.800000190735</ele>
        <time>2021-10-10T09:49:28.000Z</time>
      </trkpt>
      <trkpt lat="47.31872" lon="-2.33182">
        <ele>14.199999809265</ele>
        <time>2021-10-10T09:49:30.000Z</time>
      </trkpt>
      <trkpt lat="47.31872" lon="-2.3319">
        <ele>14.60000038147</ele>
        <time>2021-10-10T09:49:31.000Z</time>
      </trkpt>
      <trkpt lat="47.31871" lon="-2.33197">
        <ele>15</ele>
        <time>2021-10-10T09:49:32.000Z</time>
      </trkpt>
      <trkpt lat="47.31871" lon="-2.33204">
        <ele>15.60000038147</ele>
        <time>2021-10-10T09:49:33.000Z</time>
      </trkpt>
      <trkpt lat="47.3187" lon="-2.33212">
        <ele>16</ele>
        <time>2021-10-10T09:49:34.000Z</time>
      </trkpt>
      <trkpt lat="47.3186" lon="-2.33249">
        <ele>16</ele>
        <time>2021-10-10T09:49:40.000Z</time>
      </trkpt>
      <trkpt lat="47.3185" lon="-2.33263">
        <ele>16</ele>
        <time>2021-10-10T09:49:44.000Z</time>
      </trkpt>
      <trkpt lat="47.31838" lon="-2.33283">
        <ele>16</ele>
        <time>2021-10-10T09:49:51.000Z</time>
      </trkpt>
      <trkpt lat="47.31837" lon="-2.33285">
        <ele>16.39999961853</ele>
        <time>2021-10-10T09:49:53.000Z</time>
      </trkpt>
      <trkpt lat="47.31837" lon="-2.33285">
        <ele>16.799999237061</ele>
        <time>2021-10-10T09:49:54.000Z</time>
      </trkpt>
      <trkpt lat="47.31837" lon="-2.33285">
        <ele>17.200000762939</ele>
        <time>2021-10-10T09:49:55.000Z</time>
      </trkpt>
      <trkpt lat="47.31837" lon="-2.33285">
        <ele>17.60000038147</ele>
        <time>2021-10-10T09:49:56.000Z</time>
      </trkpt>
      <trkpt lat="47.31837" lon="-2.33285">
        <ele>18</ele>
        <time>2021-10-10T09:49:57.000Z</time>
      </trkpt>
      <trkpt lat="47.31837" lon="-2.33285">
        <ele>18</ele>
        <time>2021-10-10T09:50:08.000Z</time>
      </trkpt>
      <trkpt lat="47.31837" lon="-2.33285">
        <ele>18</ele>
        <time>2021-10-10T09:50:19.000Z</time>
      </trkpt>
      <trkpt lat="47.31837" lon="-2.33285">
        <ele>18</ele>
        <time>2021-10-10T09:50:33.000Z</time>
      </trkpt>
      <trkpt lat="47.31837" lon="-2.33285">
        <ele>18</ele>
        <time>2021-10-10T09:50:45.000Z</time>
      </trkpt>
      <trkpt lat="47.31837" lon="-2.33285">
        <ele>18</ele>
        <time>2021-10-10T09:51:00.000Z</time>
      </trkpt>
      <trkpt lat="47.31837" lon="-2.33285">
        <ele>18</ele>
        <time>2021-10-10T09:51:15.000Z</time>
      </trkpt>
      <trkpt lat="47.31837" lon="-2.33285">
        <ele>18</ele>
        <time>2021-10-10T09:51:29.000Z</time>
      </trkpt>
      <trkpt lat="47.31837" lon="-2.33285">
        <ele>18</ele>
        <time>2021-10-10T09:51:45.000Z</time>
      </trkpt>
      <trkpt lat="47.31832" lon="-2.33288">
        <ele>18</ele>
        <time>2021-10-10T09:51:56.000Z</time>
      </trkpt>
      <trkpt lat="47.31819" lon="-2.33299">
        <ele>18</ele>
        <time>2021-10-10T09:52:02.000Z</time>
      </trkpt>
      <trkpt lat="47.31817" lon="-2.33301">
        <ele>18</ele>
        <time>2021-10-10T09:52:03.000Z</time>
      </trkpt>
      <trkpt lat="47.31814" lon="-2.33303">
        <ele>18.39999961853</ele>
        <time>2021-10-10T09:52:04.000Z</time>
      </trkpt>
      <trkpt lat="47.31812" lon="-2.33304">
        <ele>19</ele>
        <time>2021-10-10T09:52:05.000Z</time>
      </trkpt>
      <trkpt lat="47.3181" lon="-2.33306">
        <ele>19.39999961853</ele>
        <time>2021-10-10T09:52:06.000Z</time>
      </trkpt>
      <trkpt lat="47.31808" lon="-2.33307">
        <ele>19.799999237061</ele>
        <time>2021-10-10T09:52:07.000Z</time>
      </trkpt>
      <trkpt lat="47.31805" lon="-2.3331">
        <ele>20.200000762939</ele>
        <time>2021-10-10T09:52:08.000Z</time>
      </trkpt>
      <trkpt lat="47.31793" lon="-2.3332">
        <ele>20.799999237061</ele>
        <time>2021-10-10T09:52:12.000Z</time>
      </trkpt>
      <trkpt lat="47.31789" lon="-2.33323">
        <ele>21.200000762939</ele>
        <time>2021-10-10T09:52:13.000Z</time>
      </trkpt>
      <trkpt lat="47.31785" lon="-2.33327">
        <ele>21.60000038147</ele>
        <time>2021-10-10T09:52:14.000Z</time>
      </trkpt>
      <trkpt lat="47.31781" lon="-2.33329">
        <ele>22.200000762939</ele>
        <time>2021-10-10T09:52:15.000Z</time>
      </trkpt>
      <trkpt lat="47.31778" lon="-2.33329">
        <ele>22.60000038147</ele>
        <time>2021-10-10T09:52:16.000Z</time>
      </trkpt>
      <trkpt lat="47.31769" lon="-2.33324">
        <ele>23</ele>
        <time>2021-10-10T09:52:19.000Z</time>
      </trkpt>
      <trkpt lat="47.31766" lon="-2.3332">
        <ele>23.39999961853</ele>
        <time>2021-10-10T09:52:20.000Z</time>
      </trkpt>
      <trkpt lat="47.31765" lon="-2.33316">
        <ele>23.799999237061</ele>
        <time>2021-10-10T09:52:21.000Z</time>
      </trkpt>
      <trkpt lat="47.31763" lon="-2.33313">
        <ele>24.39999961853</ele>
        <time>2021-10-10T09:52:22.000Z</time>
      </trkpt>
      <trkpt lat="47.31761" lon="-2.33309">
        <ele>24.799999237061</ele>
        <time>2021-10-10T09:52:23.000Z</time>
      </trkpt>
      <trkpt lat="47.3176" lon="-2.33306">
        <ele>24.799999237061</ele>
        <time>2021-10-10T09:52:24.000Z</time>
      </trkpt>
      <trkpt lat="47.31748" lon="-2.33283">
        <ele>24.799999237061</ele>
        <time>2021-10-10T09:52:30.000Z</time>
      </trkpt>
      <trkpt lat="47.31741" lon="-2.33256">
        <ele>24.799999237061</ele>
        <time>2021-10-10T09:52:35.000Z</time>
      </trkpt>
      <trkpt lat="47.31739" lon="-2.33254">
        <ele>24.799999237061</ele>
        <time>2021-10-10T09:52:36.000Z</time>
      </trkpt>
      <trkpt lat="47.31727" lon="-2.33256">
        <ele>24.799999237061</ele>
        <time>2021-10-10T09:52:40.000Z</time>
      </trkpt>
      <trkpt lat="47.31724" lon="-2.33257">
        <ele>24.799999237061</ele>
        <time>2021-10-10T09:52:41.000Z</time>
      </trkpt>
      <trkpt lat="47.3172" lon="-2.33258">
        <ele>25.200000762939</ele>
        <time>2021-10-10T09:52:42.000Z</time>
      </trkpt>
      <trkpt lat="47.31717" lon="-2.33259">
        <ele>25.60000038147</ele>
        <time>2021-10-10T09:52:43.000Z</time>
      </trkpt>
      <trkpt lat="47.31713" lon="-2.3326">
        <ele>26.39999961853</ele>
        <time>2021-10-10T09:52:44.000Z</time>
      </trkpt>
      <trkpt lat="47.3171" lon="-2.33261">
        <ele>26.799999237061</ele>
        <time>2021-10-10T09:52:45.000Z</time>
      </trkpt>
      <trkpt lat="47.31699" lon="-2.33265">
        <ele>26.799999237061</ele>
        <time>2021-10-10T09:52:49.000Z</time>
      </trkpt>
      <trkpt lat="47.31688" lon="-2.3327">
        <ele>27.200000762939</ele>
        <time>2021-10-10T09:52:53.000Z</time>
      </trkpt>
      <trkpt lat="47.31684" lon="-2.33271">
        <ele>27.60000038147</ele>
        <time>2021-10-10T09:52:54.000Z</time>
      </trkpt>
      <trkpt lat="47.31682" lon="-2.33272">
        <ele>28</ele>
        <time>2021-10-10T09:52:55.000Z</time>
      </trkpt>
      <trkpt lat="47.31678" lon="-2.33273">
        <ele>28.39999961853</ele>
        <time>2021-10-10T09:52:56.000Z</time>
      </trkpt>
      <trkpt lat="47.31675" lon="-2.33274">
        <ele>28.799999237061</ele>
        <time>2021-10-10T09:52:57.000Z</time>
      </trkpt>
      <trkpt lat="47.31658" lon="-2.33283">
        <ele>28.799999237061</ele>
        <time>2021-10-10T09:53:02.000Z</time>
      </trkpt>
      <trkpt lat="47.31636" lon="-2.33293">
        <ele>28.799999237061</ele>
        <time>2021-10-10T09:53:08.000Z</time>
      </trkpt>
      <trkpt lat="47.31616" lon="-2.33302">
        <ele>29.200000762939</ele>
        <time>2021-10-10T09:53:13.000Z</time>
      </trkpt>
      <trkpt lat="47.31612" lon="-2.33304">
        <ele>29.60000038147</ele>
        <time>2021-10-10T09:53:14.000Z</time>
      </trkpt>
      <trkpt lat="47.31608" lon="-2.33307">
        <ele>30</ele>
        <time>2021-10-10T09:53:15.000Z</time>
      </trkpt>
      <trkpt lat="47.31604" lon="-2.3331">
        <ele>30.39999961853</ele>
        <time>2021-10-10T09:53:16.000Z</time>
      </trkpt>
      <trkpt lat="47.316" lon="-2.33313">
        <ele>30.799999237061</ele>
        <time>2021-10-10T09:53:17.000Z</time>
      </trkpt>
      <trkpt lat="47.31583" lon="-2.33323">
        <ele>30.799999237061</ele>
        <time>2021-10-10T09:53:21.000Z</time>
      </trkpt>
      <trkpt lat="47.31579" lon="-2.33326">
        <ele>30.799999237061</ele>
        <time>2021-10-10T09:53:22.000Z</time>
      </trkpt>
      <trkpt lat="47.31549" lon="-2.33338">
        <ele>30.799999237061</ele>
        <time>2021-10-10T09:53:28.000Z</time>
      </trkpt>
      <trkpt lat="47.31524" lon="-2.33352">
        <ele>30.799999237061</ele>
        <time>2021-10-10T09:53:34.000Z</time>
      </trkpt>
      <trkpt lat="47.31491" lon="-2.33367">
        <ele>30.799999237061</ele>
        <time>2021-10-10T09:53:41.000Z</time>
      </trkpt>
      <trkpt lat="47.31486" lon="-2.33367">
        <ele>30.799999237061</ele>
        <time>2021-10-10T09:53:42.000Z</time>
      </trkpt>
      <trkpt lat="47.31477" lon="-2.3336">
        <ele>30.799999237061</ele>
        <time>2021-10-10T09:53:44.000Z</time>
      </trkpt>
      <trkpt lat="47.31469" lon="-2.33348">
        <ele>30.799999237061</ele>
        <time>2021-10-10T09:53:46.000Z</time>
      </trkpt>
      <trkpt lat="47.31459" lon="-2.33329">
        <ele>30.799999237061</ele>
        <time>2021-10-10T09:53:49.000Z</time>
      </trkpt>
      <trkpt lat="47.31436" lon="-2.33286">
        <ele>30.799999237061</ele>
        <time>2021-10-10T09:53:56.000Z</time>
      </trkpt>
      <trkpt lat="47.31431" lon="-2.33282">
        <ele>30.799999237061</ele>
        <time>2021-10-10T09:53:57.000Z</time>
      </trkpt>
      <trkpt lat="47.31415" lon="-2.3327">
        <ele>30.799999237061</ele>
        <time>2021-10-10T09:54:00.000Z</time>
      </trkpt>
      <trkpt lat="47.3139" lon="-2.3325">
        <ele>30.799999237061</ele>
        <time>2021-10-10T09:54:05.000Z</time>
      </trkpt>
      <trkpt lat="47.31351" lon="-2.33223">
        <ele>30.799999237061</ele>
        <time>2021-10-10T09:54:12.000Z</time>
      </trkpt>
      <trkpt lat="47.31313" lon="-2.33189">
        <ele>30.39999961853</ele>
        <time>2021-10-10T09:54:19.000Z</time>
      </trkpt>
      <trkpt lat="47.31308" lon="-2.33185">
        <ele>30</ele>
        <time>2021-10-10T09:54:20.000Z</time>
      </trkpt>
      <trkpt lat="47.31302" lon="-2.3318">
        <ele>29.60000038147</ele>
        <time>2021-10-10T09:54:21.000Z</time>
      </trkpt>
      <trkpt lat="47.31297" lon="-2.33175">
        <ele>28.799999237061</ele>
        <time>2021-10-10T09:54:22.000Z</time>
      </trkpt>
      <trkpt lat="47.31282" lon="-2.33165">
        <ele>28.799999237061</ele>
        <time>2021-10-10T09:54:25.000Z</time>
      </trkpt>
      <trkpt lat="47.31277" lon="-2.33163">
        <ele>28.799999237061</ele>
        <time>2021-10-10T09:54:26.000Z</time>
      </trkpt>
      <trkpt lat="47.31242" lon="-2.3315">
        <ele>28.799999237061</ele>
        <time>2021-10-10T09:54:33.000Z</time>
      </trkpt>
      <trkpt lat="47.31234" lon="-2.33145">
        <ele>28.799999237061</ele>
        <time>2021-10-10T09:54:35.000Z</time>
      </trkpt>
      <trkpt lat="47.31231" lon="-2.33136">
        <ele>28.799999237061</ele>
        <time>2021-10-10T09:54:37.000Z</time>
      </trkpt>
      <trkpt lat="47.31235" lon="-2.33117">
        <ele>28.799999237061</ele>
        <time>2021-10-10T09:54:41.000Z</time>
      </trkpt>
      <trkpt lat="47.31237" lon="-2.33112">
        <ele>28.799999237061</ele>
        <time>2021-10-10T09:54:42.000Z</time>
      </trkpt>
      <trkpt lat="47.31253" lon="-2.33079">
        <ele>28.799999237061</ele>
        <time>2021-10-10T09:54:48.000Z</time>
      </trkpt>
      <trkpt lat="47.31271" lon="-2.33048">
        <ele>28.799999237061</ele>
        <time>2021-10-10T09:54:54.000Z</time>
      </trkpt>
      <trkpt lat="47.31291" lon="-2.33015">
        <ele>28.799999237061</ele>
        <time>2021-10-10T09:54:59.000Z</time>
      </trkpt>
      <trkpt lat="47.31315" lon="-2.32972">
        <ele>28.799999237061</ele>
        <time>2021-10-10T09:55:05.000Z</time>
      </trkpt>
      <trkpt lat="47.3134" lon="-2.32925">
        <ele>28.799999237061</ele>
        <time>2021-10-10T09:55:12.000Z</time>
      </trkpt>
      <trkpt lat="47.31344" lon="-2.32919">
        <ele>28.39999961853</ele>
        <time>2021-10-10T09:55:13.000Z</time>
      </trkpt>
      <trkpt lat="47.31347" lon="-2.32912">
        <ele>27.799999237061</ele>
        <time>2021-10-10T09:55:14.000Z</time>
      </trkpt>
      <trkpt lat="47.3135" lon="-2.32905">
        <ele>27.39999961853</ele>
        <time>2021-10-10T09:55:15.000Z</time>
      </trkpt>
      <trkpt lat="47.3135" lon="-2.32897">
        <ele>27</ele>
        <time>2021-10-10T09:55:16.000Z</time>
      </trkpt>
      <trkpt lat="47.31349" lon="-2.32891">
        <ele>26.39999961853</ele>
        <time>2021-10-10T09:55:17.000Z</time>
      </trkpt>
      <trkpt lat="47.31343" lon="-2.32882">
        <ele>26.39999961853</ele>
        <time>2021-10-10T09:55:19.000Z</time>
      </trkpt>
      <trkpt lat="47.31336" lon="-2.32874">
        <ele>26.39999961853</ele>
        <time>2021-10-10T09:55:21.000Z</time>
      </trkpt>
      <trkpt lat="47.31329" lon="-2.32862">
        <ele>26.39999961853</ele>
        <time>2021-10-10T09:55:23.000Z</time>
      </trkpt>
      <trkpt lat="47.31325" lon="-2.32856">
        <ele>26.39999961853</ele>
        <time>2021-10-10T09:55:24.000Z</time>
      </trkpt>
      <trkpt lat="47.313" lon="-2.32816">
        <ele>26.39999961853</ele>
        <time>2021-10-10T09:55:30.000Z</time>
      </trkpt>
      <trkpt lat="47.31289" lon="-2.32798">
        <ele>26.39999961853</ele>
        <time>2021-10-10T09:55:33.000Z</time>
      </trkpt>
      <trkpt lat="47.31282" lon="-2.32785">
        <ele>26.39999961853</ele>
        <time>2021-10-10T09:55:35.000Z</time>
      </trkpt>
      <trkpt lat="47.31268" lon="-2.32772">
        <ele>26.39999961853</ele>
        <time>2021-10-10T09:55:38.000Z</time>
      </trkpt>
      <trkpt lat="47.31235" lon="-2.32752">
        <ele>26.39999961853</ele>
        <time>2021-10-10T09:55:44.000Z</time>
      </trkpt>
      <trkpt lat="47.31217" lon="-2.32736">
        <ele>26.39999961853</ele>
        <time>2021-10-10T09:55:48.000Z</time>
      </trkpt>
      <trkpt lat="47.31214" lon="-2.3273">
        <ele>26.39999961853</ele>
        <time>2021-10-10T09:55:49.000Z</time>
      </trkpt>
      <trkpt lat="47.31204" lon="-2.32698">
        <ele>26.39999961853</ele>
        <time>2021-10-10T09:55:53.000Z</time>
      </trkpt>
      <trkpt lat="47.31202" lon="-2.3269">
        <ele>26.39999961853</ele>
        <time>2021-10-10T09:55:54.000Z</time>
      </trkpt>
      <trkpt lat="47.31186" lon="-2.32641">
        <ele>26.39999961853</ele>
        <time>2021-10-10T09:56:00.000Z</time>
      </trkpt>
      <trkpt lat="47.31182" lon="-2.32623">
        <ele>26.39999961853</ele>
        <time>2021-10-10T09:56:02.000Z</time>
      </trkpt>
      <trkpt lat="47.3118" lon="-2.32604">
        <ele>26.39999961853</ele>
        <time>2021-10-10T09:56:04.000Z</time>
      </trkpt>
      <trkpt lat="47.31177" lon="-2.32546">
        <ele>26.39999961853</ele>
        <time>2021-10-10T09:56:10.000Z</time>
      </trkpt>
      <trkpt lat="47.31179" lon="-2.3249">
        <ele>26.39999961853</ele>
        <time>2021-10-10T09:56:16.000Z</time>
      </trkpt>
      <trkpt lat="47.31182" lon="-2.32449">
        <ele>26.39999961853</ele>
        <time>2021-10-10T09:56:21.000Z</time>
      </trkpt>
      <trkpt lat="47.3118" lon="-2.32441">
        <ele>26.39999961853</ele>
        <time>2021-10-10T09:56:22.000Z</time>
      </trkpt>
      <trkpt lat="47.31171" lon="-2.32428">
        <ele>26.39999961853</ele>
        <time>2021-10-10T09:56:25.000Z</time>
      </trkpt>
      <trkpt lat="47.31154" lon="-2.32426">
        <ele>26.39999961853</ele>
        <time>2021-10-10T09:56:29.000Z</time>
      </trkpt>
      <trkpt lat="47.31148" lon="-2.32414">
        <ele>26.39999961853</ele>
        <time>2021-10-10T09:56:32.000Z</time>
      </trkpt>
      <trkpt lat="47.31148" lon="-2.32395">
        <ele>26.39999961853</ele>
        <time>2021-10-10T09:56:35.000Z</time>
      </trkpt>
      <trkpt lat="47.31148" lon="-2.32386">
        <ele>26.39999961853</ele>
        <time>2021-10-10T09:56:36.000Z</time>
      </trkpt>
      <trkpt lat="47.31145" lon="-2.32357">
        <ele>26.39999961853</ele>
        <time>2021-10-10T09:56:39.000Z</time>
      </trkpt>
      <trkpt lat="47.31144" lon="-2.32347">
        <ele>26</ele>
        <time>2021-10-10T09:56:40.000Z</time>
      </trkpt>
      <trkpt lat="47.31142" lon="-2.32337">
        <ele>25.60000038147</ele>
        <time>2021-10-10T09:56:41.000Z</time>
      </trkpt>
      <trkpt lat="47.3114" lon="-2.32328">
        <ele>25.200000762939</ele>
        <time>2021-10-10T09:56:42.000Z</time>
      </trkpt>
      <trkpt lat="47.31138" lon="-2.32319">
        <ele>24.799999237061</ele>
        <time>2021-10-10T09:56:43.000Z</time>
      </trkpt>
      <trkpt lat="47.31135" lon="-2.3231">
        <ele>24.39999961853</ele>
        <time>2021-10-10T09:56:44.000Z</time>
      </trkpt>
      <trkpt lat="47.31127" lon="-2.32283">
        <ele>24.39999961853</ele>
        <time>2021-10-10T09:56:47.000Z</time>
      </trkpt>
      <trkpt lat="47.31123" lon="-2.32274">
        <ele>24</ele>
        <time>2021-10-10T09:56:48.000Z</time>
      </trkpt>
      <trkpt lat="47.31119" lon="-2.32266">
        <ele>23.60000038147</ele>
        <time>2021-10-10T09:56:49.000Z</time>
      </trkpt>
      <trkpt lat="47.31114" lon="-2.32257">
        <ele>23.200000762939</ele>
        <time>2021-10-10T09:56:50.000Z</time>
      </trkpt>
      <trkpt lat="47.31109" lon="-2.32248">
        <ele>22.39999961853</ele>
        <time>2021-10-10T09:56:51.000Z</time>
      </trkpt>
      <trkpt lat="47.31105" lon="-2.32238">
        <ele>22.39999961853</ele>
        <time>2021-10-10T09:56:52.000Z</time>
      </trkpt>
      <trkpt lat="47.31093" lon="-2.32207">
        <ele>21.799999237061</ele>
        <time>2021-10-10T09:56:55.000Z</time>
      </trkpt>
      <trkpt lat="47.31089" lon="-2.32198">
        <ele>21.39999961853</ele>
        <time>2021-10-10T09:56:56.000Z</time>
      </trkpt>
      <trkpt lat="47.31085" lon="-2.32188">
        <ele>21</ele>
        <time>2021-10-10T09:56:57.000Z</time>
      </trkpt>
      <trkpt lat="47.31081" lon="-2.3218">
        <ele>20.39999961853</ele>
        <time>2021-10-10T09:56:58.000Z</time>
      </trkpt>
      <trkpt lat="47.31077" lon="-2.32173">
        <ele>20</ele>
        <time>2021-10-10T09:56:59.000Z</time>
      </trkpt>
      <trkpt lat="47.31064" lon="-2.3215">
        <ele>19.60000038147</ele>
        <time>2021-10-10T09:57:02.000Z</time>
      </trkpt>
      <trkpt lat="47.31059" lon="-2.32144">
        <ele>19.200000762939</ele>
        <time>2021-10-10T09:57:03.000Z</time>
      </trkpt>
      <trkpt lat="47.31055" lon="-2.32137">
        <ele>18.799999237061</ele>
        <time>2021-10-10T09:57:04.000Z</time>
      </trkpt>
      <trkpt lat="47.31051" lon="-2.32131">
        <ele>18.39999961853</ele>
        <time>2021-10-10T09:57:05.000Z</time>
      </trkpt>
      <trkpt lat="47.31047" lon="-2.32125">
        <ele>18</ele>
        <time>2021-10-10T09:57:06.000Z</time>
      </trkpt>
      <trkpt lat="47.31042" lon="-2.3212">
        <ele>18</ele>
        <time>2021-10-10T09:57:07.000Z</time>
      </trkpt>
      <trkpt lat="47.3103" lon="-2.32103">
        <ele>18</ele>
        <time>2021-10-10T09:57:10.000Z</time>
      </trkpt>
      <trkpt lat="47.31009" lon="-2.32069">
        <ele>18</ele>
        <time>2021-10-10T09:57:15.000Z</time>
      </trkpt>
      <trkpt lat="47.31004" lon="-2.32063">
        <ele>17.60000038147</ele>
        <time>2021-10-10T09:57:16.000Z</time>
      </trkpt>
      <trkpt lat="47.31" lon="-2.32056">
        <ele>17</ele>
        <time>2021-10-10T09:57:17.000Z</time>
      </trkpt>
      <trkpt lat="47.30996" lon="-2.32049">
        <ele>16.60000038147</ele>
        <time>2021-10-10T09:57:18.000Z</time>
      </trkpt>
      <trkpt lat="47.30992" lon="-2.32041">
        <ele>16.200000762939</ele>
        <time>2021-10-10T09:57:19.000Z</time>
      </trkpt>
      <trkpt lat="47.30989" lon="-2.32033">
        <ele>15.800000190735</ele>
        <time>2021-10-10T09:57:20.000Z</time>
      </trkpt>
      <trkpt lat="47.30985" lon="-2.32024">
        <ele>15.800000190735</ele>
        <time>2021-10-10T09:57:21.000Z</time>
      </trkpt>
      <trkpt lat="47.30965" lon="-2.31969">
        <ele>15.800000190735</ele>
        <time>2021-10-10T09:57:27.000Z</time>
      </trkpt>
      <trkpt lat="47.30967" lon="-2.31942">
        <ele>15.800000190735</ele>
        <time>2021-10-10T09:57:30.000Z</time>
      </trkpt>
      <trkpt lat="47.30974" lon="-2.31919">
        <ele>15.800000190735</ele>
        <time>2021-10-10T09:57:33.000Z</time>
      </trkpt>
      <trkpt lat="47.30979" lon="-2.31902">
        <ele>15.800000190735</ele>
        <time>2021-10-10T09:57:35.000Z</time>
      </trkpt>
      <trkpt lat="47.30981" lon="-2.31893">
        <ele>15.39999961853</ele>
        <time>2021-10-10T09:57:36.000Z</time>
      </trkpt>
      <trkpt lat="47.30983" lon="-2.31884">
        <ele>15</ele>
        <time>2021-10-10T09:57:37.000Z</time>
      </trkpt>
      <trkpt lat="47.30984" lon="-2.31876">
        <ele>14.60000038147</ele>
        <time>2021-10-10T09:57:38.000Z</time>
      </trkpt>
      <trkpt lat="47.30986" lon="-2.31868">
        <ele>14</ele>
        <time>2021-10-10T09:57:39.000Z</time>
      </trkpt>
      <trkpt lat="47.30988" lon="-2.3186">
        <ele>13.60000038147</ele>
        <time>2021-10-10T09:57:40.000Z</time>
      </trkpt>
      <trkpt lat="47.30991" lon="-2.31853">
        <ele>13.60000038147</ele>
        <time>2021-10-10T09:57:41.000Z</time>
      </trkpt>
      <trkpt lat="47.30999" lon="-2.31833">
        <ele>13.60000038147</ele>
        <time>2021-10-10T09:57:44.000Z</time>
      </trkpt>
      <trkpt lat="47.30997" lon="-2.31819">
        <ele>13.60000038147</ele>
        <time>2021-10-10T09:57:46.000Z</time>
      </trkpt>
      <trkpt lat="47.30985" lon="-2.31805">
        <ele>13.60000038147</ele>
        <time>2021-10-10T09:57:49.000Z</time>
      </trkpt>
      <trkpt lat="47.30953" lon="-2.3177">
        <ele>13.60000038147</ele>
        <time>2021-10-10T09:57:55.000Z</time>
      </trkpt>
      <trkpt lat="47.30926" lon="-2.31739">
        <ele>13.60000038147</ele>
        <time>2021-10-10T09:58:01.000Z</time>
      </trkpt>
      <trkpt lat="47.30922" lon="-2.31733">
        <ele>14</ele>
        <time>2021-10-10T09:58:02.000Z</time>
      </trkpt>
      <trkpt lat="47.30917" lon="-2.31728">
        <ele>14.39999961853</ele>
        <time>2021-10-10T09:58:03.000Z</time>
      </trkpt>
      <trkpt lat="47.30913" lon="-2.31723">
        <ele>14.800000190735</ele>
        <time>2021-10-10T09:58:04.000Z</time>
      </trkpt>
      <trkpt lat="47.30909" lon="-2.31718">
        <ele>15.800000190735</ele>
        <time>2021-10-10T09:58:05.000Z</time>
      </trkpt>
      <trkpt lat="47.30886" lon="-2.31691">
        <ele>15.800000190735</ele>
        <time>2021-10-10T09:58:10.000Z</time>
      </trkpt>
      <trkpt lat="47.30851" lon="-2.31648">
        <ele>15.800000190735</ele>
        <time>2021-10-10T09:58:18.000Z</time>
      </trkpt>
      <trkpt lat="47.30846" lon="-2.31644">
        <ele>15.800000190735</ele>
        <time>2021-10-10T09:58:19.000Z</time>
      </trkpt>
      <trkpt lat="47.30835" lon="-2.31652">
        <ele>15.800000190735</ele>
        <time>2021-10-10T09:58:21.000Z</time>
      </trkpt>
      <trkpt lat="47.30825" lon="-2.31665">
        <ele>15.800000190735</ele>
        <time>2021-10-10T09:58:23.000Z</time>
      </trkpt>
      <trkpt lat="47.3081" lon="-2.31684">
        <ele>15.800000190735</ele>
        <time>2021-10-10T09:58:26.000Z</time>
      </trkpt>
      <trkpt lat="47.30799" lon="-2.31697">
        <ele>14.800000190735</ele>
        <time>2021-10-10T09:58:28.000Z</time>
      </trkpt>
      <trkpt lat="47.30793" lon="-2.31703">
        <ele>14.39999961853</ele>
        <time>2021-10-10T09:58:29.000Z</time>
      </trkpt>
      <trkpt lat="47.30788" lon="-2.3171">
        <ele>13.800000190735</ele>
        <time>2021-10-10T09:58:30.000Z</time>
      </trkpt>
      <trkpt lat="47.30782" lon="-2.31716">
        <ele>13.39999961853</ele>
        <time>2021-10-10T09:58:31.000Z</time>
      </trkpt>
      <trkpt lat="47.30766" lon="-2.31735">
        <ele>13.39999961853</ele>
        <time>2021-10-10T09:58:34.000Z</time>
      </trkpt>
      <trkpt lat="47.30762" lon="-2.31741">
        <ele>13.39999961853</ele>
        <time>2021-10-10T09:58:35.000Z</time>
      </trkpt>
      <trkpt lat="47.30758" lon="-2.31746">
        <ele>13</ele>
        <time>2021-10-10T09:58:36.000Z</time>
      </trkpt>
      <trkpt lat="47.30754" lon="-2.31752">
        <ele>12.60000038147</ele>
        <time>2021-10-10T09:58:37.000Z</time>
      </trkpt>
      <trkpt lat="47.3075" lon="-2.31755">
        <ele>12</ele>
        <time>2021-10-10T09:58:38.000Z</time>
      </trkpt>
      <trkpt lat="47.30747" lon="-2.31757">
        <ele>11.60000038147</ele>
        <time>2021-10-10T09:58:39.000Z</time>
      </trkpt>
      <trkpt lat="47.30745" lon="-2.31759">
        <ele>11.199999809265</ele>
        <time>2021-10-10T09:58:40.000Z</time>
      </trkpt>
      <trkpt lat="47.30744" lon="-2.3176">
        <ele>11.199999809265</ele>
        <time>2021-10-10T09:58:41.000Z</time>
      </trkpt>
      <trkpt lat="47.30743" lon="-2.31761">
        <ele>11.199999809265</ele>
        <time>2021-10-10T09:58:46.000Z</time>
      </trkpt>
      <trkpt lat="47.30741" lon="-2.31762">
        <ele>11.199999809265</ele>
        <time>2021-10-10T09:58:47.000Z</time>
      </trkpt>
      <trkpt lat="47.30735" lon="-2.31762">
        <ele>11.199999809265</ele>
        <time>2021-10-10T09:58:49.000Z</time>
      </trkpt>
      <trkpt lat="47.30723" lon="-2.31749">
        <ele>11.199999809265</ele>
        <time>2021-10-10T09:58:52.000Z</time>
      </trkpt>
      <trkpt lat="47.30717" lon="-2.31735">
        <ele>11.199999809265</ele>
        <time>2021-10-10T09:58:54.000Z</time>
      </trkpt>
      <trkpt lat="47.30712" lon="-2.3172">
        <ele>11.199999809265</ele>
        <time>2021-10-10T09:58:56.000Z</time>
      </trkpt>
      <trkpt lat="47.3069" lon="-2.31668">
        <ele>11.199999809265</ele>
        <time>2021-10-10T09:59:03.000Z</time>
      </trkpt>
      <trkpt lat="47.30675" lon="-2.31621">
        <ele>11.199999809265</ele>
        <time>2021-10-10T09:59:08.000Z</time>
      </trkpt>
      <trkpt lat="47.30668" lon="-2.31604">
        <ele>11.199999809265</ele>
        <time>2021-10-10T09:59:10.000Z</time>
      </trkpt>
      <trkpt lat="47.30657" lon="-2.31582">
        <ele>11.199999809265</ele>
        <time>2021-10-10T09:59:13.000Z</time>
      </trkpt>
      <trkpt lat="47.30635" lon="-2.31533">
        <ele>11.199999809265</ele>
        <time>2021-10-10T09:59:20.000Z</time>
      </trkpt>
      <trkpt lat="47.30619" lon="-2.31491">
        <ele>11.199999809265</ele>
        <time>2021-10-10T09:59:26.000Z</time>
      </trkpt>
      <trkpt lat="47.30614" lon="-2.31477">
        <ele>11.60000038147</ele>
        <time>2021-10-10T09:59:28.000Z</time>
      </trkpt>
      <trkpt lat="47.30612" lon="-2.3147">
        <ele>12</ele>
        <time>2021-10-10T09:59:29.000Z</time>
      </trkpt>
      <trkpt lat="47.30609" lon="-2.31463">
        <ele>12.39999961853</ele>
        <time>2021-10-10T09:59:30.000Z</time>
      </trkpt>
      <trkpt lat="47.30606" lon="-2.31456">
        <ele>12.800000190735</ele>
        <time>2021-10-10T09:59:31.000Z</time>
      </trkpt>
      <trkpt lat="47.30603" lon="-2.3145">
        <ele>13.199999809265</ele>
        <time>2021-10-10T09:59:32.000Z</time>
      </trkpt>
      <trkpt lat="47.30579" lon="-2.31396">
        <ele>13.199999809265</ele>
        <time>2021-10-10T09:59:40.000Z</time>
      </trkpt>
      <trkpt lat="47.30553" lon="-2.31348">
        <ele>13.199999809265</ele>
        <time>2021-10-10T09:59:47.000Z</time>
      </trkpt>
      <trkpt lat="47.30521" lon="-2.31297">
        <ele>13.199999809265</ele>
        <time>2021-10-10T09:59:55.000Z</time>
      </trkpt>
      <trkpt lat="47.30498" lon="-2.31262">
        <ele>13.199999809265</ele>
        <time>2021-10-10T10:00:01.000Z</time>
      </trkpt>
      <trkpt lat="47.30477" lon="-2.31224">
        <ele>13.199999809265</ele>
        <time>2021-10-10T10:00:07.000Z</time>
      </trkpt>
      <trkpt lat="47.30468" lon="-2.31203">
        <ele>13.199999809265</ele>
        <time>2021-10-10T10:00:10.000Z</time>
      </trkpt>
      <trkpt lat="47.30464" lon="-2.31188">
        <ele>13.199999809265</ele>
        <time>2021-10-10T10:00:12.000Z</time>
      </trkpt>
      <trkpt lat="47.30451" lon="-2.31149">
        <ele>13.199999809265</ele>
        <time>2021-10-10T10:00:17.000Z</time>
      </trkpt>
      <trkpt lat="47.30446" lon="-2.31134">
        <ele>13.199999809265</ele>
        <time>2021-10-10T10:00:19.000Z</time>
      </trkpt>
      <trkpt lat="47.30433" lon="-2.31115">
        <ele>13.199999809265</ele>
        <time>2021-10-10T10:00:22.000Z</time>
      </trkpt>
      <trkpt lat="47.3042" lon="-2.31106">
        <ele>13.199999809265</ele>
        <time>2021-10-10T10:00:24.000Z</time>
      </trkpt>
      <trkpt lat="47.30403" lon="-2.31092">
        <ele>13.199999809265</ele>
        <time>2021-10-10T10:00:27.000Z</time>
      </trkpt>
      <trkpt lat="47.30388" lon="-2.31078">
        <ele>13.199999809265</ele>
        <time>2021-10-10T10:00:30.000Z</time>
      </trkpt>
      <trkpt lat="47.30378" lon="-2.31065">
        <ele>13.199999809265</ele>
        <time>2021-10-10T10:00:32.000Z</time>
      </trkpt>
      <trkpt lat="47.30343" lon="-2.31017">
        <ele>13.199999809265</ele>
        <time>2021-10-10T10:00:39.000Z</time>
      </trkpt>
      <trkpt lat="47.30334" lon="-2.31004">
        <ele>12.800000190735</ele>
        <time>2021-10-10T10:00:41.000Z</time>
      </trkpt>
      <trkpt lat="47.30329" lon="-2.30997">
        <ele>12.39999961853</ele>
        <time>2021-10-10T10:00:42.000Z</time>
      </trkpt>
      <trkpt lat="47.30324" lon="-2.30991">
        <ele>12</ele>
        <time>2021-10-10T10:00:43.000Z</time>
      </trkpt>
      <trkpt lat="47.30318" lon="-2.30983">
        <ele>11.60000038147</ele>
        <time>2021-10-10T10:00:44.000Z</time>
      </trkpt>
      <trkpt lat="47.30312" lon="-2.30975">
        <ele>11.199999809265</ele>
        <time>2021-10-10T10:00:45.000Z</time>
      </trkpt>
      <trkpt lat="47.30302" lon="-2.3096">
        <ele>10.800000190735</ele>
        <time>2021-10-10T10:00:47.000Z</time>
      </trkpt>
      <trkpt lat="47.30297" lon="-2.30951">
        <ele>10.39999961853</ele>
        <time>2021-10-10T10:00:48.000Z</time>
      </trkpt>
      <trkpt lat="47.30292" lon="-2.30944">
        <ele>10</ele>
        <time>2021-10-10T10:00:49.000Z</time>
      </trkpt>
      <trkpt lat="47.30287" lon="-2.30936">
        <ele>9.6000003814697</ele>
        <time>2021-10-10T10:00:50.000Z</time>
      </trkpt>
      <trkpt lat="47.30281" lon="-2.30928">
        <ele>9.1999998092651</ele>
        <time>2021-10-10T10:00:51.000Z</time>
      </trkpt>
      <trkpt lat="47.30276" lon="-2.30921">
        <ele>9.1999998092651</ele>
        <time>2021-10-10T10:00:52.000Z</time>
      </trkpt>
      <trkpt lat="47.30264" lon="-2.30906">
        <ele>8.8000001907349</ele>
        <time>2021-10-10T10:00:54.000Z</time>
      </trkpt>
      <trkpt lat="47.30259" lon="-2.30898">
        <ele>8.1999998092651</ele>
        <time>2021-10-10T10:00:55.000Z</time>
      </trkpt>
      <trkpt lat="47.30253" lon="-2.30891">
        <ele>7.8000001907349</ele>
        <time>2021-10-10T10:00:56.000Z</time>
      </trkpt>
      <trkpt lat="47.30248" lon="-2.30885">
        <ele>7</ele>
        <time>2021-10-10T10:00:57.000Z</time>
      </trkpt>
      <trkpt lat="47.3023" lon="-2.30866">
        <ele>6.5999999046326</ele>
        <time>2021-10-10T10:01:00.000Z</time>
      </trkpt>
      <trkpt lat="47.30225" lon="-2.3086">
        <ele>6.1999998092651</ele>
        <time>2021-10-10T10:01:01.000Z</time>
      </trkpt>
      <trkpt lat="47.3022" lon="-2.30855">
        <ele>5.8000001907349</ele>
        <time>2021-10-10T10:01:02.000Z</time>
      </trkpt>
      <trkpt lat="47.30215" lon="-2.3085">
        <ele>5.4000000953674</ele>
        <time>2021-10-10T10:01:03.000Z</time>
      </trkpt>
      <trkpt lat="47.3021" lon="-2.30845">
        <ele>5</ele>
        <time>2021-10-10T10:01:04.000Z</time>
      </trkpt>
      <trkpt lat="47.30189" lon="-2.30824">
        <ele>4.5999999046326</ele>
        <time>2021-10-10T10:01:08.000Z</time>
      </trkpt>
      <trkpt lat="47.30185" lon="-2.30819">
        <ele>4.1999998092651</ele>
        <time>2021-10-10T10:01:09.000Z</time>
      </trkpt>
      <trkpt lat="47.3018" lon="-2.30813">
        <ele>3.7999999523163</ele>
        <time>2021-10-10T10:01:10.000Z</time>
      </trkpt>
      <trkpt lat="47.30176" lon="-2.30808">
        <ele>3.4000000953674</ele>
        <time>2021-10-10T10:01:11.000Z</time>
      </trkpt>
      <trkpt lat="47.30171" lon="-2.30802">
        <ele>2.7999999523163</ele>
        <time>2021-10-10T10:01:12.000Z</time>
      </trkpt>
      <trkpt lat="47.30164" lon="-2.30793">
        <ele>2.7999999523163</ele>
        <time>2021-10-10T10:01:14.000Z</time>
      </trkpt>
      <trkpt lat="47.30163" lon="-2.30788">
        <ele>2.7999999523163</ele>
        <time>2021-10-10T10:01:15.000Z</time>
      </trkpt>
      <trkpt lat="47.30163" lon="-2.3077">
        <ele>2.7999999523163</ele>
        <time>2021-10-10T10:01:18.000Z</time>
      </trkpt>
      <trkpt lat="47.30164" lon="-2.30763">
        <ele>2.7999999523163</ele>
        <time>2021-10-10T10:01:19.000Z</time>
      </trkpt>
      <trkpt lat="47.30167" lon="-2.30736">
        <ele>2.7999999523163</ele>
        <time>2021-10-10T10:01:22.000Z</time>
      </trkpt>
      <trkpt lat="47.30168" lon="-2.30728">
        <ele>2.7999999523163</ele>
        <time>2021-10-10T10:01:23.000Z</time>
      </trkpt>
      <trkpt lat="47.30164" lon="-2.30684">
        <ele>2.7999999523163</ele>
        <time>2021-10-10T10:01:28.000Z</time>
      </trkpt>
      <trkpt lat="47.30163" lon="-2.30676">
        <ele>2.7999999523163</ele>
        <time>2021-10-10T10:01:29.000Z</time>
      </trkpt>
      <trkpt lat="47.30157" lon="-2.30646">
        <ele>2.7999999523163</ele>
        <time>2021-10-10T10:01:33.000Z</time>
      </trkpt>
      <trkpt lat="47.30146" lon="-2.30618">
        <ele>2.7999999523163</ele>
        <time>2021-10-10T10:01:37.000Z</time>
      </trkpt>
      <trkpt lat="47.30143" lon="-2.3061">
        <ele>2.7999999523163</ele>
        <time>2021-10-10T10:01:38.000Z</time>
      </trkpt>
      <trkpt lat="47.30121" lon="-2.30559">
        <ele>2.7999999523163</ele>
        <time>2021-10-10T10:01:45.000Z</time>
      </trkpt>
      <trkpt lat="47.30113" lon="-2.30547">
        <ele>2.7999999523163</ele>
        <time>2021-10-10T10:01:47.000Z</time>
      </trkpt>
      <trkpt lat="47.30102" lon="-2.3054">
        <ele>2.7999999523163</ele>
        <time>2021-10-10T10:01:49.000Z</time>
      </trkpt>
      <trkpt lat="47.30086" lon="-2.3054">
        <ele>2.7999999523163</ele>
        <time>2021-10-10T10:01:52.000Z</time>
      </trkpt>
      <trkpt lat="47.3008" lon="-2.3054">
        <ele>2.7999999523163</ele>
        <time>2021-10-10T10:01:53.000Z</time>
      </trkpt>
      <trkpt lat="47.30043" lon="-2.30542">
        <ele>2.7999999523163</ele>
        <time>2021-10-10T10:02:00.000Z</time>
      </trkpt>
      <trkpt lat="47.30006" lon="-2.30539">
        <ele>2.7999999523163</ele>
        <time>2021-10-10T10:02:07.000Z</time>
      </trkpt>
      <trkpt lat="47.29976" lon="-2.30529">
        <ele>2.7999999523163</ele>
        <time>2021-10-10T10:02:13.000Z</time>
      </trkpt>
      <trkpt lat="47.29938" lon="-2.30508">
        <ele>2.7999999523163</ele>
        <time>2021-10-10T10:02:21.000Z</time>
      </trkpt>
      <trkpt lat="47.29924" lon="-2.30499">
        <ele>3.4000000953674</ele>
        <time>2021-10-10T10:02:24.000Z</time>
      </trkpt>
      <trkpt lat="47.2992" lon="-2.30496">
        <ele>3.7999999523163</ele>
        <time>2021-10-10T10:02:25.000Z</time>
      </trkpt>
      <trkpt lat="47.29915" lon="-2.30494">
        <ele>4.1999998092651</ele>
        <time>2021-10-10T10:02:26.000Z</time>
      </trkpt>
      <trkpt lat="47.2991" lon="-2.30491">
        <ele>4.5999999046326</ele>
        <time>2021-10-10T10:02:27.000Z</time>
      </trkpt>
      <trkpt lat="47.29905" lon="-2.30488">
        <ele>5</ele>
        <time>2021-10-10T10:02:28.000Z</time>
      </trkpt>
      <trkpt lat="47.29885" lon="-2.30482">
        <ele>5</ele>
        <time>2021-10-10T10:02:32.000Z</time>
      </trkpt>
      <trkpt lat="47.29876" lon="-2.30482">
        <ele>5</ele>
        <time>2021-10-10T10:02:34.000Z</time>
      </trkpt>
      <trkpt lat="47.29871" lon="-2.30483">
        <ele>5</ele>
        <time>2021-10-10T10:02:35.000Z</time>
      </trkpt>
      <trkpt lat="47.29847" lon="-2.30488">
        <ele>5.4000000953674</ele>
        <time>2021-10-10T10:02:40.000Z</time>
      </trkpt>
      <trkpt lat="47.29842" lon="-2.30489">
        <ele>5.8000001907349</ele>
        <time>2021-10-10T10:02:41.000Z</time>
      </trkpt>
      <trkpt lat="47.29836" lon="-2.3049">
        <ele>6.1999998092651</ele>
        <time>2021-10-10T10:02:42.000Z</time>
      </trkpt>
      <trkpt lat="47.29831" lon="-2.30491">
        <ele>6.8000001907349</ele>
        <time>2021-10-10T10:02:43.000Z</time>
      </trkpt>
      <trkpt lat="47.29825" lon="-2.30492">
        <ele>7.1999998092651</ele>
        <time>2021-10-10T10:02:44.000Z</time>
      </trkpt>
      <trkpt lat="47.2981" lon="-2.30495">
        <ele>7.1999998092651</ele>
        <time>2021-10-10T10:02:47.000Z</time>
      </trkpt>
      <trkpt lat="47.29775" lon="-2.30504">
        <ele>7.1999998092651</ele>
        <time>2021-10-10T10:02:54.000Z</time>
      </trkpt>
      <trkpt lat="47.29765" lon="-2.30508">
        <ele>7.5999999046326</ele>
        <time>2021-10-10T10:02:56.000Z</time>
      </trkpt>
      <trkpt lat="47.29761" lon="-2.30509">
        <ele>8</ele>
        <time>2021-10-10T10:02:57.000Z</time>
      </trkpt>
      <trkpt lat="47.29756" lon="-2.3051">
        <ele>8.3999996185303</ele>
        <time>2021-10-10T10:02:58.000Z</time>
      </trkpt>
      <trkpt lat="47.29751" lon="-2.30512">
        <ele>9</ele>
        <time>2021-10-10T10:02:59.000Z</time>
      </trkpt>
      <trkpt lat="47.29746" lon="-2.30514">
        <ele>9.3999996185303</ele>
        <time>2021-10-10T10:03:00.000Z</time>
      </trkpt>
      <trkpt lat="47.29736" lon="-2.30517">
        <ele>9.3999996185303</ele>
        <time>2021-10-10T10:03:02.000Z</time>
      </trkpt>
      <trkpt lat="47.29701" lon="-2.30527">
        <ele>9.3999996185303</ele>
        <time>2021-10-10T10:03:09.000Z</time>
      </trkpt>
      <trkpt lat="47.29696" lon="-2.30529">
        <ele>9.8000001907349</ele>
        <time>2021-10-10T10:03:10.000Z</time>
      </trkpt>
      <trkpt lat="47.29691" lon="-2.30531">
        <ele>10.199999809265</ele>
        <time>2021-10-10T10:03:11.000Z</time>
      </trkpt>
      <trkpt lat="47.29685" lon="-2.30532">
        <ele>10.60000038147</ele>
        <time>2021-10-10T10:03:12.000Z</time>
      </trkpt>
      <trkpt lat="47.2968" lon="-2.30535">
        <ele>11</ele>
        <time>2021-10-10T10:03:13.000Z</time>
      </trkpt>
      <trkpt lat="47.29675" lon="-2.30536">
        <ele>11.39999961853</ele>
        <time>2021-10-10T10:03:14.000Z</time>
      </trkpt>
      <trkpt lat="47.2966" lon="-2.30542">
        <ele>11.39999961853</ele>
        <time>2021-10-10T10:03:17.000Z</time>
      </trkpt>
      <trkpt lat="47.2962" lon="-2.30557">
        <ele>11.39999961853</ele>
        <time>2021-10-10T10:03:25.000Z</time>
      </trkpt>
      <trkpt lat="47.29566" lon="-2.30567">
        <ele>11.800000190735</ele>
        <time>2021-10-10T10:03:35.000Z</time>
      </trkpt>
      <trkpt lat="47.29561" lon="-2.30568">
        <ele>12.199999809265</ele>
        <time>2021-10-10T10:03:36.000Z</time>
      </trkpt>
      <trkpt lat="47.29556" lon="-2.30568">
        <ele>12.60000038147</ele>
        <time>2021-10-10T10:03:37.000Z</time>
      </trkpt>
      <trkpt lat="47.29551" lon="-2.30569">
        <ele>13.199999809265</ele>
        <time>2021-10-10T10:03:38.000Z</time>
      </trkpt>
      <trkpt lat="47.29545" lon="-2.30571">
        <ele>13.60000038147</ele>
        <time>2021-10-10T10:03:39.000Z</time>
      </trkpt>
      <trkpt lat="47.29523" lon="-2.30573">
        <ele>13.60000038147</ele>
        <time>2021-10-10T10:03:43.000Z</time>
      </trkpt>
      <trkpt lat="47.2948" lon="-2.30578">
        <ele>13.60000038147</ele>
        <time>2021-10-10T10:03:50.000Z</time>
      </trkpt>
      <trkpt lat="47.29454" lon="-2.30582">
        <ele>13.60000038147</ele>
        <time>2021-10-10T10:03:54.000Z</time>
      </trkpt>
      <trkpt lat="47.29435" lon="-2.30584">
        <ele>13.60000038147</ele>
        <time>2021-10-10T10:03:57.000Z</time>
      </trkpt>
      <trkpt lat="47.29408" lon="-2.30581">
        <ele>13</ele>
        <time>2021-10-10T10:04:01.000Z</time>
      </trkpt>
      <trkpt lat="47.29401" lon="-2.30579">
        <ele>12.60000038147</ele>
        <time>2021-10-10T10:04:02.000Z</time>
      </trkpt>
      <trkpt lat="47.29394" lon="-2.30575">
        <ele>12.199999809265</ele>
        <time>2021-10-10T10:04:03.000Z</time>
      </trkpt>
      <trkpt lat="47.29387" lon="-2.30571">
        <ele>11.800000190735</ele>
        <time>2021-10-10T10:04:04.000Z</time>
      </trkpt>
      <trkpt lat="47.2938" lon="-2.30567">
        <ele>11.39999961853</ele>
        <time>2021-10-10T10:04:05.000Z</time>
      </trkpt>
      <trkpt lat="47.29358" lon="-2.30553">
        <ele>11.39999961853</ele>
        <time>2021-10-10T10:04:08.000Z</time>
      </trkpt>
      <trkpt lat="47.29344" lon="-2.30544">
        <ele>11</ele>
        <time>2021-10-10T10:04:10.000Z</time>
      </trkpt>
      <trkpt lat="47.29337" lon="-2.3054">
        <ele>10.39999961853</ele>
        <time>2021-10-10T10:04:11.000Z</time>
      </trkpt>
      <trkpt lat="47.29329" lon="-2.30536">
        <ele>10</ele>
        <time>2021-10-10T10:04:12.000Z</time>
      </trkpt>
      <trkpt lat="47.29322" lon="-2.30531">
        <ele>9.6000003814697</ele>
        <time>2021-10-10T10:04:13.000Z</time>
      </trkpt>
      <trkpt lat="47.29315" lon="-2.30527">
        <ele>9.1999998092651</ele>
        <time>2021-10-10T10:04:14.000Z</time>
      </trkpt>
      <trkpt lat="47.29302" lon="-2.30519">
        <ele>9.1999998092651</ele>
        <time>2021-10-10T10:04:16.000Z</time>
      </trkpt>
      <trkpt lat="47.29269" lon="-2.30499">
        <ele>9.1999998092651</ele>
        <time>2021-10-10T10:04:21.000Z</time>
      </trkpt>
      <trkpt lat="47.29256" lon="-2.30493">
        <ele>8.6000003814697</ele>
        <time>2021-10-10T10:04:23.000Z</time>
      </trkpt>
      <trkpt lat="47.2925" lon="-2.30492">
        <ele>8.1999998092651</ele>
        <time>2021-10-10T10:04:24.000Z</time>
      </trkpt>
      <trkpt lat="47.29243" lon="-2.3049">
        <ele>7.8000001907349</ele>
        <time>2021-10-10T10:04:25.000Z</time>
      </trkpt>
      <trkpt lat="47.29236" lon="-2.3049">
        <ele>7.4000000953674</ele>
        <time>2021-10-10T10:04:26.000Z</time>
      </trkpt>
      <trkpt lat="47.29229" lon="-2.3049">
        <ele>7</ele>
        <time>2021-10-10T10:04:27.000Z</time>
      </trkpt>
      <trkpt lat="47.29216" lon="-2.30492">
        <ele>7</ele>
        <time>2021-10-10T10:04:29.000Z</time>
      </trkpt>
      <trkpt lat="47.29203" lon="-2.30496">
        <ele>7</ele>
        <time>2021-10-10T10:04:31.000Z</time>
      </trkpt>
      <trkpt lat="47.29169" lon="-2.30515">
        <ele>7</ele>
        <time>2021-10-10T10:04:37.000Z</time>
      </trkpt>
      <trkpt lat="47.29117" lon="-2.30549">
        <ele>7</ele>
        <time>2021-10-10T10:04:46.000Z</time>
      </trkpt>
      <trkpt lat="47.29073" lon="-2.30577">
        <ele>7</ele>
        <time>2021-10-10T10:04:54.000Z</time>
      </trkpt>
      <trkpt lat="47.29029" lon="-2.30607">
        <ele>7</ele>
        <time>2021-10-10T10:05:02.000Z</time>
      </trkpt>
      <trkpt lat="47.29013" lon="-2.30614">
        <ele>7</ele>
        <time>2021-10-10T10:05:05.000Z</time>
      </trkpt>
      <trkpt lat="47.29005" lon="-2.30606">
        <ele>7</ele>
        <time>2021-10-10T10:05:07.000Z</time>
      </trkpt>
      <trkpt lat="47.29001" lon="-2.30585">
        <ele>7</ele>
        <time>2021-10-10T10:05:10.000Z</time>
      </trkpt>
      <trkpt lat="47.29" lon="-2.30569">
        <ele>7</ele>
        <time>2021-10-10T10:05:12.000Z</time>
      </trkpt>
      <trkpt lat="47.28996" lon="-2.30545">
        <ele>7</ele>
        <time>2021-10-10T10:05:15.000Z</time>
      </trkpt>
      <trkpt lat="47.28993" lon="-2.30529">
        <ele>7.4000000953674</ele>
        <time>2021-10-10T10:05:17.000Z</time>
      </trkpt>
      <trkpt lat="47.28991" lon="-2.30522">
        <ele>7.8000001907349</ele>
        <time>2021-10-10T10:05:18.000Z</time>
      </trkpt>
      <trkpt lat="47.2899" lon="-2.30514">
        <ele>8.1999998092651</ele>
        <time>2021-10-10T10:05:19.000Z</time>
      </trkpt>
      <trkpt lat="47.28989" lon="-2.30505">
        <ele>8.6000003814697</ele>
        <time>2021-10-10T10:05:20.000Z</time>
      </trkpt>
      <trkpt lat="47.28988" lon="-2.30497">
        <ele>9</ele>
        <time>2021-10-10T10:05:21.000Z</time>
      </trkpt>
      <trkpt lat="47.28981" lon="-2.30447">
        <ele>9</ele>
        <time>2021-10-10T10:05:27.000Z</time>
      </trkpt>
      <trkpt lat="47.28976" lon="-2.30389">
        <ele>9</ele>
        <time>2021-10-10T10:05:34.000Z</time>
      </trkpt>
      <trkpt lat="47.28976" lon="-2.3032">
        <ele>9</ele>
        <time>2021-10-10T10:05:42.000Z</time>
      </trkpt>
      <trkpt lat="47.28971" lon="-2.30268">
        <ele>9</ele>
        <time>2021-10-10T10:05:48.000Z</time>
      </trkpt>
      <trkpt lat="47.28965" lon="-2.30245">
        <ele>9</ele>
        <time>2021-10-10T10:05:51.000Z</time>
      </trkpt>
      <trkpt lat="47.28959" lon="-2.30231">
        <ele>9</ele>
        <time>2021-10-10T10:05:53.000Z</time>
      </trkpt>
      <trkpt lat="47.28956" lon="-2.30224">
        <ele>9</ele>
        <time>2021-10-10T10:05:54.000Z</time>
      </trkpt>
      <trkpt lat="47.28942" lon="-2.30206">
        <ele>9</ele>
        <time>2021-10-10T10:05:57.000Z</time>
      </trkpt>
      <trkpt lat="47.28937" lon="-2.30201">
        <ele>9</ele>
        <time>2021-10-10T10:05:58.000Z</time>
      </trkpt>
      <trkpt lat="47.28902" lon="-2.3016">
        <ele>9</ele>
        <time>2021-10-10T10:06:06.000Z</time>
      </trkpt>
      <trkpt lat="47.2887" lon="-2.3012">
        <ele>9</ele>
        <time>2021-10-10T10:06:14.000Z</time>
      </trkpt>
      <trkpt lat="47.28837" lon="-2.30082">
        <ele>9</ele>
        <time>2021-10-10T10:06:22.000Z</time>
      </trkpt>
      <trkpt lat="47.28805" lon="-2.30046">
        <ele>9.3999996185303</ele>
        <time>2021-10-10T10:06:30.000Z</time>
      </trkpt>
      <trkpt lat="47.288" lon="-2.30042">
        <ele>9.8000001907349</ele>
        <time>2021-10-10T10:06:31.000Z</time>
      </trkpt>
      <trkpt lat="47.28796" lon="-2.30039">
        <ele>10.199999809265</ele>
        <time>2021-10-10T10:06:32.000Z</time>
      </trkpt>
      <trkpt lat="47.28791" lon="-2.30037">
        <ele>10.60000038147</ele>
        <time>2021-10-10T10:06:33.000Z</time>
      </trkpt>
      <trkpt lat="47.28786" lon="-2.30036">
        <ele>11</ele>
        <time>2021-10-10T10:06:34.000Z</time>
      </trkpt>
      <trkpt lat="47.28781" lon="-2.30035">
        <ele>11</ele>
        <time>2021-10-10T10:06:35.000Z</time>
      </trkpt>
      <trkpt lat="47.28767" lon="-2.30013">
        <ele>11</ele>
        <time>2021-10-10T10:06:39.000Z</time>
      </trkpt>
      <trkpt lat="47.28751" lon="-2.29983">
        <ele>11</ele>
        <time>2021-10-10T10:06:44.000Z</time>
      </trkpt>
      <trkpt lat="47.28738" lon="-2.29966">
        <ele>11.39999961853</ele>
        <time>2021-10-10T10:06:48.000Z</time>
      </trkpt>
      <trkpt lat="47.28734" lon="-2.29962">
        <ele>11.800000190735</ele>
        <time>2021-10-10T10:06:49.000Z</time>
      </trkpt>
      <trkpt lat="47.28731" lon="-2.29958">
        <ele>12.39999961853</ele>
        <time>2021-10-10T10:06:50.000Z</time>
      </trkpt>
      <trkpt lat="47.28727" lon="-2.29955">
        <ele>12.800000190735</ele>
        <time>2021-10-10T10:06:51.000Z</time>
      </trkpt>
      <trkpt lat="47.28724" lon="-2.29952">
        <ele>13.199999809265</ele>
        <time>2021-10-10T10:06:52.000Z</time>
      </trkpt>
      <trkpt lat="47.28715" lon="-2.29953">
        <ele>13.199999809265</ele>
        <time>2021-10-10T10:06:54.000Z</time>
      </trkpt>
      <trkpt lat="47.2871" lon="-2.29954">
        <ele>13.199999809265</ele>
        <time>2021-10-10T10:06:55.000Z</time>
      </trkpt>
      <trkpt lat="47.28705" lon="-2.29954">
        <ele>13.199999809265</ele>
        <time>2021-10-10T10:06:56.000Z</time>
      </trkpt>
      <trkpt lat="47.287" lon="-2.29951">
        <ele>13.60000038147</ele>
        <time>2021-10-10T10:06:57.000Z</time>
      </trkpt>
      <trkpt lat="47.28696" lon="-2.29947">
        <ele>14</ele>
        <time>2021-10-10T10:06:58.000Z</time>
      </trkpt>
      <trkpt lat="47.28692" lon="-2.29941">
        <ele>14.39999961853</ele>
        <time>2021-10-10T10:06:59.000Z</time>
      </trkpt>
      <trkpt lat="47.28689" lon="-2.29934">
        <ele>14.800000190735</ele>
        <time>2021-10-10T10:07:00.000Z</time>
      </trkpt>
      <trkpt lat="47.28686" lon="-2.29927">
        <ele>15.199999809265</ele>
        <time>2021-10-10T10:07:01.000Z</time>
      </trkpt>
      <trkpt lat="47.28683" lon="-2.29923">
        <ele>15.199999809265</ele>
        <time>2021-10-10T10:07:02.000Z</time>
      </trkpt>
      <trkpt lat="47.28671" lon="-2.29916">
        <ele>15.199999809265</ele>
        <time>2021-10-10T10:07:05.000Z</time>
      </trkpt>
      <trkpt lat="47.28662" lon="-2.29909">
        <ele>15.199999809265</ele>
        <time>2021-10-10T10:07:07.000Z</time>
      </trkpt>
      <trkpt lat="47.28655" lon="-2.29899">
        <ele>15.60000038147</ele>
        <time>2021-10-10T10:07:09.000Z</time>
      </trkpt>
      <trkpt lat="47.28653" lon="-2.29893">
        <ele>16</ele>
        <time>2021-10-10T10:07:10.000Z</time>
      </trkpt>
      <trkpt lat="47.28651" lon="-2.29886">
        <ele>16.39999961853</ele>
        <time>2021-10-10T10:07:11.000Z</time>
      </trkpt>
      <trkpt lat="47.28648" lon="-2.2988">
        <ele>16.799999237061</ele>
        <time>2021-10-10T10:07:12.000Z</time>
      </trkpt>
      <trkpt lat="47.28647" lon="-2.29873">
        <ele>17.200000762939</ele>
        <time>2021-10-10T10:07:13.000Z</time>
      </trkpt>
      <trkpt lat="47.28646" lon="-2.29866">
        <ele>17.200000762939</ele>
        <time>2021-10-10T10:07:14.000Z</time>
      </trkpt>
      <trkpt lat="47.28646" lon="-2.29859">
        <ele>17.200000762939</ele>
        <time>2021-10-10T10:07:15.000Z</time>
      </trkpt>
      <trkpt lat="47.28647" lon="-2.29835">
        <ele>17.200000762939</ele>
        <time>2021-10-10T10:07:20.000Z</time>
      </trkpt>
      <trkpt lat="47.28646" lon="-2.29805">
        <ele>17.200000762939</ele>
        <time>2021-10-10T10:07:25.000Z</time>
      </trkpt>
      <trkpt lat="47.28645" lon="-2.29799">
        <ele>17.200000762939</ele>
        <time>2021-10-10T10:07:26.000Z</time>
      </trkpt>
      <trkpt lat="47.28643" lon="-2.29786">
        <ele>17.200000762939</ele>
        <time>2021-10-10T10:07:28.000Z</time>
      </trkpt>
      <trkpt lat="47.2864" lon="-2.29773">
        <ele>17.200000762939</ele>
        <time>2021-10-10T10:07:30.000Z</time>
      </trkpt>
      <trkpt lat="47.28637" lon="-2.29767">
        <ele>17.200000762939</ele>
        <time>2021-10-10T10:07:31.000Z</time>
      </trkpt>
      <trkpt lat="47.28628" lon="-2.29743">
        <ele>17.200000762939</ele>
        <time>2021-10-10T10:07:35.000Z</time>
      </trkpt>
      <trkpt lat="47.28606" lon="-2.29689">
        <ele>17.200000762939</ele>
        <time>2021-10-10T10:07:43.000Z</time>
      </trkpt>
      <trkpt lat="47.28597" lon="-2.29656">
        <ele>17.200000762939</ele>
        <time>2021-10-10T10:07:48.000Z</time>
      </trkpt>
      <trkpt lat="47.28594" lon="-2.29634">
        <ele>17.200000762939</ele>
        <time>2021-10-10T10:07:51.000Z</time>
      </trkpt>
      <trkpt lat="47.28594" lon="-2.29627">
        <ele>17.200000762939</ele>
        <time>2021-10-10T10:07:52.000Z</time>
      </trkpt>
      <trkpt lat="47.28593" lon="-2.29613">
        <ele>17.60000038147</ele>
        <time>2021-10-10T10:07:54.000Z</time>
      </trkpt>
      <trkpt lat="47.28592" lon="-2.29607">
        <ele>18</ele>
        <time>2021-10-10T10:07:55.000Z</time>
      </trkpt>
      <trkpt lat="47.28592" lon="-2.296">
        <ele>18.39999961853</ele>
        <time>2021-10-10T10:07:56.000Z</time>
      </trkpt>
      <trkpt lat="47.28592" lon="-2.29593">
        <ele>19.200000762939</ele>
        <time>2021-10-10T10:07:57.000Z</time>
      </trkpt>
      <trkpt lat="47.28594" lon="-2.29585">
        <ele>19.200000762939</ele>
        <time>2021-10-10T10:07:58.000Z</time>
      </trkpt>
      <trkpt lat="47.28595" lon="-2.29571">
        <ele>19.200000762939</ele>
        <time>2021-10-10T10:08:00.000Z</time>
      </trkpt>
      <trkpt lat="47.28596" lon="-2.2955">
        <ele>19.200000762939</ele>
        <time>2021-10-10T10:08:03.000Z</time>
      </trkpt>
      <trkpt lat="47.28596" lon="-2.29543">
        <ele>19.200000762939</ele>
        <time>2021-10-10T10:08:04.000Z</time>
      </trkpt>
      <trkpt lat="47.28596" lon="-2.29529">
        <ele>19.200000762939</ele>
        <time>2021-10-10T10:08:06.000Z</time>
      </trkpt>
      <trkpt lat="47.28593" lon="-2.295">
        <ele>19.200000762939</ele>
        <time>2021-10-10T10:08:10.000Z</time>
      </trkpt>
      <trkpt lat="47.2859" lon="-2.29486">
        <ele>19.60000038147</ele>
        <time>2021-10-10T10:08:12.000Z</time>
      </trkpt>
      <trkpt lat="47.28588" lon="-2.29478">
        <ele>20</ele>
        <time>2021-10-10T10:08:13.000Z</time>
      </trkpt>
      <trkpt lat="47.28586" lon="-2.29471">
        <ele>20.39999961853</ele>
        <time>2021-10-10T10:08:14.000Z</time>
      </trkpt>
      <trkpt lat="47.28584" lon="-2.29465">
        <ele>20.799999237061</ele>
        <time>2021-10-10T10:08:15.000Z</time>
      </trkpt>
      <trkpt lat="47.28581" lon="-2.29458">
        <ele>21.200000762939</ele>
        <time>2021-10-10T10:08:16.000Z</time>
      </trkpt>
      <trkpt lat="47.28572" lon="-2.29437">
        <ele>21.200000762939</ele>
        <time>2021-10-10T10:08:19.000Z</time>
      </trkpt>
      <trkpt lat="47.28562" lon="-2.29415">
        <ele>21.200000762939</ele>
        <time>2021-10-10T10:08:22.000Z</time>
      </trkpt>
      <trkpt lat="47.28531" lon="-2.29342">
        <ele>21.200000762939</ele>
        <time>2021-10-10T10:08:32.000Z</time>
      </trkpt>
      <trkpt lat="47.28515" lon="-2.29306">
        <ele>21.200000762939</ele>
        <time>2021-10-10T10:08:38.000Z</time>
      </trkpt>
      <trkpt lat="47.28509" lon="-2.29302">
        <ele>21.200000762939</ele>
        <time>2021-10-10T10:08:40.000Z</time>
      </trkpt>
      <trkpt lat="47.28506" lon="-2.29303">
        <ele>21.200000762939</ele>
        <time>2021-10-10T10:08:41.000Z</time>
      </trkpt>
      <trkpt lat="47.28495" lon="-2.2931">
        <ele>21.200000762939</ele>
        <time>2021-10-10T10:08:45.000Z</time>
      </trkpt>
      <trkpt lat="47.28493" lon="-2.29311">
        <ele>21.200000762939</ele>
        <time>2021-10-10T10:08:46.000Z</time>
      </trkpt>
      <trkpt lat="47.28476" lon="-2.29321">
        <ele>21.200000762939</ele>
        <time>2021-10-10T10:08:53.000Z</time>
      </trkpt>
      <trkpt lat="47.28456" lon="-2.2933">
        <ele>21.60000038147</ele>
        <time>2021-10-10T10:08:59.000Z</time>
      </trkpt>
      <trkpt lat="47.28453" lon="-2.29331">
        <ele>22</ele>
        <time>2021-10-10T10:09:00.000Z</time>
      </trkpt>
      <trkpt lat="47.28449" lon="-2.29332">
        <ele>22.39999961853</ele>
        <time>2021-10-10T10:09:01.000Z</time>
      </trkpt>
      <trkpt lat="47.28445" lon="-2.29333">
        <ele>22.799999237061</ele>
        <time>2021-10-10T10:09:02.000Z</time>
      </trkpt>
      <trkpt lat="47.28442" lon="-2.29335">
        <ele>23.200000762939</ele>
        <time>2021-10-10T10:09:03.000Z</time>
      </trkpt>
      <trkpt lat="47.28416" lon="-2.29346">
        <ele>23.200000762939</ele>
        <time>2021-10-10T10:09:10.000Z</time>
      </trkpt>
      <trkpt lat="47.28407" lon="-2.2935">
        <ele>23.60000038147</ele>
        <time>2021-10-10T10:09:13.000Z</time>
      </trkpt>
      <trkpt lat="47.28404" lon="-2.29352">
        <ele>24.200000762939</ele>
        <time>2021-10-10T10:09:14.000Z</time>
      </trkpt>
      <trkpt lat="47.28402" lon="-2.29354">
        <ele>24.60000038147</ele>
        <time>2021-10-10T10:09:15.000Z</time>
      </trkpt>
      <trkpt lat="47.28399" lon="-2.29355">
        <ele>25</ele>
        <time>2021-10-10T10:09:16.000Z</time>
      </trkpt>
      <trkpt lat="47.28396" lon="-2.29357">
        <ele>25.39999961853</ele>
        <time>2021-10-10T10:09:17.000Z</time>
      </trkpt>
      <trkpt lat="47.28382" lon="-2.29364">
        <ele>25.39999961853</ele>
        <time>2021-10-10T10:09:22.000Z</time>
      </trkpt>
      <trkpt lat="47.28364" lon="-2.29378">
        <ele>25.39999961853</ele>
        <time>2021-10-10T10:09:27.000Z</time>
      </trkpt>
      <trkpt lat="47.28337" lon="-2.29404">
        <ele>25.39999961853</ele>
        <time>2021-10-10T10:09:33.000Z</time>
      </trkpt>
      <trkpt lat="47.28301" lon="-2.29442">
        <ele>25.39999961853</ele>
        <time>2021-10-10T10:09:40.000Z</time>
      </trkpt>
      <trkpt lat="47.28263" lon="-2.29468">
        <ele>25.39999961853</ele>
        <time>2021-10-10T10:09:47.000Z</time>
      </trkpt>
      <trkpt lat="47.28225" lon="-2.29491">
        <ele>25.39999961853</ele>
        <time>2021-10-10T10:09:54.000Z</time>
      </trkpt>
      <trkpt lat="47.28198" lon="-2.29506">
        <ele>25.799999237061</ele>
        <time>2021-10-10T10:09:59.000Z</time>
      </trkpt>
      <trkpt lat="47.28193" lon="-2.29508">
        <ele>26.200000762939</ele>
        <time>2021-10-10T10:10:00.000Z</time>
      </trkpt>
      <trkpt lat="47.28187" lon="-2.2951">
        <ele>26.60000038147</ele>
        <time>2021-10-10T10:10:01.000Z</time>
      </trkpt>
      <trkpt lat="47.28182" lon="-2.29511">
        <ele>27</ele>
        <time>2021-10-10T10:10:02.000Z</time>
      </trkpt>
      <trkpt lat="47.28176" lon="-2.29513">
        <ele>27.39999961853</ele>
        <time>2021-10-10T10:10:03.000Z</time>
      </trkpt>
      <trkpt lat="47.2816" lon="-2.29518">
        <ele>27.39999961853</ele>
        <time>2021-10-10T10:10:06.000Z</time>
      </trkpt>
      <trkpt lat="47.28144" lon="-2.29525">
        <ele>27.799999237061</ele>
        <time>2021-10-10T10:10:09.000Z</time>
      </trkpt>
      <trkpt lat="47.28139" lon="-2.29527">
        <ele>28.200000762939</ele>
        <time>2021-10-10T10:10:10.000Z</time>
      </trkpt>
      <trkpt lat="47.28134" lon="-2.29529">
        <ele>28.60000038147</ele>
        <time>2021-10-10T10:10:11.000Z</time>
      </trkpt>
      <trkpt lat="47.28128" lon="-2.29532">
        <ele>29</ele>
        <time>2021-10-10T10:10:12.000Z</time>
      </trkpt>
      <trkpt lat="47.28123" lon="-2.29534">
        <ele>29.39999961853</ele>
        <time>2021-10-10T10:10:13.000Z</time>
      </trkpt>
      <trkpt lat="47.28107" lon="-2.29541">
        <ele>29.39999961853</ele>
        <time>2021-10-10T10:10:16.000Z</time>
      </trkpt>
      <trkpt lat="47.28063" lon="-2.29561">
        <ele>29.39999961853</ele>
        <time>2021-10-10T10:10:24.000Z</time>
      </trkpt>
      <trkpt lat="47.28012" lon="-2.29582">
        <ele>29.39999961853</ele>
        <time>2021-10-10T10:10:33.000Z</time>
      </trkpt>
      <trkpt lat="47.2797" lon="-2.29596">
        <ele>29.39999961853</ele>
        <time>2021-10-10T10:10:40.000Z</time>
      </trkpt>
      <trkpt lat="47.27925" lon="-2.29598">
        <ele>29.39999961853</ele>
        <time>2021-10-10T10:10:47.000Z</time>
      </trkpt>
      <trkpt lat="47.27887" lon="-2.29596">
        <ele>29.39999961853</ele>
        <time>2021-10-10T10:10:53.000Z</time>
      </trkpt>
      <trkpt lat="47.27856" lon="-2.29595">
        <ele>29.39999961853</ele>
        <time>2021-10-10T10:10:59.000Z</time>
      </trkpt>
      <trkpt lat="47.27853" lon="-2.29595">
        <ele>29.39999961853</ele>
        <time>2021-10-10T10:11:01.000Z</time>
      </trkpt>
      <trkpt lat="47.27853" lon="-2.29595">
        <ele>29.39999961853</ele>
        <time>2021-10-10T10:11:03.000Z</time>
      </trkpt>
      <trkpt lat="47.27853" lon="-2.29595">
        <ele>29.39999961853</ele>
        <time>2021-10-10T10:11:09.000Z</time>
      </trkpt>
      <trkpt lat="47.2785" lon="-2.29594">
        <ele>29.39999961853</ele>
        <time>2021-10-10T10:11:11.000Z</time>
      </trkpt>
      <trkpt lat="47.27841" lon="-2.29592">
        <ele>29.39999961853</ele>
        <time>2021-10-10T10:11:14.000Z</time>
      </trkpt>
      <trkpt lat="47.27809" lon="-2.29592">
        <ele>29.39999961853</ele>
        <time>2021-10-10T10:11:20.000Z</time>
      </trkpt>
      <trkpt lat="47.27773" lon="-2.29592">
        <ele>29.39999961853</ele>
        <time>2021-10-10T10:11:26.000Z</time>
      </trkpt>
      <trkpt lat="47.27768" lon="-2.2959">
        <ele>29.39999961853</ele>
        <time>2021-10-10T10:11:27.000Z</time>
      </trkpt>
      <trkpt lat="47.27759" lon="-2.29582">
        <ele>29.39999961853</ele>
        <time>2021-10-10T10:11:29.000Z</time>
      </trkpt>
      <trkpt lat="47.27742" lon="-2.29554">
        <ele>29</ele>
        <time>2021-10-10T10:11:33.000Z</time>
      </trkpt>
      <trkpt lat="47.27737" lon="-2.29548">
        <ele>28.60000038147</ele>
        <time>2021-10-10T10:11:34.000Z</time>
      </trkpt>
      <trkpt lat="47.27731" lon="-2.29543">
        <ele>28.200000762939</ele>
        <time>2021-10-10T10:11:35.000Z</time>
      </trkpt>
      <trkpt lat="47.27725" lon="-2.29537">
        <ele>27.799999237061</ele>
        <time>2021-10-10T10:11:36.000Z</time>
      </trkpt>
      <trkpt lat="47.27719" lon="-2.29532">
        <ele>27.39999961853</ele>
        <time>2021-10-10T10:11:37.000Z</time>
      </trkpt>
      <trkpt lat="47.27688" lon="-2.29505">
        <ele>27.39999961853</ele>
        <time>2021-10-10T10:11:42.000Z</time>
      </trkpt>
      <trkpt lat="47.27658" lon="-2.29477">
        <ele>27.39999961853</ele>
        <time>2021-10-10T10:11:47.000Z</time>
      </trkpt>
      <trkpt lat="47.27611" lon="-2.29431">
        <ele>27.39999961853</ele>
        <time>2021-10-10T10:11:55.000Z</time>
      </trkpt>
      <trkpt lat="47.27605" lon="-2.29425">
        <ele>27.39999961853</ele>
        <time>2021-10-10T10:11:56.000Z</time>
      </trkpt>
      <trkpt lat="47.27566" lon="-2.29387">
        <ele>27.39999961853</ele>
        <time>2021-10-10T10:12:03.000Z</time>
      </trkpt>
      <trkpt lat="47.27556" lon="-2.29376">
        <ele>27.39999961853</ele>
        <time>2021-10-10T10:12:05.000Z</time>
      </trkpt>
      <trkpt lat="47.27551" lon="-2.29371">
        <ele>27</ele>
        <time>2021-10-10T10:12:06.000Z</time>
      </trkpt>
      <trkpt lat="47.27546" lon="-2.29367">
        <ele>26.60000038147</ele>
        <time>2021-10-10T10:12:07.000Z</time>
      </trkpt>
      <trkpt lat="47.27541" lon="-2.29363">
        <ele>26.200000762939</ele>
        <time>2021-10-10T10:12:08.000Z</time>
      </trkpt>
      <trkpt lat="47.27535" lon="-2.29358">
        <ele>25.799999237061</ele>
        <time>2021-10-10T10:12:09.000Z</time>
      </trkpt>
      <trkpt lat="47.2753" lon="-2.29353">
        <ele>25.39999961853</ele>
        <time>2021-10-10T10:12:10.000Z</time>
      </trkpt>
      <trkpt lat="47.27513" lon="-2.29339">
        <ele>25.39999961853</ele>
        <time>2021-10-10T10:12:13.000Z</time>
      </trkpt>
      <trkpt lat="47.2748" lon="-2.29312">
        <ele>25.39999961853</ele>
        <time>2021-10-10T10:12:19.000Z</time>
      </trkpt>
      <trkpt lat="47.2744" lon="-2.29279">
        <ele>25.39999961853</ele>
        <time>2021-10-10T10:12:26.000Z</time>
      </trkpt>
      <trkpt lat="47.27393" lon="-2.29242">
        <ele>25.39999961853</ele>
        <time>2021-10-10T10:12:34.000Z</time>
      </trkpt>
      <trkpt lat="47.27357" lon="-2.29215">
        <ele>25.39999961853</ele>
        <time>2021-10-10T10:12:40.000Z</time>
      </trkpt>
      <trkpt lat="47.27312" lon="-2.29189">
        <ele>25.39999961853</ele>
        <time>2021-10-10T10:12:47.000Z</time>
      </trkpt>
      <trkpt lat="47.27264" lon="-2.29159">
        <ele>25.39999961853</ele>
        <time>2021-10-10T10:12:55.000Z</time>
      </trkpt>
      <trkpt lat="47.27224" lon="-2.29134">
        <ele>25.39999961853</ele>
        <time>2021-10-10T10:13:02.000Z</time>
      </trkpt>
      <trkpt lat="47.27207" lon="-2.29126">
        <ele>25.39999961853</ele>
        <time>2021-10-10T10:13:05.000Z</time>
      </trkpt>
      <trkpt lat="47.27193" lon="-2.29125">
        <ele>25.39999961853</ele>
        <time>2021-10-10T10:13:07.000Z</time>
      </trkpt>
      <trkpt lat="47.27174" lon="-2.29135">
        <ele>25.39999961853</ele>
        <time>2021-10-10T10:13:10.000Z</time>
      </trkpt>
      <trkpt lat="47.27164" lon="-2.29145">
        <ele>25.39999961853</ele>
        <time>2021-10-10T10:13:12.000Z</time>
      </trkpt>
      <trkpt lat="47.27156" lon="-2.29158">
        <ele>25.39999961853</ele>
        <time>2021-10-10T10:13:14.000Z</time>
      </trkpt>
      <trkpt lat="47.27152" lon="-2.29164">
        <ele>25.39999961853</ele>
        <time>2021-10-10T10:13:15.000Z</time>
      </trkpt>
      <trkpt lat="47.27125" lon="-2.29203">
        <ele>25.39999961853</ele>
        <time>2021-10-10T10:13:22.000Z</time>
      </trkpt>
      <trkpt lat="47.27107" lon="-2.29232">
        <ele>25.39999961853</ele>
        <time>2021-10-10T10:13:28.000Z</time>
      </trkpt>
      <trkpt lat="47.27102" lon="-2.29241">
        <ele>25.39999961853</ele>
        <time>2021-10-10T10:13:30.000Z</time>
      </trkpt>
      <trkpt lat="47.27097" lon="-2.29264">
        <ele>25.39999961853</ele>
        <time>2021-10-10T10:13:35.000Z</time>
      </trkpt>
      <trkpt lat="47.27099" lon="-2.29276">
        <ele>25.39999961853</ele>
        <time>2021-10-10T10:13:38.000Z</time>
      </trkpt>
      <trkpt lat="47.27101" lon="-2.29279">
        <ele>25.39999961853</ele>
        <time>2021-10-10T10:13:40.000Z</time>
      </trkpt>
      <trkpt lat="47.27102" lon="-2.29281">
        <ele>25.39999961853</ele>
        <time>2021-10-10T10:13:43.000Z</time>
      </trkpt>
      <trkpt lat="47.27102" lon="-2.2928">
        <ele>25.39999961853</ele>
        <time>2021-10-10T10:13:49.000Z</time>
      </trkpt>
      <trkpt lat="47.27102" lon="-2.2928">
        <ele>25.39999961853</ele>
        <time>2021-10-10T10:14:04.000Z</time>
      </trkpt>
      <trkpt lat="47.27102" lon="-2.2928">
        <ele>25.39999961853</ele>
        <time>2021-10-10T10:14:20.000Z</time>
      </trkpt>
      <trkpt lat="47.27103" lon="-2.29281">
        <ele>25.39999961853</ele>
        <time>2021-10-10T10:14:38.000Z</time>
      </trkpt>
      <trkpt lat="47.27103" lon="-2.29281">
        <ele>25.39999961853</ele>
        <time>2021-10-10T10:14:56.000Z</time>
      </trkpt>
      <trkpt lat="47.27103" lon="-2.29281">
        <ele>25.39999961853</ele>
        <time>2021-10-10T10:15:15.000Z</time>
      </trkpt>
      <trkpt lat="47.27103" lon="-2.29281">
        <ele>25.39999961853</ele>
        <time>2021-10-10T10:15:31.000Z</time>
      </trkpt>
      <trkpt lat="47.27103" lon="-2.29281">
        <ele>25.39999961853</ele>
        <time>2021-10-10T10:15:52.000Z</time>
      </trkpt>
      <trkpt lat="47.27103" lon="-2.29281">
        <ele>25.39999961853</ele>
        <time>2021-10-10T10:16:09.000Z</time>
      </trkpt>
      <trkpt lat="47.27103" lon="-2.29281">
        <ele>25.39999961853</ele>
        <time>2021-10-10T10:16:26.000Z</time>
      </trkpt>
      <trkpt lat="47.27103" lon="-2.29281">
        <ele>25.39999961853</ele>
        <time>2021-10-10T10:16:44.000Z</time>
      </trkpt>
      <trkpt lat="47.27103" lon="-2.29281">
        <ele>25.39999961853</ele>
        <time>2021-10-10T10:17:02.000Z</time>
      </trkpt>
      <trkpt lat="47.27103" lon="-2.29281">
        <ele>25.39999961853</ele>
        <time>2021-10-10T10:17:19.000Z</time>
      </trkpt>
      <trkpt lat="47.27103" lon="-2.29281">
        <ele>25.39999961853</ele>
        <time>2021-10-10T10:17:38.000Z</time>
      </trkpt>
      <trkpt lat="47.27102" lon="-2.29281">
        <ele>25.39999961853</ele>
        <time>2021-10-10T10:17:54.000Z</time>
      </trkpt>
      <trkpt lat="47.27102" lon="-2.29281">
        <ele>25.39999961853</ele>
        <time>2021-10-10T10:18:11.000Z</time>
      </trkpt>
      <trkpt lat="47.27102" lon="-2.29282">
        <ele>25.39999961853</ele>
        <time>2021-10-10T10:18:29.000Z</time>
      </trkpt>
      <trkpt lat="47.27102" lon="-2.29282">
        <ele>25.39999961853</ele>
        <time>2021-10-10T10:18:46.000Z</time>
      </trkpt>
      <trkpt lat="47.27102" lon="-2.29282">
        <ele>25.39999961853</ele>
        <time>2021-10-10T10:19:04.000Z</time>
      </trkpt>
      <trkpt lat="47.27102" lon="-2.29282">
        <ele>25.39999961853</ele>
        <time>2021-10-10T10:19:21.000Z</time>
      </trkpt>
      <trkpt lat="47.27102" lon="-2.29282">
        <ele>25.39999961853</ele>
        <time>2021-10-10T10:19:37.000Z</time>
      </trkpt>
      <trkpt lat="47.27103" lon="-2.29282">
        <ele>25.39999961853</ele>
        <time>2021-10-10T10:19:55.000Z</time>
      </trkpt>
      <trkpt lat="47.27103" lon="-2.29282">
        <ele>25.39999961853</ele>
        <time>2021-10-10T10:20:17.000Z</time>
      </trkpt>
      <trkpt lat="47.27103" lon="-2.29282">
        <ele>25.39999961853</ele>
        <time>2021-10-10T10:20:25.000Z</time>
      </trkpt>
      <trkpt lat="47.27103" lon="-2.29282">
        <ele>25.39999961853</ele>
        <time>2021-10-10T10:20:34.000Z</time>
      </trkpt>
      <trkpt lat="47.27103" lon="-2.29282">
        <ele>25.39999961853</ele>
        <time>2021-10-10T10:20:52.000Z</time>
      </trkpt>
      <trkpt lat="47.27103" lon="-2.29282">
        <ele>25.39999961853</ele>
        <time>2021-10-10T10:21:08.000Z</time>
      </trkpt>
      <trkpt lat="47.27103" lon="-2.29282">
        <ele>25.39999961853</ele>
        <time>2021-10-10T10:21:25.000Z</time>
      </trkpt>
      <trkpt lat="47.27103" lon="-2.29282">
        <ele>25.39999961853</ele>
        <time>2021-10-10T10:21:40.000Z</time>
      </trkpt>
      <trkpt lat="47.27103" lon="-2.29282">
        <ele>25.39999961853</ele>
        <time>2021-10-10T10:21:55.000Z</time>
      </trkpt>
      <trkpt lat="47.27103" lon="-2.29282">
        <ele>25.39999961853</ele>
        <time>2021-10-10T10:22:12.000Z</time>
      </trkpt>
      <trkpt lat="47.27103" lon="-2.29282">
        <ele>25.39999961853</ele>
        <time>2021-10-10T10:22:29.000Z</time>
      </trkpt>
      <trkpt lat="47.27103" lon="-2.29282">
        <ele>25.39999961853</ele>
        <time>2021-10-10T10:22:47.000Z</time>
      </trkpt>
      <trkpt lat="47.27104" lon="-2.29283">
        <ele>25.39999961853</ele>
        <time>2021-10-10T10:23:06.000Z</time>
      </trkpt>
      <trkpt lat="47.27104" lon="-2.29283">
        <ele>25.39999961853</ele>
        <time>2021-10-10T10:23:21.000Z</time>
      </trkpt>
      <trkpt lat="47.27104" lon="-2.29283">
        <ele>25.39999961853</ele>
        <time>2021-10-10T10:23:40.000Z</time>
      </trkpt>
      <trkpt lat="47.27104" lon="-2.29282">
        <ele>25.39999961853</ele>
        <time>2021-10-10T10:23:58.000Z</time>
      </trkpt>
      <trkpt lat="47.27104" lon="-2.29282">
        <ele>25.39999961853</ele>
        <time>2021-10-10T10:24:14.000Z</time>
      </trkpt>
      <trkpt lat="47.27104" lon="-2.29283">
        <ele>25.39999961853</ele>
        <time>2021-10-10T10:24:29.000Z</time>
      </trkpt>
      <trkpt lat="47.27104" lon="-2.29283">
        <ele>25.39999961853</ele>
        <time>2021-10-10T10:24:45.000Z</time>
      </trkpt>
      <trkpt lat="47.27104" lon="-2.29283">
        <ele>25.39999961853</ele>
        <time>2021-10-10T10:24:58.000Z</time>
      </trkpt>
      <trkpt lat="47.27104" lon="-2.29283">
        <ele>25.39999961853</ele>
        <time>2021-10-10T10:25:15.000Z</time>
      </trkpt>
      <trkpt lat="47.27104" lon="-2.29283">
        <ele>25.39999961853</ele>
        <time>2021-10-10T10:25:30.000Z</time>
      </trkpt>
      <trkpt lat="47.27104" lon="-2.29283">
        <ele>25.39999961853</ele>
        <time>2021-10-10T10:25:46.000Z</time>
      </trkpt>
      <trkpt lat="47.27104" lon="-2.29283">
        <ele>25.39999961853</ele>
        <time>2021-10-10T10:26:02.000Z</time>
      </trkpt>
      <trkpt lat="47.27104" lon="-2.29283">
        <ele>25.39999961853</ele>
        <time>2021-10-10T10:26:18.000Z</time>
      </trkpt>
      <trkpt lat="47.27104" lon="-2.29283">
        <ele>25.39999961853</ele>
        <time>2021-10-10T10:26:32.000Z</time>
      </trkpt>
      <trkpt lat="47.27104" lon="-2.29283">
        <ele>25.39999961853</ele>
        <time>2021-10-10T10:26:52.000Z</time>
      </trkpt>
      <trkpt lat="47.27104" lon="-2.29282">
        <ele>25.39999961853</ele>
        <time>2021-10-10T10:27:10.000Z</time>
      </trkpt>
      <trkpt lat="47.27104" lon="-2.29282">
        <ele>25.39999961853</ele>
        <time>2021-10-10T10:27:26.000Z</time>
      </trkpt>
      <trkpt lat="47.27104" lon="-2.29282">
        <ele>25.39999961853</ele>
        <time>2021-10-10T10:27:42.000Z</time>
      </trkpt>
      <trkpt lat="47.27104" lon="-2.29282">
        <ele>25.39999961853</ele>
        <time>2021-10-10T10:27:58.000Z</time>
      </trkpt>
      <trkpt lat="47.27104" lon="-2.29282">
        <ele>25.39999961853</ele>
        <time>2021-10-10T10:28:10.000Z</time>
      </trkpt>
      <trkpt lat="47.27104" lon="-2.29282">
        <ele>25.39999961853</ele>
        <time>2021-10-10T10:28:23.000Z</time>
      </trkpt>
      <trkpt lat="47.27104" lon="-2.29282">
        <ele>25.39999961853</ele>
        <time>2021-10-10T10:28:40.000Z</time>
      </trkpt>
      <trkpt lat="47.27104" lon="-2.29282">
        <ele>25.39999961853</ele>
        <time>2021-10-10T10:28:55.000Z</time>
      </trkpt>
      <trkpt lat="47.27104" lon="-2.29281">
        <ele>25.39999961853</ele>
        <time>2021-10-10T10:29:12.000Z</time>
      </trkpt>
      <trkpt lat="47.27104" lon="-2.29281">
        <ele>25.39999961853</ele>
        <time>2021-10-10T10:29:26.000Z</time>
      </trkpt>
      <trkpt lat="47.27104" lon="-2.29281">
        <ele>25.39999961853</ele>
        <time>2021-10-10T10:29:40.000Z</time>
      </trkpt>
      <trkpt lat="47.27104" lon="-2.29281">
        <ele>25.39999961853</ele>
        <time>2021-10-10T10:29:55.000Z</time>
      </trkpt>
      <trkpt lat="47.27104" lon="-2.29281">
        <ele>25.39999961853</ele>
        <time>2021-10-10T10:30:13.000Z</time>
      </trkpt>
      <trkpt lat="47.27104" lon="-2.29281">
        <ele>25.39999961853</ele>
        <time>2021-10-10T10:30:27.000Z</time>
      </trkpt>
      <trkpt lat="47.27104" lon="-2.29281">
        <ele>25.39999961853</ele>
        <time>2021-10-10T10:30:45.000Z</time>
      </trkpt>
      <trkpt lat="47.27104" lon="-2.29281">
        <ele>25.39999961853</ele>
        <time>2021-10-10T10:31:01.000Z</time>
      </trkpt>
      <trkpt lat="47.27104" lon="-2.29281">
        <ele>25.39999961853</ele>
        <time>2021-10-10T10:31:17.000Z</time>
      </trkpt>
      <trkpt lat="47.27104" lon="-2.29281">
        <ele>25.39999961853</ele>
        <time>2021-10-10T10:31:36.000Z</time>
      </trkpt>
      <trkpt lat="47.27104" lon="-2.29282">
        <ele>25.39999961853</ele>
        <time>2021-10-10T10:31:51.000Z</time>
      </trkpt>
      <trkpt lat="47.27104" lon="-2.29282">
        <ele>25.39999961853</ele>
        <time>2021-10-10T10:32:09.000Z</time>
      </trkpt>
      <trkpt lat="47.27104" lon="-2.29282">
        <ele>25.39999961853</ele>
        <time>2021-10-10T10:32:22.000Z</time>
      </trkpt>
      <trkpt lat="47.27103" lon="-2.29281">
        <ele>25.39999961853</ele>
        <time>2021-10-10T10:32:41.000Z</time>
      </trkpt>
      <trkpt lat="47.27103" lon="-2.29281">
        <ele>25.39999961853</ele>
        <time>2021-10-10T10:32:59.000Z</time>
      </trkpt>
      <trkpt lat="47.27103" lon="-2.29281">
        <ele>25.39999961853</ele>
        <time>2021-10-10T10:33:17.000Z</time>
      </trkpt>
      <trkpt lat="47.27103" lon="-2.29281">
        <ele>25.39999961853</ele>
        <time>2021-10-10T10:33:33.000Z</time>
      </trkpt>
      <trkpt lat="47.27103" lon="-2.29281">
        <ele>25.39999961853</ele>
        <time>2021-10-10T10:33:50.000Z</time>
      </trkpt>
      <trkpt lat="47.27103" lon="-2.29281">
        <ele>25.39999961853</ele>
        <time>2021-10-10T10:34:07.000Z</time>
      </trkpt>
      <trkpt lat="47.27103" lon="-2.29281">
        <ele>25.39999961853</ele>
        <time>2021-10-10T10:34:23.000Z</time>
      </trkpt>
      <trkpt lat="47.27103" lon="-2.29281">
        <ele>25.39999961853</ele>
        <time>2021-10-10T10:34:37.000Z</time>
      </trkpt>
      <trkpt lat="47.27103" lon="-2.29281">
        <ele>25.39999961853</ele>
        <time>2021-10-10T10:34:55.000Z</time>
      </trkpt>
      <trkpt lat="47.27103" lon="-2.29281">
        <ele>25.39999961853</ele>
        <time>2021-10-10T10:35:11.000Z</time>
      </trkpt>
      <trkpt lat="47.27103" lon="-2.29281">
        <ele>25.39999961853</ele>
        <time>2021-10-10T10:35:27.000Z</time>
      </trkpt>
      <trkpt lat="47.27103" lon="-2.29281">
        <ele>25.39999961853</ele>
        <time>2021-10-10T10:35:45.000Z</time>
      </trkpt>
      <trkpt lat="47.27102" lon="-2.29282">
        <ele>25.39999961853</ele>
        <time>2021-10-10T10:36:00.000Z</time>
      </trkpt>
      <trkpt lat="47.27102" lon="-2.29282">
        <ele>25.39999961853</ele>
        <time>2021-10-10T10:36:17.000Z</time>
      </trkpt>
      <trkpt lat="47.27102" lon="-2.29282">
        <ele>25.39999961853</ele>
        <time>2021-10-10T10:36:33.000Z</time>
      </trkpt>
      <trkpt lat="47.27102" lon="-2.29282">
        <ele>25.39999961853</ele>
        <time>2021-10-10T10:36:48.000Z</time>
      </trkpt>
      <trkpt lat="47.27102" lon="-2.29282">
        <ele>25.39999961853</ele>
        <time>2021-10-10T10:36:55.000Z</time>
      </trkpt>
      <trkpt lat="47.27102" lon="-2.29282">
        <ele>25.39999961853</ele>
        <time>2021-10-10T10:37:03.000Z</time>
      </trkpt>
      <trkpt lat="47.27102" lon="-2.29282">
        <ele>25.39999961853</ele>
        <time>2021-10-10T10:37:17.000Z</time>
      </trkpt>
      <trkpt lat="47.27102" lon="-2.29282">
        <ele>25.39999961853</ele>
        <time>2021-10-10T10:37:35.000Z</time>
      </trkpt>
      <trkpt lat="47.27101" lon="-2.29282">
        <ele>25.39999961853</ele>
        <time>2021-10-10T10:37:49.000Z</time>
      </trkpt>
      <trkpt lat="47.27101" lon="-2.29282">
        <ele>25.39999961853</ele>
        <time>2021-10-10T10:38:04.000Z</time>
      </trkpt>
      <trkpt lat="47.27101" lon="-2.29282">
        <ele>25.39999961853</ele>
        <time>2021-10-10T10:38:21.000Z</time>
      </trkpt>
      <trkpt lat="47.27101" lon="-2.29283">
        <ele>25.39999961853</ele>
        <time>2021-10-10T10:38:39.000Z</time>
      </trkpt>
      <trkpt lat="47.27101" lon="-2.29283">
        <ele>25.39999961853</ele>
        <time>2021-10-10T10:38:54.000Z</time>
      </trkpt>
      <trkpt lat="47.27101" lon="-2.29283">
        <ele>25.39999961853</ele>
        <time>2021-10-10T10:39:08.000Z</time>
      </trkpt>
      <trkpt lat="47.27101" lon="-2.29283">
        <ele>25.39999961853</ele>
        <time>2021-10-10T10:39:25.000Z</time>
      </trkpt>
      <trkpt lat="47.27101" lon="-2.29283">
        <ele>25.39999961853</ele>
        <time>2021-10-10T10:39:44.000Z</time>
      </trkpt>
      <trkpt lat="47.27101" lon="-2.29283">
        <ele>25.39999961853</ele>
        <time>2021-10-10T10:40:01.000Z</time>
      </trkpt>
      <trkpt lat="47.27101" lon="-2.29283">
        <ele>25.39999961853</ele>
        <time>2021-10-10T10:40:17.000Z</time>
      </trkpt>
      <trkpt lat="47.27101" lon="-2.29283">
        <ele>25.39999961853</ele>
        <time>2021-10-10T10:40:31.000Z</time>
      </trkpt>
      <trkpt lat="47.27101" lon="-2.29283">
        <ele>25.39999961853</ele>
        <time>2021-10-10T10:40:48.000Z</time>
      </trkpt>
      <trkpt lat="47.27101" lon="-2.29282">
        <ele>25.39999961853</ele>
        <time>2021-10-10T10:41:06.000Z</time>
      </trkpt>
      <trkpt lat="47.27101" lon="-2.29282">
        <ele>25.39999961853</ele>
        <time>2021-10-10T10:41:26.000Z</time>
      </trkpt>
      <trkpt lat="47.27101" lon="-2.29282">
        <ele>25.39999961853</ele>
        <time>2021-10-10T10:41:45.000Z</time>
      </trkpt>
      <trkpt lat="47.27101" lon="-2.29282">
        <ele>25.39999961853</ele>
        <time>2021-10-10T10:42:04.000Z</time>
      </trkpt>
      <trkpt lat="47.27101" lon="-2.29282">
        <ele>25.39999961853</ele>
        <time>2021-10-10T10:42:19.000Z</time>
      </trkpt>
      <trkpt lat="47.27101" lon="-2.29282">
        <ele>25.39999961853</ele>
        <time>2021-10-10T10:42:37.000Z</time>
      </trkpt>
      <trkpt lat="47.27101" lon="-2.29282">
        <ele>25.39999961853</ele>
        <time>2021-10-10T10:42:53.000Z</time>
      </trkpt>
      <trkpt lat="47.27102" lon="-2.29282">
        <ele>25.39999961853</ele>
        <time>2021-10-10T10:43:10.000Z</time>
      </trkpt>
      <trkpt lat="47.27102" lon="-2.29282">
        <ele>25.39999961853</ele>
        <time>2021-10-10T10:43:28.000Z</time>
      </trkpt>
      <trkpt lat="47.27101" lon="-2.29282">
        <ele>25.39999961853</ele>
        <time>2021-10-10T10:43:45.000Z</time>
      </trkpt>
      <trkpt lat="47.27101" lon="-2.29282">
        <ele>25.39999961853</ele>
        <time>2021-10-10T10:44:01.000Z</time>
      </trkpt>
      <trkpt lat="47.27101" lon="-2.29282">
        <ele>25.39999961853</ele>
        <time>2021-10-10T10:44:17.000Z</time>
      </trkpt>
      <trkpt lat="47.27101" lon="-2.29282">
        <ele>25.39999961853</ele>
        <time>2021-10-10T10:44:32.000Z</time>
      </trkpt>
      <trkpt lat="47.27101" lon="-2.29282">
        <ele>25.39999961853</ele>
        <time>2021-10-10T10:44:49.000Z</time>
      </trkpt>
      <trkpt lat="47.27101" lon="-2.29281">
        <ele>25.39999961853</ele>
        <time>2021-10-10T10:45:05.000Z</time>
      </trkpt>
      <trkpt lat="47.27101" lon="-2.29281">
        <ele>25.39999961853</ele>
        <time>2021-10-10T10:45:23.000Z</time>
      </trkpt>
      <trkpt lat="47.27101" lon="-2.29281">
        <ele>25.39999961853</ele>
        <time>2021-10-10T10:45:39.000Z</time>
      </trkpt>
      <trkpt lat="47.27101" lon="-2.29281">
        <ele>25.39999961853</ele>
        <time>2021-10-10T10:45:56.000Z</time>
      </trkpt>
      <trkpt lat="47.27101" lon="-2.29281">
        <ele>25.39999961853</ele>
        <time>2021-10-10T10:46:13.000Z</time>
      </trkpt>
      <trkpt lat="47.27101" lon="-2.29281">
        <ele>25.39999961853</ele>
        <time>2021-10-10T10:46:29.000Z</time>
      </trkpt>
      <trkpt lat="47.27101" lon="-2.29281">
        <ele>25.39999961853</ele>
        <time>2021-10-10T10:46:46.000Z</time>
      </trkpt>
      <trkpt lat="47.27101" lon="-2.29281">
        <ele>25.39999961853</ele>
        <time>2021-10-10T10:47:04.000Z</time>
      </trkpt>
      <trkpt lat="47.27101" lon="-2.2928">
        <ele>25.39999961853</ele>
        <time>2021-10-10T10:47:21.000Z</time>
      </trkpt>
      <trkpt lat="47.27101" lon="-2.2928">
        <ele>25.39999961853</ele>
        <time>2021-10-10T10:47:37.000Z</time>
      </trkpt>
      <trkpt lat="47.27101" lon="-2.2928">
        <ele>25.39999961853</ele>
        <time>2021-10-10T10:47:53.000Z</time>
      </trkpt>
      <trkpt lat="47.27101" lon="-2.2928">
        <ele>25.39999961853</ele>
        <time>2021-10-10T10:48:08.000Z</time>
      </trkpt>
      <trkpt lat="47.27101" lon="-2.2928">
        <ele>25.39999961853</ele>
        <time>2021-10-10T10:48:24.000Z</time>
      </trkpt>
      <trkpt lat="47.27102" lon="-2.2928">
        <ele>25.39999961853</ele>
        <time>2021-10-10T10:48:39.000Z</time>
      </trkpt>
      <trkpt lat="47.27102" lon="-2.2928">
        <ele>25.39999961853</ele>
        <time>2021-10-10T10:48:55.000Z</time>
      </trkpt>
      <trkpt lat="47.27102" lon="-2.2928">
        <ele>25.39999961853</ele>
        <time>2021-10-10T10:49:11.000Z</time>
      </trkpt>
      <trkpt lat="47.27102" lon="-2.2928">
        <ele>25.39999961853</ele>
        <time>2021-10-10T10:49:28.000Z</time>
      </trkpt>
      <trkpt lat="47.27102" lon="-2.2928">
        <ele>25.39999961853</ele>
        <time>2021-10-10T10:49:46.000Z</time>
      </trkpt>
      <trkpt lat="47.27102" lon="-2.2928">
        <ele>25.39999961853</ele>
        <time>2021-10-10T10:50:01.000Z</time>
      </trkpt>
      <trkpt lat="47.27102" lon="-2.2928">
        <ele>25.39999961853</ele>
        <time>2021-10-10T10:50:20.000Z</time>
      </trkpt>
      <trkpt lat="47.27102" lon="-2.2928">
        <ele>25.39999961853</ele>
        <time>2021-10-10T10:50:36.000Z</time>
      </trkpt>
      <trkpt lat="47.27102" lon="-2.2928">
        <ele>25.39999961853</ele>
        <time>2021-10-10T10:50:55.000Z</time>
      </trkpt>
      <trkpt lat="47.27102" lon="-2.2928">
        <ele>25.39999961853</ele>
        <time>2021-10-10T10:51:14.000Z</time>
      </trkpt>
      <trkpt lat="47.27102" lon="-2.2928">
        <ele>25.39999961853</ele>
        <time>2021-10-10T10:51:32.000Z</time>
      </trkpt>
      <trkpt lat="47.27102" lon="-2.2928">
        <ele>25.39999961853</ele>
        <time>2021-10-10T10:51:50.000Z</time>
      </trkpt>
      <trkpt lat="47.27102" lon="-2.2928">
        <ele>25.39999961853</ele>
        <time>2021-10-10T10:52:05.000Z</time>
      </trkpt>
      <trkpt lat="47.27102" lon="-2.2928">
        <ele>25.39999961853</ele>
        <time>2021-10-10T10:52:19.000Z</time>
      </trkpt>
      <trkpt lat="47.27102" lon="-2.2928">
        <ele>25.39999961853</ele>
        <time>2021-10-10T10:52:33.000Z</time>
      </trkpt>
      <trkpt lat="47.27102" lon="-2.2928">
        <ele>25.39999961853</ele>
        <time>2021-10-10T10:52:49.000Z</time>
      </trkpt>
      <trkpt lat="47.27102" lon="-2.2928">
        <ele>25.39999961853</ele>
        <time>2021-10-10T10:53:07.000Z</time>
      </trkpt>
      <trkpt lat="47.27102" lon="-2.2928">
        <ele>25.39999961853</ele>
        <time>2021-10-10T10:53:25.000Z</time>
      </trkpt>
      <trkpt lat="47.27102" lon="-2.2928">
        <ele>25.39999961853</ele>
        <time>2021-10-10T10:53:43.000Z</time>
      </trkpt>
      <trkpt lat="47.27102" lon="-2.2928">
        <ele>25.39999961853</ele>
        <time>2021-10-10T10:54:00.000Z</time>
      </trkpt>
      <trkpt lat="47.27102" lon="-2.2928">
        <ele>25.39999961853</ele>
        <time>2021-10-10T10:54:16.000Z</time>
      </trkpt>
      <trkpt lat="47.27102" lon="-2.29281">
        <ele>25.39999961853</ele>
        <time>2021-10-10T10:54:32.000Z</time>
      </trkpt>
      <trkpt lat="47.27102" lon="-2.29281">
        <ele>25.39999961853</ele>
        <time>2021-10-10T10:54:48.000Z</time>
      </trkpt>
      <trkpt lat="47.27102" lon="-2.29281">
        <ele>25.39999961853</ele>
        <time>2021-10-10T10:55:04.000Z</time>
      </trkpt>
      <trkpt lat="47.27102" lon="-2.2928">
        <ele>25.39999961853</ele>
        <time>2021-10-10T10:55:23.000Z</time>
      </trkpt>
      <trkpt lat="47.27102" lon="-2.2928">
        <ele>25.39999961853</ele>
        <time>2021-10-10T10:55:39.000Z</time>
      </trkpt>
      <trkpt lat="47.27102" lon="-2.2928">
        <ele>25.39999961853</ele>
        <time>2021-10-10T10:55:57.000Z</time>
      </trkpt>
      <trkpt lat="47.27102" lon="-2.2928">
        <ele>25.39999961853</ele>
        <time>2021-10-10T10:56:13.000Z</time>
      </trkpt>
      <trkpt lat="47.27103" lon="-2.2928">
        <ele>25.39999961853</ele>
        <time>2021-10-10T10:56:26.000Z</time>
      </trkpt>
      <trkpt lat="47.27103" lon="-2.2928">
        <ele>25.39999961853</ele>
        <time>2021-10-10T10:56:40.000Z</time>
      </trkpt>
      <trkpt lat="47.27103" lon="-2.2928">
        <ele>25.39999961853</ele>
        <time>2021-10-10T10:56:57.000Z</time>
      </trkpt>
      <trkpt lat="47.27103" lon="-2.2928">
        <ele>25.39999961853</ele>
        <time>2021-10-10T10:57:00.000Z</time>
      </trkpt>
    </trkseg>
  </trk>
</gpx>